<?xml version="1.0" encoding="UTF-8" standalone="no" ?>
<gpx xmlns="http://www.topografix.com/GPX/1/1" xmlns:xsi="http://www.w3.org/2001/XMLSchema-instance" xsi:schemaLocation="http://www.topografix.com/GPX/1/1 http://www.topografix.com/GPX/1/1/gpx.xsd" version="1.1" creator="VisuGPX - https://www.visugpx.com">
  <metadata>
    <name>Pornichet 21/04/2022</name>
    <desc><![CDATA[Sortie jeudi 21 avril 2022]]></desc>
  </metadata>
  <trk>
    <name><![CDATA[Pornichet Cyclisme]]></name>
    <trkseg>
      <trkpt lat="47.26402" lon="-2.31549">
        <ele>36.200000762939</ele>
        <time>2022-04-21T07:17:17.000Z</time>
      </trkpt>
      <trkpt lat="47.26402" lon="-2.31561">
        <ele>36.200000762939</ele>
        <time>2022-04-21T07:17:20.000Z</time>
      </trkpt>
      <trkpt lat="47.26402" lon="-2.31565">
        <ele>36.200000762939</ele>
        <time>2022-04-21T07:17:21.000Z</time>
      </trkpt>
      <trkpt lat="47.26401" lon="-2.31569">
        <ele>35.799999237061</ele>
        <time>2022-04-21T07:17:22.000Z</time>
      </trkpt>
      <trkpt lat="47.26401" lon="-2.31601">
        <ele>35.799999237061</ele>
        <time>2022-04-21T07:17:29.000Z</time>
      </trkpt>
      <trkpt lat="47.26402" lon="-2.31633">
        <ele>35.799999237061</ele>
        <time>2022-04-21T07:17:35.000Z</time>
      </trkpt>
      <trkpt lat="47.26401" lon="-2.31651">
        <ele>35.799999237061</ele>
        <time>2022-04-21T07:17:39.000Z</time>
      </trkpt>
      <trkpt lat="47.26398" lon="-2.31653">
        <ele>35.799999237061</ele>
        <time>2022-04-21T07:17:40.000Z</time>
      </trkpt>
      <trkpt lat="47.2638" lon="-2.31664">
        <ele>35.799999237061</ele>
        <time>2022-04-21T07:17:45.000Z</time>
      </trkpt>
      <trkpt lat="47.26376" lon="-2.31667">
        <ele>35.599998474121</ele>
        <time>2022-04-21T07:17:46.000Z</time>
      </trkpt>
      <trkpt lat="47.26371" lon="-2.3167">
        <ele>35.400001525879</ele>
        <time>2022-04-21T07:17:47.000Z</time>
      </trkpt>
      <trkpt lat="47.26367" lon="-2.31674">
        <ele>35.200000762939</ele>
        <time>2022-04-21T07:17:48.000Z</time>
      </trkpt>
      <trkpt lat="47.26363" lon="-2.31677">
        <ele>34.799999237061</ele>
        <time>2022-04-21T07:17:49.000Z</time>
      </trkpt>
      <trkpt lat="47.26358" lon="-2.31679">
        <ele>34.599998474121</ele>
        <time>2022-04-21T07:17:50.000Z</time>
      </trkpt>
      <trkpt lat="47.26333" lon="-2.31692">
        <ele>34.599998474121</ele>
        <time>2022-04-21T07:17:55.000Z</time>
      </trkpt>
      <trkpt lat="47.26312" lon="-2.31702">
        <ele>34.599998474121</ele>
        <time>2022-04-21T07:17:59.000Z</time>
      </trkpt>
      <trkpt lat="47.26308" lon="-2.31706">
        <ele>34.200000762939</ele>
        <time>2022-04-21T07:18:00.000Z</time>
      </trkpt>
      <trkpt lat="47.26304" lon="-2.31709">
        <ele>33.799999237061</ele>
        <time>2022-04-21T07:18:01.000Z</time>
      </trkpt>
      <trkpt lat="47.263" lon="-2.31714">
        <ele>33.400001525879</ele>
        <time>2022-04-21T07:18:02.000Z</time>
      </trkpt>
      <trkpt lat="47.26298" lon="-2.31718">
        <ele>32.599998474121</ele>
        <time>2022-04-21T07:18:03.000Z</time>
      </trkpt>
      <trkpt lat="47.26297" lon="-2.31724">
        <ele>32.599998474121</ele>
        <time>2022-04-21T07:18:04.000Z</time>
      </trkpt>
      <trkpt lat="47.263" lon="-2.3175">
        <ele>32.599998474121</ele>
        <time>2022-04-21T07:18:08.000Z</time>
      </trkpt>
      <trkpt lat="47.26302" lon="-2.31798">
        <ele>32.599998474121</ele>
        <time>2022-04-21T07:18:15.000Z</time>
      </trkpt>
      <trkpt lat="47.26302" lon="-2.31806">
        <ele>32.599998474121</ele>
        <time>2022-04-21T07:18:16.000Z</time>
      </trkpt>
      <trkpt lat="47.26298" lon="-2.31842">
        <ele>32.599998474121</ele>
        <time>2022-04-21T07:18:21.000Z</time>
      </trkpt>
      <trkpt lat="47.26296" lon="-2.31864">
        <ele>32.599998474121</ele>
        <time>2022-04-21T07:18:24.000Z</time>
      </trkpt>
      <trkpt lat="47.26291" lon="-2.31875">
        <ele>32.599998474121</ele>
        <time>2022-04-21T07:18:26.000Z</time>
      </trkpt>
      <trkpt lat="47.26284" lon="-2.31883">
        <ele>32.200000762939</ele>
        <time>2022-04-21T07:18:28.000Z</time>
      </trkpt>
      <trkpt lat="47.2628" lon="-2.31887">
        <ele>31.799999237061</ele>
        <time>2022-04-21T07:18:29.000Z</time>
      </trkpt>
      <trkpt lat="47.26277" lon="-2.31891">
        <ele>31.39999961853</ele>
        <time>2022-04-21T07:18:30.000Z</time>
      </trkpt>
      <trkpt lat="47.26273" lon="-2.31896">
        <ele>30.799999237061</ele>
        <time>2022-04-21T07:18:31.000Z</time>
      </trkpt>
      <trkpt lat="47.2627" lon="-2.31901">
        <ele>30.39999961853</ele>
        <time>2022-04-21T07:18:32.000Z</time>
      </trkpt>
      <trkpt lat="47.26258" lon="-2.31922">
        <ele>30.39999961853</ele>
        <time>2022-04-21T07:18:36.000Z</time>
      </trkpt>
      <trkpt lat="47.26245" lon="-2.31948">
        <ele>30.39999961853</ele>
        <time>2022-04-21T07:18:41.000Z</time>
      </trkpt>
      <trkpt lat="47.26242" lon="-2.31953">
        <ele>30.39999961853</ele>
        <time>2022-04-21T07:18:42.000Z</time>
      </trkpt>
      <trkpt lat="47.26234" lon="-2.31961">
        <ele>30.39999961853</ele>
        <time>2022-04-21T07:18:45.000Z</time>
      </trkpt>
      <trkpt lat="47.26219" lon="-2.31975">
        <ele>30.39999961853</ele>
        <time>2022-04-21T07:18:50.000Z</time>
      </trkpt>
      <trkpt lat="47.26201" lon="-2.3199">
        <ele>30.39999961853</ele>
        <time>2022-04-21T07:18:55.000Z</time>
      </trkpt>
      <trkpt lat="47.26199" lon="-2.31994">
        <ele>30.39999961853</ele>
        <time>2022-04-21T07:18:56.000Z</time>
      </trkpt>
      <trkpt lat="47.26199" lon="-2.32002">
        <ele>30.39999961853</ele>
        <time>2022-04-21T07:18:58.000Z</time>
      </trkpt>
      <trkpt lat="47.26197" lon="-2.32004">
        <ele>30.39999961853</ele>
        <time>2022-04-21T07:18:59.000Z</time>
      </trkpt>
      <trkpt lat="47.26192" lon="-2.32007">
        <ele>30.39999961853</ele>
        <time>2022-04-21T07:19:01.000Z</time>
      </trkpt>
      <trkpt lat="47.2618" lon="-2.32007">
        <ele>30.39999961853</ele>
        <time>2022-04-21T07:19:05.000Z</time>
      </trkpt>
      <trkpt lat="47.26175" lon="-2.32008">
        <ele>30.39999961853</ele>
        <time>2022-04-21T07:19:07.000Z</time>
      </trkpt>
      <trkpt lat="47.26163" lon="-2.32022">
        <ele>30.39999961853</ele>
        <time>2022-04-21T07:19:11.000Z</time>
      </trkpt>
      <trkpt lat="47.26149" lon="-2.3205">
        <ele>30.39999961853</ele>
        <time>2022-04-21T07:19:17.000Z</time>
      </trkpt>
      <trkpt lat="47.2614" lon="-2.3208">
        <ele>30.39999961853</ele>
        <time>2022-04-21T07:19:23.000Z</time>
      </trkpt>
      <trkpt lat="47.26133" lon="-2.32096">
        <ele>30.39999961853</ele>
        <time>2022-04-21T07:19:26.000Z</time>
      </trkpt>
      <trkpt lat="47.26129" lon="-2.32114">
        <ele>30.39999961853</ele>
        <time>2022-04-21T07:19:29.000Z</time>
      </trkpt>
      <trkpt lat="47.26121" lon="-2.32139">
        <ele>30.39999961853</ele>
        <time>2022-04-21T07:19:33.000Z</time>
      </trkpt>
      <trkpt lat="47.26114" lon="-2.32157">
        <ele>30.39999961853</ele>
        <time>2022-04-21T07:19:36.000Z</time>
      </trkpt>
      <trkpt lat="47.26094" lon="-2.32205">
        <ele>30.39999961853</ele>
        <time>2022-04-21T07:19:44.000Z</time>
      </trkpt>
      <trkpt lat="47.26091" lon="-2.3221">
        <ele>30.39999961853</ele>
        <time>2022-04-21T07:19:45.000Z</time>
      </trkpt>
      <trkpt lat="47.26072" lon="-2.32235">
        <ele>30.39999961853</ele>
        <time>2022-04-21T07:19:50.000Z</time>
      </trkpt>
      <trkpt lat="47.26056" lon="-2.32252">
        <ele>30.39999961853</ele>
        <time>2022-04-21T07:19:54.000Z</time>
      </trkpt>
      <trkpt lat="47.26048" lon="-2.32261">
        <ele>30.39999961853</ele>
        <time>2022-04-21T07:19:56.000Z</time>
      </trkpt>
      <trkpt lat="47.26019" lon="-2.32293">
        <ele>30.39999961853</ele>
        <time>2022-04-21T07:20:03.000Z</time>
      </trkpt>
      <trkpt lat="47.26011" lon="-2.32302">
        <ele>30.39999961853</ele>
        <time>2022-04-21T07:20:05.000Z</time>
      </trkpt>
      <trkpt lat="47.25994" lon="-2.32321">
        <ele>30.39999961853</ele>
        <time>2022-04-21T07:20:09.000Z</time>
      </trkpt>
      <trkpt lat="47.25966" lon="-2.32358">
        <ele>30.39999961853</ele>
        <time>2022-04-21T07:20:16.000Z</time>
      </trkpt>
      <trkpt lat="47.25936" lon="-2.32399">
        <ele>30.39999961853</ele>
        <time>2022-04-21T07:20:24.000Z</time>
      </trkpt>
      <trkpt lat="47.25906" lon="-2.32438">
        <ele>30.39999961853</ele>
        <time>2022-04-21T07:20:32.000Z</time>
      </trkpt>
      <trkpt lat="47.25899" lon="-2.32456">
        <ele>30.39999961853</ele>
        <time>2022-04-21T07:20:36.000Z</time>
      </trkpt>
      <trkpt lat="47.25906" lon="-2.32466">
        <ele>30.39999961853</ele>
        <time>2022-04-21T07:20:39.000Z</time>
      </trkpt>
      <trkpt lat="47.25921" lon="-2.32489">
        <ele>30.39999961853</ele>
        <time>2022-04-21T07:20:44.000Z</time>
      </trkpt>
      <trkpt lat="47.25931" lon="-2.32522">
        <ele>30.39999961853</ele>
        <time>2022-04-21T07:20:49.000Z</time>
      </trkpt>
      <trkpt lat="47.25946" lon="-2.32575">
        <ele>30.39999961853</ele>
        <time>2022-04-21T07:20:57.000Z</time>
      </trkpt>
      <trkpt lat="47.2595" lon="-2.32588">
        <ele>30.39999961853</ele>
        <time>2022-04-21T07:20:59.000Z</time>
      </trkpt>
      <trkpt lat="47.25956" lon="-2.32614">
        <ele>30.39999961853</ele>
        <time>2022-04-21T07:21:03.000Z</time>
      </trkpt>
      <trkpt lat="47.25957" lon="-2.32622">
        <ele>30.39999961853</ele>
        <time>2022-04-21T07:21:04.000Z</time>
      </trkpt>
      <trkpt lat="47.2596" lon="-2.3265">
        <ele>30.39999961853</ele>
        <time>2022-04-21T07:21:08.000Z</time>
      </trkpt>
      <trkpt lat="47.25969" lon="-2.32653">
        <ele>30.39999961853</ele>
        <time>2022-04-21T07:21:11.000Z</time>
      </trkpt>
      <trkpt lat="47.25987" lon="-2.32653">
        <ele>30.39999961853</ele>
        <time>2022-04-21T07:21:16.000Z</time>
      </trkpt>
      <trkpt lat="47.25991" lon="-2.32653">
        <ele>30.39999961853</ele>
        <time>2022-04-21T07:21:17.000Z</time>
      </trkpt>
      <trkpt lat="47.26022" lon="-2.32649">
        <ele>30.39999961853</ele>
        <time>2022-04-21T07:21:24.000Z</time>
      </trkpt>
      <trkpt lat="47.26057" lon="-2.32643">
        <ele>30.39999961853</ele>
        <time>2022-04-21T07:21:32.000Z</time>
      </trkpt>
      <trkpt lat="47.26093" lon="-2.3264">
        <ele>30.39999961853</ele>
        <time>2022-04-21T07:21:40.000Z</time>
      </trkpt>
      <trkpt lat="47.26128" lon="-2.32639">
        <ele>30.39999961853</ele>
        <time>2022-04-21T07:21:48.000Z</time>
      </trkpt>
      <trkpt lat="47.26163" lon="-2.32651">
        <ele>30.39999961853</ele>
        <time>2022-04-21T07:21:56.000Z</time>
      </trkpt>
      <trkpt lat="47.2618" lon="-2.32662">
        <ele>30.39999961853</ele>
        <time>2022-04-21T07:22:00.000Z</time>
      </trkpt>
      <trkpt lat="47.26192" lon="-2.32674">
        <ele>30.39999961853</ele>
        <time>2022-04-21T07:22:03.000Z</time>
      </trkpt>
      <trkpt lat="47.26208" lon="-2.32688">
        <ele>30.39999961853</ele>
        <time>2022-04-21T07:22:07.000Z</time>
      </trkpt>
      <trkpt lat="47.2622" lon="-2.32702">
        <ele>30.39999961853</ele>
        <time>2022-04-21T07:22:10.000Z</time>
      </trkpt>
      <trkpt lat="47.2625" lon="-2.32747">
        <ele>30.39999961853</ele>
        <time>2022-04-21T07:22:18.000Z</time>
      </trkpt>
      <trkpt lat="47.26265" lon="-2.3277">
        <ele>30.39999961853</ele>
        <time>2022-04-21T07:22:22.000Z</time>
      </trkpt>
      <trkpt lat="47.26269" lon="-2.32784">
        <ele>30.39999961853</ele>
        <time>2022-04-21T07:22:24.000Z</time>
      </trkpt>
      <trkpt lat="47.26272" lon="-2.32798">
        <ele>30.39999961853</ele>
        <time>2022-04-21T07:22:26.000Z</time>
      </trkpt>
      <trkpt lat="47.26279" lon="-2.32826">
        <ele>30.39999961853</ele>
        <time>2022-04-21T07:22:30.000Z</time>
      </trkpt>
      <trkpt lat="47.26283" lon="-2.3284">
        <ele>30.39999961853</ele>
        <time>2022-04-21T07:22:32.000Z</time>
      </trkpt>
      <trkpt lat="47.26289" lon="-2.32852">
        <ele>30.39999961853</ele>
        <time>2022-04-21T07:22:34.000Z</time>
      </trkpt>
      <trkpt lat="47.26307" lon="-2.32865">
        <ele>30.39999961853</ele>
        <time>2022-04-21T07:22:38.000Z</time>
      </trkpt>
      <trkpt lat="47.26312" lon="-2.32868">
        <ele>30.39999961853</ele>
        <time>2022-04-21T07:22:39.000Z</time>
      </trkpt>
      <trkpt lat="47.26318" lon="-2.32879">
        <ele>30</ele>
        <time>2022-04-21T07:22:41.000Z</time>
      </trkpt>
      <trkpt lat="47.26321" lon="-2.32886">
        <ele>29.60000038147</ele>
        <time>2022-04-21T07:22:42.000Z</time>
      </trkpt>
      <trkpt lat="47.26323" lon="-2.32892">
        <ele>29.200000762939</ele>
        <time>2022-04-21T07:22:43.000Z</time>
      </trkpt>
      <trkpt lat="47.26325" lon="-2.32899">
        <ele>28.799999237061</ele>
        <time>2022-04-21T07:22:44.000Z</time>
      </trkpt>
      <trkpt lat="47.26328" lon="-2.32906">
        <ele>28.39999961853</ele>
        <time>2022-04-21T07:22:45.000Z</time>
      </trkpt>
      <trkpt lat="47.26332" lon="-2.3292">
        <ele>28.39999961853</ele>
        <time>2022-04-21T07:22:47.000Z</time>
      </trkpt>
      <trkpt lat="47.26334" lon="-2.32927">
        <ele>28.39999961853</ele>
        <time>2022-04-21T07:22:48.000Z</time>
      </trkpt>
      <trkpt lat="47.26348" lon="-2.32966">
        <ele>28.39999961853</ele>
        <time>2022-04-21T07:22:54.000Z</time>
      </trkpt>
      <trkpt lat="47.26351" lon="-2.32971">
        <ele>28.39999961853</ele>
        <time>2022-04-21T07:22:55.000Z</time>
      </trkpt>
      <trkpt lat="47.26362" lon="-2.32986">
        <ele>28.39999961853</ele>
        <time>2022-04-21T07:22:58.000Z</time>
      </trkpt>
      <trkpt lat="47.26364" lon="-2.32992">
        <ele>28.39999961853</ele>
        <time>2022-04-21T07:22:59.000Z</time>
      </trkpt>
      <trkpt lat="47.26365" lon="-2.33012">
        <ele>28.39999961853</ele>
        <time>2022-04-21T07:23:02.000Z</time>
      </trkpt>
      <trkpt lat="47.26365" lon="-2.33019">
        <ele>28.39999961853</ele>
        <time>2022-04-21T07:23:03.000Z</time>
      </trkpt>
      <trkpt lat="47.26366" lon="-2.33034">
        <ele>28.39999961853</ele>
        <time>2022-04-21T07:23:05.000Z</time>
      </trkpt>
      <trkpt lat="47.26368" lon="-2.33063">
        <ele>28.39999961853</ele>
        <time>2022-04-21T07:23:09.000Z</time>
      </trkpt>
      <trkpt lat="47.26371" lon="-2.33113">
        <ele>28.39999961853</ele>
        <time>2022-04-21T07:23:16.000Z</time>
      </trkpt>
      <trkpt lat="47.26374" lon="-2.33155">
        <ele>28.39999961853</ele>
        <time>2022-04-21T07:23:22.000Z</time>
      </trkpt>
      <trkpt lat="47.26377" lon="-2.33221">
        <ele>28.39999961853</ele>
        <time>2022-04-21T07:23:31.000Z</time>
      </trkpt>
      <trkpt lat="47.26379" lon="-2.33243">
        <ele>28.39999961853</ele>
        <time>2022-04-21T07:23:34.000Z</time>
      </trkpt>
      <trkpt lat="47.26383" lon="-2.33255">
        <ele>28.39999961853</ele>
        <time>2022-04-21T07:23:36.000Z</time>
      </trkpt>
      <trkpt lat="47.26395" lon="-2.33266">
        <ele>28.39999961853</ele>
        <time>2022-04-21T07:23:39.000Z</time>
      </trkpt>
      <trkpt lat="47.26404" lon="-2.33268">
        <ele>28.39999961853</ele>
        <time>2022-04-21T07:23:41.000Z</time>
      </trkpt>
      <trkpt lat="47.26424" lon="-2.3327">
        <ele>28.39999961853</ele>
        <time>2022-04-21T07:23:45.000Z</time>
      </trkpt>
      <trkpt lat="47.26467" lon="-2.33276">
        <ele>28.39999961853</ele>
        <time>2022-04-21T07:23:54.000Z</time>
      </trkpt>
      <trkpt lat="47.26496" lon="-2.3328">
        <ele>28.39999961853</ele>
        <time>2022-04-21T07:24:01.000Z</time>
      </trkpt>
      <trkpt lat="47.26509" lon="-2.3329">
        <ele>28.39999961853</ele>
        <time>2022-04-21T07:24:05.000Z</time>
      </trkpt>
      <trkpt lat="47.2652" lon="-2.33303">
        <ele>28.39999961853</ele>
        <time>2022-04-21T07:24:08.000Z</time>
      </trkpt>
      <trkpt lat="47.26522" lon="-2.3331">
        <ele>28.39999961853</ele>
        <time>2022-04-21T07:24:09.000Z</time>
      </trkpt>
      <trkpt lat="47.26525" lon="-2.33333">
        <ele>28.39999961853</ele>
        <time>2022-04-21T07:24:12.000Z</time>
      </trkpt>
      <trkpt lat="47.26525" lon="-2.33341">
        <ele>28.39999961853</ele>
        <time>2022-04-21T07:24:13.000Z</time>
      </trkpt>
      <trkpt lat="47.26525" lon="-2.3335">
        <ele>28.39999961853</ele>
        <time>2022-04-21T07:24:14.000Z</time>
      </trkpt>
      <trkpt lat="47.26529" lon="-2.33366">
        <ele>28.39999961853</ele>
        <time>2022-04-21T07:24:16.000Z</time>
      </trkpt>
      <trkpt lat="47.26542" lon="-2.33418">
        <ele>28.39999961853</ele>
        <time>2022-04-21T07:24:23.000Z</time>
      </trkpt>
      <trkpt lat="47.26551" lon="-2.33479">
        <ele>28.39999961853</ele>
        <time>2022-04-21T07:24:31.000Z</time>
      </trkpt>
      <trkpt lat="47.2656" lon="-2.33536">
        <ele>28.39999961853</ele>
        <time>2022-04-21T07:24:39.000Z</time>
      </trkpt>
      <trkpt lat="47.26567" lon="-2.33586">
        <ele>28.39999961853</ele>
        <time>2022-04-21T07:24:46.000Z</time>
      </trkpt>
      <trkpt lat="47.26574" lon="-2.33641">
        <ele>28.39999961853</ele>
        <time>2022-04-21T07:24:54.000Z</time>
      </trkpt>
      <trkpt lat="47.26576" lon="-2.33654">
        <ele>28.799999237061</ele>
        <time>2022-04-21T07:24:56.000Z</time>
      </trkpt>
      <trkpt lat="47.26577" lon="-2.3366">
        <ele>29.200000762939</ele>
        <time>2022-04-21T07:24:57.000Z</time>
      </trkpt>
      <trkpt lat="47.26579" lon="-2.33665">
        <ele>29.60000038147</ele>
        <time>2022-04-21T07:24:58.000Z</time>
      </trkpt>
      <trkpt lat="47.26581" lon="-2.3367">
        <ele>30</ele>
        <time>2022-04-21T07:24:59.000Z</time>
      </trkpt>
      <trkpt lat="47.26584" lon="-2.33674">
        <ele>30.39999961853</ele>
        <time>2022-04-21T07:25:00.000Z</time>
      </trkpt>
      <trkpt lat="47.26595" lon="-2.33693">
        <ele>30.39999961853</ele>
        <time>2022-04-21T07:25:04.000Z</time>
      </trkpt>
      <trkpt lat="47.26612" lon="-2.33715">
        <ele>30.39999961853</ele>
        <time>2022-04-21T07:25:09.000Z</time>
      </trkpt>
      <trkpt lat="47.26618" lon="-2.33725">
        <ele>30.799999237061</ele>
        <time>2022-04-21T07:25:11.000Z</time>
      </trkpt>
      <trkpt lat="47.26621" lon="-2.33731">
        <ele>31.200000762939</ele>
        <time>2022-04-21T07:25:12.000Z</time>
      </trkpt>
      <trkpt lat="47.26624" lon="-2.33735">
        <ele>31.60000038147</ele>
        <time>2022-04-21T07:25:13.000Z</time>
      </trkpt>
      <trkpt lat="47.26627" lon="-2.3374">
        <ele>32</ele>
        <time>2022-04-21T07:25:14.000Z</time>
      </trkpt>
      <trkpt lat="47.2663" lon="-2.33745">
        <ele>32.400001525879</ele>
        <time>2022-04-21T07:25:15.000Z</time>
      </trkpt>
      <trkpt lat="47.26637" lon="-2.33755">
        <ele>32.400001525879</ele>
        <time>2022-04-21T07:25:17.000Z</time>
      </trkpt>
      <trkpt lat="47.26653" lon="-2.3378">
        <ele>32.400001525879</ele>
        <time>2022-04-21T07:25:22.000Z</time>
      </trkpt>
      <trkpt lat="47.2666" lon="-2.33789">
        <ele>32.400001525879</ele>
        <time>2022-04-21T07:25:24.000Z</time>
      </trkpt>
      <trkpt lat="47.26682" lon="-2.33825">
        <ele>32.400001525879</ele>
        <time>2022-04-21T07:25:31.000Z</time>
      </trkpt>
      <trkpt lat="47.26704" lon="-2.33861">
        <ele>32.400001525879</ele>
        <time>2022-04-21T07:25:38.000Z</time>
      </trkpt>
      <trkpt lat="47.26723" lon="-2.33892">
        <ele>32.400001525879</ele>
        <time>2022-04-21T07:25:44.000Z</time>
      </trkpt>
      <trkpt lat="47.26753" lon="-2.33939">
        <ele>32.400001525879</ele>
        <time>2022-04-21T07:25:53.000Z</time>
      </trkpt>
      <trkpt lat="47.2676" lon="-2.3395">
        <ele>32.400001525879</ele>
        <time>2022-04-21T07:25:55.000Z</time>
      </trkpt>
      <trkpt lat="47.26774" lon="-2.33971">
        <ele>32.400001525879</ele>
        <time>2022-04-21T07:25:59.000Z</time>
      </trkpt>
      <trkpt lat="47.268" lon="-2.34014">
        <ele>32.400001525879</ele>
        <time>2022-04-21T07:26:07.000Z</time>
      </trkpt>
      <trkpt lat="47.26831" lon="-2.34059">
        <ele>32.400001525879</ele>
        <time>2022-04-21T07:26:16.000Z</time>
      </trkpt>
      <trkpt lat="47.26854" lon="-2.34098">
        <ele>32.400001525879</ele>
        <time>2022-04-21T07:26:23.000Z</time>
      </trkpt>
      <trkpt lat="47.2688" lon="-2.34141">
        <ele>32.400001525879</ele>
        <time>2022-04-21T07:26:31.000Z</time>
      </trkpt>
      <trkpt lat="47.26901" lon="-2.34174">
        <ele>32.400001525879</ele>
        <time>2022-04-21T07:26:37.000Z</time>
      </trkpt>
      <trkpt lat="47.26908" lon="-2.34185">
        <ele>32.799999237061</ele>
        <time>2022-04-21T07:26:39.000Z</time>
      </trkpt>
      <trkpt lat="47.26912" lon="-2.3419">
        <ele>33.200000762939</ele>
        <time>2022-04-21T07:26:40.000Z</time>
      </trkpt>
      <trkpt lat="47.26915" lon="-2.34195">
        <ele>33.599998474121</ele>
        <time>2022-04-21T07:26:41.000Z</time>
      </trkpt>
      <trkpt lat="47.26919" lon="-2.342">
        <ele>34.400001525879</ele>
        <time>2022-04-21T07:26:42.000Z</time>
      </trkpt>
      <trkpt lat="47.26933" lon="-2.34222">
        <ele>34.400001525879</ele>
        <time>2022-04-21T07:26:46.000Z</time>
      </trkpt>
      <trkpt lat="47.26949" lon="-2.34248">
        <ele>34.400001525879</ele>
        <time>2022-04-21T07:26:51.000Z</time>
      </trkpt>
      <trkpt lat="47.26956" lon="-2.34258">
        <ele>34.400001525879</ele>
        <time>2022-04-21T07:26:53.000Z</time>
      </trkpt>
      <trkpt lat="47.26985" lon="-2.34306">
        <ele>34.400001525879</ele>
        <time>2022-04-21T07:27:02.000Z</time>
      </trkpt>
      <trkpt lat="47.26998" lon="-2.34318">
        <ele>34.400001525879</ele>
        <time>2022-04-21T07:27:06.000Z</time>
      </trkpt>
      <trkpt lat="47.27019" lon="-2.34322">
        <ele>34.400001525879</ele>
        <time>2022-04-21T07:27:11.000Z</time>
      </trkpt>
      <trkpt lat="47.27035" lon="-2.34324">
        <ele>34.400001525879</ele>
        <time>2022-04-21T07:27:15.000Z</time>
      </trkpt>
      <trkpt lat="47.27038" lon="-2.34329">
        <ele>34.400001525879</ele>
        <time>2022-04-21T07:27:16.000Z</time>
      </trkpt>
      <trkpt lat="47.27044" lon="-2.34357">
        <ele>34.400001525879</ele>
        <time>2022-04-21T07:27:20.000Z</time>
      </trkpt>
      <trkpt lat="47.27058" lon="-2.34415">
        <ele>34.400001525879</ele>
        <time>2022-04-21T07:27:28.000Z</time>
      </trkpt>
      <trkpt lat="47.27068" lon="-2.34461">
        <ele>34.400001525879</ele>
        <time>2022-04-21T07:27:34.000Z</time>
      </trkpt>
      <trkpt lat="47.27079" lon="-2.34513">
        <ele>34.400001525879</ele>
        <time>2022-04-21T07:27:41.000Z</time>
      </trkpt>
      <trkpt lat="47.27094" lon="-2.34577">
        <ele>34.400001525879</ele>
        <time>2022-04-21T07:27:50.000Z</time>
      </trkpt>
      <trkpt lat="47.27108" lon="-2.34638">
        <ele>34.400001525879</ele>
        <time>2022-04-21T07:27:58.000Z</time>
      </trkpt>
      <trkpt lat="47.27121" lon="-2.34695">
        <ele>34.400001525879</ele>
        <time>2022-04-21T07:28:05.000Z</time>
      </trkpt>
      <trkpt lat="47.27135" lon="-2.34759">
        <ele>34.400001525879</ele>
        <time>2022-04-21T07:28:13.000Z</time>
      </trkpt>
      <trkpt lat="47.27137" lon="-2.34767">
        <ele>34.400001525879</ele>
        <time>2022-04-21T07:28:14.000Z</time>
      </trkpt>
      <trkpt lat="47.2715" lon="-2.34831">
        <ele>34.400001525879</ele>
        <time>2022-04-21T07:28:22.000Z</time>
      </trkpt>
      <trkpt lat="47.27163" lon="-2.34885">
        <ele>34.400001525879</ele>
        <time>2022-04-21T07:28:29.000Z</time>
      </trkpt>
      <trkpt lat="47.27181" lon="-2.3495">
        <ele>34.400001525879</ele>
        <time>2022-04-21T07:28:38.000Z</time>
      </trkpt>
      <trkpt lat="47.27199" lon="-2.34999">
        <ele>34.400001525879</ele>
        <time>2022-04-21T07:28:45.000Z</time>
      </trkpt>
      <trkpt lat="47.27218" lon="-2.35047">
        <ele>34.400001525879</ele>
        <time>2022-04-21T07:28:52.000Z</time>
      </trkpt>
      <trkpt lat="47.2724" lon="-2.35101">
        <ele>34.400001525879</ele>
        <time>2022-04-21T07:29:00.000Z</time>
      </trkpt>
      <trkpt lat="47.27251" lon="-2.35122">
        <ele>34.400001525879</ele>
        <time>2022-04-21T07:29:04.000Z</time>
      </trkpt>
      <trkpt lat="47.27255" lon="-2.35124">
        <ele>34.400001525879</ele>
        <time>2022-04-21T07:29:05.000Z</time>
      </trkpt>
      <trkpt lat="47.27266" lon="-2.35118">
        <ele>34.400001525879</ele>
        <time>2022-04-21T07:29:08.000Z</time>
      </trkpt>
      <trkpt lat="47.27269" lon="-2.35117">
        <ele>34.400001525879</ele>
        <time>2022-04-21T07:29:09.000Z</time>
      </trkpt>
      <trkpt lat="47.27286" lon="-2.3511">
        <ele>34.799999237061</ele>
        <time>2022-04-21T07:29:14.000Z</time>
      </trkpt>
      <trkpt lat="47.27289" lon="-2.35109">
        <ele>35.200000762939</ele>
        <time>2022-04-21T07:29:15.000Z</time>
      </trkpt>
      <trkpt lat="47.27292" lon="-2.35108">
        <ele>35.599998474121</ele>
        <time>2022-04-21T07:29:16.000Z</time>
      </trkpt>
      <trkpt lat="47.27295" lon="-2.35107">
        <ele>36</ele>
        <time>2022-04-21T07:29:17.000Z</time>
      </trkpt>
      <trkpt lat="47.27297" lon="-2.35107">
        <ele>36.400001525879</ele>
        <time>2022-04-21T07:29:18.000Z</time>
      </trkpt>
      <trkpt lat="47.27302" lon="-2.35107">
        <ele>36.400001525879</ele>
        <time>2022-04-21T07:29:20.000Z</time>
      </trkpt>
      <trkpt lat="47.27305" lon="-2.35104">
        <ele>36.400001525879</ele>
        <time>2022-04-21T07:29:21.000Z</time>
      </trkpt>
      <trkpt lat="47.27312" lon="-2.35093">
        <ele>36.400001525879</ele>
        <time>2022-04-21T07:29:25.000Z</time>
      </trkpt>
      <trkpt lat="47.27326" lon="-2.35087">
        <ele>36.799999237061</ele>
        <time>2022-04-21T07:29:30.000Z</time>
      </trkpt>
      <trkpt lat="47.27329" lon="-2.35085">
        <ele>37.200000762939</ele>
        <time>2022-04-21T07:29:31.000Z</time>
      </trkpt>
      <trkpt lat="47.27332" lon="-2.35083">
        <ele>37.599998474121</ele>
        <time>2022-04-21T07:29:32.000Z</time>
      </trkpt>
      <trkpt lat="47.27335" lon="-2.3508">
        <ele>38.200000762939</ele>
        <time>2022-04-21T07:29:33.000Z</time>
      </trkpt>
      <trkpt lat="47.27337" lon="-2.35078">
        <ele>38.599998474121</ele>
        <time>2022-04-21T07:29:34.000Z</time>
      </trkpt>
      <trkpt lat="47.27347" lon="-2.35073">
        <ele>38.599998474121</ele>
        <time>2022-04-21T07:29:37.000Z</time>
      </trkpt>
      <trkpt lat="47.27351" lon="-2.35072">
        <ele>39</ele>
        <time>2022-04-21T07:29:38.000Z</time>
      </trkpt>
      <trkpt lat="47.27354" lon="-2.3507">
        <ele>39.400001525879</ele>
        <time>2022-04-21T07:29:39.000Z</time>
      </trkpt>
      <trkpt lat="47.27358" lon="-2.35068">
        <ele>39.799999237061</ele>
        <time>2022-04-21T07:29:40.000Z</time>
      </trkpt>
      <trkpt lat="47.27361" lon="-2.35065">
        <ele>40.200000762939</ele>
        <time>2022-04-21T07:29:41.000Z</time>
      </trkpt>
      <trkpt lat="47.27364" lon="-2.35063">
        <ele>40.599998474121</ele>
        <time>2022-04-21T07:29:42.000Z</time>
      </trkpt>
      <trkpt lat="47.2737" lon="-2.35059">
        <ele>40.599998474121</ele>
        <time>2022-04-21T07:29:44.000Z</time>
      </trkpt>
      <trkpt lat="47.27387" lon="-2.35052">
        <ele>40.599998474121</ele>
        <time>2022-04-21T07:29:50.000Z</time>
      </trkpt>
      <trkpt lat="47.27394" lon="-2.35055">
        <ele>41</ele>
        <time>2022-04-21T07:29:52.000Z</time>
      </trkpt>
      <trkpt lat="47.27397" lon="-2.35059">
        <ele>41.400001525879</ele>
        <time>2022-04-21T07:29:53.000Z</time>
      </trkpt>
      <trkpt lat="47.274" lon="-2.35063">
        <ele>41.799999237061</ele>
        <time>2022-04-21T07:29:54.000Z</time>
      </trkpt>
      <trkpt lat="47.27402" lon="-2.35067">
        <ele>42.200000762939</ele>
        <time>2022-04-21T07:29:55.000Z</time>
      </trkpt>
      <trkpt lat="47.27403" lon="-2.35072">
        <ele>42.599998474121</ele>
        <time>2022-04-21T07:29:56.000Z</time>
      </trkpt>
      <trkpt lat="47.27404" lon="-2.35077">
        <ele>42.599998474121</ele>
        <time>2022-04-21T07:29:57.000Z</time>
      </trkpt>
      <trkpt lat="47.27407" lon="-2.35087">
        <ele>42.599998474121</ele>
        <time>2022-04-21T07:29:59.000Z</time>
      </trkpt>
      <trkpt lat="47.27418" lon="-2.3513">
        <ele>42.599998474121</ele>
        <time>2022-04-21T07:30:07.000Z</time>
      </trkpt>
      <trkpt lat="47.27429" lon="-2.35173">
        <ele>42.599998474121</ele>
        <time>2022-04-21T07:30:15.000Z</time>
      </trkpt>
      <trkpt lat="47.2744" lon="-2.35169">
        <ele>42.599998474121</ele>
        <time>2022-04-21T07:30:18.000Z</time>
      </trkpt>
      <trkpt lat="47.27467" lon="-2.35153">
        <ele>42.599998474121</ele>
        <time>2022-04-21T07:30:26.000Z</time>
      </trkpt>
      <trkpt lat="47.27471" lon="-2.35151">
        <ele>43</ele>
        <time>2022-04-21T07:30:27.000Z</time>
      </trkpt>
      <trkpt lat="47.27474" lon="-2.3515">
        <ele>43.400001525879</ele>
        <time>2022-04-21T07:30:28.000Z</time>
      </trkpt>
      <trkpt lat="47.27477" lon="-2.35148">
        <ele>43.799999237061</ele>
        <time>2022-04-21T07:30:29.000Z</time>
      </trkpt>
      <trkpt lat="47.2748" lon="-2.35147">
        <ele>44.200000762939</ele>
        <time>2022-04-21T07:30:30.000Z</time>
      </trkpt>
      <trkpt lat="47.27484" lon="-2.35145">
        <ele>44.599998474121</ele>
        <time>2022-04-21T07:30:31.000Z</time>
      </trkpt>
      <trkpt lat="47.2749" lon="-2.35142">
        <ele>44.599998474121</ele>
        <time>2022-04-21T07:30:33.000Z</time>
      </trkpt>
      <trkpt lat="47.27495" lon="-2.35136">
        <ele>44.599998474121</ele>
        <time>2022-04-21T07:30:35.000Z</time>
      </trkpt>
      <trkpt lat="47.27498" lon="-2.35129">
        <ele>44.599998474121</ele>
        <time>2022-04-21T07:30:37.000Z</time>
      </trkpt>
      <trkpt lat="47.27508" lon="-2.35126">
        <ele>44.599998474121</ele>
        <time>2022-04-21T07:30:41.000Z</time>
      </trkpt>
      <trkpt lat="47.27514" lon="-2.35128">
        <ele>44.599998474121</ele>
        <time>2022-04-21T07:30:43.000Z</time>
      </trkpt>
      <trkpt lat="47.2753" lon="-2.35132">
        <ele>44.599998474121</ele>
        <time>2022-04-21T07:30:47.000Z</time>
      </trkpt>
      <trkpt lat="47.27549" lon="-2.35132">
        <ele>44.599998474121</ele>
        <time>2022-04-21T07:30:53.000Z</time>
      </trkpt>
      <trkpt lat="47.27567" lon="-2.35128">
        <ele>44.599998474121</ele>
        <time>2022-04-21T07:31:00.000Z</time>
      </trkpt>
      <trkpt lat="47.27579" lon="-2.35123">
        <ele>44.599998474121</ele>
        <time>2022-04-21T07:31:05.000Z</time>
      </trkpt>
      <trkpt lat="47.27585" lon="-2.35121">
        <ele>44.599998474121</ele>
        <time>2022-04-21T07:31:07.000Z</time>
      </trkpt>
      <trkpt lat="47.27591" lon="-2.35124">
        <ele>44.599998474121</ele>
        <time>2022-04-21T07:31:09.000Z</time>
      </trkpt>
      <trkpt lat="47.27593" lon="-2.35143">
        <ele>44.599998474121</ele>
        <time>2022-04-21T07:31:12.000Z</time>
      </trkpt>
      <trkpt lat="47.27597" lon="-2.35156">
        <ele>44.599998474121</ele>
        <time>2022-04-21T07:31:15.000Z</time>
      </trkpt>
      <trkpt lat="47.27608" lon="-2.35158">
        <ele>44.599998474121</ele>
        <time>2022-04-21T07:31:18.000Z</time>
      </trkpt>
      <trkpt lat="47.27636" lon="-2.35153">
        <ele>44.599998474121</ele>
        <time>2022-04-21T07:31:24.000Z</time>
      </trkpt>
      <trkpt lat="47.27648" lon="-2.35165">
        <ele>44.599998474121</ele>
        <time>2022-04-21T07:31:27.000Z</time>
      </trkpt>
      <trkpt lat="47.27656" lon="-2.3519">
        <ele>44.599998474121</ele>
        <time>2022-04-21T07:31:29.000Z</time>
      </trkpt>
      <trkpt lat="47.27661" lon="-2.352">
        <ele>44.200000762939</ele>
        <time>2022-04-21T07:31:30.000Z</time>
      </trkpt>
      <trkpt lat="47.27665" lon="-2.35208">
        <ele>43.799999237061</ele>
        <time>2022-04-21T07:31:31.000Z</time>
      </trkpt>
      <trkpt lat="47.27671" lon="-2.35214">
        <ele>43.400001525879</ele>
        <time>2022-04-21T07:31:32.000Z</time>
      </trkpt>
      <trkpt lat="47.27675" lon="-2.35216">
        <ele>43</ele>
        <time>2022-04-21T07:31:33.000Z</time>
      </trkpt>
      <trkpt lat="47.27679" lon="-2.35215">
        <ele>42.599998474121</ele>
        <time>2022-04-21T07:31:34.000Z</time>
      </trkpt>
      <trkpt lat="47.27684" lon="-2.35215">
        <ele>42.599998474121</ele>
        <time>2022-04-21T07:31:35.000Z</time>
      </trkpt>
      <trkpt lat="47.27713" lon="-2.35208">
        <ele>42.599998474121</ele>
        <time>2022-04-21T07:31:40.000Z</time>
      </trkpt>
      <trkpt lat="47.2773" lon="-2.35202">
        <ele>42.200000762939</ele>
        <time>2022-04-21T07:31:43.000Z</time>
      </trkpt>
      <trkpt lat="47.27736" lon="-2.35201">
        <ele>41.799999237061</ele>
        <time>2022-04-21T07:31:44.000Z</time>
      </trkpt>
      <trkpt lat="47.27741" lon="-2.352">
        <ele>41.400001525879</ele>
        <time>2022-04-21T07:31:45.000Z</time>
      </trkpt>
      <trkpt lat="47.27747" lon="-2.35198">
        <ele>41</ele>
        <time>2022-04-21T07:31:46.000Z</time>
      </trkpt>
      <trkpt lat="47.27752" lon="-2.35197">
        <ele>40.599998474121</ele>
        <time>2022-04-21T07:31:47.000Z</time>
      </trkpt>
      <trkpt lat="47.27762" lon="-2.35196">
        <ele>40.599998474121</ele>
        <time>2022-04-21T07:31:49.000Z</time>
      </trkpt>
      <trkpt lat="47.27765" lon="-2.35198">
        <ele>40.599998474121</ele>
        <time>2022-04-21T07:31:50.000Z</time>
      </trkpt>
      <trkpt lat="47.27767" lon="-2.35203">
        <ele>40.200000762939</ele>
        <time>2022-04-21T07:31:51.000Z</time>
      </trkpt>
      <trkpt lat="47.27769" lon="-2.35208">
        <ele>39.799999237061</ele>
        <time>2022-04-21T07:31:52.000Z</time>
      </trkpt>
      <trkpt lat="47.2777" lon="-2.35214">
        <ele>39.400001525879</ele>
        <time>2022-04-21T07:31:53.000Z</time>
      </trkpt>
      <trkpt lat="47.27771" lon="-2.3522">
        <ele>39</ele>
        <time>2022-04-21T07:31:54.000Z</time>
      </trkpt>
      <trkpt lat="47.27772" lon="-2.35227">
        <ele>38.400001525879</ele>
        <time>2022-04-21T07:31:55.000Z</time>
      </trkpt>
      <trkpt lat="47.27776" lon="-2.35248">
        <ele>38.400001525879</ele>
        <time>2022-04-21T07:31:58.000Z</time>
      </trkpt>
      <trkpt lat="47.27778" lon="-2.35255">
        <ele>38.400001525879</ele>
        <time>2022-04-21T07:31:59.000Z</time>
      </trkpt>
      <trkpt lat="47.27784" lon="-2.35285">
        <ele>38.400001525879</ele>
        <time>2022-04-21T07:32:04.000Z</time>
      </trkpt>
      <trkpt lat="47.27793" lon="-2.35324">
        <ele>38.400001525879</ele>
        <time>2022-04-21T07:32:11.000Z</time>
      </trkpt>
      <trkpt lat="47.27798" lon="-2.35342">
        <ele>38.400001525879</ele>
        <time>2022-04-21T07:32:14.000Z</time>
      </trkpt>
      <trkpt lat="47.27803" lon="-2.35355">
        <ele>38.400001525879</ele>
        <time>2022-04-21T07:32:16.000Z</time>
      </trkpt>
      <trkpt lat="47.27819" lon="-2.35365">
        <ele>38.400001525879</ele>
        <time>2022-04-21T07:32:20.000Z</time>
      </trkpt>
      <trkpt lat="47.27829" lon="-2.35363">
        <ele>38.400001525879</ele>
        <time>2022-04-21T07:32:22.000Z</time>
      </trkpt>
      <trkpt lat="47.27855" lon="-2.3536">
        <ele>38.400001525879</ele>
        <time>2022-04-21T07:32:28.000Z</time>
      </trkpt>
      <trkpt lat="47.27877" lon="-2.35368">
        <ele>38.400001525879</ele>
        <time>2022-04-21T07:32:34.000Z</time>
      </trkpt>
      <trkpt lat="47.27899" lon="-2.35396">
        <ele>39</ele>
        <time>2022-04-21T07:32:41.000Z</time>
      </trkpt>
      <trkpt lat="47.27902" lon="-2.35401">
        <ele>39.400001525879</ele>
        <time>2022-04-21T07:32:42.000Z</time>
      </trkpt>
      <trkpt lat="47.27906" lon="-2.35405">
        <ele>39.799999237061</ele>
        <time>2022-04-21T07:32:43.000Z</time>
      </trkpt>
      <trkpt lat="47.27909" lon="-2.35409">
        <ele>40.200000762939</ele>
        <time>2022-04-21T07:32:44.000Z</time>
      </trkpt>
      <trkpt lat="47.27912" lon="-2.35414">
        <ele>40.599998474121</ele>
        <time>2022-04-21T07:32:45.000Z</time>
      </trkpt>
      <trkpt lat="47.27922" lon="-2.35428">
        <ele>40.599998474121</ele>
        <time>2022-04-21T07:32:48.000Z</time>
      </trkpt>
      <trkpt lat="47.27937" lon="-2.35446">
        <ele>40.599998474121</ele>
        <time>2022-04-21T07:32:52.000Z</time>
      </trkpt>
      <trkpt lat="47.2795" lon="-2.35457">
        <ele>40.599998474121</ele>
        <time>2022-04-21T07:32:55.000Z</time>
      </trkpt>
      <trkpt lat="47.27954" lon="-2.35459">
        <ele>40.599998474121</ele>
        <time>2022-04-21T07:32:56.000Z</time>
      </trkpt>
      <trkpt lat="47.27967" lon="-2.35466">
        <ele>40.599998474121</ele>
        <time>2022-04-21T07:32:59.000Z</time>
      </trkpt>
      <trkpt lat="47.27971" lon="-2.3547">
        <ele>40.599998474121</ele>
        <time>2022-04-21T07:33:00.000Z</time>
      </trkpt>
      <trkpt lat="47.27983" lon="-2.35493">
        <ele>40.599998474121</ele>
        <time>2022-04-21T07:33:04.000Z</time>
      </trkpt>
      <trkpt lat="47.27986" lon="-2.35499">
        <ele>40.599998474121</ele>
        <time>2022-04-21T07:33:05.000Z</time>
      </trkpt>
      <trkpt lat="47.28" lon="-2.35528">
        <ele>40.599998474121</ele>
        <time>2022-04-21T07:33:11.000Z</time>
      </trkpt>
      <trkpt lat="47.28007" lon="-2.35549">
        <ele>40.599998474121</ele>
        <time>2022-04-21T07:33:16.000Z</time>
      </trkpt>
      <trkpt lat="47.28015" lon="-2.35562">
        <ele>40.599998474121</ele>
        <time>2022-04-21T07:33:20.000Z</time>
      </trkpt>
      <trkpt lat="47.28017" lon="-2.35562">
        <ele>40.599998474121</ele>
        <time>2022-04-21T07:33:21.000Z</time>
      </trkpt>
      <trkpt lat="47.28031" lon="-2.35566">
        <ele>40.599998474121</ele>
        <time>2022-04-21T07:33:25.000Z</time>
      </trkpt>
      <trkpt lat="47.28034" lon="-2.35568">
        <ele>40.599998474121</ele>
        <time>2022-04-21T07:33:26.000Z</time>
      </trkpt>
      <trkpt lat="47.28042" lon="-2.35572">
        <ele>41</ele>
        <time>2022-04-21T07:33:28.000Z</time>
      </trkpt>
      <trkpt lat="47.28045" lon="-2.35573">
        <ele>41.400001525879</ele>
        <time>2022-04-21T07:33:29.000Z</time>
      </trkpt>
      <trkpt lat="47.28048" lon="-2.35575">
        <ele>41.799999237061</ele>
        <time>2022-04-21T07:33:30.000Z</time>
      </trkpt>
      <trkpt lat="47.28052" lon="-2.35575">
        <ele>42.200000762939</ele>
        <time>2022-04-21T07:33:31.000Z</time>
      </trkpt>
      <trkpt lat="47.28055" lon="-2.35576">
        <ele>42.599998474121</ele>
        <time>2022-04-21T07:33:32.000Z</time>
      </trkpt>
      <trkpt lat="47.28066" lon="-2.35581">
        <ele>42.599998474121</ele>
        <time>2022-04-21T07:33:36.000Z</time>
      </trkpt>
      <trkpt lat="47.2808" lon="-2.35602">
        <ele>42.599998474121</ele>
        <time>2022-04-21T07:33:43.000Z</time>
      </trkpt>
      <trkpt lat="47.28088" lon="-2.35613">
        <ele>42.599998474121</ele>
        <time>2022-04-21T07:33:48.000Z</time>
      </trkpt>
      <trkpt lat="47.2809" lon="-2.35618">
        <ele>42.599998474121</ele>
        <time>2022-04-21T07:33:52.000Z</time>
      </trkpt>
      <trkpt lat="47.28064" lon="-2.3561">
        <ele>44.599998474121</ele>
        <time>2022-04-21T07:36:46.000Z</time>
      </trkpt>
      <trkpt lat="47.28059" lon="-2.35605">
        <ele>44.599998474121</ele>
        <time>2022-04-21T07:36:50.000Z</time>
      </trkpt>
      <trkpt lat="47.28059" lon="-2.35604">
        <ele>44.599998474121</ele>
        <time>2022-04-21T07:37:53.000Z</time>
      </trkpt>
      <trkpt lat="47.28061" lon="-2.35602">
        <ele>44.200000762939</ele>
        <time>2022-04-21T07:37:55.000Z</time>
      </trkpt>
      <trkpt lat="47.28063" lon="-2.35602">
        <ele>43.799999237061</ele>
        <time>2022-04-21T07:37:56.000Z</time>
      </trkpt>
      <trkpt lat="47.28064" lon="-2.35601">
        <ele>43.200000762939</ele>
        <time>2022-04-21T07:37:57.000Z</time>
      </trkpt>
      <trkpt lat="47.28066" lon="-2.35601">
        <ele>42.799999237061</ele>
        <time>2022-04-21T07:37:58.000Z</time>
      </trkpt>
      <trkpt lat="47.28067" lon="-2.356">
        <ele>42.400001525879</ele>
        <time>2022-04-21T07:37:59.000Z</time>
      </trkpt>
      <trkpt lat="47.2807" lon="-2.35599">
        <ele>42.400001525879</ele>
        <time>2022-04-21T07:38:02.000Z</time>
      </trkpt>
      <trkpt lat="47.28072" lon="-2.35593">
        <ele>42.400001525879</ele>
        <time>2022-04-21T07:38:06.000Z</time>
      </trkpt>
      <trkpt lat="47.28072" lon="-2.35592">
        <ele>42.400001525879</ele>
        <time>2022-04-21T07:38:07.000Z</time>
      </trkpt>
      <trkpt lat="47.28076" lon="-2.35572">
        <ele>42.400001525879</ele>
        <time>2022-04-21T07:38:13.000Z</time>
      </trkpt>
      <trkpt lat="47.28078" lon="-2.3557">
        <ele>42.400001525879</ele>
        <time>2022-04-21T07:38:14.000Z</time>
      </trkpt>
      <trkpt lat="47.28087" lon="-2.35566">
        <ele>42.400001525879</ele>
        <time>2022-04-21T07:38:17.000Z</time>
      </trkpt>
      <trkpt lat="47.28093" lon="-2.35566">
        <ele>42.400001525879</ele>
        <time>2022-04-21T07:38:19.000Z</time>
      </trkpt>
      <trkpt lat="47.28107" lon="-2.35566">
        <ele>42.400001525879</ele>
        <time>2022-04-21T07:38:23.000Z</time>
      </trkpt>
      <trkpt lat="47.28127" lon="-2.35567">
        <ele>42.400001525879</ele>
        <time>2022-04-21T07:38:29.000Z</time>
      </trkpt>
      <trkpt lat="47.28137" lon="-2.35568">
        <ele>42.799999237061</ele>
        <time>2022-04-21T07:38:32.000Z</time>
      </trkpt>
      <trkpt lat="47.2814" lon="-2.35568">
        <ele>43.200000762939</ele>
        <time>2022-04-21T07:38:33.000Z</time>
      </trkpt>
      <trkpt lat="47.28144" lon="-2.35568">
        <ele>43.599998474121</ele>
        <time>2022-04-21T07:38:34.000Z</time>
      </trkpt>
      <trkpt lat="47.28147" lon="-2.35568">
        <ele>44</ele>
        <time>2022-04-21T07:38:35.000Z</time>
      </trkpt>
      <trkpt lat="47.2815" lon="-2.35569">
        <ele>44.400001525879</ele>
        <time>2022-04-21T07:38:36.000Z</time>
      </trkpt>
      <trkpt lat="47.28175" lon="-2.35579">
        <ele>44.400001525879</ele>
        <time>2022-04-21T07:38:44.000Z</time>
      </trkpt>
      <trkpt lat="47.28192" lon="-2.35596">
        <ele>44.400001525879</ele>
        <time>2022-04-21T07:38:50.000Z</time>
      </trkpt>
      <trkpt lat="47.28208" lon="-2.35621">
        <ele>44.799999237061</ele>
        <time>2022-04-21T07:38:56.000Z</time>
      </trkpt>
      <trkpt lat="47.28212" lon="-2.35625">
        <ele>45.200000762939</ele>
        <time>2022-04-21T07:38:57.000Z</time>
      </trkpt>
      <trkpt lat="47.28215" lon="-2.35629">
        <ele>45.799999237061</ele>
        <time>2022-04-21T07:38:58.000Z</time>
      </trkpt>
      <trkpt lat="47.28218" lon="-2.35633">
        <ele>46.200000762939</ele>
        <time>2022-04-21T07:38:59.000Z</time>
      </trkpt>
      <trkpt lat="47.28221" lon="-2.35638">
        <ele>46.599998474121</ele>
        <time>2022-04-21T07:39:00.000Z</time>
      </trkpt>
      <trkpt lat="47.2824" lon="-2.3566">
        <ele>46.599998474121</ele>
        <time>2022-04-21T07:39:05.000Z</time>
      </trkpt>
      <trkpt lat="47.2826" lon="-2.35691">
        <ele>46.599998474121</ele>
        <time>2022-04-21T07:39:11.000Z</time>
      </trkpt>
      <trkpt lat="47.28269" lon="-2.35702">
        <ele>47</ele>
        <time>2022-04-21T07:39:14.000Z</time>
      </trkpt>
      <trkpt lat="47.28273" lon="-2.35706">
        <ele>47.400001525879</ele>
        <time>2022-04-21T07:39:15.000Z</time>
      </trkpt>
      <trkpt lat="47.28276" lon="-2.35709">
        <ele>47.799999237061</ele>
        <time>2022-04-21T07:39:16.000Z</time>
      </trkpt>
      <trkpt lat="47.28279" lon="-2.35712">
        <ele>48.200000762939</ele>
        <time>2022-04-21T07:39:17.000Z</time>
      </trkpt>
      <trkpt lat="47.28282" lon="-2.35715">
        <ele>48.599998474121</ele>
        <time>2022-04-21T07:39:18.000Z</time>
      </trkpt>
      <trkpt lat="47.28304" lon="-2.35735">
        <ele>48.599998474121</ele>
        <time>2022-04-21T07:39:24.000Z</time>
      </trkpt>
      <trkpt lat="47.28331" lon="-2.35755">
        <ele>48.599998474121</ele>
        <time>2022-04-21T07:39:32.000Z</time>
      </trkpt>
      <trkpt lat="47.28345" lon="-2.35761">
        <ele>49</ele>
        <time>2022-04-21T07:39:36.000Z</time>
      </trkpt>
      <trkpt lat="47.28349" lon="-2.35763">
        <ele>49.400001525879</ele>
        <time>2022-04-21T07:39:37.000Z</time>
      </trkpt>
      <trkpt lat="47.28353" lon="-2.35765">
        <ele>49.799999237061</ele>
        <time>2022-04-21T07:39:38.000Z</time>
      </trkpt>
      <trkpt lat="47.28358" lon="-2.35767">
        <ele>50.200000762939</ele>
        <time>2022-04-21T07:39:39.000Z</time>
      </trkpt>
      <trkpt lat="47.28362" lon="-2.3577">
        <ele>50.599998474121</ele>
        <time>2022-04-21T07:39:40.000Z</time>
      </trkpt>
      <trkpt lat="47.28386" lon="-2.35779">
        <ele>50.599998474121</ele>
        <time>2022-04-21T07:39:46.000Z</time>
      </trkpt>
      <trkpt lat="47.28421" lon="-2.35791">
        <ele>50.599998474121</ele>
        <time>2022-04-21T07:39:53.000Z</time>
      </trkpt>
      <trkpt lat="47.28455" lon="-2.35811">
        <ele>50.599998474121</ele>
        <time>2022-04-21T07:40:01.000Z</time>
      </trkpt>
      <trkpt lat="47.28465" lon="-2.35816">
        <ele>50.599998474121</ele>
        <time>2022-04-21T07:40:05.000Z</time>
      </trkpt>
      <trkpt lat="47.28467" lon="-2.35819">
        <ele>50.599998474121</ele>
        <time>2022-04-21T07:40:06.000Z</time>
      </trkpt>
      <trkpt lat="47.28471" lon="-2.35836">
        <ele>50.599998474121</ele>
        <time>2022-04-21T07:40:11.000Z</time>
      </trkpt>
      <trkpt lat="47.28471" lon="-2.35847">
        <ele>50.599998474121</ele>
        <time>2022-04-21T07:40:13.000Z</time>
      </trkpt>
      <trkpt lat="47.28469" lon="-2.3586">
        <ele>50.599998474121</ele>
        <time>2022-04-21T07:40:16.000Z</time>
      </trkpt>
      <trkpt lat="47.28469" lon="-2.35885">
        <ele>50.599998474121</ele>
        <time>2022-04-21T07:40:21.000Z</time>
      </trkpt>
      <trkpt lat="47.28473" lon="-2.35894">
        <ele>51</ele>
        <time>2022-04-21T07:40:23.000Z</time>
      </trkpt>
      <trkpt lat="47.28474" lon="-2.35899">
        <ele>51.400001525879</ele>
        <time>2022-04-21T07:40:24.000Z</time>
      </trkpt>
      <trkpt lat="47.28477" lon="-2.35901">
        <ele>51.799999237061</ele>
        <time>2022-04-21T07:40:25.000Z</time>
      </trkpt>
      <trkpt lat="47.28478" lon="-2.35903">
        <ele>52.200000762939</ele>
        <time>2022-04-21T07:40:26.000Z</time>
      </trkpt>
      <trkpt lat="47.28479" lon="-2.35905">
        <ele>52.599998474121</ele>
        <time>2022-04-21T07:40:27.000Z</time>
      </trkpt>
      <trkpt lat="47.28479" lon="-2.3591">
        <ele>52.599998474121</ele>
        <time>2022-04-21T07:40:29.000Z</time>
      </trkpt>
      <trkpt lat="47.28478" lon="-2.35912">
        <ele>52.599998474121</ele>
        <time>2022-04-21T07:40:30.000Z</time>
      </trkpt>
      <trkpt lat="47.28477" lon="-2.35913">
        <ele>53</ele>
        <time>2022-04-21T07:40:31.000Z</time>
      </trkpt>
      <trkpt lat="47.28476" lon="-2.35916">
        <ele>53.599998474121</ele>
        <time>2022-04-21T07:40:32.000Z</time>
      </trkpt>
      <trkpt lat="47.28476" lon="-2.35919">
        <ele>54</ele>
        <time>2022-04-21T07:40:33.000Z</time>
      </trkpt>
      <trkpt lat="47.28474" lon="-2.35922">
        <ele>54.400001525879</ele>
        <time>2022-04-21T07:40:34.000Z</time>
      </trkpt>
      <trkpt lat="47.28473" lon="-2.35925">
        <ele>54.799999237061</ele>
        <time>2022-04-21T07:40:35.000Z</time>
      </trkpt>
      <trkpt lat="47.2847" lon="-2.35933">
        <ele>55.200000762939</ele>
        <time>2022-04-21T07:40:38.000Z</time>
      </trkpt>
      <trkpt lat="47.28469" lon="-2.35936">
        <ele>55.799999237061</ele>
        <time>2022-04-21T07:40:39.000Z</time>
      </trkpt>
      <trkpt lat="47.28468" lon="-2.35939">
        <ele>56.200000762939</ele>
        <time>2022-04-21T07:40:40.000Z</time>
      </trkpt>
      <trkpt lat="47.28467" lon="-2.35941">
        <ele>56.599998474121</ele>
        <time>2022-04-21T07:40:41.000Z</time>
      </trkpt>
      <trkpt lat="47.28466" lon="-2.35943">
        <ele>57</ele>
        <time>2022-04-21T07:40:42.000Z</time>
      </trkpt>
      <trkpt lat="47.28463" lon="-2.35952">
        <ele>57.400001525879</ele>
        <time>2022-04-21T07:40:45.000Z</time>
      </trkpt>
      <trkpt lat="47.28462" lon="-2.35954">
        <ele>57.799999237061</ele>
        <time>2022-04-21T07:40:46.000Z</time>
      </trkpt>
      <trkpt lat="47.28461" lon="-2.35957">
        <ele>58.200000762939</ele>
        <time>2022-04-21T07:40:47.000Z</time>
      </trkpt>
      <trkpt lat="47.2846" lon="-2.3596">
        <ele>58.799999237061</ele>
        <time>2022-04-21T07:40:48.000Z</time>
      </trkpt>
      <trkpt lat="47.28459" lon="-2.35964">
        <ele>59.200000762939</ele>
        <time>2022-04-21T07:40:49.000Z</time>
      </trkpt>
      <trkpt lat="47.28456" lon="-2.35978">
        <ele>59.599998474121</ele>
        <time>2022-04-21T07:40:53.000Z</time>
      </trkpt>
      <trkpt lat="47.28456" lon="-2.35981">
        <ele>60</ele>
        <time>2022-04-21T07:40:54.000Z</time>
      </trkpt>
      <trkpt lat="47.28455" lon="-2.35984">
        <ele>60.400001525879</ele>
        <time>2022-04-21T07:40:55.000Z</time>
      </trkpt>
      <trkpt lat="47.28455" lon="-2.35988">
        <ele>60.799999237061</ele>
        <time>2022-04-21T07:40:56.000Z</time>
      </trkpt>
      <trkpt lat="47.28455" lon="-2.35992">
        <ele>61.200000762939</ele>
        <time>2022-04-21T07:40:57.000Z</time>
      </trkpt>
      <trkpt lat="47.28457" lon="-2.36001">
        <ele>61.200000762939</ele>
        <time>2022-04-21T07:41:00.000Z</time>
      </trkpt>
      <trkpt lat="47.28466" lon="-2.36015">
        <ele>61.200000762939</ele>
        <time>2022-04-21T07:41:05.000Z</time>
      </trkpt>
      <trkpt lat="47.28482" lon="-2.36029">
        <ele>61.200000762939</ele>
        <time>2022-04-21T07:41:11.000Z</time>
      </trkpt>
      <trkpt lat="47.28503" lon="-2.36045">
        <ele>61.200000762939</ele>
        <time>2022-04-21T07:41:18.000Z</time>
      </trkpt>
      <trkpt lat="47.2852" lon="-2.36069">
        <ele>61.200000762939</ele>
        <time>2022-04-21T07:41:24.000Z</time>
      </trkpt>
      <trkpt lat="47.28526" lon="-2.36077">
        <ele>61.599998474121</ele>
        <time>2022-04-21T07:41:26.000Z</time>
      </trkpt>
      <trkpt lat="47.28528" lon="-2.36081">
        <ele>62</ele>
        <time>2022-04-21T07:41:27.000Z</time>
      </trkpt>
      <trkpt lat="47.2853" lon="-2.36086">
        <ele>62.599998474121</ele>
        <time>2022-04-21T07:41:28.000Z</time>
      </trkpt>
      <trkpt lat="47.28533" lon="-2.36091">
        <ele>63</ele>
        <time>2022-04-21T07:41:29.000Z</time>
      </trkpt>
      <trkpt lat="47.28534" lon="-2.36098">
        <ele>63.400001525879</ele>
        <time>2022-04-21T07:41:30.000Z</time>
      </trkpt>
      <trkpt lat="47.2854" lon="-2.36125">
        <ele>63.400001525879</ele>
        <time>2022-04-21T07:41:34.000Z</time>
      </trkpt>
      <trkpt lat="47.28547" lon="-2.36145">
        <ele>63.400001525879</ele>
        <time>2022-04-21T07:41:37.000Z</time>
      </trkpt>
      <trkpt lat="47.28552" lon="-2.36153">
        <ele>63.400001525879</ele>
        <time>2022-04-21T07:41:39.000Z</time>
      </trkpt>
      <trkpt lat="47.28557" lon="-2.36175">
        <ele>63.400001525879</ele>
        <time>2022-04-21T07:41:44.000Z</time>
      </trkpt>
      <trkpt lat="47.28555" lon="-2.36207">
        <ele>63.400001525879</ele>
        <time>2022-04-21T07:41:49.000Z</time>
      </trkpt>
      <trkpt lat="47.28555" lon="-2.36214">
        <ele>62.799999237061</ele>
        <time>2022-04-21T07:41:50.000Z</time>
      </trkpt>
      <trkpt lat="47.28555" lon="-2.36221">
        <ele>62.400001525879</ele>
        <time>2022-04-21T07:41:51.000Z</time>
      </trkpt>
      <trkpt lat="47.28555" lon="-2.36227">
        <ele>62</ele>
        <time>2022-04-21T07:41:52.000Z</time>
      </trkpt>
      <trkpt lat="47.28555" lon="-2.36234">
        <ele>61.599998474121</ele>
        <time>2022-04-21T07:41:53.000Z</time>
      </trkpt>
      <trkpt lat="47.28554" lon="-2.3624">
        <ele>61</ele>
        <time>2022-04-21T07:41:54.000Z</time>
      </trkpt>
      <trkpt lat="47.28552" lon="-2.36285">
        <ele>61</ele>
        <time>2022-04-21T07:42:02.000Z</time>
      </trkpt>
      <trkpt lat="47.28545" lon="-2.36312">
        <ele>61</ele>
        <time>2022-04-21T07:42:07.000Z</time>
      </trkpt>
      <trkpt lat="47.28541" lon="-2.36339">
        <ele>61</ele>
        <time>2022-04-21T07:42:13.000Z</time>
      </trkpt>
      <trkpt lat="47.28543" lon="-2.36352">
        <ele>61</ele>
        <time>2022-04-21T07:42:17.000Z</time>
      </trkpt>
      <trkpt lat="47.28546" lon="-2.36359">
        <ele>61</ele>
        <time>2022-04-21T07:42:19.000Z</time>
      </trkpt>
      <trkpt lat="47.28548" lon="-2.36362">
        <ele>61.799999237061</ele>
        <time>2022-04-21T07:42:21.000Z</time>
      </trkpt>
      <trkpt lat="47.28549" lon="-2.36364">
        <ele>62.200000762939</ele>
        <time>2022-04-21T07:42:22.000Z</time>
      </trkpt>
      <trkpt lat="47.28549" lon="-2.36365">
        <ele>62.599998474121</ele>
        <time>2022-04-21T07:42:23.000Z</time>
      </trkpt>
      <trkpt lat="47.28549" lon="-2.36366">
        <ele>63.200000762939</ele>
        <time>2022-04-21T07:42:24.000Z</time>
      </trkpt>
      <trkpt lat="47.28549" lon="-2.36367">
        <ele>63.200000762939</ele>
        <time>2022-04-21T07:42:25.000Z</time>
      </trkpt>
      <trkpt lat="47.28542" lon="-2.36372">
        <ele>63.200000762939</ele>
        <time>2022-04-21T07:42:43.000Z</time>
      </trkpt>
      <trkpt lat="47.28539" lon="-2.36372">
        <ele>63.200000762939</ele>
        <time>2022-04-21T07:42:45.000Z</time>
      </trkpt>
      <trkpt lat="47.28535" lon="-2.36369">
        <ele>63.200000762939</ele>
        <time>2022-04-21T07:42:48.000Z</time>
      </trkpt>
      <trkpt lat="47.28532" lon="-2.36373">
        <ele>62.599998474121</ele>
        <time>2022-04-21T07:42:50.000Z</time>
      </trkpt>
      <trkpt lat="47.28531" lon="-2.36375">
        <ele>62.200000762939</ele>
        <time>2022-04-21T07:42:51.000Z</time>
      </trkpt>
      <trkpt lat="47.28529" lon="-2.36377">
        <ele>61.799999237061</ele>
        <time>2022-04-21T07:42:52.000Z</time>
      </trkpt>
      <trkpt lat="47.28529" lon="-2.3638">
        <ele>61.200000762939</ele>
        <time>2022-04-21T07:42:53.000Z</time>
      </trkpt>
      <trkpt lat="47.28527" lon="-2.36384">
        <ele>60.599998474121</ele>
        <time>2022-04-21T07:42:54.000Z</time>
      </trkpt>
      <trkpt lat="47.28526" lon="-2.36387">
        <ele>59.799999237061</ele>
        <time>2022-04-21T07:42:55.000Z</time>
      </trkpt>
      <trkpt lat="47.28523" lon="-2.36391">
        <ele>59</ele>
        <time>2022-04-21T07:42:56.000Z</time>
      </trkpt>
      <trkpt lat="47.2852" lon="-2.36395">
        <ele>58.400001525879</ele>
        <time>2022-04-21T07:42:57.000Z</time>
      </trkpt>
      <trkpt lat="47.28517" lon="-2.36399">
        <ele>57.400001525879</ele>
        <time>2022-04-21T07:42:58.000Z</time>
      </trkpt>
      <trkpt lat="47.28514" lon="-2.36405">
        <ele>56.599998474121</ele>
        <time>2022-04-21T07:42:59.000Z</time>
      </trkpt>
      <trkpt lat="47.2851" lon="-2.36409">
        <ele>55.799999237061</ele>
        <time>2022-04-21T07:43:00.000Z</time>
      </trkpt>
      <trkpt lat="47.28507" lon="-2.36413">
        <ele>55.200000762939</ele>
        <time>2022-04-21T07:43:01.000Z</time>
      </trkpt>
      <trkpt lat="47.28505" lon="-2.36417">
        <ele>54.400001525879</ele>
        <time>2022-04-21T07:43:02.000Z</time>
      </trkpt>
      <trkpt lat="47.28503" lon="-2.3642">
        <ele>53.599998474121</ele>
        <time>2022-04-21T07:43:03.000Z</time>
      </trkpt>
      <trkpt lat="47.28501" lon="-2.36424">
        <ele>52.799999237061</ele>
        <time>2022-04-21T07:43:04.000Z</time>
      </trkpt>
      <trkpt lat="47.285" lon="-2.36426">
        <ele>52.200000762939</ele>
        <time>2022-04-21T07:43:05.000Z</time>
      </trkpt>
      <trkpt lat="47.28499" lon="-2.36429">
        <ele>51.599998474121</ele>
        <time>2022-04-21T07:43:06.000Z</time>
      </trkpt>
      <trkpt lat="47.28499" lon="-2.36431">
        <ele>51.200000762939</ele>
        <time>2022-04-21T07:43:07.000Z</time>
      </trkpt>
      <trkpt lat="47.28499" lon="-2.36433">
        <ele>50.799999237061</ele>
        <time>2022-04-21T07:43:08.000Z</time>
      </trkpt>
      <trkpt lat="47.28499" lon="-2.36435">
        <ele>50.200000762939</ele>
        <time>2022-04-21T07:43:09.000Z</time>
      </trkpt>
      <trkpt lat="47.285" lon="-2.36438">
        <ele>49.799999237061</ele>
        <time>2022-04-21T07:43:10.000Z</time>
      </trkpt>
      <trkpt lat="47.285" lon="-2.36451">
        <ele>49.799999237061</ele>
        <time>2022-04-21T07:43:13.000Z</time>
      </trkpt>
      <trkpt lat="47.28509" lon="-2.36473">
        <ele>49.799999237061</ele>
        <time>2022-04-21T07:43:17.000Z</time>
      </trkpt>
      <trkpt lat="47.28512" lon="-2.36497">
        <ele>49.799999237061</ele>
        <time>2022-04-21T07:43:22.000Z</time>
      </trkpt>
      <trkpt lat="47.28512" lon="-2.36521">
        <ele>49.799999237061</ele>
        <time>2022-04-21T07:43:29.000Z</time>
      </trkpt>
      <trkpt lat="47.2851" lon="-2.36525">
        <ele>49.799999237061</ele>
        <time>2022-04-21T07:43:33.000Z</time>
      </trkpt>
      <trkpt lat="47.28507" lon="-2.36523">
        <ele>49.799999237061</ele>
        <time>2022-04-21T07:43:39.000Z</time>
      </trkpt>
      <trkpt lat="47.28507" lon="-2.36524">
        <ele>49.799999237061</ele>
        <time>2022-04-21T07:44:41.000Z</time>
      </trkpt>
      <trkpt lat="47.28507" lon="-2.36526">
        <ele>49.799999237061</ele>
        <time>2022-04-21T07:44:42.000Z</time>
      </trkpt>
      <trkpt lat="47.28506" lon="-2.36529">
        <ele>49.799999237061</ele>
        <time>2022-04-21T07:44:43.000Z</time>
      </trkpt>
      <trkpt lat="47.28498" lon="-2.36541">
        <ele>49.799999237061</ele>
        <time>2022-04-21T07:44:46.000Z</time>
      </trkpt>
      <trkpt lat="47.2849" lon="-2.36553">
        <ele>49.400001525879</ele>
        <time>2022-04-21T07:44:49.000Z</time>
      </trkpt>
      <trkpt lat="47.28487" lon="-2.36557">
        <ele>48.599998474121</ele>
        <time>2022-04-21T07:44:50.000Z</time>
      </trkpt>
      <trkpt lat="47.28483" lon="-2.36561">
        <ele>48.200000762939</ele>
        <time>2022-04-21T07:44:51.000Z</time>
      </trkpt>
      <trkpt lat="47.28479" lon="-2.36565">
        <ele>47.799999237061</ele>
        <time>2022-04-21T07:44:52.000Z</time>
      </trkpt>
      <trkpt lat="47.28477" lon="-2.36585">
        <ele>47.799999237061</ele>
        <time>2022-04-21T07:44:55.000Z</time>
      </trkpt>
      <trkpt lat="47.28482" lon="-2.36613">
        <ele>47.799999237061</ele>
        <time>2022-04-21T07:44:59.000Z</time>
      </trkpt>
      <trkpt lat="47.28492" lon="-2.36651">
        <ele>47.799999237061</ele>
        <time>2022-04-21T07:45:05.000Z</time>
      </trkpt>
      <trkpt lat="47.28495" lon="-2.36657">
        <ele>47.799999237061</ele>
        <time>2022-04-21T07:45:06.000Z</time>
      </trkpt>
      <trkpt lat="47.28502" lon="-2.36672">
        <ele>47.799999237061</ele>
        <time>2022-04-21T07:45:10.000Z</time>
      </trkpt>
      <trkpt lat="47.28513" lon="-2.3668">
        <ele>47.799999237061</ele>
        <time>2022-04-21T07:45:15.000Z</time>
      </trkpt>
      <trkpt lat="47.28515" lon="-2.36683">
        <ele>47.799999237061</ele>
        <time>2022-04-21T07:45:17.000Z</time>
      </trkpt>
      <trkpt lat="47.28516" lon="-2.36688">
        <ele>47.799999237061</ele>
        <time>2022-04-21T07:45:20.000Z</time>
      </trkpt>
      <trkpt lat="47.28521" lon="-2.36701">
        <ele>47.400001525879</ele>
        <time>2022-04-21T07:45:25.000Z</time>
      </trkpt>
      <trkpt lat="47.28523" lon="-2.36704">
        <ele>46.799999237061</ele>
        <time>2022-04-21T07:45:26.000Z</time>
      </trkpt>
      <trkpt lat="47.28524" lon="-2.36707">
        <ele>46.400001525879</ele>
        <time>2022-04-21T07:45:27.000Z</time>
      </trkpt>
      <trkpt lat="47.28525" lon="-2.3671">
        <ele>46</ele>
        <time>2022-04-21T07:45:28.000Z</time>
      </trkpt>
      <trkpt lat="47.28526" lon="-2.36713">
        <ele>45.599998474121</ele>
        <time>2022-04-21T07:45:29.000Z</time>
      </trkpt>
      <trkpt lat="47.28526" lon="-2.36716">
        <ele>45.599998474121</ele>
        <time>2022-04-21T07:45:31.000Z</time>
      </trkpt>
      <trkpt lat="47.28526" lon="-2.36718">
        <ele>45.599998474121</ele>
        <time>2022-04-21T07:45:32.000Z</time>
      </trkpt>
      <trkpt lat="47.28524" lon="-2.36715">
        <ele>45.599998474121</ele>
        <time>2022-04-21T07:45:35.000Z</time>
      </trkpt>
      <trkpt lat="47.28519" lon="-2.36704">
        <ele>45.599998474121</ele>
        <time>2022-04-21T07:45:41.000Z</time>
      </trkpt>
      <trkpt lat="47.28516" lon="-2.36699">
        <ele>45.599998474121</ele>
        <time>2022-04-21T07:45:43.000Z</time>
      </trkpt>
      <trkpt lat="47.28516" lon="-2.36691">
        <ele>45.599998474121</ele>
        <time>2022-04-21T07:45:46.000Z</time>
      </trkpt>
      <trkpt lat="47.28518" lon="-2.36686">
        <ele>45.599998474121</ele>
        <time>2022-04-21T07:45:48.000Z</time>
      </trkpt>
      <trkpt lat="47.28524" lon="-2.36682">
        <ele>45.599998474121</ele>
        <time>2022-04-21T07:45:51.000Z</time>
      </trkpt>
      <trkpt lat="47.28536" lon="-2.36681">
        <ele>45.599998474121</ele>
        <time>2022-04-21T07:45:55.000Z</time>
      </trkpt>
      <trkpt lat="47.28558" lon="-2.36679">
        <ele>45.599998474121</ele>
        <time>2022-04-21T07:46:01.000Z</time>
      </trkpt>
      <trkpt lat="47.28571" lon="-2.36679">
        <ele>46</ele>
        <time>2022-04-21T07:46:04.000Z</time>
      </trkpt>
      <trkpt lat="47.28576" lon="-2.36679">
        <ele>46.400001525879</ele>
        <time>2022-04-21T07:46:05.000Z</time>
      </trkpt>
      <trkpt lat="47.2858" lon="-2.36679">
        <ele>46.799999237061</ele>
        <time>2022-04-21T07:46:06.000Z</time>
      </trkpt>
      <trkpt lat="47.28585" lon="-2.36678">
        <ele>47.200000762939</ele>
        <time>2022-04-21T07:46:07.000Z</time>
      </trkpt>
      <trkpt lat="47.28589" lon="-2.36677">
        <ele>47.599998474121</ele>
        <time>2022-04-21T07:46:08.000Z</time>
      </trkpt>
      <trkpt lat="47.28615" lon="-2.36673">
        <ele>48</ele>
        <time>2022-04-21T07:46:15.000Z</time>
      </trkpt>
      <trkpt lat="47.28618" lon="-2.36672">
        <ele>48.400001525879</ele>
        <time>2022-04-21T07:46:16.000Z</time>
      </trkpt>
      <trkpt lat="47.28622" lon="-2.3667">
        <ele>48.799999237061</ele>
        <time>2022-04-21T07:46:17.000Z</time>
      </trkpt>
      <trkpt lat="47.28625" lon="-2.36668">
        <ele>49.200000762939</ele>
        <time>2022-04-21T07:46:18.000Z</time>
      </trkpt>
      <trkpt lat="47.28629" lon="-2.36666">
        <ele>49.599998474121</ele>
        <time>2022-04-21T07:46:19.000Z</time>
      </trkpt>
      <trkpt lat="47.28638" lon="-2.3666">
        <ele>49.599998474121</ele>
        <time>2022-04-21T07:46:22.000Z</time>
      </trkpt>
      <trkpt lat="47.28641" lon="-2.36658">
        <ele>50.200000762939</ele>
        <time>2022-04-21T07:46:23.000Z</time>
      </trkpt>
      <trkpt lat="47.28645" lon="-2.36655">
        <ele>50.599998474121</ele>
        <time>2022-04-21T07:46:24.000Z</time>
      </trkpt>
      <trkpt lat="47.28648" lon="-2.36653">
        <ele>51</ele>
        <time>2022-04-21T07:46:25.000Z</time>
      </trkpt>
      <trkpt lat="47.28651" lon="-2.36651">
        <ele>51.400001525879</ele>
        <time>2022-04-21T07:46:26.000Z</time>
      </trkpt>
      <trkpt lat="47.28654" lon="-2.36648">
        <ele>52</ele>
        <time>2022-04-21T07:46:27.000Z</time>
      </trkpt>
      <trkpt lat="47.2866" lon="-2.36643">
        <ele>52</ele>
        <time>2022-04-21T07:46:29.000Z</time>
      </trkpt>
      <trkpt lat="47.28669" lon="-2.36636">
        <ele>52.400001525879</ele>
        <time>2022-04-21T07:46:32.000Z</time>
      </trkpt>
      <trkpt lat="47.28672" lon="-2.36633">
        <ele>52.799999237061</ele>
        <time>2022-04-21T07:46:33.000Z</time>
      </trkpt>
      <trkpt lat="47.28675" lon="-2.36631">
        <ele>53.200000762939</ele>
        <time>2022-04-21T07:46:34.000Z</time>
      </trkpt>
      <trkpt lat="47.28677" lon="-2.36628">
        <ele>53.599998474121</ele>
        <time>2022-04-21T07:46:35.000Z</time>
      </trkpt>
      <trkpt lat="47.2868" lon="-2.36625">
        <ele>54</ele>
        <time>2022-04-21T07:46:36.000Z</time>
      </trkpt>
      <trkpt lat="47.28695" lon="-2.36613">
        <ele>54</ele>
        <time>2022-04-21T07:46:42.000Z</time>
      </trkpt>
      <trkpt lat="47.28697" lon="-2.3661">
        <ele>54.400001525879</ele>
        <time>2022-04-21T07:46:43.000Z</time>
      </trkpt>
      <trkpt lat="47.28699" lon="-2.36609">
        <ele>54.799999237061</ele>
        <time>2022-04-21T07:46:44.000Z</time>
      </trkpt>
      <trkpt lat="47.287" lon="-2.36607">
        <ele>55.200000762939</ele>
        <time>2022-04-21T07:46:45.000Z</time>
      </trkpt>
      <trkpt lat="47.28702" lon="-2.36605">
        <ele>55.599998474121</ele>
        <time>2022-04-21T07:46:46.000Z</time>
      </trkpt>
      <trkpt lat="47.28704" lon="-2.36604">
        <ele>56</ele>
        <time>2022-04-21T07:46:47.000Z</time>
      </trkpt>
      <trkpt lat="47.28709" lon="-2.36602">
        <ele>56</ele>
        <time>2022-04-21T07:46:53.000Z</time>
      </trkpt>
      <trkpt lat="47.28715" lon="-2.36603">
        <ele>56</ele>
        <time>2022-04-21T07:46:59.000Z</time>
      </trkpt>
      <trkpt lat="47.2872" lon="-2.36611">
        <ele>56</ele>
        <time>2022-04-21T07:47:04.000Z</time>
      </trkpt>
      <trkpt lat="47.28724" lon="-2.36616">
        <ele>55.599998474121</ele>
        <time>2022-04-21T07:47:08.000Z</time>
      </trkpt>
      <trkpt lat="47.28726" lon="-2.36618">
        <ele>55</ele>
        <time>2022-04-21T07:47:09.000Z</time>
      </trkpt>
      <trkpt lat="47.2873" lon="-2.36621">
        <ele>54.599998474121</ele>
        <time>2022-04-21T07:47:10.000Z</time>
      </trkpt>
      <trkpt lat="47.28732" lon="-2.36624">
        <ele>54.200000762939</ele>
        <time>2022-04-21T07:47:11.000Z</time>
      </trkpt>
      <trkpt lat="47.28733" lon="-2.36627">
        <ele>53.599998474121</ele>
        <time>2022-04-21T07:47:12.000Z</time>
      </trkpt>
      <trkpt lat="47.28731" lon="-2.36636">
        <ele>53.200000762939</ele>
        <time>2022-04-21T07:47:14.000Z</time>
      </trkpt>
      <trkpt lat="47.2873" lon="-2.36639">
        <ele>52.799999237061</ele>
        <time>2022-04-21T07:47:15.000Z</time>
      </trkpt>
      <trkpt lat="47.28729" lon="-2.36642">
        <ele>52.400001525879</ele>
        <time>2022-04-21T07:47:16.000Z</time>
      </trkpt>
      <trkpt lat="47.28728" lon="-2.36646">
        <ele>52</ele>
        <time>2022-04-21T07:47:17.000Z</time>
      </trkpt>
      <trkpt lat="47.28725" lon="-2.36649">
        <ele>51.599998474121</ele>
        <time>2022-04-21T07:47:18.000Z</time>
      </trkpt>
      <trkpt lat="47.28721" lon="-2.36658">
        <ele>51.599998474121</ele>
        <time>2022-04-21T07:47:20.000Z</time>
      </trkpt>
      <trkpt lat="47.28718" lon="-2.36671">
        <ele>51.200000762939</ele>
        <time>2022-04-21T07:47:22.000Z</time>
      </trkpt>
      <trkpt lat="47.28716" lon="-2.36677">
        <ele>50.599998474121</ele>
        <time>2022-04-21T07:47:23.000Z</time>
      </trkpt>
      <trkpt lat="47.28714" lon="-2.36684">
        <ele>50.200000762939</ele>
        <time>2022-04-21T07:47:24.000Z</time>
      </trkpt>
      <trkpt lat="47.28712" lon="-2.36691">
        <ele>49.799999237061</ele>
        <time>2022-04-21T07:47:25.000Z</time>
      </trkpt>
      <trkpt lat="47.28709" lon="-2.36698">
        <ele>49.200000762939</ele>
        <time>2022-04-21T07:47:26.000Z</time>
      </trkpt>
      <trkpt lat="47.28704" lon="-2.36713">
        <ele>49.200000762939</ele>
        <time>2022-04-21T07:47:28.000Z</time>
      </trkpt>
      <trkpt lat="47.28701" lon="-2.36718">
        <ele>48.799999237061</ele>
        <time>2022-04-21T07:47:29.000Z</time>
      </trkpt>
      <trkpt lat="47.28698" lon="-2.36724">
        <ele>48.400001525879</ele>
        <time>2022-04-21T07:47:30.000Z</time>
      </trkpt>
      <trkpt lat="47.28696" lon="-2.36731">
        <ele>48</ele>
        <time>2022-04-21T07:47:31.000Z</time>
      </trkpt>
      <trkpt lat="47.28697" lon="-2.36736">
        <ele>47.599998474121</ele>
        <time>2022-04-21T07:47:32.000Z</time>
      </trkpt>
      <trkpt lat="47.28698" lon="-2.36742">
        <ele>47.200000762939</ele>
        <time>2022-04-21T07:47:33.000Z</time>
      </trkpt>
      <trkpt lat="47.28699" lon="-2.36748">
        <ele>47.200000762939</ele>
        <time>2022-04-21T07:47:34.000Z</time>
      </trkpt>
      <trkpt lat="47.28701" lon="-2.3677">
        <ele>46.799999237061</ele>
        <time>2022-04-21T07:47:37.000Z</time>
      </trkpt>
      <trkpt lat="47.28703" lon="-2.36776">
        <ele>46.400001525879</ele>
        <time>2022-04-21T07:47:38.000Z</time>
      </trkpt>
      <trkpt lat="47.28704" lon="-2.36784">
        <ele>45.799999237061</ele>
        <time>2022-04-21T07:47:39.000Z</time>
      </trkpt>
      <trkpt lat="47.28706" lon="-2.36795">
        <ele>45.400001525879</ele>
        <time>2022-04-21T07:47:40.000Z</time>
      </trkpt>
      <trkpt lat="47.28708" lon="-2.36805">
        <ele>45</ele>
        <time>2022-04-21T07:47:41.000Z</time>
      </trkpt>
      <trkpt lat="47.2871" lon="-2.36815">
        <ele>44.599998474121</ele>
        <time>2022-04-21T07:47:42.000Z</time>
      </trkpt>
      <trkpt lat="47.28712" lon="-2.36826">
        <ele>43.799999237061</ele>
        <time>2022-04-21T07:47:43.000Z</time>
      </trkpt>
      <trkpt lat="47.28715" lon="-2.36836">
        <ele>43.400001525879</ele>
        <time>2022-04-21T07:47:44.000Z</time>
      </trkpt>
      <trkpt lat="47.28719" lon="-2.36846">
        <ele>43</ele>
        <time>2022-04-21T07:47:45.000Z</time>
      </trkpt>
      <trkpt lat="47.28723" lon="-2.36856">
        <ele>42.400001525879</ele>
        <time>2022-04-21T07:47:46.000Z</time>
      </trkpt>
      <trkpt lat="47.28727" lon="-2.36865">
        <ele>42</ele>
        <time>2022-04-21T07:47:47.000Z</time>
      </trkpt>
      <trkpt lat="47.28731" lon="-2.36876">
        <ele>41.400001525879</ele>
        <time>2022-04-21T07:47:48.000Z</time>
      </trkpt>
      <trkpt lat="47.28735" lon="-2.36886">
        <ele>40.799999237061</ele>
        <time>2022-04-21T07:47:49.000Z</time>
      </trkpt>
      <trkpt lat="47.28739" lon="-2.36898">
        <ele>40</ele>
        <time>2022-04-21T07:47:50.000Z</time>
      </trkpt>
      <trkpt lat="47.28743" lon="-2.36909">
        <ele>39.400001525879</ele>
        <time>2022-04-21T07:47:51.000Z</time>
      </trkpt>
      <trkpt lat="47.28746" lon="-2.36915">
        <ele>38.799999237061</ele>
        <time>2022-04-21T07:47:52.000Z</time>
      </trkpt>
      <trkpt lat="47.28749" lon="-2.36921">
        <ele>38.200000762939</ele>
        <time>2022-04-21T07:47:53.000Z</time>
      </trkpt>
      <trkpt lat="47.28749" lon="-2.36931">
        <ele>38.200000762939</ele>
        <time>2022-04-21T07:47:56.000Z</time>
      </trkpt>
      <trkpt lat="47.28749" lon="-2.36944">
        <ele>38.200000762939</ele>
        <time>2022-04-21T07:48:03.000Z</time>
      </trkpt>
      <trkpt lat="47.2875" lon="-2.36945">
        <ele>38.200000762939</ele>
        <time>2022-04-21T07:48:05.000Z</time>
      </trkpt>
      <trkpt lat="47.2875" lon="-2.36967">
        <ele>40.200000762939</ele>
        <time>2022-04-21T07:48:17.000Z</time>
      </trkpt>
      <trkpt lat="47.28753" lon="-2.36974">
        <ele>40.200000762939</ele>
        <time>2022-04-21T07:48:19.000Z</time>
      </trkpt>
      <trkpt lat="47.28755" lon="-2.36977">
        <ele>40.599998474121</ele>
        <time>2022-04-21T07:48:20.000Z</time>
      </trkpt>
      <trkpt lat="47.28757" lon="-2.36979">
        <ele>41</ele>
        <time>2022-04-21T07:48:21.000Z</time>
      </trkpt>
      <trkpt lat="47.28758" lon="-2.36982">
        <ele>41.400001525879</ele>
        <time>2022-04-21T07:48:22.000Z</time>
      </trkpt>
      <trkpt lat="47.2876" lon="-2.36984">
        <ele>41.799999237061</ele>
        <time>2022-04-21T07:48:23.000Z</time>
      </trkpt>
      <trkpt lat="47.28761" lon="-2.36986">
        <ele>42.200000762939</ele>
        <time>2022-04-21T07:48:24.000Z</time>
      </trkpt>
      <trkpt lat="47.28763" lon="-2.36989">
        <ele>42.200000762939</ele>
        <time>2022-04-21T07:48:26.000Z</time>
      </trkpt>
      <trkpt lat="47.28769" lon="-2.37006">
        <ele>42.200000762939</ele>
        <time>2022-04-21T07:48:29.000Z</time>
      </trkpt>
      <trkpt lat="47.28775" lon="-2.37036">
        <ele>41.799999237061</ele>
        <time>2022-04-21T07:48:34.000Z</time>
      </trkpt>
      <trkpt lat="47.28776" lon="-2.37042">
        <ele>41.400001525879</ele>
        <time>2022-04-21T07:48:35.000Z</time>
      </trkpt>
      <trkpt lat="47.28778" lon="-2.3705">
        <ele>41</ele>
        <time>2022-04-21T07:48:36.000Z</time>
      </trkpt>
      <trkpt lat="47.2878" lon="-2.37057">
        <ele>40.599998474121</ele>
        <time>2022-04-21T07:48:37.000Z</time>
      </trkpt>
      <trkpt lat="47.28783" lon="-2.37066">
        <ele>40</ele>
        <time>2022-04-21T07:48:38.000Z</time>
      </trkpt>
      <trkpt lat="47.28784" lon="-2.37075">
        <ele>39.599998474121</ele>
        <time>2022-04-21T07:48:39.000Z</time>
      </trkpt>
      <trkpt lat="47.28786" lon="-2.37084">
        <ele>39.200000762939</ele>
        <time>2022-04-21T07:48:40.000Z</time>
      </trkpt>
      <trkpt lat="47.28788" lon="-2.37092">
        <ele>38.599998474121</ele>
        <time>2022-04-21T07:48:41.000Z</time>
      </trkpt>
      <trkpt lat="47.2879" lon="-2.37099">
        <ele>38.200000762939</ele>
        <time>2022-04-21T07:48:42.000Z</time>
      </trkpt>
      <trkpt lat="47.28792" lon="-2.37104">
        <ele>37.599998474121</ele>
        <time>2022-04-21T07:48:43.000Z</time>
      </trkpt>
      <trkpt lat="47.28795" lon="-2.37106">
        <ele>37.599998474121</ele>
        <time>2022-04-21T07:48:44.000Z</time>
      </trkpt>
      <trkpt lat="47.28798" lon="-2.37107">
        <ele>37.200000762939</ele>
        <time>2022-04-21T07:48:45.000Z</time>
      </trkpt>
      <trkpt lat="47.28802" lon="-2.37108">
        <ele>36.799999237061</ele>
        <time>2022-04-21T07:48:46.000Z</time>
      </trkpt>
      <trkpt lat="47.28806" lon="-2.37109">
        <ele>36.400001525879</ele>
        <time>2022-04-21T07:48:47.000Z</time>
      </trkpt>
      <trkpt lat="47.28809" lon="-2.3711">
        <ele>36</ele>
        <time>2022-04-21T07:48:48.000Z</time>
      </trkpt>
      <trkpt lat="47.28812" lon="-2.37109">
        <ele>35.400001525879</ele>
        <time>2022-04-21T07:48:49.000Z</time>
      </trkpt>
      <trkpt lat="47.28814" lon="-2.37107">
        <ele>34.799999237061</ele>
        <time>2022-04-21T07:48:50.000Z</time>
      </trkpt>
      <trkpt lat="47.28816" lon="-2.37106">
        <ele>34.200000762939</ele>
        <time>2022-04-21T07:48:51.000Z</time>
      </trkpt>
      <trkpt lat="47.28817" lon="-2.37105">
        <ele>33.599998474121</ele>
        <time>2022-04-21T07:48:52.000Z</time>
      </trkpt>
      <trkpt lat="47.28818" lon="-2.37104">
        <ele>33</ele>
        <time>2022-04-21T07:48:53.000Z</time>
      </trkpt>
      <trkpt lat="47.2882" lon="-2.371">
        <ele>32.599998474121</ele>
        <time>2022-04-21T07:48:55.000Z</time>
      </trkpt>
      <trkpt lat="47.28821" lon="-2.37098">
        <ele>32.200000762939</ele>
        <time>2022-04-21T07:48:56.000Z</time>
      </trkpt>
      <trkpt lat="47.28821" lon="-2.37096">
        <ele>31.39999961853</ele>
        <time>2022-04-21T07:48:57.000Z</time>
      </trkpt>
      <trkpt lat="47.28822" lon="-2.37093">
        <ele>31</ele>
        <time>2022-04-21T07:48:58.000Z</time>
      </trkpt>
      <trkpt lat="47.28823" lon="-2.37092">
        <ele>31</ele>
        <time>2022-04-21T07:48:59.000Z</time>
      </trkpt>
      <trkpt lat="47.28822" lon="-2.37085">
        <ele>31</ele>
        <time>2022-04-21T07:49:04.000Z</time>
      </trkpt>
      <trkpt lat="47.28823" lon="-2.3708">
        <ele>31</ele>
        <time>2022-04-21T07:49:06.000Z</time>
      </trkpt>
      <trkpt lat="47.2882" lon="-2.37069">
        <ele>31</ele>
        <time>2022-04-21T07:49:09.000Z</time>
      </trkpt>
      <trkpt lat="47.28816" lon="-2.37061">
        <ele>31</ele>
        <time>2022-04-21T07:49:11.000Z</time>
      </trkpt>
      <trkpt lat="47.2881" lon="-2.37045">
        <ele>31</ele>
        <time>2022-04-21T07:49:15.000Z</time>
      </trkpt>
      <trkpt lat="47.28804" lon="-2.37027">
        <ele>31</ele>
        <time>2022-04-21T07:49:18.000Z</time>
      </trkpt>
      <trkpt lat="47.28802" lon="-2.3702">
        <ele>31</ele>
        <time>2022-04-21T07:49:19.000Z</time>
      </trkpt>
      <trkpt lat="47.28782" lon="-2.36971">
        <ele>31</ele>
        <time>2022-04-21T07:49:27.000Z</time>
      </trkpt>
      <trkpt lat="47.28773" lon="-2.36938">
        <ele>31</ele>
        <time>2022-04-21T07:49:33.000Z</time>
      </trkpt>
      <trkpt lat="47.28768" lon="-2.36912">
        <ele>31</ele>
        <time>2022-04-21T07:49:39.000Z</time>
      </trkpt>
      <trkpt lat="47.28768" lon="-2.36904">
        <ele>31</ele>
        <time>2022-04-21T07:49:41.000Z</time>
      </trkpt>
      <trkpt lat="47.28769" lon="-2.36894">
        <ele>31</ele>
        <time>2022-04-21T07:49:43.000Z</time>
      </trkpt>
      <trkpt lat="47.28776" lon="-2.36862">
        <ele>31</ele>
        <time>2022-04-21T07:49:49.000Z</time>
      </trkpt>
      <trkpt lat="47.28798" lon="-2.3682">
        <ele>31</ele>
        <time>2022-04-21T07:49:57.000Z</time>
      </trkpt>
      <trkpt lat="47.28809" lon="-2.36823">
        <ele>31</ele>
        <time>2022-04-21T07:50:00.000Z</time>
      </trkpt>
      <trkpt lat="47.28816" lon="-2.36838">
        <ele>31</ele>
        <time>2022-04-21T07:50:03.000Z</time>
      </trkpt>
      <trkpt lat="47.2882" lon="-2.3685">
        <ele>31.39999961853</ele>
        <time>2022-04-21T07:50:06.000Z</time>
      </trkpt>
      <trkpt lat="47.28821" lon="-2.36853">
        <ele>32</ele>
        <time>2022-04-21T07:50:07.000Z</time>
      </trkpt>
      <trkpt lat="47.28822" lon="-2.36857">
        <ele>32.599998474121</ele>
        <time>2022-04-21T07:50:08.000Z</time>
      </trkpt>
      <trkpt lat="47.28822" lon="-2.3686">
        <ele>33</ele>
        <time>2022-04-21T07:50:09.000Z</time>
      </trkpt>
      <trkpt lat="47.28824" lon="-2.36864">
        <ele>33.599998474121</ele>
        <time>2022-04-21T07:50:10.000Z</time>
      </trkpt>
      <trkpt lat="47.28828" lon="-2.36868">
        <ele>34</ele>
        <time>2022-04-21T07:50:11.000Z</time>
      </trkpt>
      <trkpt lat="47.28831" lon="-2.36871">
        <ele>35</ele>
        <time>2022-04-21T07:50:12.000Z</time>
      </trkpt>
      <trkpt lat="47.28833" lon="-2.36874">
        <ele>35.400001525879</ele>
        <time>2022-04-21T07:50:13.000Z</time>
      </trkpt>
      <trkpt lat="47.28835" lon="-2.36877">
        <ele>36</ele>
        <time>2022-04-21T07:50:14.000Z</time>
      </trkpt>
      <trkpt lat="47.28837" lon="-2.36879">
        <ele>36.400001525879</ele>
        <time>2022-04-21T07:50:15.000Z</time>
      </trkpt>
      <trkpt lat="47.28839" lon="-2.36881">
        <ele>36.799999237061</ele>
        <time>2022-04-21T07:50:16.000Z</time>
      </trkpt>
      <trkpt lat="47.2884" lon="-2.36881">
        <ele>37.400001525879</ele>
        <time>2022-04-21T07:50:17.000Z</time>
      </trkpt>
      <trkpt lat="47.28843" lon="-2.36879">
        <ele>37.799999237061</ele>
        <time>2022-04-21T07:50:18.000Z</time>
      </trkpt>
      <trkpt lat="47.28845" lon="-2.36877">
        <ele>38.200000762939</ele>
        <time>2022-04-21T07:50:19.000Z</time>
      </trkpt>
      <trkpt lat="47.28853" lon="-2.36862">
        <ele>38.200000762939</ele>
        <time>2022-04-21T07:50:23.000Z</time>
      </trkpt>
      <trkpt lat="47.28855" lon="-2.36854">
        <ele>38.799999237061</ele>
        <time>2022-04-21T07:50:25.000Z</time>
      </trkpt>
      <trkpt lat="47.28856" lon="-2.3685">
        <ele>39.200000762939</ele>
        <time>2022-04-21T07:50:26.000Z</time>
      </trkpt>
      <trkpt lat="47.28857" lon="-2.36845">
        <ele>39.599998474121</ele>
        <time>2022-04-21T07:50:27.000Z</time>
      </trkpt>
      <trkpt lat="47.28858" lon="-2.36841">
        <ele>40</ele>
        <time>2022-04-21T07:50:28.000Z</time>
      </trkpt>
      <trkpt lat="47.28858" lon="-2.36837">
        <ele>40.400001525879</ele>
        <time>2022-04-21T07:50:29.000Z</time>
      </trkpt>
      <trkpt lat="47.28859" lon="-2.36833">
        <ele>40.400001525879</ele>
        <time>2022-04-21T07:50:30.000Z</time>
      </trkpt>
      <trkpt lat="47.28864" lon="-2.36816">
        <ele>40.400001525879</ele>
        <time>2022-04-21T07:50:36.000Z</time>
      </trkpt>
      <trkpt lat="47.2887" lon="-2.36792">
        <ele>40.400001525879</ele>
        <time>2022-04-21T07:50:42.000Z</time>
      </trkpt>
      <trkpt lat="47.28873" lon="-2.36782">
        <ele>40.799999237061</ele>
        <time>2022-04-21T07:50:45.000Z</time>
      </trkpt>
      <trkpt lat="47.28874" lon="-2.36779">
        <ele>41.200000762939</ele>
        <time>2022-04-21T07:50:46.000Z</time>
      </trkpt>
      <trkpt lat="47.28876" lon="-2.36777">
        <ele>41.599998474121</ele>
        <time>2022-04-21T07:50:47.000Z</time>
      </trkpt>
      <trkpt lat="47.28877" lon="-2.36777">
        <ele>42</ele>
        <time>2022-04-21T07:50:48.000Z</time>
      </trkpt>
      <trkpt lat="47.28879" lon="-2.36777">
        <ele>42.400001525879</ele>
        <time>2022-04-21T07:50:49.000Z</time>
      </trkpt>
      <trkpt lat="47.28883" lon="-2.36777">
        <ele>42.400001525879</ele>
        <time>2022-04-21T07:50:51.000Z</time>
      </trkpt>
      <trkpt lat="47.28904" lon="-2.36782">
        <ele>42.400001525879</ele>
        <time>2022-04-21T07:50:58.000Z</time>
      </trkpt>
      <trkpt lat="47.2891" lon="-2.36788">
        <ele>42.799999237061</ele>
        <time>2022-04-21T07:51:01.000Z</time>
      </trkpt>
      <trkpt lat="47.28912" lon="-2.36791">
        <ele>43.200000762939</ele>
        <time>2022-04-21T07:51:02.000Z</time>
      </trkpt>
      <trkpt lat="47.28915" lon="-2.36793">
        <ele>43.599998474121</ele>
        <time>2022-04-21T07:51:03.000Z</time>
      </trkpt>
      <trkpt lat="47.28917" lon="-2.36796">
        <ele>44</ele>
        <time>2022-04-21T07:51:04.000Z</time>
      </trkpt>
      <trkpt lat="47.28919" lon="-2.36799">
        <ele>44.400001525879</ele>
        <time>2022-04-21T07:51:05.000Z</time>
      </trkpt>
      <trkpt lat="47.28932" lon="-2.3681">
        <ele>44.400001525879</ele>
        <time>2022-04-21T07:51:09.000Z</time>
      </trkpt>
      <trkpt lat="47.28947" lon="-2.36824">
        <ele>44.400001525879</ele>
        <time>2022-04-21T07:51:14.000Z</time>
      </trkpt>
      <trkpt lat="47.2895" lon="-2.36826">
        <ele>44.799999237061</ele>
        <time>2022-04-21T07:51:15.000Z</time>
      </trkpt>
      <trkpt lat="47.28953" lon="-2.36828">
        <ele>45.200000762939</ele>
        <time>2022-04-21T07:51:16.000Z</time>
      </trkpt>
      <trkpt lat="47.28956" lon="-2.3683">
        <ele>45.599998474121</ele>
        <time>2022-04-21T07:51:17.000Z</time>
      </trkpt>
      <trkpt lat="47.28959" lon="-2.36833">
        <ele>46</ele>
        <time>2022-04-21T07:51:18.000Z</time>
      </trkpt>
      <trkpt lat="47.28962" lon="-2.36835">
        <ele>46.400001525879</ele>
        <time>2022-04-21T07:51:19.000Z</time>
      </trkpt>
      <trkpt lat="47.28965" lon="-2.36838">
        <ele>46.400001525879</ele>
        <time>2022-04-21T07:51:20.000Z</time>
      </trkpt>
      <trkpt lat="47.28984" lon="-2.36858">
        <ele>46.400001525879</ele>
        <time>2022-04-21T07:51:27.000Z</time>
      </trkpt>
      <trkpt lat="47.28994" lon="-2.36869">
        <ele>46.400001525879</ele>
        <time>2022-04-21T07:51:31.000Z</time>
      </trkpt>
      <trkpt lat="47.29008" lon="-2.36884">
        <ele>46.400001525879</ele>
        <time>2022-04-21T07:51:37.000Z</time>
      </trkpt>
      <trkpt lat="47.29023" lon="-2.36898">
        <ele>46.400001525879</ele>
        <time>2022-04-21T07:51:43.000Z</time>
      </trkpt>
      <trkpt lat="47.29025" lon="-2.369">
        <ele>46.799999237061</ele>
        <time>2022-04-21T07:51:44.000Z</time>
      </trkpt>
      <trkpt lat="47.29027" lon="-2.36902">
        <ele>47.200000762939</ele>
        <time>2022-04-21T07:51:45.000Z</time>
      </trkpt>
      <trkpt lat="47.2903" lon="-2.36904">
        <ele>47.599998474121</ele>
        <time>2022-04-21T07:51:46.000Z</time>
      </trkpt>
      <trkpt lat="47.29032" lon="-2.36906">
        <ele>48</ele>
        <time>2022-04-21T07:51:47.000Z</time>
      </trkpt>
      <trkpt lat="47.29034" lon="-2.36908">
        <ele>48.599998474121</ele>
        <time>2022-04-21T07:51:48.000Z</time>
      </trkpt>
      <trkpt lat="47.29036" lon="-2.3691">
        <ele>48.599998474121</ele>
        <time>2022-04-21T07:51:49.000Z</time>
      </trkpt>
      <trkpt lat="47.29044" lon="-2.36921">
        <ele>48.599998474121</ele>
        <time>2022-04-21T07:51:55.000Z</time>
      </trkpt>
      <trkpt lat="47.29059" lon="-2.36936">
        <ele>48.599998474121</ele>
        <time>2022-04-21T07:52:02.000Z</time>
      </trkpt>
      <trkpt lat="47.29081" lon="-2.36948">
        <ele>48.599998474121</ele>
        <time>2022-04-21T07:52:09.000Z</time>
      </trkpt>
      <trkpt lat="47.29091" lon="-2.3695">
        <ele>49</ele>
        <time>2022-04-21T07:52:12.000Z</time>
      </trkpt>
      <trkpt lat="47.29095" lon="-2.3695">
        <ele>49.400001525879</ele>
        <time>2022-04-21T07:52:13.000Z</time>
      </trkpt>
      <trkpt lat="47.29098" lon="-2.36951">
        <ele>49.799999237061</ele>
        <time>2022-04-21T07:52:14.000Z</time>
      </trkpt>
      <trkpt lat="47.29101" lon="-2.36953">
        <ele>50.599998474121</ele>
        <time>2022-04-21T07:52:15.000Z</time>
      </trkpt>
      <trkpt lat="47.29118" lon="-2.36955">
        <ele>50.599998474121</ele>
        <time>2022-04-21T07:52:20.000Z</time>
      </trkpt>
      <trkpt lat="47.29136" lon="-2.3697">
        <ele>50.599998474121</ele>
        <time>2022-04-21T07:52:26.000Z</time>
      </trkpt>
      <trkpt lat="47.2915" lon="-2.36989">
        <ele>50.599998474121</ele>
        <time>2022-04-21T07:52:31.000Z</time>
      </trkpt>
      <trkpt lat="47.29175" lon="-2.37021">
        <ele>50.599998474121</ele>
        <time>2022-04-21T07:52:39.000Z</time>
      </trkpt>
      <trkpt lat="47.29202" lon="-2.37055">
        <ele>50.599998474121</ele>
        <time>2022-04-21T07:52:47.000Z</time>
      </trkpt>
      <trkpt lat="47.29221" lon="-2.37069">
        <ele>50.599998474121</ele>
        <time>2022-04-21T07:52:52.000Z</time>
      </trkpt>
      <trkpt lat="47.29229" lon="-2.3706">
        <ele>51</ele>
        <time>2022-04-21T07:52:54.000Z</time>
      </trkpt>
      <trkpt lat="47.29233" lon="-2.37054">
        <ele>51.400001525879</ele>
        <time>2022-04-21T07:52:55.000Z</time>
      </trkpt>
      <trkpt lat="47.29236" lon="-2.37049">
        <ele>52</ele>
        <time>2022-04-21T07:52:56.000Z</time>
      </trkpt>
      <trkpt lat="47.29239" lon="-2.37044">
        <ele>52.400001525879</ele>
        <time>2022-04-21T07:52:57.000Z</time>
      </trkpt>
      <trkpt lat="47.29242" lon="-2.37039">
        <ele>52.799999237061</ele>
        <time>2022-04-21T07:52:58.000Z</time>
      </trkpt>
      <trkpt lat="47.29244" lon="-2.37033">
        <ele>52.799999237061</ele>
        <time>2022-04-21T07:52:59.000Z</time>
      </trkpt>
      <trkpt lat="47.2925" lon="-2.37023">
        <ele>52.799999237061</ele>
        <time>2022-04-21T07:53:01.000Z</time>
      </trkpt>
      <trkpt lat="47.29253" lon="-2.37018">
        <ele>52.799999237061</ele>
        <time>2022-04-21T07:53:02.000Z</time>
      </trkpt>
      <trkpt lat="47.29264" lon="-2.36998">
        <ele>52.799999237061</ele>
        <time>2022-04-21T07:53:06.000Z</time>
      </trkpt>
      <trkpt lat="47.29287" lon="-2.36958">
        <ele>52.799999237061</ele>
        <time>2022-04-21T07:53:14.000Z</time>
      </trkpt>
      <trkpt lat="47.29289" lon="-2.36953">
        <ele>53.200000762939</ele>
        <time>2022-04-21T07:53:15.000Z</time>
      </trkpt>
      <trkpt lat="47.29292" lon="-2.36948">
        <ele>53.599998474121</ele>
        <time>2022-04-21T07:53:16.000Z</time>
      </trkpt>
      <trkpt lat="47.29295" lon="-2.36942">
        <ele>54</ele>
        <time>2022-04-21T07:53:17.000Z</time>
      </trkpt>
      <trkpt lat="47.29299" lon="-2.36937">
        <ele>54.400001525879</ele>
        <time>2022-04-21T07:53:18.000Z</time>
      </trkpt>
      <trkpt lat="47.29302" lon="-2.36932">
        <ele>54.799999237061</ele>
        <time>2022-04-21T07:53:19.000Z</time>
      </trkpt>
      <trkpt lat="47.29322" lon="-2.36908">
        <ele>54.799999237061</ele>
        <time>2022-04-21T07:53:25.000Z</time>
      </trkpt>
      <trkpt lat="47.29324" lon="-2.36907">
        <ele>54.799999237061</ele>
        <time>2022-04-21T07:53:26.000Z</time>
      </trkpt>
      <trkpt lat="47.29329" lon="-2.36911">
        <ele>54.799999237061</ele>
        <time>2022-04-21T07:53:28.000Z</time>
      </trkpt>
      <trkpt lat="47.29334" lon="-2.36918">
        <ele>54.799999237061</ele>
        <time>2022-04-21T07:53:30.000Z</time>
      </trkpt>
      <trkpt lat="47.29345" lon="-2.36934">
        <ele>54.799999237061</ele>
        <time>2022-04-21T07:53:34.000Z</time>
      </trkpt>
      <trkpt lat="47.29348" lon="-2.36943">
        <ele>54.799999237061</ele>
        <time>2022-04-21T07:53:36.000Z</time>
      </trkpt>
      <trkpt lat="47.29348" lon="-2.36947">
        <ele>54.799999237061</ele>
        <time>2022-04-21T07:53:37.000Z</time>
      </trkpt>
      <trkpt lat="47.29341" lon="-2.36959">
        <ele>54.799999237061</ele>
        <time>2022-04-21T07:53:40.000Z</time>
      </trkpt>
      <trkpt lat="47.29336" lon="-2.36967">
        <ele>54.799999237061</ele>
        <time>2022-04-21T07:53:42.000Z</time>
      </trkpt>
      <trkpt lat="47.29324" lon="-2.36993">
        <ele>54.799999237061</ele>
        <time>2022-04-21T07:53:48.000Z</time>
      </trkpt>
      <trkpt lat="47.29326" lon="-2.37011">
        <ele>54.799999237061</ele>
        <time>2022-04-21T07:53:51.000Z</time>
      </trkpt>
      <trkpt lat="47.29327" lon="-2.37016">
        <ele>54.799999237061</ele>
        <time>2022-04-21T07:53:52.000Z</time>
      </trkpt>
      <trkpt lat="47.29328" lon="-2.37062">
        <ele>54.799999237061</ele>
        <time>2022-04-21T07:53:59.000Z</time>
      </trkpt>
      <trkpt lat="47.29328" lon="-2.37068">
        <ele>54.799999237061</ele>
        <time>2022-04-21T07:54:00.000Z</time>
      </trkpt>
      <trkpt lat="47.29334" lon="-2.37084">
        <ele>54.799999237061</ele>
        <time>2022-04-21T07:54:03.000Z</time>
      </trkpt>
      <trkpt lat="47.29345" lon="-2.3709">
        <ele>54.799999237061</ele>
        <time>2022-04-21T07:54:06.000Z</time>
      </trkpt>
      <trkpt lat="47.29349" lon="-2.37109">
        <ele>54.799999237061</ele>
        <time>2022-04-21T07:54:09.000Z</time>
      </trkpt>
      <trkpt lat="47.29355" lon="-2.37141">
        <ele>54.400001525879</ele>
        <time>2022-04-21T07:54:13.000Z</time>
      </trkpt>
      <trkpt lat="47.29359" lon="-2.37148">
        <ele>54</ele>
        <time>2022-04-21T07:54:14.000Z</time>
      </trkpt>
      <trkpt lat="47.29363" lon="-2.37154">
        <ele>53.599998474121</ele>
        <time>2022-04-21T07:54:15.000Z</time>
      </trkpt>
      <trkpt lat="47.29368" lon="-2.3716">
        <ele>53.200000762939</ele>
        <time>2022-04-21T07:54:16.000Z</time>
      </trkpt>
      <trkpt lat="47.29372" lon="-2.37166">
        <ele>52.799999237061</ele>
        <time>2022-04-21T07:54:17.000Z</time>
      </trkpt>
      <trkpt lat="47.29381" lon="-2.37178">
        <ele>52.799999237061</ele>
        <time>2022-04-21T07:54:19.000Z</time>
      </trkpt>
      <trkpt lat="47.29395" lon="-2.37194">
        <ele>52.799999237061</ele>
        <time>2022-04-21T07:54:22.000Z</time>
      </trkpt>
      <trkpt lat="47.294" lon="-2.37206">
        <ele>52.400001525879</ele>
        <time>2022-04-21T07:54:24.000Z</time>
      </trkpt>
      <trkpt lat="47.294" lon="-2.37213">
        <ele>52</ele>
        <time>2022-04-21T07:54:25.000Z</time>
      </trkpt>
      <trkpt lat="47.294" lon="-2.37219">
        <ele>51.599998474121</ele>
        <time>2022-04-21T07:54:26.000Z</time>
      </trkpt>
      <trkpt lat="47.294" lon="-2.37225">
        <ele>51.200000762939</ele>
        <time>2022-04-21T07:54:27.000Z</time>
      </trkpt>
      <trkpt lat="47.29401" lon="-2.37229">
        <ele>50.799999237061</ele>
        <time>2022-04-21T07:54:28.000Z</time>
      </trkpt>
      <trkpt lat="47.29412" lon="-2.37236">
        <ele>50.799999237061</ele>
        <time>2022-04-21T07:54:31.000Z</time>
      </trkpt>
      <trkpt lat="47.29416" lon="-2.37239">
        <ele>50.799999237061</ele>
        <time>2022-04-21T07:54:32.000Z</time>
      </trkpt>
      <trkpt lat="47.29439" lon="-2.37257">
        <ele>50.799999237061</ele>
        <time>2022-04-21T07:54:37.000Z</time>
      </trkpt>
      <trkpt lat="47.29463" lon="-2.37283">
        <ele>50.799999237061</ele>
        <time>2022-04-21T07:54:43.000Z</time>
      </trkpt>
      <trkpt lat="47.29478" lon="-2.37301">
        <ele>51.200000762939</ele>
        <time>2022-04-21T07:54:47.000Z</time>
      </trkpt>
      <trkpt lat="47.29481" lon="-2.37306">
        <ele>51.599998474121</ele>
        <time>2022-04-21T07:54:48.000Z</time>
      </trkpt>
      <trkpt lat="47.29485" lon="-2.3731">
        <ele>52</ele>
        <time>2022-04-21T07:54:49.000Z</time>
      </trkpt>
      <trkpt lat="47.29489" lon="-2.37315">
        <ele>52.400001525879</ele>
        <time>2022-04-21T07:54:50.000Z</time>
      </trkpt>
      <trkpt lat="47.29493" lon="-2.37319">
        <ele>52.799999237061</ele>
        <time>2022-04-21T07:54:51.000Z</time>
      </trkpt>
      <trkpt lat="47.2951" lon="-2.37336">
        <ele>52.799999237061</ele>
        <time>2022-04-21T07:54:55.000Z</time>
      </trkpt>
      <trkpt lat="47.29542" lon="-2.37374">
        <ele>52.799999237061</ele>
        <time>2022-04-21T07:55:03.000Z</time>
      </trkpt>
      <trkpt lat="47.29546" lon="-2.37379">
        <ele>53.200000762939</ele>
        <time>2022-04-21T07:55:04.000Z</time>
      </trkpt>
      <trkpt lat="47.2955" lon="-2.37383">
        <ele>53.599998474121</ele>
        <time>2022-04-21T07:55:05.000Z</time>
      </trkpt>
      <trkpt lat="47.29553" lon="-2.37389">
        <ele>54</ele>
        <time>2022-04-21T07:55:06.000Z</time>
      </trkpt>
      <trkpt lat="47.29557" lon="-2.37394">
        <ele>54.400001525879</ele>
        <time>2022-04-21T07:55:07.000Z</time>
      </trkpt>
      <trkpt lat="47.2956" lon="-2.37398">
        <ele>54.799999237061</ele>
        <time>2022-04-21T07:55:08.000Z</time>
      </trkpt>
      <trkpt lat="47.29567" lon="-2.37409">
        <ele>54.799999237061</ele>
        <time>2022-04-21T07:55:10.000Z</time>
      </trkpt>
      <trkpt lat="47.2959" lon="-2.37454">
        <ele>54.799999237061</ele>
        <time>2022-04-21T07:55:17.000Z</time>
      </trkpt>
      <trkpt lat="47.29616" lon="-2.3749">
        <ele>54.799999237061</ele>
        <time>2022-04-21T07:55:23.000Z</time>
      </trkpt>
      <trkpt lat="47.29648" lon="-2.37514">
        <ele>54.799999237061</ele>
        <time>2022-04-21T07:55:28.000Z</time>
      </trkpt>
      <trkpt lat="47.29655" lon="-2.37519">
        <ele>54.400001525879</ele>
        <time>2022-04-21T07:55:29.000Z</time>
      </trkpt>
      <trkpt lat="47.29661" lon="-2.37523">
        <ele>54</ele>
        <time>2022-04-21T07:55:30.000Z</time>
      </trkpt>
      <trkpt lat="47.29668" lon="-2.37528">
        <ele>53.599998474121</ele>
        <time>2022-04-21T07:55:31.000Z</time>
      </trkpt>
      <trkpt lat="47.29675" lon="-2.37532">
        <ele>53</ele>
        <time>2022-04-21T07:55:32.000Z</time>
      </trkpt>
      <trkpt lat="47.29681" lon="-2.37537">
        <ele>52.599998474121</ele>
        <time>2022-04-21T07:55:33.000Z</time>
      </trkpt>
      <trkpt lat="47.29692" lon="-2.37547">
        <ele>52.599998474121</ele>
        <time>2022-04-21T07:55:35.000Z</time>
      </trkpt>
      <trkpt lat="47.29708" lon="-2.37562">
        <ele>52.599998474121</ele>
        <time>2022-04-21T07:55:38.000Z</time>
      </trkpt>
      <trkpt lat="47.29722" lon="-2.37579">
        <ele>52.599998474121</ele>
        <time>2022-04-21T07:55:41.000Z</time>
      </trkpt>
      <trkpt lat="47.29751" lon="-2.37617">
        <ele>53</ele>
        <time>2022-04-21T07:55:48.000Z</time>
      </trkpt>
      <trkpt lat="47.29754" lon="-2.37623">
        <ele>53.400001525879</ele>
        <time>2022-04-21T07:55:49.000Z</time>
      </trkpt>
      <trkpt lat="47.29758" lon="-2.37628">
        <ele>53.799999237061</ele>
        <time>2022-04-21T07:55:50.000Z</time>
      </trkpt>
      <trkpt lat="47.29762" lon="-2.37633">
        <ele>54.400001525879</ele>
        <time>2022-04-21T07:55:51.000Z</time>
      </trkpt>
      <trkpt lat="47.29766" lon="-2.37638">
        <ele>54.799999237061</ele>
        <time>2022-04-21T07:55:52.000Z</time>
      </trkpt>
      <trkpt lat="47.29776" lon="-2.37653">
        <ele>54.799999237061</ele>
        <time>2022-04-21T07:55:55.000Z</time>
      </trkpt>
      <trkpt lat="47.29808" lon="-2.37701">
        <ele>54.799999237061</ele>
        <time>2022-04-21T07:56:04.000Z</time>
      </trkpt>
      <trkpt lat="47.29836" lon="-2.37748">
        <ele>54.799999237061</ele>
        <time>2022-04-21T07:56:12.000Z</time>
      </trkpt>
      <trkpt lat="47.29858" lon="-2.37786">
        <ele>54.799999237061</ele>
        <time>2022-04-21T07:56:18.000Z</time>
      </trkpt>
      <trkpt lat="47.29862" lon="-2.37792">
        <ele>54.799999237061</ele>
        <time>2022-04-21T07:56:19.000Z</time>
      </trkpt>
      <trkpt lat="47.29868" lon="-2.3781">
        <ele>54.799999237061</ele>
        <time>2022-04-21T07:56:22.000Z</time>
      </trkpt>
      <trkpt lat="47.29864" lon="-2.37831">
        <ele>54.799999237061</ele>
        <time>2022-04-21T07:56:25.000Z</time>
      </trkpt>
      <trkpt lat="47.29861" lon="-2.37837">
        <ele>54.799999237061</ele>
        <time>2022-04-21T07:56:26.000Z</time>
      </trkpt>
      <trkpt lat="47.29849" lon="-2.37864">
        <ele>54.799999237061</ele>
        <time>2022-04-21T07:56:30.000Z</time>
      </trkpt>
      <trkpt lat="47.29841" lon="-2.37875">
        <ele>54.799999237061</ele>
        <time>2022-04-21T07:56:32.000Z</time>
      </trkpt>
      <trkpt lat="47.29817" lon="-2.37894">
        <ele>54.799999237061</ele>
        <time>2022-04-21T07:56:37.000Z</time>
      </trkpt>
      <trkpt lat="47.29796" lon="-2.37907">
        <ele>54.799999237061</ele>
        <time>2022-04-21T07:56:41.000Z</time>
      </trkpt>
      <trkpt lat="47.2978" lon="-2.37917">
        <ele>54.799999237061</ele>
        <time>2022-04-21T07:56:44.000Z</time>
      </trkpt>
      <trkpt lat="47.29763" lon="-2.37928">
        <ele>54.799999237061</ele>
        <time>2022-04-21T07:56:47.000Z</time>
      </trkpt>
      <trkpt lat="47.29748" lon="-2.37946">
        <ele>54.799999237061</ele>
        <time>2022-04-21T07:56:50.000Z</time>
      </trkpt>
      <trkpt lat="47.29744" lon="-2.37953">
        <ele>54.200000762939</ele>
        <time>2022-04-21T07:56:51.000Z</time>
      </trkpt>
      <trkpt lat="47.2974" lon="-2.3796">
        <ele>53.799999237061</ele>
        <time>2022-04-21T07:56:52.000Z</time>
      </trkpt>
      <trkpt lat="47.29737" lon="-2.37967">
        <ele>53.400001525879</ele>
        <time>2022-04-21T07:56:53.000Z</time>
      </trkpt>
      <trkpt lat="47.29734" lon="-2.37975">
        <ele>52.799999237061</ele>
        <time>2022-04-21T07:56:54.000Z</time>
      </trkpt>
      <trkpt lat="47.29731" lon="-2.37983">
        <ele>52.200000762939</ele>
        <time>2022-04-21T07:56:55.000Z</time>
      </trkpt>
      <trkpt lat="47.2973" lon="-2.3799">
        <ele>51.599998474121</ele>
        <time>2022-04-21T07:56:56.000Z</time>
      </trkpt>
      <trkpt lat="47.29729" lon="-2.37998">
        <ele>51</ele>
        <time>2022-04-21T07:56:57.000Z</time>
      </trkpt>
      <trkpt lat="47.29729" lon="-2.38006">
        <ele>50.200000762939</ele>
        <time>2022-04-21T07:56:58.000Z</time>
      </trkpt>
      <trkpt lat="47.29729" lon="-2.38013">
        <ele>49.599998474121</ele>
        <time>2022-04-21T07:56:59.000Z</time>
      </trkpt>
      <trkpt lat="47.29729" lon="-2.3802">
        <ele>48.799999237061</ele>
        <time>2022-04-21T07:57:00.000Z</time>
      </trkpt>
      <trkpt lat="47.2973" lon="-2.38027">
        <ele>48</ele>
        <time>2022-04-21T07:57:01.000Z</time>
      </trkpt>
      <trkpt lat="47.2973" lon="-2.38035">
        <ele>47.200000762939</ele>
        <time>2022-04-21T07:57:02.000Z</time>
      </trkpt>
      <trkpt lat="47.29728" lon="-2.38042">
        <ele>46.200000762939</ele>
        <time>2022-04-21T07:57:03.000Z</time>
      </trkpt>
      <trkpt lat="47.29724" lon="-2.38046">
        <ele>45.400001525879</ele>
        <time>2022-04-21T07:57:04.000Z</time>
      </trkpt>
      <trkpt lat="47.29719" lon="-2.38051">
        <ele>44.400001525879</ele>
        <time>2022-04-21T07:57:05.000Z</time>
      </trkpt>
      <trkpt lat="47.29713" lon="-2.38056">
        <ele>43.599998474121</ele>
        <time>2022-04-21T07:57:06.000Z</time>
      </trkpt>
      <trkpt lat="47.29707" lon="-2.38061">
        <ele>42.799999237061</ele>
        <time>2022-04-21T07:57:07.000Z</time>
      </trkpt>
      <trkpt lat="47.29701" lon="-2.38067">
        <ele>42</ele>
        <time>2022-04-21T07:57:08.000Z</time>
      </trkpt>
      <trkpt lat="47.29694" lon="-2.38073">
        <ele>41.200000762939</ele>
        <time>2022-04-21T07:57:09.000Z</time>
      </trkpt>
      <trkpt lat="47.29688" lon="-2.38078">
        <ele>40.400001525879</ele>
        <time>2022-04-21T07:57:10.000Z</time>
      </trkpt>
      <trkpt lat="47.2968" lon="-2.38083">
        <ele>39.599998474121</ele>
        <time>2022-04-21T07:57:11.000Z</time>
      </trkpt>
      <trkpt lat="47.29672" lon="-2.38087">
        <ele>38</ele>
        <time>2022-04-21T07:57:12.000Z</time>
      </trkpt>
      <trkpt lat="47.29664" lon="-2.38092">
        <ele>37.200000762939</ele>
        <time>2022-04-21T07:57:13.000Z</time>
      </trkpt>
      <trkpt lat="47.29655" lon="-2.38095">
        <ele>36.200000762939</ele>
        <time>2022-04-21T07:57:14.000Z</time>
      </trkpt>
      <trkpt lat="47.29647" lon="-2.38099">
        <ele>35.400001525879</ele>
        <time>2022-04-21T07:57:15.000Z</time>
      </trkpt>
      <trkpt lat="47.29639" lon="-2.38104">
        <ele>34.799999237061</ele>
        <time>2022-04-21T07:57:16.000Z</time>
      </trkpt>
      <trkpt lat="47.29631" lon="-2.38107">
        <ele>34.200000762939</ele>
        <time>2022-04-21T07:57:17.000Z</time>
      </trkpt>
      <trkpt lat="47.29623" lon="-2.3811">
        <ele>33.599998474121</ele>
        <time>2022-04-21T07:57:18.000Z</time>
      </trkpt>
      <trkpt lat="47.29615" lon="-2.38113">
        <ele>33</ele>
        <time>2022-04-21T07:57:19.000Z</time>
      </trkpt>
      <trkpt lat="47.29607" lon="-2.38115">
        <ele>32.200000762939</ele>
        <time>2022-04-21T07:57:20.000Z</time>
      </trkpt>
      <trkpt lat="47.29591" lon="-2.38119">
        <ele>31.799999237061</ele>
        <time>2022-04-21T07:57:22.000Z</time>
      </trkpt>
      <trkpt lat="47.29584" lon="-2.3812">
        <ele>31.39999961853</ele>
        <time>2022-04-21T07:57:23.000Z</time>
      </trkpt>
      <trkpt lat="47.29576" lon="-2.38122">
        <ele>31</ele>
        <time>2022-04-21T07:57:24.000Z</time>
      </trkpt>
      <trkpt lat="47.29569" lon="-2.38123">
        <ele>30.60000038147</ele>
        <time>2022-04-21T07:57:25.000Z</time>
      </trkpt>
      <trkpt lat="47.29562" lon="-2.38124">
        <ele>30.200000762939</ele>
        <time>2022-04-21T07:57:26.000Z</time>
      </trkpt>
      <trkpt lat="47.29555" lon="-2.38125">
        <ele>29.799999237061</ele>
        <time>2022-04-21T07:57:27.000Z</time>
      </trkpt>
      <trkpt lat="47.29548" lon="-2.38126">
        <ele>29.39999961853</ele>
        <time>2022-04-21T07:57:28.000Z</time>
      </trkpt>
      <trkpt lat="47.2954" lon="-2.38126">
        <ele>29</ele>
        <time>2022-04-21T07:57:29.000Z</time>
      </trkpt>
      <trkpt lat="47.29532" lon="-2.38126">
        <ele>28.60000038147</ele>
        <time>2022-04-21T07:57:30.000Z</time>
      </trkpt>
      <trkpt lat="47.29525" lon="-2.38126">
        <ele>28.200000762939</ele>
        <time>2022-04-21T07:57:31.000Z</time>
      </trkpt>
      <trkpt lat="47.29511" lon="-2.38125">
        <ele>27.60000038147</ele>
        <time>2022-04-21T07:57:33.000Z</time>
      </trkpt>
      <trkpt lat="47.29504" lon="-2.38124">
        <ele>27.200000762939</ele>
        <time>2022-04-21T07:57:34.000Z</time>
      </trkpt>
      <trkpt lat="47.29497" lon="-2.38125">
        <ele>26.799999237061</ele>
        <time>2022-04-21T07:57:35.000Z</time>
      </trkpt>
      <trkpt lat="47.2949" lon="-2.38127">
        <ele>26</ele>
        <time>2022-04-21T07:57:36.000Z</time>
      </trkpt>
      <trkpt lat="47.29478" lon="-2.38133">
        <ele>26</ele>
        <time>2022-04-21T07:57:38.000Z</time>
      </trkpt>
      <trkpt lat="47.29472" lon="-2.38137">
        <ele>26</ele>
        <time>2022-04-21T07:57:39.000Z</time>
      </trkpt>
      <trkpt lat="47.29457" lon="-2.38148">
        <ele>25.60000038147</ele>
        <time>2022-04-21T07:57:42.000Z</time>
      </trkpt>
      <trkpt lat="47.29453" lon="-2.38151">
        <ele>25.200000762939</ele>
        <time>2022-04-21T07:57:43.000Z</time>
      </trkpt>
      <trkpt lat="47.2945" lon="-2.38155">
        <ele>24.799999237061</ele>
        <time>2022-04-21T07:57:44.000Z</time>
      </trkpt>
      <trkpt lat="47.29449" lon="-2.38158">
        <ele>24.200000762939</ele>
        <time>2022-04-21T07:57:45.000Z</time>
      </trkpt>
      <trkpt lat="47.29448" lon="-2.38162">
        <ele>23.799999237061</ele>
        <time>2022-04-21T07:57:46.000Z</time>
      </trkpt>
      <trkpt lat="47.29449" lon="-2.38166">
        <ele>23.799999237061</ele>
        <time>2022-04-21T07:57:47.000Z</time>
      </trkpt>
      <trkpt lat="47.29452" lon="-2.38195">
        <ele>23.799999237061</ele>
        <time>2022-04-21T07:57:52.000Z</time>
      </trkpt>
      <trkpt lat="47.29455" lon="-2.38238">
        <ele>23.799999237061</ele>
        <time>2022-04-21T07:57:57.000Z</time>
      </trkpt>
      <trkpt lat="47.29459" lon="-2.38286">
        <ele>23.799999237061</ele>
        <time>2022-04-21T07:58:02.000Z</time>
      </trkpt>
      <trkpt lat="47.29459" lon="-2.38296">
        <ele>23.799999237061</ele>
        <time>2022-04-21T07:58:03.000Z</time>
      </trkpt>
      <trkpt lat="47.29456" lon="-2.3838">
        <ele>23.799999237061</ele>
        <time>2022-04-21T07:58:11.000Z</time>
      </trkpt>
      <trkpt lat="47.29456" lon="-2.3839">
        <ele>23.799999237061</ele>
        <time>2022-04-21T07:58:12.000Z</time>
      </trkpt>
      <trkpt lat="47.29458" lon="-2.38444">
        <ele>23.799999237061</ele>
        <time>2022-04-21T07:58:18.000Z</time>
      </trkpt>
      <trkpt lat="47.2946" lon="-2.38503">
        <ele>23.799999237061</ele>
        <time>2022-04-21T07:58:25.000Z</time>
      </trkpt>
      <trkpt lat="47.29462" lon="-2.38559">
        <ele>23.799999237061</ele>
        <time>2022-04-21T07:58:31.000Z</time>
      </trkpt>
      <trkpt lat="47.29464" lon="-2.38623">
        <ele>23.799999237061</ele>
        <time>2022-04-21T07:58:38.000Z</time>
      </trkpt>
      <trkpt lat="47.29463" lon="-2.38652">
        <ele>23.799999237061</ele>
        <time>2022-04-21T07:58:42.000Z</time>
      </trkpt>
      <trkpt lat="47.29464" lon="-2.38659">
        <ele>23.799999237061</ele>
        <time>2022-04-21T07:58:43.000Z</time>
      </trkpt>
      <trkpt lat="47.2947" lon="-2.38701">
        <ele>23.799999237061</ele>
        <time>2022-04-21T07:58:49.000Z</time>
      </trkpt>
      <trkpt lat="47.29474" lon="-2.38743">
        <ele>23.799999237061</ele>
        <time>2022-04-21T07:58:55.000Z</time>
      </trkpt>
      <trkpt lat="47.29474" lon="-2.38795">
        <ele>23.799999237061</ele>
        <time>2022-04-21T07:59:02.000Z</time>
      </trkpt>
      <trkpt lat="47.29475" lon="-2.38827">
        <ele>23.799999237061</ele>
        <time>2022-04-21T07:59:07.000Z</time>
      </trkpt>
      <trkpt lat="47.29477" lon="-2.38838">
        <ele>23.799999237061</ele>
        <time>2022-04-21T07:59:09.000Z</time>
      </trkpt>
      <trkpt lat="47.29486" lon="-2.38876">
        <ele>24.60000038147</ele>
        <time>2022-04-21T07:59:15.000Z</time>
      </trkpt>
      <trkpt lat="47.29488" lon="-2.38882">
        <ele>25</ele>
        <time>2022-04-21T07:59:16.000Z</time>
      </trkpt>
      <trkpt lat="47.29489" lon="-2.38888">
        <ele>25.39999961853</ele>
        <time>2022-04-21T07:59:17.000Z</time>
      </trkpt>
      <trkpt lat="47.29491" lon="-2.38894">
        <ele>25.799999237061</ele>
        <time>2022-04-21T07:59:18.000Z</time>
      </trkpt>
      <trkpt lat="47.29494" lon="-2.38903">
        <ele>25.799999237061</ele>
        <time>2022-04-21T07:59:20.000Z</time>
      </trkpt>
      <trkpt lat="47.29502" lon="-2.38926">
        <ele>25.799999237061</ele>
        <time>2022-04-21T07:59:26.000Z</time>
      </trkpt>
      <trkpt lat="47.29503" lon="-2.38935">
        <ele>25.799999237061</ele>
        <time>2022-04-21T07:59:30.000Z</time>
      </trkpt>
      <trkpt lat="47.29503" lon="-2.38938">
        <ele>25.799999237061</ele>
        <time>2022-04-21T07:59:31.000Z</time>
      </trkpt>
      <trkpt lat="47.29502" lon="-2.38946">
        <ele>25.799999237061</ele>
        <time>2022-04-21T07:59:35.000Z</time>
      </trkpt>
      <trkpt lat="47.29503" lon="-2.3895">
        <ele>25.799999237061</ele>
        <time>2022-04-21T07:59:37.000Z</time>
      </trkpt>
      <trkpt lat="47.29509" lon="-2.38955">
        <ele>25.799999237061</ele>
        <time>2022-04-21T07:59:41.000Z</time>
      </trkpt>
      <trkpt lat="47.2951" lon="-2.38955">
        <ele>25.799999237061</ele>
        <time>2022-04-21T07:59:43.000Z</time>
      </trkpt>
      <trkpt lat="47.29513" lon="-2.38957">
        <ele>25.799999237061</ele>
        <time>2022-04-21T08:00:01.000Z</time>
      </trkpt>
      <trkpt lat="47.29515" lon="-2.38958">
        <ele>25.799999237061</ele>
        <time>2022-04-21T08:00:02.000Z</time>
      </trkpt>
      <trkpt lat="47.29529" lon="-2.3897">
        <ele>25.799999237061</ele>
        <time>2022-04-21T08:00:07.000Z</time>
      </trkpt>
      <trkpt lat="47.29533" lon="-2.38972">
        <ele>25.799999237061</ele>
        <time>2022-04-21T08:00:08.000Z</time>
      </trkpt>
      <trkpt lat="47.29551" lon="-2.38984">
        <ele>25.799999237061</ele>
        <time>2022-04-21T08:00:12.000Z</time>
      </trkpt>
      <trkpt lat="47.29555" lon="-2.38987">
        <ele>25.799999237061</ele>
        <time>2022-04-21T08:00:13.000Z</time>
      </trkpt>
      <trkpt lat="47.29579" lon="-2.38997">
        <ele>25.799999237061</ele>
        <time>2022-04-21T08:00:18.000Z</time>
      </trkpt>
      <trkpt lat="47.29583" lon="-2.38999">
        <ele>25.799999237061</ele>
        <time>2022-04-21T08:00:19.000Z</time>
      </trkpt>
      <trkpt lat="47.296" lon="-2.39006">
        <ele>25.799999237061</ele>
        <time>2022-04-21T08:00:23.000Z</time>
      </trkpt>
      <trkpt lat="47.29608" lon="-2.3901">
        <ele>25.799999237061</ele>
        <time>2022-04-21T08:00:25.000Z</time>
      </trkpt>
      <trkpt lat="47.29622" lon="-2.39026">
        <ele>25.799999237061</ele>
        <time>2022-04-21T08:00:30.000Z</time>
      </trkpt>
      <trkpt lat="47.29623" lon="-2.39032">
        <ele>25.799999237061</ele>
        <time>2022-04-21T08:00:31.000Z</time>
      </trkpt>
      <trkpt lat="47.29625" lon="-2.39059">
        <ele>25.799999237061</ele>
        <time>2022-04-21T08:00:35.000Z</time>
      </trkpt>
      <trkpt lat="47.29626" lon="-2.39117">
        <ele>25.799999237061</ele>
        <time>2022-04-21T08:00:43.000Z</time>
      </trkpt>
      <trkpt lat="47.29628" lon="-2.39134">
        <ele>25.799999237061</ele>
        <time>2022-04-21T08:00:45.000Z</time>
      </trkpt>
      <trkpt lat="47.29636" lon="-2.39159">
        <ele>25.799999237061</ele>
        <time>2022-04-21T08:00:48.000Z</time>
      </trkpt>
      <trkpt lat="47.29639" lon="-2.39167">
        <ele>25.799999237061</ele>
        <time>2022-04-21T08:00:49.000Z</time>
      </trkpt>
      <trkpt lat="47.29644" lon="-2.39174">
        <ele>25.799999237061</ele>
        <time>2022-04-21T08:00:50.000Z</time>
      </trkpt>
      <trkpt lat="47.29648" lon="-2.3918">
        <ele>25.39999961853</ele>
        <time>2022-04-21T08:00:51.000Z</time>
      </trkpt>
      <trkpt lat="47.29653" lon="-2.39184">
        <ele>25</ele>
        <time>2022-04-21T08:00:52.000Z</time>
      </trkpt>
      <trkpt lat="47.29658" lon="-2.39188">
        <ele>24.60000038147</ele>
        <time>2022-04-21T08:00:53.000Z</time>
      </trkpt>
      <trkpt lat="47.29661" lon="-2.39194">
        <ele>23.60000038147</ele>
        <time>2022-04-21T08:00:54.000Z</time>
      </trkpt>
      <trkpt lat="47.29662" lon="-2.39201">
        <ele>23.60000038147</ele>
        <time>2022-04-21T08:00:55.000Z</time>
      </trkpt>
      <trkpt lat="47.29657" lon="-2.39222">
        <ele>23.60000038147</ele>
        <time>2022-04-21T08:00:58.000Z</time>
      </trkpt>
      <trkpt lat="47.2965" lon="-2.39261">
        <ele>23.60000038147</ele>
        <time>2022-04-21T08:01:03.000Z</time>
      </trkpt>
      <trkpt lat="47.29647" lon="-2.39285">
        <ele>23.60000038147</ele>
        <time>2022-04-21T08:01:06.000Z</time>
      </trkpt>
      <trkpt lat="47.29644" lon="-2.39319">
        <ele>23.60000038147</ele>
        <time>2022-04-21T08:01:10.000Z</time>
      </trkpt>
      <trkpt lat="47.29641" lon="-2.39373">
        <ele>23.60000038147</ele>
        <time>2022-04-21T08:01:17.000Z</time>
      </trkpt>
      <trkpt lat="47.2964" lon="-2.39387">
        <ele>23.60000038147</ele>
        <time>2022-04-21T08:01:19.000Z</time>
      </trkpt>
      <trkpt lat="47.29635" lon="-2.394">
        <ele>23.60000038147</ele>
        <time>2022-04-21T08:01:21.000Z</time>
      </trkpt>
      <trkpt lat="47.29633" lon="-2.39407">
        <ele>23.60000038147</ele>
        <time>2022-04-21T08:01:22.000Z</time>
      </trkpt>
      <trkpt lat="47.29632" lon="-2.39422">
        <ele>23.60000038147</ele>
        <time>2022-04-21T08:01:24.000Z</time>
      </trkpt>
      <trkpt lat="47.29629" lon="-2.39436">
        <ele>23.60000038147</ele>
        <time>2022-04-21T08:01:26.000Z</time>
      </trkpt>
      <trkpt lat="47.29625" lon="-2.39447">
        <ele>23.60000038147</ele>
        <time>2022-04-21T08:01:28.000Z</time>
      </trkpt>
      <trkpt lat="47.29606" lon="-2.39481">
        <ele>23.60000038147</ele>
        <time>2022-04-21T08:01:34.000Z</time>
      </trkpt>
      <trkpt lat="47.2959" lon="-2.39499">
        <ele>23.60000038147</ele>
        <time>2022-04-21T08:01:38.000Z</time>
      </trkpt>
      <trkpt lat="47.29576" lon="-2.39496">
        <ele>23.60000038147</ele>
        <time>2022-04-21T08:01:41.000Z</time>
      </trkpt>
      <trkpt lat="47.29571" lon="-2.39494">
        <ele>23.60000038147</ele>
        <time>2022-04-21T08:01:42.000Z</time>
      </trkpt>
      <trkpt lat="47.29567" lon="-2.39493">
        <ele>23.60000038147</ele>
        <time>2022-04-21T08:01:43.000Z</time>
      </trkpt>
      <trkpt lat="47.29559" lon="-2.39496">
        <ele>23.60000038147</ele>
        <time>2022-04-21T08:01:45.000Z</time>
      </trkpt>
      <trkpt lat="47.29555" lon="-2.39511">
        <ele>23.60000038147</ele>
        <time>2022-04-21T08:01:48.000Z</time>
      </trkpt>
      <trkpt lat="47.29556" lon="-2.39528">
        <ele>23.60000038147</ele>
        <time>2022-04-21T08:01:53.000Z</time>
      </trkpt>
      <trkpt lat="47.29556" lon="-2.39542">
        <ele>23.60000038147</ele>
        <time>2022-04-21T08:01:57.000Z</time>
      </trkpt>
      <trkpt lat="47.29558" lon="-2.39544">
        <ele>24</ele>
        <time>2022-04-21T08:01:58.000Z</time>
      </trkpt>
      <trkpt lat="47.2956" lon="-2.39545">
        <ele>24.39999961853</ele>
        <time>2022-04-21T08:01:59.000Z</time>
      </trkpt>
      <trkpt lat="47.29563" lon="-2.39545">
        <ele>25</ele>
        <time>2022-04-21T08:02:00.000Z</time>
      </trkpt>
      <trkpt lat="47.29567" lon="-2.39545">
        <ele>25.39999961853</ele>
        <time>2022-04-21T08:02:01.000Z</time>
      </trkpt>
      <trkpt lat="47.2957" lon="-2.39545">
        <ele>25.799999237061</ele>
        <time>2022-04-21T08:02:02.000Z</time>
      </trkpt>
      <trkpt lat="47.29584" lon="-2.39547">
        <ele>26.200000762939</ele>
        <time>2022-04-21T08:02:07.000Z</time>
      </trkpt>
      <trkpt lat="47.29587" lon="-2.39548">
        <ele>27.200000762939</ele>
        <time>2022-04-21T08:02:08.000Z</time>
      </trkpt>
      <trkpt lat="47.2959" lon="-2.39549">
        <ele>27.60000038147</ele>
        <time>2022-04-21T08:02:09.000Z</time>
      </trkpt>
      <trkpt lat="47.29593" lon="-2.39549">
        <ele>28</ele>
        <time>2022-04-21T08:02:10.000Z</time>
      </trkpt>
      <trkpt lat="47.29604" lon="-2.39551">
        <ele>28</ele>
        <time>2022-04-21T08:02:13.000Z</time>
      </trkpt>
      <trkpt lat="47.29624" lon="-2.39558">
        <ele>28</ele>
        <time>2022-04-21T08:02:18.000Z</time>
      </trkpt>
      <trkpt lat="47.29619" lon="-2.39564">
        <ele>27.60000038147</ele>
        <time>2022-04-21T08:02:21.000Z</time>
      </trkpt>
      <trkpt lat="47.29616" lon="-2.39566">
        <ele>27.200000762939</ele>
        <time>2022-04-21T08:02:22.000Z</time>
      </trkpt>
      <trkpt lat="47.29613" lon="-2.39566">
        <ele>26.60000038147</ele>
        <time>2022-04-21T08:02:23.000Z</time>
      </trkpt>
      <trkpt lat="47.2961" lon="-2.39568">
        <ele>26.200000762939</ele>
        <time>2022-04-21T08:02:24.000Z</time>
      </trkpt>
      <trkpt lat="47.2961" lon="-2.39571">
        <ele>25.799999237061</ele>
        <time>2022-04-21T08:02:25.000Z</time>
      </trkpt>
      <trkpt lat="47.29618" lon="-2.39575">
        <ele>25.799999237061</ele>
        <time>2022-04-21T08:02:28.000Z</time>
      </trkpt>
      <trkpt lat="47.29622" lon="-2.39574">
        <ele>25.39999961853</ele>
        <time>2022-04-21T08:02:29.000Z</time>
      </trkpt>
      <trkpt lat="47.29626" lon="-2.39575">
        <ele>25</ele>
        <time>2022-04-21T08:02:30.000Z</time>
      </trkpt>
      <trkpt lat="47.2963" lon="-2.39577">
        <ele>24.39999961853</ele>
        <time>2022-04-21T08:02:31.000Z</time>
      </trkpt>
      <trkpt lat="47.29632" lon="-2.39581">
        <ele>24</ele>
        <time>2022-04-21T08:02:32.000Z</time>
      </trkpt>
      <trkpt lat="47.29633" lon="-2.39585">
        <ele>23.60000038147</ele>
        <time>2022-04-21T08:02:33.000Z</time>
      </trkpt>
      <trkpt lat="47.29633" lon="-2.39601">
        <ele>23.60000038147</ele>
        <time>2022-04-21T08:02:36.000Z</time>
      </trkpt>
      <trkpt lat="47.2963" lon="-2.39633">
        <ele>23.60000038147</ele>
        <time>2022-04-21T08:02:41.000Z</time>
      </trkpt>
      <trkpt lat="47.29628" lon="-2.39641">
        <ele>23.60000038147</ele>
        <time>2022-04-21T08:02:42.000Z</time>
      </trkpt>
      <trkpt lat="47.29621" lon="-2.39661">
        <ele>23.60000038147</ele>
        <time>2022-04-21T08:02:45.000Z</time>
      </trkpt>
      <trkpt lat="47.29615" lon="-2.39672">
        <ele>23.60000038147</ele>
        <time>2022-04-21T08:02:47.000Z</time>
      </trkpt>
      <trkpt lat="47.29604" lon="-2.39688">
        <ele>23.200000762939</ele>
        <time>2022-04-21T08:02:50.000Z</time>
      </trkpt>
      <trkpt lat="47.29602" lon="-2.39694">
        <ele>22.799999237061</ele>
        <time>2022-04-21T08:02:51.000Z</time>
      </trkpt>
      <trkpt lat="47.29599" lon="-2.39699">
        <ele>22.39999961853</ele>
        <time>2022-04-21T08:02:52.000Z</time>
      </trkpt>
      <trkpt lat="47.29599" lon="-2.39706">
        <ele>22</ele>
        <time>2022-04-21T08:02:53.000Z</time>
      </trkpt>
      <trkpt lat="47.29599" lon="-2.39713">
        <ele>21.60000038147</ele>
        <time>2022-04-21T08:02:54.000Z</time>
      </trkpt>
      <trkpt lat="47.29604" lon="-2.39724">
        <ele>21.60000038147</ele>
        <time>2022-04-21T08:02:56.000Z</time>
      </trkpt>
      <trkpt lat="47.29607" lon="-2.3973">
        <ele>21.60000038147</ele>
        <time>2022-04-21T08:02:57.000Z</time>
      </trkpt>
      <trkpt lat="47.29612" lon="-2.39742">
        <ele>21.60000038147</ele>
        <time>2022-04-21T08:02:59.000Z</time>
      </trkpt>
      <trkpt lat="47.29619" lon="-2.39763">
        <ele>21.60000038147</ele>
        <time>2022-04-21T08:03:02.000Z</time>
      </trkpt>
      <trkpt lat="47.29621" lon="-2.3977">
        <ele>21.60000038147</ele>
        <time>2022-04-21T08:03:03.000Z</time>
      </trkpt>
      <trkpt lat="47.29622" lon="-2.3978">
        <ele>21.60000038147</ele>
        <time>2022-04-21T08:03:05.000Z</time>
      </trkpt>
      <trkpt lat="47.29619" lon="-2.39786">
        <ele>21.60000038147</ele>
        <time>2022-04-21T08:03:06.000Z</time>
      </trkpt>
      <trkpt lat="47.29612" lon="-2.39799">
        <ele>21.60000038147</ele>
        <time>2022-04-21T08:03:08.000Z</time>
      </trkpt>
      <trkpt lat="47.29611" lon="-2.39812">
        <ele>21.60000038147</ele>
        <time>2022-04-21T08:03:10.000Z</time>
      </trkpt>
      <trkpt lat="47.29616" lon="-2.39831">
        <ele>21.60000038147</ele>
        <time>2022-04-21T08:03:13.000Z</time>
      </trkpt>
      <trkpt lat="47.29618" lon="-2.39838">
        <ele>21.60000038147</ele>
        <time>2022-04-21T08:03:14.000Z</time>
      </trkpt>
      <trkpt lat="47.29616" lon="-2.39856">
        <ele>21.60000038147</ele>
        <time>2022-04-21T08:03:17.000Z</time>
      </trkpt>
      <trkpt lat="47.29612" lon="-2.39882">
        <ele>21.60000038147</ele>
        <time>2022-04-21T08:03:21.000Z</time>
      </trkpt>
      <trkpt lat="47.29614" lon="-2.39888">
        <ele>21.60000038147</ele>
        <time>2022-04-21T08:03:22.000Z</time>
      </trkpt>
      <trkpt lat="47.29618" lon="-2.399">
        <ele>22</ele>
        <time>2022-04-21T08:03:24.000Z</time>
      </trkpt>
      <trkpt lat="47.29621" lon="-2.39905">
        <ele>22.39999961853</ele>
        <time>2022-04-21T08:03:25.000Z</time>
      </trkpt>
      <trkpt lat="47.29623" lon="-2.39911">
        <ele>22.799999237061</ele>
        <time>2022-04-21T08:03:26.000Z</time>
      </trkpt>
      <trkpt lat="47.29625" lon="-2.39917">
        <ele>23.200000762939</ele>
        <time>2022-04-21T08:03:27.000Z</time>
      </trkpt>
      <trkpt lat="47.29628" lon="-2.39923">
        <ele>23.60000038147</ele>
        <time>2022-04-21T08:03:28.000Z</time>
      </trkpt>
      <trkpt lat="47.29633" lon="-2.39933">
        <ele>23.60000038147</ele>
        <time>2022-04-21T08:03:30.000Z</time>
      </trkpt>
      <trkpt lat="47.29643" lon="-2.39957">
        <ele>23.60000038147</ele>
        <time>2022-04-21T08:03:36.000Z</time>
      </trkpt>
      <trkpt lat="47.29647" lon="-2.39971">
        <ele>24</ele>
        <time>2022-04-21T08:03:39.000Z</time>
      </trkpt>
      <trkpt lat="47.29648" lon="-2.39977">
        <ele>24.39999961853</ele>
        <time>2022-04-21T08:03:40.000Z</time>
      </trkpt>
      <trkpt lat="47.29647" lon="-2.39982">
        <ele>24.799999237061</ele>
        <time>2022-04-21T08:03:41.000Z</time>
      </trkpt>
      <trkpt lat="47.29645" lon="-2.39986">
        <ele>25.200000762939</ele>
        <time>2022-04-21T08:03:42.000Z</time>
      </trkpt>
      <trkpt lat="47.29642" lon="-2.3999">
        <ele>25.60000038147</ele>
        <time>2022-04-21T08:03:43.000Z</time>
      </trkpt>
      <trkpt lat="47.29635" lon="-2.39997">
        <ele>25.60000038147</ele>
        <time>2022-04-21T08:03:45.000Z</time>
      </trkpt>
      <trkpt lat="47.29622" lon="-2.40008">
        <ele>25.60000038147</ele>
        <time>2022-04-21T08:03:48.000Z</time>
      </trkpt>
      <trkpt lat="47.29618" lon="-2.40022">
        <ele>25.60000038147</ele>
        <time>2022-04-21T08:03:50.000Z</time>
      </trkpt>
      <trkpt lat="47.29622" lon="-2.40041">
        <ele>25.60000038147</ele>
        <time>2022-04-21T08:03:53.000Z</time>
      </trkpt>
      <trkpt lat="47.29632" lon="-2.40063">
        <ele>25.60000038147</ele>
        <time>2022-04-21T08:03:58.000Z</time>
      </trkpt>
      <trkpt lat="47.29636" lon="-2.40067">
        <ele>25.60000038147</ele>
        <time>2022-04-21T08:04:00.000Z</time>
      </trkpt>
      <trkpt lat="47.29636" lon="-2.40067">
        <ele>25.60000038147</ele>
        <time>2022-04-21T08:04:01.000Z</time>
      </trkpt>
      <trkpt lat="47.29637" lon="-2.40067">
        <ele>25.60000038147</ele>
        <time>2022-04-21T08:04:02.000Z</time>
      </trkpt>
      <trkpt lat="47.2964" lon="-2.40068">
        <ele>25.60000038147</ele>
        <time>2022-04-21T08:04:04.000Z</time>
      </trkpt>
      <trkpt lat="47.29643" lon="-2.4008">
        <ele>25.60000038147</ele>
        <time>2022-04-21T08:04:07.000Z</time>
      </trkpt>
      <trkpt lat="47.29644" lon="-2.40084">
        <ele>25.60000038147</ele>
        <time>2022-04-21T08:04:08.000Z</time>
      </trkpt>
      <trkpt lat="47.29651" lon="-2.40111">
        <ele>25.60000038147</ele>
        <time>2022-04-21T08:04:14.000Z</time>
      </trkpt>
      <trkpt lat="47.29658" lon="-2.40133">
        <ele>25.60000038147</ele>
        <time>2022-04-21T08:04:20.000Z</time>
      </trkpt>
      <trkpt lat="47.29659" lon="-2.40137">
        <ele>26.200000762939</ele>
        <time>2022-04-21T08:04:21.000Z</time>
      </trkpt>
      <trkpt lat="47.29661" lon="-2.4014">
        <ele>26.60000038147</ele>
        <time>2022-04-21T08:04:22.000Z</time>
      </trkpt>
      <trkpt lat="47.29663" lon="-2.40144">
        <ele>27</ele>
        <time>2022-04-21T08:04:23.000Z</time>
      </trkpt>
      <trkpt lat="47.29664" lon="-2.40149">
        <ele>27.39999961853</ele>
        <time>2022-04-21T08:04:24.000Z</time>
      </trkpt>
      <trkpt lat="47.29665" lon="-2.40154">
        <ele>27.799999237061</ele>
        <time>2022-04-21T08:04:25.000Z</time>
      </trkpt>
      <trkpt lat="47.29669" lon="-2.40186">
        <ele>27.799999237061</ele>
        <time>2022-04-21T08:04:30.000Z</time>
      </trkpt>
      <trkpt lat="47.29674" lon="-2.40227">
        <ele>27.799999237061</ele>
        <time>2022-04-21T08:04:36.000Z</time>
      </trkpt>
      <trkpt lat="47.29675" lon="-2.40233">
        <ele>27.799999237061</ele>
        <time>2022-04-21T08:04:37.000Z</time>
      </trkpt>
      <trkpt lat="47.29675" lon="-2.40239">
        <ele>28.200000762939</ele>
        <time>2022-04-21T08:04:38.000Z</time>
      </trkpt>
      <trkpt lat="47.29675" lon="-2.40245">
        <ele>28.60000038147</ele>
        <time>2022-04-21T08:04:39.000Z</time>
      </trkpt>
      <trkpt lat="47.29675" lon="-2.40251">
        <ele>29</ele>
        <time>2022-04-21T08:04:40.000Z</time>
      </trkpt>
      <trkpt lat="47.29676" lon="-2.40256">
        <ele>29.39999961853</ele>
        <time>2022-04-21T08:04:41.000Z</time>
      </trkpt>
      <trkpt lat="47.29676" lon="-2.40262">
        <ele>29.799999237061</ele>
        <time>2022-04-21T08:04:42.000Z</time>
      </trkpt>
      <trkpt lat="47.29676" lon="-2.40273">
        <ele>29.799999237061</ele>
        <time>2022-04-21T08:04:44.000Z</time>
      </trkpt>
      <trkpt lat="47.29678" lon="-2.40293">
        <ele>30.39999961853</ele>
        <time>2022-04-21T08:04:48.000Z</time>
      </trkpt>
      <trkpt lat="47.29679" lon="-2.40299">
        <ele>30.799999237061</ele>
        <time>2022-04-21T08:04:49.000Z</time>
      </trkpt>
      <trkpt lat="47.2968" lon="-2.40304">
        <ele>31.200000762939</ele>
        <time>2022-04-21T08:04:50.000Z</time>
      </trkpt>
      <trkpt lat="47.2968" lon="-2.4031">
        <ele>31.60000038147</ele>
        <time>2022-04-21T08:04:51.000Z</time>
      </trkpt>
      <trkpt lat="47.2968" lon="-2.40316">
        <ele>32</ele>
        <time>2022-04-21T08:04:52.000Z</time>
      </trkpt>
      <trkpt lat="47.29679" lon="-2.40335">
        <ele>32</ele>
        <time>2022-04-21T08:04:55.000Z</time>
      </trkpt>
      <trkpt lat="47.29679" lon="-2.40348">
        <ele>32</ele>
        <time>2022-04-21T08:04:57.000Z</time>
      </trkpt>
      <trkpt lat="47.29683" lon="-2.40368">
        <ele>32</ele>
        <time>2022-04-21T08:05:00.000Z</time>
      </trkpt>
      <trkpt lat="47.29694" lon="-2.40385">
        <ele>32</ele>
        <time>2022-04-21T08:05:04.000Z</time>
      </trkpt>
      <trkpt lat="47.29709" lon="-2.40387">
        <ele>32</ele>
        <time>2022-04-21T08:05:08.000Z</time>
      </trkpt>
      <trkpt lat="47.29725" lon="-2.40376">
        <ele>32</ele>
        <time>2022-04-21T08:05:12.000Z</time>
      </trkpt>
      <trkpt lat="47.29744" lon="-2.4036">
        <ele>32</ele>
        <time>2022-04-21T08:05:17.000Z</time>
      </trkpt>
      <trkpt lat="47.29757" lon="-2.40353">
        <ele>32</ele>
        <time>2022-04-21T08:05:20.000Z</time>
      </trkpt>
      <trkpt lat="47.29765" lon="-2.40347">
        <ele>32</ele>
        <time>2022-04-21T08:05:22.000Z</time>
      </trkpt>
      <trkpt lat="47.29771" lon="-2.40337">
        <ele>32</ele>
        <time>2022-04-21T08:05:24.000Z</time>
      </trkpt>
      <trkpt lat="47.29775" lon="-2.40316">
        <ele>32</ele>
        <time>2022-04-21T08:05:27.000Z</time>
      </trkpt>
      <trkpt lat="47.29775" lon="-2.4031">
        <ele>32</ele>
        <time>2022-04-21T08:05:28.000Z</time>
      </trkpt>
      <trkpt lat="47.29775" lon="-2.40265">
        <ele>32</ele>
        <time>2022-04-21T08:05:35.000Z</time>
      </trkpt>
      <trkpt lat="47.29775" lon="-2.40253">
        <ele>32.400001525879</ele>
        <time>2022-04-21T08:05:37.000Z</time>
      </trkpt>
      <trkpt lat="47.29776" lon="-2.40246">
        <ele>32.799999237061</ele>
        <time>2022-04-21T08:05:38.000Z</time>
      </trkpt>
      <trkpt lat="47.29776" lon="-2.40239">
        <ele>33.200000762939</ele>
        <time>2022-04-21T08:05:39.000Z</time>
      </trkpt>
      <trkpt lat="47.29777" lon="-2.40232">
        <ele>33.799999237061</ele>
        <time>2022-04-21T08:05:40.000Z</time>
      </trkpt>
      <trkpt lat="47.29778" lon="-2.40225">
        <ele>34.200000762939</ele>
        <time>2022-04-21T08:05:41.000Z</time>
      </trkpt>
      <trkpt lat="47.29779" lon="-2.40218">
        <ele>34.200000762939</ele>
        <time>2022-04-21T08:05:42.000Z</time>
      </trkpt>
      <trkpt lat="47.29789" lon="-2.40164">
        <ele>34.200000762939</ele>
        <time>2022-04-21T08:05:49.000Z</time>
      </trkpt>
      <trkpt lat="47.29797" lon="-2.40111">
        <ele>34.200000762939</ele>
        <time>2022-04-21T08:05:56.000Z</time>
      </trkpt>
      <trkpt lat="47.29798" lon="-2.4008">
        <ele>34.200000762939</ele>
        <time>2022-04-21T08:06:00.000Z</time>
      </trkpt>
      <trkpt lat="47.29797" lon="-2.40064">
        <ele>34.200000762939</ele>
        <time>2022-04-21T08:06:02.000Z</time>
      </trkpt>
      <trkpt lat="47.29791" lon="-2.40006">
        <ele>34.200000762939</ele>
        <time>2022-04-21T08:06:09.000Z</time>
      </trkpt>
      <trkpt lat="47.29788" lon="-2.39979">
        <ele>34.200000762939</ele>
        <time>2022-04-21T08:06:12.000Z</time>
      </trkpt>
      <trkpt lat="47.29789" lon="-2.39949">
        <ele>34.200000762939</ele>
        <time>2022-04-21T08:06:15.000Z</time>
      </trkpt>
      <trkpt lat="47.29794" lon="-2.39919">
        <ele>34.200000762939</ele>
        <time>2022-04-21T08:06:19.000Z</time>
      </trkpt>
      <trkpt lat="47.29797" lon="-2.39911">
        <ele>34.200000762939</ele>
        <time>2022-04-21T08:06:20.000Z</time>
      </trkpt>
      <trkpt lat="47.29807" lon="-2.39889">
        <ele>34.200000762939</ele>
        <time>2022-04-21T08:06:23.000Z</time>
      </trkpt>
      <trkpt lat="47.29826" lon="-2.39848">
        <ele>34.200000762939</ele>
        <time>2022-04-21T08:06:28.000Z</time>
      </trkpt>
      <trkpt lat="47.29831" lon="-2.3984">
        <ele>34.200000762939</ele>
        <time>2022-04-21T08:06:29.000Z</time>
      </trkpt>
      <trkpt lat="47.29859" lon="-2.39787">
        <ele>34.200000762939</ele>
        <time>2022-04-21T08:06:36.000Z</time>
      </trkpt>
      <trkpt lat="47.29876" lon="-2.39753">
        <ele>33.799999237061</ele>
        <time>2022-04-21T08:06:41.000Z</time>
      </trkpt>
      <trkpt lat="47.29879" lon="-2.39747">
        <ele>33.400001525879</ele>
        <time>2022-04-21T08:06:42.000Z</time>
      </trkpt>
      <trkpt lat="47.29883" lon="-2.39739">
        <ele>33</ele>
        <time>2022-04-21T08:06:43.000Z</time>
      </trkpt>
      <trkpt lat="47.29886" lon="-2.39731">
        <ele>32.599998474121</ele>
        <time>2022-04-21T08:06:44.000Z</time>
      </trkpt>
      <trkpt lat="47.2989" lon="-2.39723">
        <ele>32</ele>
        <time>2022-04-21T08:06:45.000Z</time>
      </trkpt>
      <trkpt lat="47.29902" lon="-2.39703">
        <ele>32</ele>
        <time>2022-04-21T08:06:48.000Z</time>
      </trkpt>
      <trkpt lat="47.29927" lon="-2.39666">
        <ele>32</ele>
        <time>2022-04-21T08:06:54.000Z</time>
      </trkpt>
      <trkpt lat="47.29937" lon="-2.39649">
        <ele>32</ele>
        <time>2022-04-21T08:06:57.000Z</time>
      </trkpt>
      <trkpt lat="47.29942" lon="-2.39639">
        <ele>32</ele>
        <time>2022-04-21T08:06:59.000Z</time>
      </trkpt>
      <trkpt lat="47.29951" lon="-2.39626">
        <ele>32</ele>
        <time>2022-04-21T08:07:02.000Z</time>
      </trkpt>
      <trkpt lat="47.29959" lon="-2.39627">
        <ele>32</ele>
        <time>2022-04-21T08:07:04.000Z</time>
      </trkpt>
      <trkpt lat="47.29971" lon="-2.39629">
        <ele>32</ele>
        <time>2022-04-21T08:07:08.000Z</time>
      </trkpt>
      <trkpt lat="47.29992" lon="-2.39634">
        <ele>32</ele>
        <time>2022-04-21T08:07:12.000Z</time>
      </trkpt>
      <trkpt lat="47.30033" lon="-2.39641">
        <ele>32</ele>
        <time>2022-04-21T08:07:19.000Z</time>
      </trkpt>
      <trkpt lat="47.3007" lon="-2.39647">
        <ele>32</ele>
        <time>2022-04-21T08:07:25.000Z</time>
      </trkpt>
      <trkpt lat="47.30114" lon="-2.39656">
        <ele>32</ele>
        <time>2022-04-21T08:07:32.000Z</time>
      </trkpt>
      <trkpt lat="47.30156" lon="-2.39663">
        <ele>32.400001525879</ele>
        <time>2022-04-21T08:07:39.000Z</time>
      </trkpt>
      <trkpt lat="47.30162" lon="-2.39664">
        <ele>32.799999237061</ele>
        <time>2022-04-21T08:07:40.000Z</time>
      </trkpt>
      <trkpt lat="47.30168" lon="-2.39666">
        <ele>33.200000762939</ele>
        <time>2022-04-21T08:07:41.000Z</time>
      </trkpt>
      <trkpt lat="47.30174" lon="-2.39668">
        <ele>33.599998474121</ele>
        <time>2022-04-21T08:07:42.000Z</time>
      </trkpt>
      <trkpt lat="47.3018" lon="-2.39668">
        <ele>34</ele>
        <time>2022-04-21T08:07:43.000Z</time>
      </trkpt>
      <trkpt lat="47.30198" lon="-2.39671">
        <ele>34</ele>
        <time>2022-04-21T08:07:46.000Z</time>
      </trkpt>
      <trkpt lat="47.30242" lon="-2.3968">
        <ele>34</ele>
        <time>2022-04-21T08:07:54.000Z</time>
      </trkpt>
      <trkpt lat="47.30274" lon="-2.39686">
        <ele>34</ele>
        <time>2022-04-21T08:08:00.000Z</time>
      </trkpt>
      <trkpt lat="47.30296" lon="-2.39692">
        <ele>34.599998474121</ele>
        <time>2022-04-21T08:08:04.000Z</time>
      </trkpt>
      <trkpt lat="47.30301" lon="-2.39693">
        <ele>35</ele>
        <time>2022-04-21T08:08:05.000Z</time>
      </trkpt>
      <trkpt lat="47.30307" lon="-2.39695">
        <ele>35.400001525879</ele>
        <time>2022-04-21T08:08:06.000Z</time>
      </trkpt>
      <trkpt lat="47.30313" lon="-2.39697">
        <ele>35.799999237061</ele>
        <time>2022-04-21T08:08:07.000Z</time>
      </trkpt>
      <trkpt lat="47.30318" lon="-2.39699">
        <ele>36.200000762939</ele>
        <time>2022-04-21T08:08:08.000Z</time>
      </trkpt>
      <trkpt lat="47.30346" lon="-2.39712">
        <ele>36.200000762939</ele>
        <time>2022-04-21T08:08:13.000Z</time>
      </trkpt>
      <trkpt lat="47.3039" lon="-2.39737">
        <ele>36.200000762939</ele>
        <time>2022-04-21T08:08:21.000Z</time>
      </trkpt>
      <trkpt lat="47.30416" lon="-2.39756">
        <ele>36.200000762939</ele>
        <time>2022-04-21T08:08:26.000Z</time>
      </trkpt>
      <trkpt lat="47.30427" lon="-2.39765">
        <ele>36.599998474121</ele>
        <time>2022-04-21T08:08:28.000Z</time>
      </trkpt>
      <trkpt lat="47.30432" lon="-2.39769">
        <ele>37</ele>
        <time>2022-04-21T08:08:29.000Z</time>
      </trkpt>
      <trkpt lat="47.30437" lon="-2.39774">
        <ele>37.400001525879</ele>
        <time>2022-04-21T08:08:30.000Z</time>
      </trkpt>
      <trkpt lat="47.30443" lon="-2.39779">
        <ele>37.799999237061</ele>
        <time>2022-04-21T08:08:31.000Z</time>
      </trkpt>
      <trkpt lat="47.30448" lon="-2.39784">
        <ele>38.400001525879</ele>
        <time>2022-04-21T08:08:32.000Z</time>
      </trkpt>
      <trkpt lat="47.30454" lon="-2.39789">
        <ele>38.400001525879</ele>
        <time>2022-04-21T08:08:33.000Z</time>
      </trkpt>
      <trkpt lat="47.30494" lon="-2.39832">
        <ele>38.400001525879</ele>
        <time>2022-04-21T08:08:41.000Z</time>
      </trkpt>
      <trkpt lat="47.30513" lon="-2.39855">
        <ele>38.799999237061</ele>
        <time>2022-04-21T08:08:45.000Z</time>
      </trkpt>
      <trkpt lat="47.30518" lon="-2.39861">
        <ele>39.200000762939</ele>
        <time>2022-04-21T08:08:46.000Z</time>
      </trkpt>
      <trkpt lat="47.30523" lon="-2.39866">
        <ele>39.599998474121</ele>
        <time>2022-04-21T08:08:47.000Z</time>
      </trkpt>
      <trkpt lat="47.30528" lon="-2.39872">
        <ele>40</ele>
        <time>2022-04-21T08:08:48.000Z</time>
      </trkpt>
      <trkpt lat="47.30533" lon="-2.39877">
        <ele>40.400001525879</ele>
        <time>2022-04-21T08:08:49.000Z</time>
      </trkpt>
      <trkpt lat="47.30562" lon="-2.3991">
        <ele>40.400001525879</ele>
        <time>2022-04-21T08:08:55.000Z</time>
      </trkpt>
      <trkpt lat="47.30591" lon="-2.39943">
        <ele>40.400001525879</ele>
        <time>2022-04-21T08:09:01.000Z</time>
      </trkpt>
      <trkpt lat="47.30606" lon="-2.39959">
        <ele>40.799999237061</ele>
        <time>2022-04-21T08:09:04.000Z</time>
      </trkpt>
      <trkpt lat="47.30611" lon="-2.39964">
        <ele>41.200000762939</ele>
        <time>2022-04-21T08:09:05.000Z</time>
      </trkpt>
      <trkpt lat="47.30616" lon="-2.3997">
        <ele>41.599998474121</ele>
        <time>2022-04-21T08:09:06.000Z</time>
      </trkpt>
      <trkpt lat="47.3062" lon="-2.39976">
        <ele>42</ele>
        <time>2022-04-21T08:09:07.000Z</time>
      </trkpt>
      <trkpt lat="47.30625" lon="-2.39982">
        <ele>42.599998474121</ele>
        <time>2022-04-21T08:09:08.000Z</time>
      </trkpt>
      <trkpt lat="47.30654" lon="-2.40015">
        <ele>42.599998474121</ele>
        <time>2022-04-21T08:09:14.000Z</time>
      </trkpt>
      <trkpt lat="47.30665" lon="-2.40024">
        <ele>42.599998474121</ele>
        <time>2022-04-21T08:09:16.000Z</time>
      </trkpt>
      <trkpt lat="47.30703" lon="-2.40055">
        <ele>42.599998474121</ele>
        <time>2022-04-21T08:09:23.000Z</time>
      </trkpt>
      <trkpt lat="47.30713" lon="-2.40062">
        <ele>43</ele>
        <time>2022-04-21T08:09:25.000Z</time>
      </trkpt>
      <trkpt lat="47.30719" lon="-2.40066">
        <ele>43.400001525879</ele>
        <time>2022-04-21T08:09:26.000Z</time>
      </trkpt>
      <trkpt lat="47.30724" lon="-2.40069">
        <ele>43.799999237061</ele>
        <time>2022-04-21T08:09:27.000Z</time>
      </trkpt>
      <trkpt lat="47.3073" lon="-2.40073">
        <ele>44.200000762939</ele>
        <time>2022-04-21T08:09:28.000Z</time>
      </trkpt>
      <trkpt lat="47.30735" lon="-2.40076">
        <ele>44.599998474121</ele>
        <time>2022-04-21T08:09:29.000Z</time>
      </trkpt>
      <trkpt lat="47.30741" lon="-2.40079">
        <ele>44.599998474121</ele>
        <time>2022-04-21T08:09:30.000Z</time>
      </trkpt>
      <trkpt lat="47.30787" lon="-2.40102">
        <ele>44.599998474121</ele>
        <time>2022-04-21T08:09:38.000Z</time>
      </trkpt>
      <trkpt lat="47.30829" lon="-2.40115">
        <ele>45</ele>
        <time>2022-04-21T08:09:45.000Z</time>
      </trkpt>
      <trkpt lat="47.30835" lon="-2.40116">
        <ele>45.400001525879</ele>
        <time>2022-04-21T08:09:46.000Z</time>
      </trkpt>
      <trkpt lat="47.3084" lon="-2.40118">
        <ele>45.799999237061</ele>
        <time>2022-04-21T08:09:47.000Z</time>
      </trkpt>
      <trkpt lat="47.30847" lon="-2.4012">
        <ele>46.200000762939</ele>
        <time>2022-04-21T08:09:48.000Z</time>
      </trkpt>
      <trkpt lat="47.30853" lon="-2.4012">
        <ele>46.799999237061</ele>
        <time>2022-04-21T08:09:49.000Z</time>
      </trkpt>
      <trkpt lat="47.30865" lon="-2.40122">
        <ele>46.799999237061</ele>
        <time>2022-04-21T08:09:51.000Z</time>
      </trkpt>
      <trkpt lat="47.30914" lon="-2.40125">
        <ele>46.799999237061</ele>
        <time>2022-04-21T08:09:59.000Z</time>
      </trkpt>
      <trkpt lat="47.30965" lon="-2.40119">
        <ele>46.799999237061</ele>
        <time>2022-04-21T08:10:07.000Z</time>
      </trkpt>
      <trkpt lat="47.30989" lon="-2.40112">
        <ele>47.200000762939</ele>
        <time>2022-04-21T08:10:11.000Z</time>
      </trkpt>
      <trkpt lat="47.30995" lon="-2.4011">
        <ele>47.599998474121</ele>
        <time>2022-04-21T08:10:12.000Z</time>
      </trkpt>
      <trkpt lat="47.31001" lon="-2.40109">
        <ele>48</ele>
        <time>2022-04-21T08:10:13.000Z</time>
      </trkpt>
      <trkpt lat="47.31008" lon="-2.40107">
        <ele>48.400001525879</ele>
        <time>2022-04-21T08:10:14.000Z</time>
      </trkpt>
      <trkpt lat="47.31014" lon="-2.40105">
        <ele>48.799999237061</ele>
        <time>2022-04-21T08:10:15.000Z</time>
      </trkpt>
      <trkpt lat="47.31054" lon="-2.40092">
        <ele>48.799999237061</ele>
        <time>2022-04-21T08:10:22.000Z</time>
      </trkpt>
      <trkpt lat="47.31065" lon="-2.40089">
        <ele>49.200000762939</ele>
        <time>2022-04-21T08:10:24.000Z</time>
      </trkpt>
      <trkpt lat="47.31071" lon="-2.40087">
        <ele>49.599998474121</ele>
        <time>2022-04-21T08:10:25.000Z</time>
      </trkpt>
      <trkpt lat="47.31076" lon="-2.40085">
        <ele>50</ele>
        <time>2022-04-21T08:10:26.000Z</time>
      </trkpt>
      <trkpt lat="47.31081" lon="-2.40083">
        <ele>50.400001525879</ele>
        <time>2022-04-21T08:10:27.000Z</time>
      </trkpt>
      <trkpt lat="47.31087" lon="-2.40081">
        <ele>50.799999237061</ele>
        <time>2022-04-21T08:10:28.000Z</time>
      </trkpt>
      <trkpt lat="47.31135" lon="-2.40069">
        <ele>50.799999237061</ele>
        <time>2022-04-21T08:10:37.000Z</time>
      </trkpt>
      <trkpt lat="47.31139" lon="-2.40067">
        <ele>50.799999237061</ele>
        <time>2022-04-21T08:10:38.000Z</time>
      </trkpt>
      <trkpt lat="47.3115" lon="-2.40063">
        <ele>50.799999237061</ele>
        <time>2022-04-21T08:10:41.000Z</time>
      </trkpt>
      <trkpt lat="47.31157" lon="-2.40061">
        <ele>50.799999237061</ele>
        <time>2022-04-21T08:10:43.000Z</time>
      </trkpt>
      <trkpt lat="47.31175" lon="-2.40058">
        <ele>50.799999237061</ele>
        <time>2022-04-21T08:10:47.000Z</time>
      </trkpt>
      <trkpt lat="47.31185" lon="-2.40059">
        <ele>50.799999237061</ele>
        <time>2022-04-21T08:10:49.000Z</time>
      </trkpt>
      <trkpt lat="47.31201" lon="-2.40068">
        <ele>50.799999237061</ele>
        <time>2022-04-21T08:10:52.000Z</time>
      </trkpt>
      <trkpt lat="47.31215" lon="-2.40099">
        <ele>50.799999237061</ele>
        <time>2022-04-21T08:10:56.000Z</time>
      </trkpt>
      <trkpt lat="47.31217" lon="-2.40107">
        <ele>50.799999237061</ele>
        <time>2022-04-21T08:10:57.000Z</time>
      </trkpt>
      <trkpt lat="47.31236" lon="-2.40167">
        <ele>50.799999237061</ele>
        <time>2022-04-21T08:11:04.000Z</time>
      </trkpt>
      <trkpt lat="47.31252" lon="-2.40223">
        <ele>50.799999237061</ele>
        <time>2022-04-21T08:11:11.000Z</time>
      </trkpt>
      <trkpt lat="47.31259" lon="-2.40246">
        <ele>51.200000762939</ele>
        <time>2022-04-21T08:11:14.000Z</time>
      </trkpt>
      <trkpt lat="47.31261" lon="-2.40253">
        <ele>51.599998474121</ele>
        <time>2022-04-21T08:11:15.000Z</time>
      </trkpt>
      <trkpt lat="47.31263" lon="-2.40261">
        <ele>52</ele>
        <time>2022-04-21T08:11:16.000Z</time>
      </trkpt>
      <trkpt lat="47.31265" lon="-2.40268">
        <ele>52.400001525879</ele>
        <time>2022-04-21T08:11:17.000Z</time>
      </trkpt>
      <trkpt lat="47.31268" lon="-2.40275">
        <ele>53</ele>
        <time>2022-04-21T08:11:18.000Z</time>
      </trkpt>
      <trkpt lat="47.3127" lon="-2.40282">
        <ele>53</ele>
        <time>2022-04-21T08:11:19.000Z</time>
      </trkpt>
      <trkpt lat="47.31284" lon="-2.40316">
        <ele>53.400001525879</ele>
        <time>2022-04-21T08:11:24.000Z</time>
      </trkpt>
      <trkpt lat="47.31286" lon="-2.40322">
        <ele>53.799999237061</ele>
        <time>2022-04-21T08:11:25.000Z</time>
      </trkpt>
      <trkpt lat="47.31289" lon="-2.40329">
        <ele>54.200000762939</ele>
        <time>2022-04-21T08:11:26.000Z</time>
      </trkpt>
      <trkpt lat="47.31291" lon="-2.40335">
        <ele>54.599998474121</ele>
        <time>2022-04-21T08:11:27.000Z</time>
      </trkpt>
      <trkpt lat="47.31293" lon="-2.40341">
        <ele>55</ele>
        <time>2022-04-21T08:11:28.000Z</time>
      </trkpt>
      <trkpt lat="47.313" lon="-2.4036">
        <ele>55.400001525879</ele>
        <time>2022-04-21T08:11:31.000Z</time>
      </trkpt>
      <trkpt lat="47.31302" lon="-2.40367">
        <ele>55.799999237061</ele>
        <time>2022-04-21T08:11:32.000Z</time>
      </trkpt>
      <trkpt lat="47.31303" lon="-2.40373">
        <ele>56.200000762939</ele>
        <time>2022-04-21T08:11:33.000Z</time>
      </trkpt>
      <trkpt lat="47.31305" lon="-2.40379">
        <ele>56.599998474121</ele>
        <time>2022-04-21T08:11:34.000Z</time>
      </trkpt>
      <trkpt lat="47.31307" lon="-2.40384">
        <ele>57</ele>
        <time>2022-04-21T08:11:35.000Z</time>
      </trkpt>
      <trkpt lat="47.31313" lon="-2.40402">
        <ele>57</ele>
        <time>2022-04-21T08:11:38.000Z</time>
      </trkpt>
      <trkpt lat="47.31323" lon="-2.40442">
        <ele>57</ele>
        <time>2022-04-21T08:11:43.000Z</time>
      </trkpt>
      <trkpt lat="47.31336" lon="-2.40497">
        <ele>57</ele>
        <time>2022-04-21T08:11:49.000Z</time>
      </trkpt>
      <trkpt lat="47.31338" lon="-2.40505">
        <ele>57</ele>
        <time>2022-04-21T08:11:50.000Z</time>
      </trkpt>
      <trkpt lat="47.3134" lon="-2.40512">
        <ele>56.599998474121</ele>
        <time>2022-04-21T08:11:51.000Z</time>
      </trkpt>
      <trkpt lat="47.31344" lon="-2.40518">
        <ele>56.200000762939</ele>
        <time>2022-04-21T08:11:52.000Z</time>
      </trkpt>
      <trkpt lat="47.31348" lon="-2.40523">
        <ele>55.799999237061</ele>
        <time>2022-04-21T08:11:53.000Z</time>
      </trkpt>
      <trkpt lat="47.31351" lon="-2.40525">
        <ele>55.400001525879</ele>
        <time>2022-04-21T08:11:54.000Z</time>
      </trkpt>
      <trkpt lat="47.31355" lon="-2.40527">
        <ele>55</ele>
        <time>2022-04-21T08:11:55.000Z</time>
      </trkpt>
      <trkpt lat="47.31369" lon="-2.40523">
        <ele>55</ele>
        <time>2022-04-21T08:11:58.000Z</time>
      </trkpt>
      <trkpt lat="47.31379" lon="-2.40519">
        <ele>54</ele>
        <time>2022-04-21T08:12:00.000Z</time>
      </trkpt>
      <trkpt lat="47.31384" lon="-2.40517">
        <ele>53.599998474121</ele>
        <time>2022-04-21T08:12:01.000Z</time>
      </trkpt>
      <trkpt lat="47.3139" lon="-2.40514">
        <ele>53.200000762939</ele>
        <time>2022-04-21T08:12:02.000Z</time>
      </trkpt>
      <trkpt lat="47.31395" lon="-2.40512">
        <ele>52.799999237061</ele>
        <time>2022-04-21T08:12:03.000Z</time>
      </trkpt>
      <trkpt lat="47.31406" lon="-2.40506">
        <ele>52.799999237061</ele>
        <time>2022-04-21T08:12:05.000Z</time>
      </trkpt>
      <trkpt lat="47.31411" lon="-2.40501">
        <ele>52.799999237061</ele>
        <time>2022-04-21T08:12:06.000Z</time>
      </trkpt>
      <trkpt lat="47.31435" lon="-2.40483">
        <ele>52.799999237061</ele>
        <time>2022-04-21T08:12:11.000Z</time>
      </trkpt>
      <trkpt lat="47.31438" lon="-2.4048">
        <ele>52.799999237061</ele>
        <time>2022-04-21T08:12:12.000Z</time>
      </trkpt>
      <trkpt lat="47.31444" lon="-2.40473">
        <ele>53.200000762939</ele>
        <time>2022-04-21T08:12:14.000Z</time>
      </trkpt>
      <trkpt lat="47.31446" lon="-2.4047">
        <ele>53.599998474121</ele>
        <time>2022-04-21T08:12:15.000Z</time>
      </trkpt>
      <trkpt lat="47.31449" lon="-2.40467">
        <ele>54</ele>
        <time>2022-04-21T08:12:16.000Z</time>
      </trkpt>
      <trkpt lat="47.31452" lon="-2.40464">
        <ele>54.400001525879</ele>
        <time>2022-04-21T08:12:17.000Z</time>
      </trkpt>
      <trkpt lat="47.31455" lon="-2.40462">
        <ele>54.799999237061</ele>
        <time>2022-04-21T08:12:18.000Z</time>
      </trkpt>
      <trkpt lat="47.31465" lon="-2.40453">
        <ele>55.200000762939</ele>
        <time>2022-04-21T08:12:21.000Z</time>
      </trkpt>
      <trkpt lat="47.31467" lon="-2.40451">
        <ele>55.799999237061</ele>
        <time>2022-04-21T08:12:22.000Z</time>
      </trkpt>
      <trkpt lat="47.3147" lon="-2.40448">
        <ele>56.200000762939</ele>
        <time>2022-04-21T08:12:23.000Z</time>
      </trkpt>
      <trkpt lat="47.31472" lon="-2.40445">
        <ele>56.599998474121</ele>
        <time>2022-04-21T08:12:24.000Z</time>
      </trkpt>
      <trkpt lat="47.31475" lon="-2.40442">
        <ele>57</ele>
        <time>2022-04-21T08:12:25.000Z</time>
      </trkpt>
      <trkpt lat="47.31481" lon="-2.40433">
        <ele>57.400001525879</ele>
        <time>2022-04-21T08:12:28.000Z</time>
      </trkpt>
      <trkpt lat="47.31484" lon="-2.4043">
        <ele>58</ele>
        <time>2022-04-21T08:12:29.000Z</time>
      </trkpt>
      <trkpt lat="47.31487" lon="-2.40427">
        <ele>58.400001525879</ele>
        <time>2022-04-21T08:12:30.000Z</time>
      </trkpt>
      <trkpt lat="47.3149" lon="-2.40425">
        <ele>58.799999237061</ele>
        <time>2022-04-21T08:12:31.000Z</time>
      </trkpt>
      <trkpt lat="47.31493" lon="-2.40422">
        <ele>59.200000762939</ele>
        <time>2022-04-21T08:12:32.000Z</time>
      </trkpt>
      <trkpt lat="47.31509" lon="-2.40406">
        <ele>59.200000762939</ele>
        <time>2022-04-21T08:12:39.000Z</time>
      </trkpt>
      <trkpt lat="47.31519" lon="-2.40395">
        <ele>59.200000762939</ele>
        <time>2022-04-21T08:12:45.000Z</time>
      </trkpt>
      <trkpt lat="47.3152" lon="-2.40395">
        <ele>59.200000762939</ele>
        <time>2022-04-21T08:12:46.000Z</time>
      </trkpt>
      <trkpt lat="47.31528" lon="-2.40395">
        <ele>59.200000762939</ele>
        <time>2022-04-21T08:12:49.000Z</time>
      </trkpt>
      <trkpt lat="47.3154" lon="-2.40388">
        <ele>59.200000762939</ele>
        <time>2022-04-21T08:12:53.000Z</time>
      </trkpt>
      <trkpt lat="47.31543" lon="-2.40387">
        <ele>59.200000762939</ele>
        <time>2022-04-21T08:12:54.000Z</time>
      </trkpt>
      <trkpt lat="47.31558" lon="-2.40379">
        <ele>59.200000762939</ele>
        <time>2022-04-21T08:12:59.000Z</time>
      </trkpt>
      <trkpt lat="47.31581" lon="-2.4037">
        <ele>59.200000762939</ele>
        <time>2022-04-21T08:13:05.000Z</time>
      </trkpt>
      <trkpt lat="47.316" lon="-2.40361">
        <ele>59.200000762939</ele>
        <time>2022-04-21T08:13:11.000Z</time>
      </trkpt>
      <trkpt lat="47.31614" lon="-2.40355">
        <ele>59.200000762939</ele>
        <time>2022-04-21T08:13:16.000Z</time>
      </trkpt>
      <trkpt lat="47.31618" lon="-2.40354">
        <ele>59.599998474121</ele>
        <time>2022-04-21T08:13:18.000Z</time>
      </trkpt>
      <trkpt lat="47.3162" lon="-2.40354">
        <ele>60</ele>
        <time>2022-04-21T08:13:19.000Z</time>
      </trkpt>
      <trkpt lat="47.31623" lon="-2.40354">
        <ele>60.400001525879</ele>
        <time>2022-04-21T08:13:20.000Z</time>
      </trkpt>
      <trkpt lat="47.31625" lon="-2.40354">
        <ele>60.799999237061</ele>
        <time>2022-04-21T08:13:21.000Z</time>
      </trkpt>
      <trkpt lat="47.31628" lon="-2.40354">
        <ele>61.200000762939</ele>
        <time>2022-04-21T08:13:22.000Z</time>
      </trkpt>
      <trkpt lat="47.3164" lon="-2.40347">
        <ele>61.200000762939</ele>
        <time>2022-04-21T08:13:28.000Z</time>
      </trkpt>
      <trkpt lat="47.31648" lon="-2.40341">
        <ele>61.200000762939</ele>
        <time>2022-04-21T08:13:32.000Z</time>
      </trkpt>
      <trkpt lat="47.31652" lon="-2.4034">
        <ele>61.200000762939</ele>
        <time>2022-04-21T08:13:34.000Z</time>
      </trkpt>
      <trkpt lat="47.31666" lon="-2.40336">
        <ele>61.200000762939</ele>
        <time>2022-04-21T08:13:40.000Z</time>
      </trkpt>
      <trkpt lat="47.31683" lon="-2.40334">
        <ele>61.200000762939</ele>
        <time>2022-04-21T08:13:48.000Z</time>
      </trkpt>
      <trkpt lat="47.31685" lon="-2.40334">
        <ele>61.200000762939</ele>
        <time>2022-04-21T08:13:51.000Z</time>
      </trkpt>
      <trkpt lat="47.31686" lon="-2.40335">
        <ele>61.200000762939</ele>
        <time>2022-04-21T08:14:06.000Z</time>
      </trkpt>
      <trkpt lat="47.31688" lon="-2.40336">
        <ele>61.200000762939</ele>
        <time>2022-04-21T08:14:07.000Z</time>
      </trkpt>
      <trkpt lat="47.31701" lon="-2.40347">
        <ele>61.200000762939</ele>
        <time>2022-04-21T08:14:12.000Z</time>
      </trkpt>
      <trkpt lat="47.31719" lon="-2.40362">
        <ele>61.200000762939</ele>
        <time>2022-04-21T08:14:17.000Z</time>
      </trkpt>
      <trkpt lat="47.31735" lon="-2.40377">
        <ele>61.200000762939</ele>
        <time>2022-04-21T08:14:21.000Z</time>
      </trkpt>
      <trkpt lat="47.3174" lon="-2.40381">
        <ele>61.200000762939</ele>
        <time>2022-04-21T08:14:22.000Z</time>
      </trkpt>
      <trkpt lat="47.31754" lon="-2.40392">
        <ele>61.200000762939</ele>
        <time>2022-04-21T08:14:25.000Z</time>
      </trkpt>
      <trkpt lat="47.31759" lon="-2.40395">
        <ele>61.200000762939</ele>
        <time>2022-04-21T08:14:26.000Z</time>
      </trkpt>
      <trkpt lat="47.31785" lon="-2.40417">
        <ele>61.200000762939</ele>
        <time>2022-04-21T08:14:31.000Z</time>
      </trkpt>
      <trkpt lat="47.31807" lon="-2.40434">
        <ele>61.200000762939</ele>
        <time>2022-04-21T08:14:36.000Z</time>
      </trkpt>
      <trkpt lat="47.31815" lon="-2.4044">
        <ele>61.200000762939</ele>
        <time>2022-04-21T08:14:38.000Z</time>
      </trkpt>
      <trkpt lat="47.31824" lon="-2.40446">
        <ele>61.599998474121</ele>
        <time>2022-04-21T08:14:40.000Z</time>
      </trkpt>
      <trkpt lat="47.31828" lon="-2.40449">
        <ele>62</ele>
        <time>2022-04-21T08:14:41.000Z</time>
      </trkpt>
      <trkpt lat="47.31832" lon="-2.40452">
        <ele>62.400001525879</ele>
        <time>2022-04-21T08:14:42.000Z</time>
      </trkpt>
      <trkpt lat="47.31837" lon="-2.40455">
        <ele>62.799999237061</ele>
        <time>2022-04-21T08:14:43.000Z</time>
      </trkpt>
      <trkpt lat="47.31841" lon="-2.40459">
        <ele>63.200000762939</ele>
        <time>2022-04-21T08:14:44.000Z</time>
      </trkpt>
      <trkpt lat="47.31854" lon="-2.40469">
        <ele>63.200000762939</ele>
        <time>2022-04-21T08:14:47.000Z</time>
      </trkpt>
      <trkpt lat="47.3188" lon="-2.4049">
        <ele>63.200000762939</ele>
        <time>2022-04-21T08:14:53.000Z</time>
      </trkpt>
      <trkpt lat="47.31903" lon="-2.40511">
        <ele>63.200000762939</ele>
        <time>2022-04-21T08:14:59.000Z</time>
      </trkpt>
      <trkpt lat="47.31915" lon="-2.4052">
        <ele>63.599998474121</ele>
        <time>2022-04-21T08:15:02.000Z</time>
      </trkpt>
      <trkpt lat="47.31918" lon="-2.40523">
        <ele>64</ele>
        <time>2022-04-21T08:15:03.000Z</time>
      </trkpt>
      <trkpt lat="47.31921" lon="-2.40525">
        <ele>64.599998474121</ele>
        <time>2022-04-21T08:15:04.000Z</time>
      </trkpt>
      <trkpt lat="47.31925" lon="-2.40527">
        <ele>65</ele>
        <time>2022-04-21T08:15:05.000Z</time>
      </trkpt>
      <trkpt lat="47.31928" lon="-2.40529">
        <ele>65.400001525879</ele>
        <time>2022-04-21T08:15:06.000Z</time>
      </trkpt>
      <trkpt lat="47.31948" lon="-2.40544">
        <ele>65.400001525879</ele>
        <time>2022-04-21T08:15:11.000Z</time>
      </trkpt>
      <trkpt lat="47.31985" lon="-2.4057">
        <ele>65.400001525879</ele>
        <time>2022-04-21T08:15:20.000Z</time>
      </trkpt>
      <trkpt lat="47.32011" lon="-2.4059">
        <ele>65.400001525879</ele>
        <time>2022-04-21T08:15:26.000Z</time>
      </trkpt>
      <trkpt lat="47.32024" lon="-2.406">
        <ele>65.400001525879</ele>
        <time>2022-04-21T08:15:29.000Z</time>
      </trkpt>
      <trkpt lat="47.32032" lon="-2.40607">
        <ele>65.400001525879</ele>
        <time>2022-04-21T08:15:31.000Z</time>
      </trkpt>
      <trkpt lat="47.3204" lon="-2.40614">
        <ele>65.800003051758</ele>
        <time>2022-04-21T08:15:33.000Z</time>
      </trkpt>
      <trkpt lat="47.32044" lon="-2.40618">
        <ele>66.199996948242</ele>
        <time>2022-04-21T08:15:34.000Z</time>
      </trkpt>
      <trkpt lat="47.32048" lon="-2.40622">
        <ele>66.599998474121</ele>
        <time>2022-04-21T08:15:35.000Z</time>
      </trkpt>
      <trkpt lat="47.32052" lon="-2.40625">
        <ele>67</ele>
        <time>2022-04-21T08:15:36.000Z</time>
      </trkpt>
      <trkpt lat="47.32056" lon="-2.4063">
        <ele>67.599998474121</ele>
        <time>2022-04-21T08:15:37.000Z</time>
      </trkpt>
      <trkpt lat="47.3206" lon="-2.40633">
        <ele>67.599998474121</ele>
        <time>2022-04-21T08:15:38.000Z</time>
      </trkpt>
      <trkpt lat="47.32089" lon="-2.40661">
        <ele>67.599998474121</ele>
        <time>2022-04-21T08:15:44.000Z</time>
      </trkpt>
      <trkpt lat="47.32125" lon="-2.40701">
        <ele>67.599998474121</ele>
        <time>2022-04-21T08:15:52.000Z</time>
      </trkpt>
      <trkpt lat="47.32155" lon="-2.40733">
        <ele>67.599998474121</ele>
        <time>2022-04-21T08:15:59.000Z</time>
      </trkpt>
      <trkpt lat="47.32181" lon="-2.40768">
        <ele>67.599998474121</ele>
        <time>2022-04-21T08:16:06.000Z</time>
      </trkpt>
      <trkpt lat="47.3219" lon="-2.40781">
        <ele>67.599998474121</ele>
        <time>2022-04-21T08:16:10.000Z</time>
      </trkpt>
      <trkpt lat="47.32196" lon="-2.40788">
        <ele>67.599998474121</ele>
        <time>2022-04-21T08:16:15.000Z</time>
      </trkpt>
      <trkpt lat="47.32204" lon="-2.408">
        <ele>67.599998474121</ele>
        <time>2022-04-21T08:16:20.000Z</time>
      </trkpt>
      <trkpt lat="47.32207" lon="-2.408">
        <ele>67.599998474121</ele>
        <time>2022-04-21T08:16:21.000Z</time>
      </trkpt>
      <trkpt lat="47.32211" lon="-2.40796">
        <ele>67.599998474121</ele>
        <time>2022-04-21T08:16:23.000Z</time>
      </trkpt>
      <trkpt lat="47.32213" lon="-2.40781">
        <ele>67.599998474121</ele>
        <time>2022-04-21T08:16:26.000Z</time>
      </trkpt>
      <trkpt lat="47.32213" lon="-2.40774">
        <ele>67.599998474121</ele>
        <time>2022-04-21T08:16:27.000Z</time>
      </trkpt>
      <trkpt lat="47.32214" lon="-2.40743">
        <ele>67.599998474121</ele>
        <time>2022-04-21T08:16:31.000Z</time>
      </trkpt>
      <trkpt lat="47.32218" lon="-2.4069">
        <ele>67.599998474121</ele>
        <time>2022-04-21T08:16:37.000Z</time>
      </trkpt>
      <trkpt lat="47.32225" lon="-2.40627">
        <ele>67.599998474121</ele>
        <time>2022-04-21T08:16:44.000Z</time>
      </trkpt>
      <trkpt lat="47.32231" lon="-2.40578">
        <ele>67.599998474121</ele>
        <time>2022-04-21T08:16:50.000Z</time>
      </trkpt>
      <trkpt lat="47.32237" lon="-2.40543">
        <ele>68</ele>
        <time>2022-04-21T08:16:54.000Z</time>
      </trkpt>
      <trkpt lat="47.32238" lon="-2.40534">
        <ele>68.400001525879</ele>
        <time>2022-04-21T08:16:55.000Z</time>
      </trkpt>
      <trkpt lat="47.3224" lon="-2.40526">
        <ele>69.199996948242</ele>
        <time>2022-04-21T08:16:56.000Z</time>
      </trkpt>
      <trkpt lat="47.32241" lon="-2.40517">
        <ele>69.599998474121</ele>
        <time>2022-04-21T08:16:57.000Z</time>
      </trkpt>
      <trkpt lat="47.3225" lon="-2.40472">
        <ele>69.599998474121</ele>
        <time>2022-04-21T08:17:02.000Z</time>
      </trkpt>
      <trkpt lat="47.3226" lon="-2.40416">
        <ele>69.599998474121</ele>
        <time>2022-04-21T08:17:09.000Z</time>
      </trkpt>
      <trkpt lat="47.32269" lon="-2.40374">
        <ele>69.599998474121</ele>
        <time>2022-04-21T08:17:15.000Z</time>
      </trkpt>
      <trkpt lat="47.32271" lon="-2.40368">
        <ele>69.599998474121</ele>
        <time>2022-04-21T08:17:16.000Z</time>
      </trkpt>
      <trkpt lat="47.32278" lon="-2.40339">
        <ele>69.599998474121</ele>
        <time>2022-04-21T08:17:20.000Z</time>
      </trkpt>
      <trkpt lat="47.32278" lon="-2.40325">
        <ele>69.599998474121</ele>
        <time>2022-04-21T08:17:22.000Z</time>
      </trkpt>
      <trkpt lat="47.32279" lon="-2.40318">
        <ele>69.599998474121</ele>
        <time>2022-04-21T08:17:23.000Z</time>
      </trkpt>
      <trkpt lat="47.32282" lon="-2.40306">
        <ele>69.599998474121</ele>
        <time>2022-04-21T08:17:25.000Z</time>
      </trkpt>
      <trkpt lat="47.32283" lon="-2.40293">
        <ele>70</ele>
        <time>2022-04-21T08:17:27.000Z</time>
      </trkpt>
      <trkpt lat="47.32285" lon="-2.40289">
        <ele>70.400001525879</ele>
        <time>2022-04-21T08:17:28.000Z</time>
      </trkpt>
      <trkpt lat="47.32288" lon="-2.40286">
        <ele>71</ele>
        <time>2022-04-21T08:17:29.000Z</time>
      </trkpt>
      <trkpt lat="47.32291" lon="-2.40284">
        <ele>71.400001525879</ele>
        <time>2022-04-21T08:17:30.000Z</time>
      </trkpt>
      <trkpt lat="47.32295" lon="-2.40284">
        <ele>71.800003051758</ele>
        <time>2022-04-21T08:17:31.000Z</time>
      </trkpt>
      <trkpt lat="47.32299" lon="-2.40285">
        <ele>71.800003051758</ele>
        <time>2022-04-21T08:17:32.000Z</time>
      </trkpt>
      <trkpt lat="47.32303" lon="-2.40286">
        <ele>71.800003051758</ele>
        <time>2022-04-21T08:17:33.000Z</time>
      </trkpt>
      <trkpt lat="47.32318" lon="-2.40288">
        <ele>71.800003051758</ele>
        <time>2022-04-21T08:17:36.000Z</time>
      </trkpt>
      <trkpt lat="47.32327" lon="-2.40288">
        <ele>71.800003051758</ele>
        <time>2022-04-21T08:17:38.000Z</time>
      </trkpt>
      <trkpt lat="47.32341" lon="-2.40287">
        <ele>71.800003051758</ele>
        <time>2022-04-21T08:17:41.000Z</time>
      </trkpt>
      <trkpt lat="47.32358" lon="-2.40282">
        <ele>71.800003051758</ele>
        <time>2022-04-21T08:17:45.000Z</time>
      </trkpt>
      <trkpt lat="47.32382" lon="-2.40276">
        <ele>71.800003051758</ele>
        <time>2022-04-21T08:17:51.000Z</time>
      </trkpt>
      <trkpt lat="47.32403" lon="-2.4027">
        <ele>71.800003051758</ele>
        <time>2022-04-21T08:17:57.000Z</time>
      </trkpt>
      <trkpt lat="47.32412" lon="-2.40262">
        <ele>71.800003051758</ele>
        <time>2022-04-21T08:18:01.000Z</time>
      </trkpt>
      <trkpt lat="47.32415" lon="-2.4025">
        <ele>71.800003051758</ele>
        <time>2022-04-21T08:18:06.000Z</time>
      </trkpt>
      <trkpt lat="47.32416" lon="-2.40235">
        <ele>71.800003051758</ele>
        <time>2022-04-21T08:18:14.000Z</time>
      </trkpt>
      <trkpt lat="47.32416" lon="-2.40215">
        <ele>71.800003051758</ele>
        <time>2022-04-21T08:18:20.000Z</time>
      </trkpt>
      <trkpt lat="47.32416" lon="-2.40207">
        <ele>71.800003051758</ele>
        <time>2022-04-21T08:18:25.000Z</time>
      </trkpt>
      <trkpt lat="47.32416" lon="-2.4019">
        <ele>71.800003051758</ele>
        <time>2022-04-21T08:18:33.000Z</time>
      </trkpt>
      <trkpt lat="47.32414" lon="-2.40176">
        <ele>71.800003051758</ele>
        <time>2022-04-21T08:18:41.000Z</time>
      </trkpt>
      <trkpt lat="47.32409" lon="-2.40167">
        <ele>71.800003051758</ele>
        <time>2022-04-21T08:18:47.000Z</time>
      </trkpt>
      <trkpt lat="47.32409" lon="-2.40164">
        <ele>71.800003051758</ele>
        <time>2022-04-21T08:18:48.000Z</time>
      </trkpt>
      <trkpt lat="47.32407" lon="-2.40148">
        <ele>71.800003051758</ele>
        <time>2022-04-21T08:18:55.000Z</time>
      </trkpt>
      <trkpt lat="47.32404" lon="-2.40131">
        <ele>71.800003051758</ele>
        <time>2022-04-21T08:19:02.000Z</time>
      </trkpt>
      <trkpt lat="47.324" lon="-2.40114">
        <ele>71.800003051758</ele>
        <time>2022-04-21T08:19:08.000Z</time>
      </trkpt>
      <trkpt lat="47.32399" lon="-2.40111">
        <ele>71.800003051758</ele>
        <time>2022-04-21T08:19:09.000Z</time>
      </trkpt>
      <trkpt lat="47.32398" lon="-2.40101">
        <ele>71.800003051758</ele>
        <time>2022-04-21T08:19:13.000Z</time>
      </trkpt>
      <trkpt lat="47.32397" lon="-2.40099">
        <ele>71.800003051758</ele>
        <time>2022-04-21T08:19:14.000Z</time>
      </trkpt>
      <trkpt lat="47.32397" lon="-2.40098">
        <ele>71.800003051758</ele>
        <time>2022-04-21T08:19:15.000Z</time>
      </trkpt>
      <trkpt lat="47.32397" lon="-2.40094">
        <ele>71.800003051758</ele>
        <time>2022-04-21T08:19:18.000Z</time>
      </trkpt>
      <trkpt lat="47.32399" lon="-2.40093">
        <ele>71.800003051758</ele>
        <time>2022-04-21T08:19:19.000Z</time>
      </trkpt>
      <trkpt lat="47.32406" lon="-2.40091">
        <ele>71.800003051758</ele>
        <time>2022-04-21T08:19:23.000Z</time>
      </trkpt>
      <trkpt lat="47.32407" lon="-2.4009">
        <ele>71.800003051758</ele>
        <time>2022-04-21T08:19:24.000Z</time>
      </trkpt>
      <trkpt lat="47.32412" lon="-2.40081">
        <ele>71.800003051758</ele>
        <time>2022-04-21T08:19:29.000Z</time>
      </trkpt>
      <trkpt lat="47.32414" lon="-2.4008">
        <ele>71.800003051758</ele>
        <time>2022-04-21T08:19:32.000Z</time>
      </trkpt>
      <trkpt lat="47.32412" lon="-2.40081">
        <ele>71.800003051758</ele>
        <time>2022-04-21T08:19:48.000Z</time>
      </trkpt>
      <trkpt lat="47.32411" lon="-2.40082">
        <ele>71.800003051758</ele>
        <time>2022-04-21T08:19:49.000Z</time>
      </trkpt>
      <trkpt lat="47.32404" lon="-2.40087">
        <ele>71.800003051758</ele>
        <time>2022-04-21T08:19:55.000Z</time>
      </trkpt>
      <trkpt lat="47.32402" lon="-2.40087">
        <ele>71.800003051758</ele>
        <time>2022-04-21T08:19:57.000Z</time>
      </trkpt>
      <trkpt lat="47.32399" lon="-2.40093">
        <ele>71.800003051758</ele>
        <time>2022-04-21T08:20:01.000Z</time>
      </trkpt>
      <trkpt lat="47.32399" lon="-2.40096">
        <ele>71.800003051758</ele>
        <time>2022-04-21T08:20:03.000Z</time>
      </trkpt>
      <trkpt lat="47.32398" lon="-2.40102">
        <ele>71.800003051758</ele>
        <time>2022-04-21T08:20:06.000Z</time>
      </trkpt>
      <trkpt lat="47.32398" lon="-2.40107">
        <ele>71.800003051758</ele>
        <time>2022-04-21T08:20:10.000Z</time>
      </trkpt>
      <trkpt lat="47.32397" lon="-2.40106">
        <ele>71.800003051758</ele>
        <time>2022-04-21T08:20:11.000Z</time>
      </trkpt>
      <trkpt lat="47.32395" lon="-2.401">
        <ele>71.800003051758</ele>
        <time>2022-04-21T08:20:15.000Z</time>
      </trkpt>
      <trkpt lat="47.32396" lon="-2.40101">
        <ele>71.800003051758</ele>
        <time>2022-04-21T08:20:16.000Z</time>
      </trkpt>
      <trkpt lat="47.32392" lon="-2.40101">
        <ele>71.800003051758</ele>
        <time>2022-04-21T08:21:22.000Z</time>
      </trkpt>
      <trkpt lat="47.32391" lon="-2.40101">
        <ele>71.800003051758</ele>
        <time>2022-04-21T08:21:23.000Z</time>
      </trkpt>
      <trkpt lat="47.32394" lon="-2.40094">
        <ele>71.800003051758</ele>
        <time>2022-04-21T08:21:27.000Z</time>
      </trkpt>
      <trkpt lat="47.32397" lon="-2.40091">
        <ele>71.800003051758</ele>
        <time>2022-04-21T08:21:28.000Z</time>
      </trkpt>
      <trkpt lat="47.32414" lon="-2.40075">
        <ele>71.800003051758</ele>
        <time>2022-04-21T08:21:33.000Z</time>
      </trkpt>
      <trkpt lat="47.32437" lon="-2.40055">
        <ele>71.800003051758</ele>
        <time>2022-04-21T08:21:39.000Z</time>
      </trkpt>
      <trkpt lat="47.32462" lon="-2.40029">
        <ele>71.800003051758</ele>
        <time>2022-04-21T08:21:46.000Z</time>
      </trkpt>
      <trkpt lat="47.32489" lon="-2.40008">
        <ele>71.800003051758</ele>
        <time>2022-04-21T08:21:52.000Z</time>
      </trkpt>
      <trkpt lat="47.32505" lon="-2.39997">
        <ele>71.800003051758</ele>
        <time>2022-04-21T08:21:55.000Z</time>
      </trkpt>
      <trkpt lat="47.32519" lon="-2.39982">
        <ele>71.800003051758</ele>
        <time>2022-04-21T08:21:58.000Z</time>
      </trkpt>
      <trkpt lat="47.32523" lon="-2.39977">
        <ele>71.800003051758</ele>
        <time>2022-04-21T08:21:59.000Z</time>
      </trkpt>
      <trkpt lat="47.3254" lon="-2.39961">
        <ele>71.800003051758</ele>
        <time>2022-04-21T08:22:03.000Z</time>
      </trkpt>
      <trkpt lat="47.32551" lon="-2.39946">
        <ele>71.800003051758</ele>
        <time>2022-04-21T08:22:06.000Z</time>
      </trkpt>
      <trkpt lat="47.32558" lon="-2.39935">
        <ele>71.800003051758</ele>
        <time>2022-04-21T08:22:08.000Z</time>
      </trkpt>
      <trkpt lat="47.32586" lon="-2.39885">
        <ele>71.800003051758</ele>
        <time>2022-04-21T08:22:17.000Z</time>
      </trkpt>
      <trkpt lat="47.32591" lon="-2.39875">
        <ele>71.400001525879</ele>
        <time>2022-04-21T08:22:19.000Z</time>
      </trkpt>
      <trkpt lat="47.32593" lon="-2.39868">
        <ele>70.800003051758</ele>
        <time>2022-04-21T08:22:20.000Z</time>
      </trkpt>
      <trkpt lat="47.32596" lon="-2.39863">
        <ele>70.400001525879</ele>
        <time>2022-04-21T08:22:21.000Z</time>
      </trkpt>
      <trkpt lat="47.32599" lon="-2.39857">
        <ele>70</ele>
        <time>2022-04-21T08:22:22.000Z</time>
      </trkpt>
      <trkpt lat="47.32602" lon="-2.39851">
        <ele>69.599998474121</ele>
        <time>2022-04-21T08:22:23.000Z</time>
      </trkpt>
      <trkpt lat="47.32623" lon="-2.39811">
        <ele>69.599998474121</ele>
        <time>2022-04-21T08:22:31.000Z</time>
      </trkpt>
      <trkpt lat="47.32639" lon="-2.39781">
        <ele>69.599998474121</ele>
        <time>2022-04-21T08:22:37.000Z</time>
      </trkpt>
      <trkpt lat="47.32642" lon="-2.39775">
        <ele>69.599998474121</ele>
        <time>2022-04-21T08:22:38.000Z</time>
      </trkpt>
      <trkpt lat="47.32661" lon="-2.39738">
        <ele>69.599998474121</ele>
        <time>2022-04-21T08:22:44.000Z</time>
      </trkpt>
      <trkpt lat="47.32688" lon="-2.39692">
        <ele>69.599998474121</ele>
        <time>2022-04-21T08:22:51.000Z</time>
      </trkpt>
      <trkpt lat="47.3271" lon="-2.3965">
        <ele>69.599998474121</ele>
        <time>2022-04-21T08:22:57.000Z</time>
      </trkpt>
      <trkpt lat="47.32736" lon="-2.39613">
        <ele>69.599998474121</ele>
        <time>2022-04-21T08:23:03.000Z</time>
      </trkpt>
      <trkpt lat="47.32754" lon="-2.396">
        <ele>69.599998474121</ele>
        <time>2022-04-21T08:23:07.000Z</time>
      </trkpt>
      <trkpt lat="47.32775" lon="-2.39586">
        <ele>69.199996948242</ele>
        <time>2022-04-21T08:23:11.000Z</time>
      </trkpt>
      <trkpt lat="47.3278" lon="-2.39582">
        <ele>68.800003051758</ele>
        <time>2022-04-21T08:23:12.000Z</time>
      </trkpt>
      <trkpt lat="47.32785" lon="-2.39579">
        <ele>68.400001525879</ele>
        <time>2022-04-21T08:23:13.000Z</time>
      </trkpt>
      <trkpt lat="47.32791" lon="-2.39573">
        <ele>68</ele>
        <time>2022-04-21T08:23:14.000Z</time>
      </trkpt>
      <trkpt lat="47.32797" lon="-2.39568">
        <ele>67.599998474121</ele>
        <time>2022-04-21T08:23:15.000Z</time>
      </trkpt>
      <trkpt lat="47.32815" lon="-2.39553">
        <ele>67.599998474121</ele>
        <time>2022-04-21T08:23:18.000Z</time>
      </trkpt>
      <trkpt lat="47.32819" lon="-2.39546">
        <ele>67.599998474121</ele>
        <time>2022-04-21T08:23:19.000Z</time>
      </trkpt>
      <trkpt lat="47.32832" lon="-2.39526">
        <ele>67.599998474121</ele>
        <time>2022-04-21T08:23:22.000Z</time>
      </trkpt>
      <trkpt lat="47.32838" lon="-2.39523">
        <ele>67.599998474121</ele>
        <time>2022-04-21T08:23:23.000Z</time>
      </trkpt>
      <trkpt lat="47.32856" lon="-2.3952">
        <ele>67.599998474121</ele>
        <time>2022-04-21T08:23:26.000Z</time>
      </trkpt>
      <trkpt lat="47.32862" lon="-2.39519">
        <ele>67.599998474121</ele>
        <time>2022-04-21T08:23:27.000Z</time>
      </trkpt>
      <trkpt lat="47.32894" lon="-2.39514">
        <ele>67.599998474121</ele>
        <time>2022-04-21T08:23:33.000Z</time>
      </trkpt>
      <trkpt lat="47.32932" lon="-2.39508">
        <ele>67.599998474121</ele>
        <time>2022-04-21T08:23:40.000Z</time>
      </trkpt>
      <trkpt lat="47.32977" lon="-2.39499">
        <ele>67.599998474121</ele>
        <time>2022-04-21T08:23:49.000Z</time>
      </trkpt>
      <trkpt lat="47.32985" lon="-2.39496">
        <ele>67.599998474121</ele>
        <time>2022-04-21T08:23:51.000Z</time>
      </trkpt>
      <trkpt lat="47.32997" lon="-2.39487">
        <ele>67.599998474121</ele>
        <time>2022-04-21T08:23:54.000Z</time>
      </trkpt>
      <trkpt lat="47.33017" lon="-2.39485">
        <ele>67.599998474121</ele>
        <time>2022-04-21T08:23:58.000Z</time>
      </trkpt>
      <trkpt lat="47.33023" lon="-2.39485">
        <ele>68</ele>
        <time>2022-04-21T08:23:59.000Z</time>
      </trkpt>
      <trkpt lat="47.33028" lon="-2.39485">
        <ele>68.400001525879</ele>
        <time>2022-04-21T08:24:00.000Z</time>
      </trkpt>
      <trkpt lat="47.33034" lon="-2.39484">
        <ele>68.800003051758</ele>
        <time>2022-04-21T08:24:01.000Z</time>
      </trkpt>
      <trkpt lat="47.3304" lon="-2.39483">
        <ele>69.199996948242</ele>
        <time>2022-04-21T08:24:02.000Z</time>
      </trkpt>
      <trkpt lat="47.33046" lon="-2.39483">
        <ele>69.599998474121</ele>
        <time>2022-04-21T08:24:03.000Z</time>
      </trkpt>
      <trkpt lat="47.33078" lon="-2.39484">
        <ele>69.599998474121</ele>
        <time>2022-04-21T08:24:08.000Z</time>
      </trkpt>
      <trkpt lat="47.33122" lon="-2.39477">
        <ele>69.599998474121</ele>
        <time>2022-04-21T08:24:15.000Z</time>
      </trkpt>
      <trkpt lat="47.33175" lon="-2.3947">
        <ele>69.599998474121</ele>
        <time>2022-04-21T08:24:23.000Z</time>
      </trkpt>
      <trkpt lat="47.33202" lon="-2.39462">
        <ele>69.199996948242</ele>
        <time>2022-04-21T08:24:27.000Z</time>
      </trkpt>
      <trkpt lat="47.33209" lon="-2.39461">
        <ele>68.800003051758</ele>
        <time>2022-04-21T08:24:28.000Z</time>
      </trkpt>
      <trkpt lat="47.33215" lon="-2.39459">
        <ele>68.199996948242</ele>
        <time>2022-04-21T08:24:29.000Z</time>
      </trkpt>
      <trkpt lat="47.33222" lon="-2.39457">
        <ele>67.800003051758</ele>
        <time>2022-04-21T08:24:30.000Z</time>
      </trkpt>
      <trkpt lat="47.33229" lon="-2.39455">
        <ele>67.400001525879</ele>
        <time>2022-04-21T08:24:31.000Z</time>
      </trkpt>
      <trkpt lat="47.33262" lon="-2.39448">
        <ele>67</ele>
        <time>2022-04-21T08:24:37.000Z</time>
      </trkpt>
      <trkpt lat="47.33265" lon="-2.39447">
        <ele>66.599998474121</ele>
        <time>2022-04-21T08:24:38.000Z</time>
      </trkpt>
      <trkpt lat="47.33267" lon="-2.39447">
        <ele>66.199996948242</ele>
        <time>2022-04-21T08:24:39.000Z</time>
      </trkpt>
      <trkpt lat="47.33268" lon="-2.39447">
        <ele>65.800003051758</ele>
        <time>2022-04-21T08:24:40.000Z</time>
      </trkpt>
      <trkpt lat="47.33269" lon="-2.39447">
        <ele>65.400001525879</ele>
        <time>2022-04-21T08:24:41.000Z</time>
      </trkpt>
      <trkpt lat="47.33269" lon="-2.39447">
        <ele>65.400001525879</ele>
        <time>2022-04-21T08:24:58.000Z</time>
      </trkpt>
      <trkpt lat="47.3327" lon="-2.39446">
        <ele>65.400001525879</ele>
        <time>2022-04-21T08:24:59.000Z</time>
      </trkpt>
      <trkpt lat="47.33272" lon="-2.39444">
        <ele>65.400001525879</ele>
        <time>2022-04-21T08:25:00.000Z</time>
      </trkpt>
      <trkpt lat="47.33282" lon="-2.39439">
        <ele>65.400001525879</ele>
        <time>2022-04-21T08:25:03.000Z</time>
      </trkpt>
      <trkpt lat="47.33287" lon="-2.39438">
        <ele>65.400001525879</ele>
        <time>2022-04-21T08:25:04.000Z</time>
      </trkpt>
      <trkpt lat="47.33318" lon="-2.39431">
        <ele>65.400001525879</ele>
        <time>2022-04-21T08:25:09.000Z</time>
      </trkpt>
      <trkpt lat="47.3336" lon="-2.39421">
        <ele>65</ele>
        <time>2022-04-21T08:25:15.000Z</time>
      </trkpt>
      <trkpt lat="47.33367" lon="-2.39419">
        <ele>64.400001525879</ele>
        <time>2022-04-21T08:25:16.000Z</time>
      </trkpt>
      <trkpt lat="47.33375" lon="-2.39416">
        <ele>64</ele>
        <time>2022-04-21T08:25:17.000Z</time>
      </trkpt>
      <trkpt lat="47.33381" lon="-2.39413">
        <ele>63.400001525879</ele>
        <time>2022-04-21T08:25:18.000Z</time>
      </trkpt>
      <trkpt lat="47.33388" lon="-2.3941">
        <ele>63</ele>
        <time>2022-04-21T08:25:19.000Z</time>
      </trkpt>
      <trkpt lat="47.33402" lon="-2.39404">
        <ele>63</ele>
        <time>2022-04-21T08:25:21.000Z</time>
      </trkpt>
      <trkpt lat="47.3346" lon="-2.39383">
        <ele>63</ele>
        <time>2022-04-21T08:25:29.000Z</time>
      </trkpt>
      <trkpt lat="47.33502" lon="-2.39375">
        <ele>63</ele>
        <time>2022-04-21T08:25:35.000Z</time>
      </trkpt>
      <trkpt lat="47.33532" lon="-2.39372">
        <ele>62.599998474121</ele>
        <time>2022-04-21T08:25:39.000Z</time>
      </trkpt>
      <trkpt lat="47.33539" lon="-2.3937">
        <ele>62.200000762939</ele>
        <time>2022-04-21T08:25:40.000Z</time>
      </trkpt>
      <trkpt lat="47.33547" lon="-2.39368">
        <ele>61.799999237061</ele>
        <time>2022-04-21T08:25:41.000Z</time>
      </trkpt>
      <trkpt lat="47.33554" lon="-2.39366">
        <ele>61.400001525879</ele>
        <time>2022-04-21T08:25:42.000Z</time>
      </trkpt>
      <trkpt lat="47.33561" lon="-2.39363">
        <ele>61</ele>
        <time>2022-04-21T08:25:43.000Z</time>
      </trkpt>
      <trkpt lat="47.33598" lon="-2.39349">
        <ele>61</ele>
        <time>2022-04-21T08:25:48.000Z</time>
      </trkpt>
      <trkpt lat="47.33605" lon="-2.39346">
        <ele>60.400001525879</ele>
        <time>2022-04-21T08:25:49.000Z</time>
      </trkpt>
      <trkpt lat="47.33613" lon="-2.39342">
        <ele>60</ele>
        <time>2022-04-21T08:25:50.000Z</time>
      </trkpt>
      <trkpt lat="47.33619" lon="-2.39338">
        <ele>59.599998474121</ele>
        <time>2022-04-21T08:25:51.000Z</time>
      </trkpt>
      <trkpt lat="47.33626" lon="-2.39333">
        <ele>59.200000762939</ele>
        <time>2022-04-21T08:25:52.000Z</time>
      </trkpt>
      <trkpt lat="47.33632" lon="-2.39329">
        <ele>58.799999237061</ele>
        <time>2022-04-21T08:25:53.000Z</time>
      </trkpt>
      <trkpt lat="47.33639" lon="-2.39324">
        <ele>58.799999237061</ele>
        <time>2022-04-21T08:25:54.000Z</time>
      </trkpt>
      <trkpt lat="47.33656" lon="-2.39306">
        <ele>58.799999237061</ele>
        <time>2022-04-21T08:25:57.000Z</time>
      </trkpt>
      <trkpt lat="47.33662" lon="-2.39301">
        <ele>58.799999237061</ele>
        <time>2022-04-21T08:25:58.000Z</time>
      </trkpt>
      <trkpt lat="47.33681" lon="-2.393">
        <ele>58.799999237061</ele>
        <time>2022-04-21T08:26:01.000Z</time>
      </trkpt>
      <trkpt lat="47.33687" lon="-2.39301">
        <ele>58.799999237061</ele>
        <time>2022-04-21T08:26:02.000Z</time>
      </trkpt>
      <trkpt lat="47.33707" lon="-2.39306">
        <ele>58.799999237061</ele>
        <time>2022-04-21T08:26:06.000Z</time>
      </trkpt>
      <trkpt lat="47.33712" lon="-2.39307">
        <ele>58.400001525879</ele>
        <time>2022-04-21T08:26:07.000Z</time>
      </trkpt>
      <trkpt lat="47.33718" lon="-2.39307">
        <ele>58</ele>
        <time>2022-04-21T08:26:08.000Z</time>
      </trkpt>
      <trkpt lat="47.33724" lon="-2.39307">
        <ele>57.599998474121</ele>
        <time>2022-04-21T08:26:09.000Z</time>
      </trkpt>
      <trkpt lat="47.3373" lon="-2.39307">
        <ele>57.200000762939</ele>
        <time>2022-04-21T08:26:10.000Z</time>
      </trkpt>
      <trkpt lat="47.33735" lon="-2.39307">
        <ele>56.799999237061</ele>
        <time>2022-04-21T08:26:11.000Z</time>
      </trkpt>
      <trkpt lat="47.33739" lon="-2.39307">
        <ele>56.799999237061</ele>
        <time>2022-04-21T08:26:12.000Z</time>
      </trkpt>
      <trkpt lat="47.33762" lon="-2.39303">
        <ele>56.799999237061</ele>
        <time>2022-04-21T08:26:17.000Z</time>
      </trkpt>
      <trkpt lat="47.33796" lon="-2.39297">
        <ele>56.799999237061</ele>
        <time>2022-04-21T08:26:24.000Z</time>
      </trkpt>
      <trkpt lat="47.33818" lon="-2.39292">
        <ele>56.400001525879</ele>
        <time>2022-04-21T08:26:28.000Z</time>
      </trkpt>
      <trkpt lat="47.33824" lon="-2.39291">
        <ele>56</ele>
        <time>2022-04-21T08:26:29.000Z</time>
      </trkpt>
      <trkpt lat="47.3383" lon="-2.3929">
        <ele>55.599998474121</ele>
        <time>2022-04-21T08:26:30.000Z</time>
      </trkpt>
      <trkpt lat="47.33836" lon="-2.3929">
        <ele>55</ele>
        <time>2022-04-21T08:26:31.000Z</time>
      </trkpt>
      <trkpt lat="47.33842" lon="-2.39289">
        <ele>54.599998474121</ele>
        <time>2022-04-21T08:26:32.000Z</time>
      </trkpt>
      <trkpt lat="47.33874" lon="-2.39285">
        <ele>54.599998474121</ele>
        <time>2022-04-21T08:26:37.000Z</time>
      </trkpt>
      <trkpt lat="47.3388" lon="-2.39284">
        <ele>54.599998474121</ele>
        <time>2022-04-21T08:26:38.000Z</time>
      </trkpt>
      <trkpt lat="47.33916" lon="-2.39277">
        <ele>54.599998474121</ele>
        <time>2022-04-21T08:26:44.000Z</time>
      </trkpt>
      <trkpt lat="47.33954" lon="-2.3927">
        <ele>53.799999237061</ele>
        <time>2022-04-21T08:26:50.000Z</time>
      </trkpt>
      <trkpt lat="47.3396" lon="-2.39269">
        <ele>53.400001525879</ele>
        <time>2022-04-21T08:26:51.000Z</time>
      </trkpt>
      <trkpt lat="47.33967" lon="-2.39268">
        <ele>53</ele>
        <time>2022-04-21T08:26:52.000Z</time>
      </trkpt>
      <trkpt lat="47.33973" lon="-2.39267">
        <ele>52.599998474121</ele>
        <time>2022-04-21T08:26:53.000Z</time>
      </trkpt>
      <trkpt lat="47.34008" lon="-2.39261">
        <ele>52.599998474121</ele>
        <time>2022-04-21T08:26:58.000Z</time>
      </trkpt>
      <trkpt lat="47.34053" lon="-2.39259">
        <ele>52.200000762939</ele>
        <time>2022-04-21T08:27:05.000Z</time>
      </trkpt>
      <trkpt lat="47.34058" lon="-2.39261">
        <ele>51.799999237061</ele>
        <time>2022-04-21T08:27:06.000Z</time>
      </trkpt>
      <trkpt lat="47.34062" lon="-2.39264">
        <ele>51.400001525879</ele>
        <time>2022-04-21T08:27:07.000Z</time>
      </trkpt>
      <trkpt lat="47.34065" lon="-2.39269">
        <ele>51</ele>
        <time>2022-04-21T08:27:08.000Z</time>
      </trkpt>
      <trkpt lat="47.34067" lon="-2.39275">
        <ele>50.599998474121</ele>
        <time>2022-04-21T08:27:09.000Z</time>
      </trkpt>
      <trkpt lat="47.34069" lon="-2.39281">
        <ele>50.599998474121</ele>
        <time>2022-04-21T08:27:10.000Z</time>
      </trkpt>
      <trkpt lat="47.3407" lon="-2.39288">
        <ele>50.599998474121</ele>
        <time>2022-04-21T08:27:11.000Z</time>
      </trkpt>
      <trkpt lat="47.34071" lon="-2.39295">
        <ele>50.599998474121</ele>
        <time>2022-04-21T08:27:12.000Z</time>
      </trkpt>
      <trkpt lat="47.34079" lon="-2.39348">
        <ele>50.599998474121</ele>
        <time>2022-04-21T08:27:19.000Z</time>
      </trkpt>
      <trkpt lat="47.34085" lon="-2.3939">
        <ele>50.599998474121</ele>
        <time>2022-04-21T08:27:25.000Z</time>
      </trkpt>
      <trkpt lat="47.34089" lon="-2.39413">
        <ele>50.599998474121</ele>
        <time>2022-04-21T08:27:29.000Z</time>
      </trkpt>
      <trkpt lat="47.34095" lon="-2.39423">
        <ele>50.599998474121</ele>
        <time>2022-04-21T08:27:31.000Z</time>
      </trkpt>
      <trkpt lat="47.34108" lon="-2.39426">
        <ele>50.599998474121</ele>
        <time>2022-04-21T08:27:34.000Z</time>
      </trkpt>
      <trkpt lat="47.34117" lon="-2.3942">
        <ele>50.599998474121</ele>
        <time>2022-04-21T08:27:36.000Z</time>
      </trkpt>
      <trkpt lat="47.34131" lon="-2.39411">
        <ele>50.599998474121</ele>
        <time>2022-04-21T08:27:39.000Z</time>
      </trkpt>
      <trkpt lat="47.34146" lon="-2.39403">
        <ele>51</ele>
        <time>2022-04-21T08:27:42.000Z</time>
      </trkpt>
      <trkpt lat="47.34151" lon="-2.394">
        <ele>51.400001525879</ele>
        <time>2022-04-21T08:27:43.000Z</time>
      </trkpt>
      <trkpt lat="47.34155" lon="-2.39397">
        <ele>51.799999237061</ele>
        <time>2022-04-21T08:27:44.000Z</time>
      </trkpt>
      <trkpt lat="47.3416" lon="-2.39393">
        <ele>52.200000762939</ele>
        <time>2022-04-21T08:27:45.000Z</time>
      </trkpt>
      <trkpt lat="47.34165" lon="-2.3939">
        <ele>52.599998474121</ele>
        <time>2022-04-21T08:27:46.000Z</time>
      </trkpt>
      <trkpt lat="47.34198" lon="-2.39369">
        <ele>52.599998474121</ele>
        <time>2022-04-21T08:27:52.000Z</time>
      </trkpt>
      <trkpt lat="47.34234" lon="-2.39345">
        <ele>52.599998474121</ele>
        <time>2022-04-21T08:27:58.000Z</time>
      </trkpt>
      <trkpt lat="47.34253" lon="-2.39332">
        <ele>52.599998474121</ele>
        <time>2022-04-21T08:28:01.000Z</time>
      </trkpt>
      <trkpt lat="47.34273" lon="-2.3932">
        <ele>52.599998474121</ele>
        <time>2022-04-21T08:28:04.000Z</time>
      </trkpt>
      <trkpt lat="47.34291" lon="-2.39311">
        <ele>52.200000762939</ele>
        <time>2022-04-21T08:28:07.000Z</time>
      </trkpt>
      <trkpt lat="47.34298" lon="-2.39308">
        <ele>51.799999237061</ele>
        <time>2022-04-21T08:28:08.000Z</time>
      </trkpt>
      <trkpt lat="47.34304" lon="-2.39305">
        <ele>51.400001525879</ele>
        <time>2022-04-21T08:28:09.000Z</time>
      </trkpt>
      <trkpt lat="47.34311" lon="-2.39302">
        <ele>51</ele>
        <time>2022-04-21T08:28:10.000Z</time>
      </trkpt>
      <trkpt lat="47.34317" lon="-2.39298">
        <ele>50.599998474121</ele>
        <time>2022-04-21T08:28:11.000Z</time>
      </trkpt>
      <trkpt lat="47.34347" lon="-2.39281">
        <ele>50.599998474121</ele>
        <time>2022-04-21T08:28:16.000Z</time>
      </trkpt>
      <trkpt lat="47.3436" lon="-2.39274">
        <ele>50.200000762939</ele>
        <time>2022-04-21T08:28:18.000Z</time>
      </trkpt>
      <trkpt lat="47.34366" lon="-2.39271">
        <ele>49.799999237061</ele>
        <time>2022-04-21T08:28:19.000Z</time>
      </trkpt>
      <trkpt lat="47.34373" lon="-2.39268">
        <ele>49.200000762939</ele>
        <time>2022-04-21T08:28:20.000Z</time>
      </trkpt>
      <trkpt lat="47.3438" lon="-2.39265">
        <ele>48.799999237061</ele>
        <time>2022-04-21T08:28:21.000Z</time>
      </trkpt>
      <trkpt lat="47.34387" lon="-2.39262">
        <ele>48.400001525879</ele>
        <time>2022-04-21T08:28:22.000Z</time>
      </trkpt>
      <trkpt lat="47.34409" lon="-2.39254">
        <ele>47.799999237061</ele>
        <time>2022-04-21T08:28:25.000Z</time>
      </trkpt>
      <trkpt lat="47.34416" lon="-2.39252">
        <ele>47.400001525879</ele>
        <time>2022-04-21T08:28:26.000Z</time>
      </trkpt>
      <trkpt lat="47.34423" lon="-2.3925">
        <ele>46.799999237061</ele>
        <time>2022-04-21T08:28:27.000Z</time>
      </trkpt>
      <trkpt lat="47.3443" lon="-2.39248">
        <ele>45.799999237061</ele>
        <time>2022-04-21T08:28:28.000Z</time>
      </trkpt>
      <trkpt lat="47.34452" lon="-2.39244">
        <ele>45.400001525879</ele>
        <time>2022-04-21T08:28:31.000Z</time>
      </trkpt>
      <trkpt lat="47.3446" lon="-2.39242">
        <ele>45</ele>
        <time>2022-04-21T08:28:32.000Z</time>
      </trkpt>
      <trkpt lat="47.34467" lon="-2.3924">
        <ele>44.400001525879</ele>
        <time>2022-04-21T08:28:33.000Z</time>
      </trkpt>
      <trkpt lat="47.34475" lon="-2.39238">
        <ele>44</ele>
        <time>2022-04-21T08:28:34.000Z</time>
      </trkpt>
      <trkpt lat="47.34482" lon="-2.39236">
        <ele>43.599998474121</ele>
        <time>2022-04-21T08:28:35.000Z</time>
      </trkpt>
      <trkpt lat="47.34511" lon="-2.39228">
        <ele>43</ele>
        <time>2022-04-21T08:28:39.000Z</time>
      </trkpt>
      <trkpt lat="47.34519" lon="-2.39228">
        <ele>42.599998474121</ele>
        <time>2022-04-21T08:28:40.000Z</time>
      </trkpt>
      <trkpt lat="47.34528" lon="-2.39228">
        <ele>42.200000762939</ele>
        <time>2022-04-21T08:28:41.000Z</time>
      </trkpt>
      <trkpt lat="47.34536" lon="-2.39228">
        <ele>41.799999237061</ele>
        <time>2022-04-21T08:28:42.000Z</time>
      </trkpt>
      <trkpt lat="47.34545" lon="-2.39229">
        <ele>41.400001525879</ele>
        <time>2022-04-21T08:28:43.000Z</time>
      </trkpt>
      <trkpt lat="47.34561" lon="-2.39233">
        <ele>41.400001525879</ele>
        <time>2022-04-21T08:28:45.000Z</time>
      </trkpt>
      <trkpt lat="47.3457" lon="-2.39237">
        <ele>41</ele>
        <time>2022-04-21T08:28:46.000Z</time>
      </trkpt>
      <trkpt lat="47.34578" lon="-2.39241">
        <ele>40.599998474121</ele>
        <time>2022-04-21T08:28:47.000Z</time>
      </trkpt>
      <trkpt lat="47.34586" lon="-2.39245">
        <ele>40.200000762939</ele>
        <time>2022-04-21T08:28:48.000Z</time>
      </trkpt>
      <trkpt lat="47.34593" lon="-2.39249">
        <ele>39.799999237061</ele>
        <time>2022-04-21T08:28:49.000Z</time>
      </trkpt>
      <trkpt lat="47.346" lon="-2.39253">
        <ele>39.200000762939</ele>
        <time>2022-04-21T08:28:50.000Z</time>
      </trkpt>
      <trkpt lat="47.34607" lon="-2.39258">
        <ele>39.200000762939</ele>
        <time>2022-04-21T08:28:51.000Z</time>
      </trkpt>
      <trkpt lat="47.34641" lon="-2.39285">
        <ele>39.200000762939</ele>
        <time>2022-04-21T08:28:57.000Z</time>
      </trkpt>
      <trkpt lat="47.34659" lon="-2.3931">
        <ele>39.200000762939</ele>
        <time>2022-04-21T08:29:02.000Z</time>
      </trkpt>
      <trkpt lat="47.34656" lon="-2.39328">
        <ele>39.200000762939</ele>
        <time>2022-04-21T08:29:05.000Z</time>
      </trkpt>
      <trkpt lat="47.3465" lon="-2.39338">
        <ele>39.200000762939</ele>
        <time>2022-04-21T08:29:07.000Z</time>
      </trkpt>
      <trkpt lat="47.34639" lon="-2.39354">
        <ele>39.200000762939</ele>
        <time>2022-04-21T08:29:10.000Z</time>
      </trkpt>
      <trkpt lat="47.34616" lon="-2.39391">
        <ele>39.200000762939</ele>
        <time>2022-04-21T08:29:16.000Z</time>
      </trkpt>
      <trkpt lat="47.34594" lon="-2.39427">
        <ele>39.799999237061</ele>
        <time>2022-04-21T08:29:22.000Z</time>
      </trkpt>
      <trkpt lat="47.34589" lon="-2.39433">
        <ele>40.200000762939</ele>
        <time>2022-04-21T08:29:23.000Z</time>
      </trkpt>
      <trkpt lat="47.34585" lon="-2.39438">
        <ele>40.599998474121</ele>
        <time>2022-04-21T08:29:24.000Z</time>
      </trkpt>
      <trkpt lat="47.34581" lon="-2.39443">
        <ele>41</ele>
        <time>2022-04-21T08:29:25.000Z</time>
      </trkpt>
      <trkpt lat="47.34576" lon="-2.39448">
        <ele>41.400001525879</ele>
        <time>2022-04-21T08:29:26.000Z</time>
      </trkpt>
      <trkpt lat="47.34563" lon="-2.39462">
        <ele>41.400001525879</ele>
        <time>2022-04-21T08:29:29.000Z</time>
      </trkpt>
      <trkpt lat="47.34559" lon="-2.39467">
        <ele>41.400001525879</ele>
        <time>2022-04-21T08:29:30.000Z</time>
      </trkpt>
      <trkpt lat="47.34552" lon="-2.39488">
        <ele>41.400001525879</ele>
        <time>2022-04-21T08:29:33.000Z</time>
      </trkpt>
      <trkpt lat="47.3455" lon="-2.39502">
        <ele>41.400001525879</ele>
        <time>2022-04-21T08:29:35.000Z</time>
      </trkpt>
      <trkpt lat="47.34547" lon="-2.39523">
        <ele>41.799999237061</ele>
        <time>2022-04-21T08:29:38.000Z</time>
      </trkpt>
      <trkpt lat="47.34546" lon="-2.39531">
        <ele>42.200000762939</ele>
        <time>2022-04-21T08:29:39.000Z</time>
      </trkpt>
      <trkpt lat="47.34545" lon="-2.39538">
        <ele>42.599998474121</ele>
        <time>2022-04-21T08:29:40.000Z</time>
      </trkpt>
      <trkpt lat="47.34543" lon="-2.39545">
        <ele>43</ele>
        <time>2022-04-21T08:29:41.000Z</time>
      </trkpt>
      <trkpt lat="47.34541" lon="-2.39552">
        <ele>43.400001525879</ele>
        <time>2022-04-21T08:29:42.000Z</time>
      </trkpt>
      <trkpt lat="47.34537" lon="-2.39565">
        <ele>43.400001525879</ele>
        <time>2022-04-21T08:29:44.000Z</time>
      </trkpt>
      <trkpt lat="47.3452" lon="-2.39606">
        <ele>43.400001525879</ele>
        <time>2022-04-21T08:29:50.000Z</time>
      </trkpt>
      <trkpt lat="47.34517" lon="-2.39614">
        <ele>43.400001525879</ele>
        <time>2022-04-21T08:29:51.000Z</time>
      </trkpt>
      <trkpt lat="47.34501" lon="-2.39646">
        <ele>43.400001525879</ele>
        <time>2022-04-21T08:29:56.000Z</time>
      </trkpt>
      <trkpt lat="47.34482" lon="-2.39681">
        <ele>43.400001525879</ele>
        <time>2022-04-21T08:30:01.000Z</time>
      </trkpt>
      <trkpt lat="47.34478" lon="-2.3969">
        <ele>43.400001525879</ele>
        <time>2022-04-21T08:30:02.000Z</time>
      </trkpt>
      <trkpt lat="47.34471" lon="-2.3972">
        <ele>43.400001525879</ele>
        <time>2022-04-21T08:30:05.000Z</time>
      </trkpt>
      <trkpt lat="47.3447" lon="-2.39729">
        <ele>43.400001525879</ele>
        <time>2022-04-21T08:30:06.000Z</time>
      </trkpt>
      <trkpt lat="47.34467" lon="-2.39757">
        <ele>43.400001525879</ele>
        <time>2022-04-21T08:30:09.000Z</time>
      </trkpt>
      <trkpt lat="47.34469" lon="-2.39764">
        <ele>43.400001525879</ele>
        <time>2022-04-21T08:30:10.000Z</time>
      </trkpt>
      <trkpt lat="47.34482" lon="-2.39774">
        <ele>43.400001525879</ele>
        <time>2022-04-21T08:30:13.000Z</time>
      </trkpt>
      <trkpt lat="47.34507" lon="-2.39784">
        <ele>43.400001525879</ele>
        <time>2022-04-21T08:30:18.000Z</time>
      </trkpt>
      <trkpt lat="47.3452" lon="-2.39795">
        <ele>43.400001525879</ele>
        <time>2022-04-21T08:30:21.000Z</time>
      </trkpt>
      <trkpt lat="47.34532" lon="-2.39805">
        <ele>43.400001525879</ele>
        <time>2022-04-21T08:30:24.000Z</time>
      </trkpt>
      <trkpt lat="47.34543" lon="-2.39816">
        <ele>43.400001525879</ele>
        <time>2022-04-21T08:30:27.000Z</time>
      </trkpt>
      <trkpt lat="47.3455" lon="-2.39823">
        <ele>43.400001525879</ele>
        <time>2022-04-21T08:30:29.000Z</time>
      </trkpt>
      <trkpt lat="47.34553" lon="-2.39827">
        <ele>43.400001525879</ele>
        <time>2022-04-21T08:30:30.000Z</time>
      </trkpt>
      <trkpt lat="47.34584" lon="-2.3985">
        <ele>43.400001525879</ele>
        <time>2022-04-21T08:30:38.000Z</time>
      </trkpt>
      <trkpt lat="47.34588" lon="-2.39853">
        <ele>43.400001525879</ele>
        <time>2022-04-21T08:30:39.000Z</time>
      </trkpt>
      <trkpt lat="47.34604" lon="-2.39861">
        <ele>43.400001525879</ele>
        <time>2022-04-21T08:30:43.000Z</time>
      </trkpt>
      <trkpt lat="47.3461" lon="-2.39865">
        <ele>43.400001525879</ele>
        <time>2022-04-21T08:30:47.000Z</time>
      </trkpt>
      <trkpt lat="47.3461" lon="-2.39865">
        <ele>43</ele>
        <time>2022-04-21T08:30:48.000Z</time>
      </trkpt>
      <trkpt lat="47.3461" lon="-2.39865">
        <ele>41.400001525879</ele>
        <time>2022-04-21T08:30:53.000Z</time>
      </trkpt>
      <trkpt lat="47.34611" lon="-2.3987">
        <ele>41.400001525879</ele>
        <time>2022-04-21T08:30:55.000Z</time>
      </trkpt>
      <trkpt lat="47.34611" lon="-2.39879">
        <ele>41.400001525879</ele>
        <time>2022-04-21T08:30:58.000Z</time>
      </trkpt>
      <trkpt lat="47.34609" lon="-2.39887">
        <ele>41.400001525879</ele>
        <time>2022-04-21T08:31:00.000Z</time>
      </trkpt>
      <trkpt lat="47.346" lon="-2.39919">
        <ele>41.400001525879</ele>
        <time>2022-04-21T08:31:07.000Z</time>
      </trkpt>
      <trkpt lat="47.34594" lon="-2.39939">
        <ele>41.400001525879</ele>
        <time>2022-04-21T08:31:13.000Z</time>
      </trkpt>
      <trkpt lat="47.34592" lon="-2.39947">
        <ele>41.400001525879</ele>
        <time>2022-04-21T08:31:17.000Z</time>
      </trkpt>
      <trkpt lat="47.34593" lon="-2.39951">
        <ele>41.400001525879</ele>
        <time>2022-04-21T08:31:45.000Z</time>
      </trkpt>
      <trkpt lat="47.34594" lon="-2.39955">
        <ele>41.799999237061</ele>
        <time>2022-04-21T08:31:47.000Z</time>
      </trkpt>
      <trkpt lat="47.34594" lon="-2.39959">
        <ele>42.200000762939</ele>
        <time>2022-04-21T08:31:48.000Z</time>
      </trkpt>
      <trkpt lat="47.34593" lon="-2.39963">
        <ele>42.599998474121</ele>
        <time>2022-04-21T08:31:49.000Z</time>
      </trkpt>
      <trkpt lat="47.34592" lon="-2.39969">
        <ele>43</ele>
        <time>2022-04-21T08:31:50.000Z</time>
      </trkpt>
      <trkpt lat="47.3459" lon="-2.39974">
        <ele>43.400001525879</ele>
        <time>2022-04-21T08:31:51.000Z</time>
      </trkpt>
      <trkpt lat="47.3459" lon="-2.39994">
        <ele>43.400001525879</ele>
        <time>2022-04-21T08:31:54.000Z</time>
      </trkpt>
      <trkpt lat="47.34602" lon="-2.40018">
        <ele>43.400001525879</ele>
        <time>2022-04-21T08:31:58.000Z</time>
      </trkpt>
      <trkpt lat="47.34636" lon="-2.40074">
        <ele>43.400001525879</ele>
        <time>2022-04-21T08:32:07.000Z</time>
      </trkpt>
      <trkpt lat="47.34658" lon="-2.40105">
        <ele>43.400001525879</ele>
        <time>2022-04-21T08:32:12.000Z</time>
      </trkpt>
      <trkpt lat="47.34667" lon="-2.40115">
        <ele>43.400001525879</ele>
        <time>2022-04-21T08:32:14.000Z</time>
      </trkpt>
      <trkpt lat="47.34682" lon="-2.40125">
        <ele>43.400001525879</ele>
        <time>2022-04-21T08:32:17.000Z</time>
      </trkpt>
      <trkpt lat="47.34693" lon="-2.40127">
        <ele>43.400001525879</ele>
        <time>2022-04-21T08:32:19.000Z</time>
      </trkpt>
      <trkpt lat="47.34723" lon="-2.40137">
        <ele>43.400001525879</ele>
        <time>2022-04-21T08:32:25.000Z</time>
      </trkpt>
      <trkpt lat="47.34748" lon="-2.40165">
        <ele>43.400001525879</ele>
        <time>2022-04-21T08:32:31.000Z</time>
      </trkpt>
      <trkpt lat="47.34771" lon="-2.40202">
        <ele>43</ele>
        <time>2022-04-21T08:32:38.000Z</time>
      </trkpt>
      <trkpt lat="47.34775" lon="-2.40207">
        <ele>42.599998474121</ele>
        <time>2022-04-21T08:32:39.000Z</time>
      </trkpt>
      <trkpt lat="47.3478" lon="-2.4021">
        <ele>42.200000762939</ele>
        <time>2022-04-21T08:32:40.000Z</time>
      </trkpt>
      <trkpt lat="47.34785" lon="-2.40214">
        <ele>41.799999237061</ele>
        <time>2022-04-21T08:32:41.000Z</time>
      </trkpt>
      <trkpt lat="47.3479" lon="-2.40218">
        <ele>41.400001525879</ele>
        <time>2022-04-21T08:32:42.000Z</time>
      </trkpt>
      <trkpt lat="47.34795" lon="-2.40222">
        <ele>41.400001525879</ele>
        <time>2022-04-21T08:32:43.000Z</time>
      </trkpt>
      <trkpt lat="47.34813" lon="-2.4025">
        <ele>41.400001525879</ele>
        <time>2022-04-21T08:32:47.000Z</time>
      </trkpt>
      <trkpt lat="47.34818" lon="-2.40258">
        <ele>41</ele>
        <time>2022-04-21T08:32:48.000Z</time>
      </trkpt>
      <trkpt lat="47.34822" lon="-2.40266">
        <ele>40.599998474121</ele>
        <time>2022-04-21T08:32:49.000Z</time>
      </trkpt>
      <trkpt lat="47.34826" lon="-2.40274">
        <ele>40.200000762939</ele>
        <time>2022-04-21T08:32:50.000Z</time>
      </trkpt>
      <trkpt lat="47.3483" lon="-2.40282">
        <ele>39.799999237061</ele>
        <time>2022-04-21T08:32:51.000Z</time>
      </trkpt>
      <trkpt lat="47.34834" lon="-2.40289">
        <ele>39.400001525879</ele>
        <time>2022-04-21T08:32:52.000Z</time>
      </trkpt>
      <trkpt lat="47.34846" lon="-2.4031">
        <ele>39.400001525879</ele>
        <time>2022-04-21T08:32:55.000Z</time>
      </trkpt>
      <trkpt lat="47.34853" lon="-2.40326">
        <ele>39.400001525879</ele>
        <time>2022-04-21T08:32:57.000Z</time>
      </trkpt>
      <trkpt lat="47.34861" lon="-2.4035">
        <ele>39.400001525879</ele>
        <time>2022-04-21T08:33:00.000Z</time>
      </trkpt>
      <trkpt lat="47.34867" lon="-2.40375">
        <ele>39.400001525879</ele>
        <time>2022-04-21T08:33:03.000Z</time>
      </trkpt>
      <trkpt lat="47.34871" lon="-2.40401">
        <ele>39</ele>
        <time>2022-04-21T08:33:06.000Z</time>
      </trkpt>
      <trkpt lat="47.34872" lon="-2.4041">
        <ele>38.599998474121</ele>
        <time>2022-04-21T08:33:07.000Z</time>
      </trkpt>
      <trkpt lat="47.34874" lon="-2.40418">
        <ele>38.200000762939</ele>
        <time>2022-04-21T08:33:08.000Z</time>
      </trkpt>
      <trkpt lat="47.34875" lon="-2.40426">
        <ele>37.799999237061</ele>
        <time>2022-04-21T08:33:09.000Z</time>
      </trkpt>
      <trkpt lat="47.34876" lon="-2.40435">
        <ele>37.400001525879</ele>
        <time>2022-04-21T08:33:10.000Z</time>
      </trkpt>
      <trkpt lat="47.34881" lon="-2.40471">
        <ele>37.400001525879</ele>
        <time>2022-04-21T08:33:14.000Z</time>
      </trkpt>
      <trkpt lat="47.34886" lon="-2.40501">
        <ele>36.799999237061</ele>
        <time>2022-04-21T08:33:17.000Z</time>
      </trkpt>
      <trkpt lat="47.34887" lon="-2.40512">
        <ele>36.400001525879</ele>
        <time>2022-04-21T08:33:18.000Z</time>
      </trkpt>
      <trkpt lat="47.34888" lon="-2.40522">
        <ele>36</ele>
        <time>2022-04-21T08:33:19.000Z</time>
      </trkpt>
      <trkpt lat="47.34889" lon="-2.40533">
        <ele>35.599998474121</ele>
        <time>2022-04-21T08:33:20.000Z</time>
      </trkpt>
      <trkpt lat="47.3489" lon="-2.40543">
        <ele>35.200000762939</ele>
        <time>2022-04-21T08:33:21.000Z</time>
      </trkpt>
      <trkpt lat="47.34889" lon="-2.40553">
        <ele>35.200000762939</ele>
        <time>2022-04-21T08:33:22.000Z</time>
      </trkpt>
      <trkpt lat="47.34885" lon="-2.40569">
        <ele>35.200000762939</ele>
        <time>2022-04-21T08:33:24.000Z</time>
      </trkpt>
      <trkpt lat="47.34865" lon="-2.40591">
        <ele>35.200000762939</ele>
        <time>2022-04-21T08:33:28.000Z</time>
      </trkpt>
      <trkpt lat="47.34848" lon="-2.40609">
        <ele>35.200000762939</ele>
        <time>2022-04-21T08:33:31.000Z</time>
      </trkpt>
      <trkpt lat="47.34839" lon="-2.40626">
        <ele>35.200000762939</ele>
        <time>2022-04-21T08:33:33.000Z</time>
      </trkpt>
      <trkpt lat="47.34827" lon="-2.40672">
        <ele>35.200000762939</ele>
        <time>2022-04-21T08:33:38.000Z</time>
      </trkpt>
      <trkpt lat="47.34821" lon="-2.40733">
        <ele>35.200000762939</ele>
        <time>2022-04-21T08:33:45.000Z</time>
      </trkpt>
      <trkpt lat="47.34827" lon="-2.40766">
        <ele>36</ele>
        <time>2022-04-21T08:33:49.000Z</time>
      </trkpt>
      <trkpt lat="47.34832" lon="-2.40773">
        <ele>36.400001525879</ele>
        <time>2022-04-21T08:33:50.000Z</time>
      </trkpt>
      <trkpt lat="47.34838" lon="-2.40776">
        <ele>36.799999237061</ele>
        <time>2022-04-21T08:33:51.000Z</time>
      </trkpt>
      <trkpt lat="47.34843" lon="-2.40779">
        <ele>37.200000762939</ele>
        <time>2022-04-21T08:33:52.000Z</time>
      </trkpt>
      <trkpt lat="47.34854" lon="-2.4078">
        <ele>37.200000762939</ele>
        <time>2022-04-21T08:33:54.000Z</time>
      </trkpt>
      <trkpt lat="47.34866" lon="-2.4078">
        <ele>37.200000762939</ele>
        <time>2022-04-21T08:33:56.000Z</time>
      </trkpt>
      <trkpt lat="47.34883" lon="-2.40781">
        <ele>37.200000762939</ele>
        <time>2022-04-21T08:33:59.000Z</time>
      </trkpt>
      <trkpt lat="47.34894" lon="-2.40786">
        <ele>37.200000762939</ele>
        <time>2022-04-21T08:34:01.000Z</time>
      </trkpt>
      <trkpt lat="47.3491" lon="-2.40811">
        <ele>37.200000762939</ele>
        <time>2022-04-21T08:34:05.000Z</time>
      </trkpt>
      <trkpt lat="47.34914" lon="-2.40818">
        <ele>37.200000762939</ele>
        <time>2022-04-21T08:34:06.000Z</time>
      </trkpt>
      <trkpt lat="47.34931" lon="-2.40852">
        <ele>37.200000762939</ele>
        <time>2022-04-21T08:34:11.000Z</time>
      </trkpt>
      <trkpt lat="47.34937" lon="-2.40886">
        <ele>37.200000762939</ele>
        <time>2022-04-21T08:34:15.000Z</time>
      </trkpt>
      <trkpt lat="47.3494" lon="-2.40948">
        <ele>37.200000762939</ele>
        <time>2022-04-21T08:34:22.000Z</time>
      </trkpt>
      <trkpt lat="47.34939" lon="-2.40957">
        <ele>37.200000762939</ele>
        <time>2022-04-21T08:34:23.000Z</time>
      </trkpt>
      <trkpt lat="47.34937" lon="-2.40976">
        <ele>37.200000762939</ele>
        <time>2022-04-21T08:34:25.000Z</time>
      </trkpt>
      <trkpt lat="47.34935" lon="-2.40985">
        <ele>37.200000762939</ele>
        <time>2022-04-21T08:34:26.000Z</time>
      </trkpt>
      <trkpt lat="47.3493" lon="-2.41021">
        <ele>37.200000762939</ele>
        <time>2022-04-21T08:34:30.000Z</time>
      </trkpt>
      <trkpt lat="47.3493" lon="-2.4103">
        <ele>37.200000762939</ele>
        <time>2022-04-21T08:34:31.000Z</time>
      </trkpt>
      <trkpt lat="47.34931" lon="-2.41047">
        <ele>37.200000762939</ele>
        <time>2022-04-21T08:34:33.000Z</time>
      </trkpt>
      <trkpt lat="47.34935" lon="-2.41063">
        <ele>37.200000762939</ele>
        <time>2022-04-21T08:34:35.000Z</time>
      </trkpt>
      <trkpt lat="47.34953" lon="-2.41108">
        <ele>37.200000762939</ele>
        <time>2022-04-21T08:34:40.000Z</time>
      </trkpt>
      <trkpt lat="47.34984" lon="-2.4117">
        <ele>37.200000762939</ele>
        <time>2022-04-21T08:34:47.000Z</time>
      </trkpt>
      <trkpt lat="47.35003" lon="-2.41213">
        <ele>37.200000762939</ele>
        <time>2022-04-21T08:34:52.000Z</time>
      </trkpt>
      <trkpt lat="47.35016" lon="-2.41245">
        <ele>37.200000762939</ele>
        <time>2022-04-21T08:34:56.000Z</time>
      </trkpt>
      <trkpt lat="47.35019" lon="-2.41253">
        <ele>37.200000762939</ele>
        <time>2022-04-21T08:34:57.000Z</time>
      </trkpt>
      <trkpt lat="47.35038" lon="-2.41302">
        <ele>37.200000762939</ele>
        <time>2022-04-21T08:35:03.000Z</time>
      </trkpt>
      <trkpt lat="47.35058" lon="-2.41352">
        <ele>37.200000762939</ele>
        <time>2022-04-21T08:35:09.000Z</time>
      </trkpt>
      <trkpt lat="47.35081" lon="-2.41403">
        <ele>36.799999237061</ele>
        <time>2022-04-21T08:35:16.000Z</time>
      </trkpt>
      <trkpt lat="47.35085" lon="-2.41404">
        <ele>36.400001525879</ele>
        <time>2022-04-21T08:35:17.000Z</time>
      </trkpt>
      <trkpt lat="47.3509" lon="-2.41403">
        <ele>36</ele>
        <time>2022-04-21T08:35:18.000Z</time>
      </trkpt>
      <trkpt lat="47.35095" lon="-2.41401">
        <ele>35.599998474121</ele>
        <time>2022-04-21T08:35:19.000Z</time>
      </trkpt>
      <trkpt lat="47.35099" lon="-2.41397">
        <ele>35.200000762939</ele>
        <time>2022-04-21T08:35:20.000Z</time>
      </trkpt>
      <trkpt lat="47.3511" lon="-2.41391">
        <ele>35.200000762939</ele>
        <time>2022-04-21T08:35:22.000Z</time>
      </trkpt>
      <trkpt lat="47.35143" lon="-2.41368">
        <ele>35.200000762939</ele>
        <time>2022-04-21T08:35:28.000Z</time>
      </trkpt>
      <trkpt lat="47.35167" lon="-2.41355">
        <ele>35.200000762939</ele>
        <time>2022-04-21T08:35:32.000Z</time>
      </trkpt>
      <trkpt lat="47.35174" lon="-2.41354">
        <ele>35.200000762939</ele>
        <time>2022-04-21T08:35:33.000Z</time>
      </trkpt>
      <trkpt lat="47.35179" lon="-2.41353">
        <ele>35.200000762939</ele>
        <time>2022-04-21T08:35:34.000Z</time>
      </trkpt>
      <trkpt lat="47.3519" lon="-2.4136">
        <ele>35.200000762939</ele>
        <time>2022-04-21T08:35:36.000Z</time>
      </trkpt>
      <trkpt lat="47.35205" lon="-2.41379">
        <ele>35.200000762939</ele>
        <time>2022-04-21T08:35:39.000Z</time>
      </trkpt>
      <trkpt lat="47.35209" lon="-2.41386">
        <ele>35.200000762939</ele>
        <time>2022-04-21T08:35:40.000Z</time>
      </trkpt>
      <trkpt lat="47.35231" lon="-2.41422">
        <ele>35.200000762939</ele>
        <time>2022-04-21T08:35:45.000Z</time>
      </trkpt>
      <trkpt lat="47.35255" lon="-2.4145">
        <ele>35.200000762939</ele>
        <time>2022-04-21T08:35:50.000Z</time>
      </trkpt>
      <trkpt lat="47.35269" lon="-2.41445">
        <ele>35.200000762939</ele>
        <time>2022-04-21T08:35:53.000Z</time>
      </trkpt>
      <trkpt lat="47.35278" lon="-2.41437">
        <ele>35.200000762939</ele>
        <time>2022-04-21T08:35:55.000Z</time>
      </trkpt>
      <trkpt lat="47.35293" lon="-2.41417">
        <ele>35.200000762939</ele>
        <time>2022-04-21T08:35:59.000Z</time>
      </trkpt>
      <trkpt lat="47.35312" lon="-2.41381">
        <ele>35.200000762939</ele>
        <time>2022-04-21T08:36:04.000Z</time>
      </trkpt>
      <trkpt lat="47.35337" lon="-2.41344">
        <ele>35.200000762939</ele>
        <time>2022-04-21T08:36:09.000Z</time>
      </trkpt>
      <trkpt lat="47.3537" lon="-2.41297">
        <ele>35.200000762939</ele>
        <time>2022-04-21T08:36:15.000Z</time>
      </trkpt>
      <trkpt lat="47.35388" lon="-2.41279">
        <ele>35.200000762939</ele>
        <time>2022-04-21T08:36:18.000Z</time>
      </trkpt>
      <trkpt lat="47.35395" lon="-2.41274">
        <ele>35.200000762939</ele>
        <time>2022-04-21T08:36:19.000Z</time>
      </trkpt>
      <trkpt lat="47.35422" lon="-2.41251">
        <ele>35.200000762939</ele>
        <time>2022-04-21T08:36:23.000Z</time>
      </trkpt>
      <trkpt lat="47.35428" lon="-2.41244">
        <ele>35.200000762939</ele>
        <time>2022-04-21T08:36:24.000Z</time>
      </trkpt>
      <trkpt lat="47.35454" lon="-2.41209">
        <ele>35.200000762939</ele>
        <time>2022-04-21T08:36:29.000Z</time>
      </trkpt>
      <trkpt lat="47.35483" lon="-2.41186">
        <ele>35.200000762939</ele>
        <time>2022-04-21T08:36:34.000Z</time>
      </trkpt>
      <trkpt lat="47.35526" lon="-2.41152">
        <ele>35.200000762939</ele>
        <time>2022-04-21T08:36:41.000Z</time>
      </trkpt>
      <trkpt lat="47.35574" lon="-2.41113">
        <ele>35.200000762939</ele>
        <time>2022-04-21T08:36:49.000Z</time>
      </trkpt>
      <trkpt lat="47.35608" lon="-2.41077">
        <ele>35.200000762939</ele>
        <time>2022-04-21T08:36:55.000Z</time>
      </trkpt>
      <trkpt lat="47.3564" lon="-2.41041">
        <ele>35.200000762939</ele>
        <time>2022-04-21T08:37:01.000Z</time>
      </trkpt>
      <trkpt lat="47.35675" lon="-2.40991">
        <ele>35.200000762939</ele>
        <time>2022-04-21T08:37:08.000Z</time>
      </trkpt>
      <trkpt lat="47.35688" lon="-2.4097">
        <ele>35.200000762939</ele>
        <time>2022-04-21T08:37:11.000Z</time>
      </trkpt>
      <trkpt lat="47.35695" lon="-2.40959">
        <ele>35.200000762939</ele>
        <time>2022-04-21T08:37:13.000Z</time>
      </trkpt>
      <trkpt lat="47.35698" lon="-2.40954">
        <ele>35.200000762939</ele>
        <time>2022-04-21T08:37:14.000Z</time>
      </trkpt>
      <trkpt lat="47.35714" lon="-2.4093">
        <ele>35.200000762939</ele>
        <time>2022-04-21T08:37:18.000Z</time>
      </trkpt>
      <trkpt lat="47.35745" lon="-2.40882">
        <ele>35.200000762939</ele>
        <time>2022-04-21T08:37:25.000Z</time>
      </trkpt>
      <trkpt lat="47.35774" lon="-2.40845">
        <ele>35.200000762939</ele>
        <time>2022-04-21T08:37:31.000Z</time>
      </trkpt>
      <trkpt lat="47.35793" lon="-2.40819">
        <ele>34.799999237061</ele>
        <time>2022-04-21T08:37:35.000Z</time>
      </trkpt>
      <trkpt lat="47.35798" lon="-2.40812">
        <ele>34.400001525879</ele>
        <time>2022-04-21T08:37:36.000Z</time>
      </trkpt>
      <trkpt lat="47.35802" lon="-2.40805">
        <ele>34</ele>
        <time>2022-04-21T08:37:37.000Z</time>
      </trkpt>
      <trkpt lat="47.35807" lon="-2.40797">
        <ele>33.599998474121</ele>
        <time>2022-04-21T08:37:38.000Z</time>
      </trkpt>
      <trkpt lat="47.35811" lon="-2.4079">
        <ele>33.200000762939</ele>
        <time>2022-04-21T08:37:39.000Z</time>
      </trkpt>
      <trkpt lat="47.35834" lon="-2.40755">
        <ele>33.200000762939</ele>
        <time>2022-04-21T08:37:44.000Z</time>
      </trkpt>
      <trkpt lat="47.35852" lon="-2.40725">
        <ele>33.200000762939</ele>
        <time>2022-04-21T08:37:48.000Z</time>
      </trkpt>
      <trkpt lat="47.35856" lon="-2.40707">
        <ele>33.200000762939</ele>
        <time>2022-04-21T08:37:50.000Z</time>
      </trkpt>
      <trkpt lat="47.35859" lon="-2.40689">
        <ele>33.200000762939</ele>
        <time>2022-04-21T08:37:52.000Z</time>
      </trkpt>
      <trkpt lat="47.35861" lon="-2.4068">
        <ele>33.200000762939</ele>
        <time>2022-04-21T08:37:53.000Z</time>
      </trkpt>
      <trkpt lat="47.35864" lon="-2.40672">
        <ele>33.200000762939</ele>
        <time>2022-04-21T08:37:54.000Z</time>
      </trkpt>
      <trkpt lat="47.35886" lon="-2.40628">
        <ele>33.200000762939</ele>
        <time>2022-04-21T08:38:00.000Z</time>
      </trkpt>
      <trkpt lat="47.35913" lon="-2.4058">
        <ele>33.200000762939</ele>
        <time>2022-04-21T08:38:07.000Z</time>
      </trkpt>
      <trkpt lat="47.35921" lon="-2.40568">
        <ele>33.200000762939</ele>
        <time>2022-04-21T08:38:09.000Z</time>
      </trkpt>
      <trkpt lat="47.3594" lon="-2.40543">
        <ele>33.200000762939</ele>
        <time>2022-04-21T08:38:13.000Z</time>
      </trkpt>
      <trkpt lat="47.35974" lon="-2.40497">
        <ele>33.200000762939</ele>
        <time>2022-04-21T08:38:20.000Z</time>
      </trkpt>
      <trkpt lat="47.36008" lon="-2.40453">
        <ele>33.200000762939</ele>
        <time>2022-04-21T08:38:27.000Z</time>
      </trkpt>
      <trkpt lat="47.36013" lon="-2.40445">
        <ele>33.200000762939</ele>
        <time>2022-04-21T08:38:28.000Z</time>
      </trkpt>
      <trkpt lat="47.36023" lon="-2.4042">
        <ele>33.200000762939</ele>
        <time>2022-04-21T08:38:31.000Z</time>
      </trkpt>
      <trkpt lat="47.36025" lon="-2.40391">
        <ele>33.200000762939</ele>
        <time>2022-04-21T08:38:34.000Z</time>
      </trkpt>
      <trkpt lat="47.36025" lon="-2.40381">
        <ele>33.200000762939</ele>
        <time>2022-04-21T08:38:35.000Z</time>
      </trkpt>
      <trkpt lat="47.36031" lon="-2.40333">
        <ele>33.200000762939</ele>
        <time>2022-04-21T08:38:40.000Z</time>
      </trkpt>
      <trkpt lat="47.36046" lon="-2.40304">
        <ele>33.200000762939</ele>
        <time>2022-04-21T08:38:44.000Z</time>
      </trkpt>
      <trkpt lat="47.36057" lon="-2.40292">
        <ele>33.200000762939</ele>
        <time>2022-04-21T08:38:46.000Z</time>
      </trkpt>
      <trkpt lat="47.36073" lon="-2.40276">
        <ele>33.200000762939</ele>
        <time>2022-04-21T08:38:49.000Z</time>
      </trkpt>
      <trkpt lat="47.36109" lon="-2.40248">
        <ele>33.200000762939</ele>
        <time>2022-04-21T08:38:55.000Z</time>
      </trkpt>
      <trkpt lat="47.36149" lon="-2.40216">
        <ele>33.200000762939</ele>
        <time>2022-04-21T08:39:02.000Z</time>
      </trkpt>
      <trkpt lat="47.36198" lon="-2.40174">
        <ele>33.200000762939</ele>
        <time>2022-04-21T08:39:10.000Z</time>
      </trkpt>
      <trkpt lat="47.36233" lon="-2.40142">
        <ele>33.200000762939</ele>
        <time>2022-04-21T08:39:16.000Z</time>
      </trkpt>
      <trkpt lat="47.36263" lon="-2.40123">
        <ele>33.200000762939</ele>
        <time>2022-04-21T08:39:21.000Z</time>
      </trkpt>
      <trkpt lat="47.36269" lon="-2.40121">
        <ele>33.200000762939</ele>
        <time>2022-04-21T08:39:22.000Z</time>
      </trkpt>
      <trkpt lat="47.36307" lon="-2.40108">
        <ele>33.200000762939</ele>
        <time>2022-04-21T08:39:28.000Z</time>
      </trkpt>
      <trkpt lat="47.36341" lon="-2.40093">
        <ele>33.200000762939</ele>
        <time>2022-04-21T08:39:33.000Z</time>
      </trkpt>
      <trkpt lat="47.36348" lon="-2.4009">
        <ele>33.200000762939</ele>
        <time>2022-04-21T08:39:34.000Z</time>
      </trkpt>
      <trkpt lat="47.36383" lon="-2.40079">
        <ele>33.200000762939</ele>
        <time>2022-04-21T08:39:39.000Z</time>
      </trkpt>
      <trkpt lat="47.36433" lon="-2.40064">
        <ele>33.200000762939</ele>
        <time>2022-04-21T08:39:46.000Z</time>
      </trkpt>
      <trkpt lat="47.36466" lon="-2.4005">
        <ele>33.200000762939</ele>
        <time>2022-04-21T08:39:51.000Z</time>
      </trkpt>
      <trkpt lat="47.36503" lon="-2.40018">
        <ele>32.599998474121</ele>
        <time>2022-04-21T08:39:57.000Z</time>
      </trkpt>
      <trkpt lat="47.36508" lon="-2.40012">
        <ele>31.799999237061</ele>
        <time>2022-04-21T08:39:58.000Z</time>
      </trkpt>
      <trkpt lat="47.36514" lon="-2.40007">
        <ele>31.39999961853</ele>
        <time>2022-04-21T08:39:59.000Z</time>
      </trkpt>
      <trkpt lat="47.3652" lon="-2.40002">
        <ele>31</ele>
        <time>2022-04-21T08:40:00.000Z</time>
      </trkpt>
      <trkpt lat="47.36531" lon="-2.3999">
        <ele>31</ele>
        <time>2022-04-21T08:40:02.000Z</time>
      </trkpt>
      <trkpt lat="47.36562" lon="-2.39954">
        <ele>31</ele>
        <time>2022-04-21T08:40:08.000Z</time>
      </trkpt>
      <trkpt lat="47.36575" lon="-2.39937">
        <ele>31</ele>
        <time>2022-04-21T08:40:11.000Z</time>
      </trkpt>
      <trkpt lat="47.36584" lon="-2.39925">
        <ele>31</ele>
        <time>2022-04-21T08:40:13.000Z</time>
      </trkpt>
      <trkpt lat="47.36587" lon="-2.39917">
        <ele>31</ele>
        <time>2022-04-21T08:40:14.000Z</time>
      </trkpt>
      <trkpt lat="47.3659" lon="-2.399">
        <ele>31</ele>
        <time>2022-04-21T08:40:16.000Z</time>
      </trkpt>
      <trkpt lat="47.3658" lon="-2.39879">
        <ele>31</ele>
        <time>2022-04-21T08:40:19.000Z</time>
      </trkpt>
      <trkpt lat="47.3657" lon="-2.39868">
        <ele>31</ele>
        <time>2022-04-21T08:40:21.000Z</time>
      </trkpt>
      <trkpt lat="47.36558" lon="-2.39858">
        <ele>31</ele>
        <time>2022-04-21T08:40:23.000Z</time>
      </trkpt>
      <trkpt lat="47.36553" lon="-2.39853">
        <ele>31</ele>
        <time>2022-04-21T08:40:24.000Z</time>
      </trkpt>
      <trkpt lat="47.36543" lon="-2.39843">
        <ele>30.60000038147</ele>
        <time>2022-04-21T08:40:26.000Z</time>
      </trkpt>
      <trkpt lat="47.36539" lon="-2.39836">
        <ele>30.200000762939</ele>
        <time>2022-04-21T08:40:27.000Z</time>
      </trkpt>
      <trkpt lat="47.36535" lon="-2.39828">
        <ele>29.799999237061</ele>
        <time>2022-04-21T08:40:28.000Z</time>
      </trkpt>
      <trkpt lat="47.36532" lon="-2.3982">
        <ele>29.39999961853</ele>
        <time>2022-04-21T08:40:29.000Z</time>
      </trkpt>
      <trkpt lat="47.36529" lon="-2.39812">
        <ele>29</ele>
        <time>2022-04-21T08:40:30.000Z</time>
      </trkpt>
      <trkpt lat="47.36526" lon="-2.39803">
        <ele>29</ele>
        <time>2022-04-21T08:40:31.000Z</time>
      </trkpt>
      <trkpt lat="47.36523" lon="-2.39794">
        <ele>29</ele>
        <time>2022-04-21T08:40:32.000Z</time>
      </trkpt>
      <trkpt lat="47.36512" lon="-2.39782">
        <ele>29</ele>
        <time>2022-04-21T08:40:34.000Z</time>
      </trkpt>
      <trkpt lat="47.36483" lon="-2.3976">
        <ele>29</ele>
        <time>2022-04-21T08:40:39.000Z</time>
      </trkpt>
      <trkpt lat="47.36474" lon="-2.39739">
        <ele>29</ele>
        <time>2022-04-21T08:40:42.000Z</time>
      </trkpt>
      <trkpt lat="47.36454" lon="-2.39677">
        <ele>29</ele>
        <time>2022-04-21T08:40:50.000Z</time>
      </trkpt>
      <trkpt lat="47.36451" lon="-2.39656">
        <ele>29</ele>
        <time>2022-04-21T08:40:53.000Z</time>
      </trkpt>
      <trkpt lat="47.36452" lon="-2.3965">
        <ele>29</ele>
        <time>2022-04-21T08:40:54.000Z</time>
      </trkpt>
      <trkpt lat="47.36462" lon="-2.39642">
        <ele>29</ele>
        <time>2022-04-21T08:40:57.000Z</time>
      </trkpt>
      <trkpt lat="47.36479" lon="-2.39638">
        <ele>29</ele>
        <time>2022-04-21T08:41:03.000Z</time>
      </trkpt>
      <trkpt lat="47.36482" lon="-2.39636">
        <ele>29</ele>
        <time>2022-04-21T08:41:04.000Z</time>
      </trkpt>
      <trkpt lat="47.365" lon="-2.39626">
        <ele>29</ele>
        <time>2022-04-21T08:41:12.000Z</time>
      </trkpt>
      <trkpt lat="47.36504" lon="-2.39623">
        <ele>29</ele>
        <time>2022-04-21T08:41:14.000Z</time>
      </trkpt>
      <trkpt lat="47.3651" lon="-2.39619">
        <ele>29</ele>
        <time>2022-04-21T08:41:17.000Z</time>
      </trkpt>
      <trkpt lat="47.36524" lon="-2.39608">
        <ele>29</ele>
        <time>2022-04-21T08:41:23.000Z</time>
      </trkpt>
      <trkpt lat="47.36529" lon="-2.39606">
        <ele>29</ele>
        <time>2022-04-21T08:41:25.000Z</time>
      </trkpt>
      <trkpt lat="47.36541" lon="-2.396">
        <ele>29.39999961853</ele>
        <time>2022-04-21T08:41:29.000Z</time>
      </trkpt>
      <trkpt lat="47.36545" lon="-2.39599">
        <ele>29.799999237061</ele>
        <time>2022-04-21T08:41:30.000Z</time>
      </trkpt>
      <trkpt lat="47.36548" lon="-2.39598">
        <ele>30.200000762939</ele>
        <time>2022-04-21T08:41:31.000Z</time>
      </trkpt>
      <trkpt lat="47.36552" lon="-2.39598">
        <ele>30.60000038147</ele>
        <time>2022-04-21T08:41:32.000Z</time>
      </trkpt>
      <trkpt lat="47.36556" lon="-2.39598">
        <ele>31</ele>
        <time>2022-04-21T08:41:33.000Z</time>
      </trkpt>
      <trkpt lat="47.36573" lon="-2.39598">
        <ele>31</ele>
        <time>2022-04-21T08:41:37.000Z</time>
      </trkpt>
      <trkpt lat="47.36591" lon="-2.396">
        <ele>31</ele>
        <time>2022-04-21T08:41:41.000Z</time>
      </trkpt>
      <trkpt lat="47.36596" lon="-2.39601">
        <ele>31</ele>
        <time>2022-04-21T08:41:42.000Z</time>
      </trkpt>
      <trkpt lat="47.36629" lon="-2.3961">
        <ele>31</ele>
        <time>2022-04-21T08:41:48.000Z</time>
      </trkpt>
      <trkpt lat="47.36647" lon="-2.39617">
        <ele>31</ele>
        <time>2022-04-21T08:41:51.000Z</time>
      </trkpt>
      <trkpt lat="47.36658" lon="-2.39625">
        <ele>31</ele>
        <time>2022-04-21T08:41:53.000Z</time>
      </trkpt>
      <trkpt lat="47.36668" lon="-2.39638">
        <ele>31</ele>
        <time>2022-04-21T08:41:55.000Z</time>
      </trkpt>
      <trkpt lat="47.36674" lon="-2.39644">
        <ele>30.60000038147</ele>
        <time>2022-04-21T08:41:56.000Z</time>
      </trkpt>
      <trkpt lat="47.3668" lon="-2.3965">
        <ele>30.200000762939</ele>
        <time>2022-04-21T08:41:57.000Z</time>
      </trkpt>
      <trkpt lat="47.36687" lon="-2.39656">
        <ele>29.799999237061</ele>
        <time>2022-04-21T08:41:58.000Z</time>
      </trkpt>
      <trkpt lat="47.36693" lon="-2.3966">
        <ele>29.39999961853</ele>
        <time>2022-04-21T08:41:59.000Z</time>
      </trkpt>
      <trkpt lat="47.36699" lon="-2.39664">
        <ele>29</ele>
        <time>2022-04-21T08:42:00.000Z</time>
      </trkpt>
      <trkpt lat="47.36712" lon="-2.39671">
        <ele>29</ele>
        <time>2022-04-21T08:42:02.000Z</time>
      </trkpt>
      <trkpt lat="47.36733" lon="-2.39675">
        <ele>29</ele>
        <time>2022-04-21T08:42:05.000Z</time>
      </trkpt>
      <trkpt lat="47.36739" lon="-2.39676">
        <ele>29</ele>
        <time>2022-04-21T08:42:06.000Z</time>
      </trkpt>
      <trkpt lat="47.3675" lon="-2.39678">
        <ele>29</ele>
        <time>2022-04-21T08:42:08.000Z</time>
      </trkpt>
      <trkpt lat="47.36758" lon="-2.39679">
        <ele>29</ele>
        <time>2022-04-21T08:42:10.000Z</time>
      </trkpt>
      <trkpt lat="47.36779" lon="-2.39675">
        <ele>29</ele>
        <time>2022-04-21T08:42:14.000Z</time>
      </trkpt>
      <trkpt lat="47.36784" lon="-2.39672">
        <ele>29</ele>
        <time>2022-04-21T08:42:15.000Z</time>
      </trkpt>
      <trkpt lat="47.3679" lon="-2.39668">
        <ele>29</ele>
        <time>2022-04-21T08:42:16.000Z</time>
      </trkpt>
      <trkpt lat="47.36806" lon="-2.39658">
        <ele>29</ele>
        <time>2022-04-21T08:42:19.000Z</time>
      </trkpt>
      <trkpt lat="47.36828" lon="-2.39649">
        <ele>29</ele>
        <time>2022-04-21T08:42:23.000Z</time>
      </trkpt>
      <trkpt lat="47.36842" lon="-2.39633">
        <ele>29</ele>
        <time>2022-04-21T08:42:26.000Z</time>
      </trkpt>
      <trkpt lat="47.36846" lon="-2.39628">
        <ele>29</ele>
        <time>2022-04-21T08:42:27.000Z</time>
      </trkpt>
      <trkpt lat="47.36872" lon="-2.39601">
        <ele>29</ele>
        <time>2022-04-21T08:42:32.000Z</time>
      </trkpt>
      <trkpt lat="47.36892" lon="-2.39578">
        <ele>29</ele>
        <time>2022-04-21T08:42:36.000Z</time>
      </trkpt>
      <trkpt lat="47.36896" lon="-2.39573">
        <ele>29</ele>
        <time>2022-04-21T08:42:37.000Z</time>
      </trkpt>
      <trkpt lat="47.36905" lon="-2.39561">
        <ele>29</ele>
        <time>2022-04-21T08:42:39.000Z</time>
      </trkpt>
      <trkpt lat="47.36914" lon="-2.39546">
        <ele>29</ele>
        <time>2022-04-21T08:42:41.000Z</time>
      </trkpt>
      <trkpt lat="47.36918" lon="-2.3954">
        <ele>29</ele>
        <time>2022-04-21T08:42:42.000Z</time>
      </trkpt>
      <trkpt lat="47.36928" lon="-2.39528">
        <ele>29.39999961853</ele>
        <time>2022-04-21T08:42:44.000Z</time>
      </trkpt>
      <trkpt lat="47.36932" lon="-2.39522">
        <ele>29.799999237061</ele>
        <time>2022-04-21T08:42:45.000Z</time>
      </trkpt>
      <trkpt lat="47.36936" lon="-2.39516">
        <ele>30.200000762939</ele>
        <time>2022-04-21T08:42:46.000Z</time>
      </trkpt>
      <trkpt lat="47.36941" lon="-2.3951">
        <ele>30.60000038147</ele>
        <time>2022-04-21T08:42:47.000Z</time>
      </trkpt>
      <trkpt lat="47.36945" lon="-2.39505">
        <ele>31</ele>
        <time>2022-04-21T08:42:48.000Z</time>
      </trkpt>
      <trkpt lat="47.3695" lon="-2.395">
        <ele>31</ele>
        <time>2022-04-21T08:42:49.000Z</time>
      </trkpt>
      <trkpt lat="47.36964" lon="-2.39486">
        <ele>31</ele>
        <time>2022-04-21T08:42:52.000Z</time>
      </trkpt>
      <trkpt lat="47.36973" lon="-2.39479">
        <ele>31</ele>
        <time>2022-04-21T08:42:54.000Z</time>
      </trkpt>
      <trkpt lat="47.36997" lon="-2.39458">
        <ele>31.39999961853</ele>
        <time>2022-04-21T08:42:59.000Z</time>
      </trkpt>
      <trkpt lat="47.37002" lon="-2.39453">
        <ele>31.799999237061</ele>
        <time>2022-04-21T08:43:00.000Z</time>
      </trkpt>
      <trkpt lat="47.37006" lon="-2.39448">
        <ele>32.200000762939</ele>
        <time>2022-04-21T08:43:01.000Z</time>
      </trkpt>
      <trkpt lat="47.37011" lon="-2.39444">
        <ele>32.599998474121</ele>
        <time>2022-04-21T08:43:02.000Z</time>
      </trkpt>
      <trkpt lat="47.37015" lon="-2.3944">
        <ele>33</ele>
        <time>2022-04-21T08:43:03.000Z</time>
      </trkpt>
      <trkpt lat="47.37035" lon="-2.39417">
        <ele>33</ele>
        <time>2022-04-21T08:43:07.000Z</time>
      </trkpt>
      <trkpt lat="47.37061" lon="-2.3939">
        <ele>33</ele>
        <time>2022-04-21T08:43:12.000Z</time>
      </trkpt>
      <trkpt lat="47.37096" lon="-2.39356">
        <ele>33</ele>
        <time>2022-04-21T08:43:19.000Z</time>
      </trkpt>
      <trkpt lat="47.37132" lon="-2.39323">
        <ele>33</ele>
        <time>2022-04-21T08:43:26.000Z</time>
      </trkpt>
      <trkpt lat="47.37168" lon="-2.39288">
        <ele>33</ele>
        <time>2022-04-21T08:43:33.000Z</time>
      </trkpt>
      <trkpt lat="47.37198" lon="-2.39258">
        <ele>33</ele>
        <time>2022-04-21T08:43:39.000Z</time>
      </trkpt>
      <trkpt lat="47.37234" lon="-2.39225">
        <ele>33</ele>
        <time>2022-04-21T08:43:46.000Z</time>
      </trkpt>
      <trkpt lat="47.37265" lon="-2.39195">
        <ele>33</ele>
        <time>2022-04-21T08:43:52.000Z</time>
      </trkpt>
      <trkpt lat="47.37293" lon="-2.39169">
        <ele>33</ele>
        <time>2022-04-21T08:43:58.000Z</time>
      </trkpt>
      <trkpt lat="47.3731" lon="-2.39157">
        <ele>33</ele>
        <time>2022-04-21T08:44:03.000Z</time>
      </trkpt>
      <trkpt lat="47.37318" lon="-2.39148">
        <ele>33</ele>
        <time>2022-04-21T08:44:08.000Z</time>
      </trkpt>
      <trkpt lat="47.37322" lon="-2.39144">
        <ele>33</ele>
        <time>2022-04-21T08:44:13.000Z</time>
      </trkpt>
      <trkpt lat="47.3732" lon="-2.39144">
        <ele>33</ele>
        <time>2022-04-21T08:45:35.000Z</time>
      </trkpt>
      <trkpt lat="47.37316" lon="-2.39135">
        <ele>33</ele>
        <time>2022-04-21T08:45:38.000Z</time>
      </trkpt>
      <trkpt lat="47.37314" lon="-2.39123">
        <ele>33</ele>
        <time>2022-04-21T08:45:40.000Z</time>
      </trkpt>
      <trkpt lat="47.37313" lon="-2.39109">
        <ele>33</ele>
        <time>2022-04-21T08:45:42.000Z</time>
      </trkpt>
      <trkpt lat="47.3731" lon="-2.39048">
        <ele>33</ele>
        <time>2022-04-21T08:45:50.000Z</time>
      </trkpt>
      <trkpt lat="47.37305" lon="-2.38999">
        <ele>33</ele>
        <time>2022-04-21T08:45:56.000Z</time>
      </trkpt>
      <trkpt lat="47.37303" lon="-2.38991">
        <ele>33</ele>
        <time>2022-04-21T08:45:57.000Z</time>
      </trkpt>
      <trkpt lat="47.37292" lon="-2.38917">
        <ele>33</ele>
        <time>2022-04-21T08:46:06.000Z</time>
      </trkpt>
      <trkpt lat="47.37276" lon="-2.38861">
        <ele>33</ele>
        <time>2022-04-21T08:46:13.000Z</time>
      </trkpt>
      <trkpt lat="47.37256" lon="-2.38787">
        <ele>33</ele>
        <time>2022-04-21T08:46:22.000Z</time>
      </trkpt>
      <trkpt lat="47.37254" lon="-2.38778">
        <ele>33</ele>
        <time>2022-04-21T08:46:23.000Z</time>
      </trkpt>
      <trkpt lat="47.37233" lon="-2.3873">
        <ele>33</ele>
        <time>2022-04-21T08:46:29.000Z</time>
      </trkpt>
      <trkpt lat="47.37208" lon="-2.38667">
        <ele>33</ele>
        <time>2022-04-21T08:46:36.000Z</time>
      </trkpt>
      <trkpt lat="47.37201" lon="-2.38651">
        <ele>33</ele>
        <time>2022-04-21T08:46:38.000Z</time>
      </trkpt>
      <trkpt lat="47.3719" lon="-2.38627">
        <ele>32.599998474121</ele>
        <time>2022-04-21T08:46:41.000Z</time>
      </trkpt>
      <trkpt lat="47.37186" lon="-2.38619">
        <ele>32.200000762939</ele>
        <time>2022-04-21T08:46:42.000Z</time>
      </trkpt>
      <trkpt lat="47.37183" lon="-2.3861">
        <ele>31.799999237061</ele>
        <time>2022-04-21T08:46:43.000Z</time>
      </trkpt>
      <trkpt lat="47.3718" lon="-2.38602">
        <ele>31.39999961853</ele>
        <time>2022-04-21T08:46:44.000Z</time>
      </trkpt>
      <trkpt lat="47.37176" lon="-2.38595">
        <ele>31</ele>
        <time>2022-04-21T08:46:45.000Z</time>
      </trkpt>
      <trkpt lat="47.37164" lon="-2.38564">
        <ele>31</ele>
        <time>2022-04-21T08:46:49.000Z</time>
      </trkpt>
      <trkpt lat="47.3715" lon="-2.38532">
        <ele>31</ele>
        <time>2022-04-21T08:46:53.000Z</time>
      </trkpt>
      <trkpt lat="47.37136" lon="-2.3852">
        <ele>31</ele>
        <time>2022-04-21T08:46:55.000Z</time>
      </trkpt>
      <trkpt lat="47.37129" lon="-2.38515">
        <ele>31</ele>
        <time>2022-04-21T08:46:56.000Z</time>
      </trkpt>
      <trkpt lat="47.37102" lon="-2.38496">
        <ele>31</ele>
        <time>2022-04-21T08:47:00.000Z</time>
      </trkpt>
      <trkpt lat="47.37088" lon="-2.38488">
        <ele>30.39999961853</ele>
        <time>2022-04-21T08:47:02.000Z</time>
      </trkpt>
      <trkpt lat="47.37081" lon="-2.38483">
        <ele>30</ele>
        <time>2022-04-21T08:47:03.000Z</time>
      </trkpt>
      <trkpt lat="47.37075" lon="-2.38479">
        <ele>29.60000038147</ele>
        <time>2022-04-21T08:47:04.000Z</time>
      </trkpt>
      <trkpt lat="47.37068" lon="-2.38474">
        <ele>29.200000762939</ele>
        <time>2022-04-21T08:47:05.000Z</time>
      </trkpt>
      <trkpt lat="47.37063" lon="-2.3847">
        <ele>28.60000038147</ele>
        <time>2022-04-21T08:47:06.000Z</time>
      </trkpt>
      <trkpt lat="47.37059" lon="-2.38466">
        <ele>28.200000762939</ele>
        <time>2022-04-21T08:47:07.000Z</time>
      </trkpt>
      <trkpt lat="47.37058" lon="-2.38459">
        <ele>27.799999237061</ele>
        <time>2022-04-21T08:47:08.000Z</time>
      </trkpt>
      <trkpt lat="47.37059" lon="-2.38452">
        <ele>27.39999961853</ele>
        <time>2022-04-21T08:47:09.000Z</time>
      </trkpt>
      <trkpt lat="47.3706" lon="-2.38445">
        <ele>26.799999237061</ele>
        <time>2022-04-21T08:47:10.000Z</time>
      </trkpt>
      <trkpt lat="47.37063" lon="-2.38439">
        <ele>26.39999961853</ele>
        <time>2022-04-21T08:47:11.000Z</time>
      </trkpt>
      <trkpt lat="47.37067" lon="-2.38432">
        <ele>26.39999961853</ele>
        <time>2022-04-21T08:47:12.000Z</time>
      </trkpt>
      <trkpt lat="47.37074" lon="-2.3842">
        <ele>26.39999961853</ele>
        <time>2022-04-21T08:47:14.000Z</time>
      </trkpt>
      <trkpt lat="47.37089" lon="-2.38396">
        <ele>26.39999961853</ele>
        <time>2022-04-21T08:47:18.000Z</time>
      </trkpt>
      <trkpt lat="47.37098" lon="-2.38386">
        <ele>26.39999961853</ele>
        <time>2022-04-21T08:47:20.000Z</time>
      </trkpt>
      <trkpt lat="47.37109" lon="-2.38378">
        <ele>26.39999961853</ele>
        <time>2022-04-21T08:47:22.000Z</time>
      </trkpt>
      <trkpt lat="47.37114" lon="-2.38375">
        <ele>26.39999961853</ele>
        <time>2022-04-21T08:47:23.000Z</time>
      </trkpt>
      <trkpt lat="47.3714" lon="-2.38365">
        <ele>26.39999961853</ele>
        <time>2022-04-21T08:47:28.000Z</time>
      </trkpt>
      <trkpt lat="47.37163" lon="-2.38358">
        <ele>26.799999237061</ele>
        <time>2022-04-21T08:47:33.000Z</time>
      </trkpt>
      <trkpt lat="47.37168" lon="-2.38357">
        <ele>27.200000762939</ele>
        <time>2022-04-21T08:47:34.000Z</time>
      </trkpt>
      <trkpt lat="47.37173" lon="-2.38354">
        <ele>27.60000038147</ele>
        <time>2022-04-21T08:47:35.000Z</time>
      </trkpt>
      <trkpt lat="47.37179" lon="-2.38353">
        <ele>28</ele>
        <time>2022-04-21T08:47:36.000Z</time>
      </trkpt>
      <trkpt lat="47.37184" lon="-2.38352">
        <ele>28.60000038147</ele>
        <time>2022-04-21T08:47:37.000Z</time>
      </trkpt>
      <trkpt lat="47.37203" lon="-2.38353">
        <ele>28.60000038147</ele>
        <time>2022-04-21T08:47:40.000Z</time>
      </trkpt>
      <trkpt lat="47.37234" lon="-2.38347">
        <ele>28.60000038147</ele>
        <time>2022-04-21T08:47:45.000Z</time>
      </trkpt>
      <trkpt lat="47.3724" lon="-2.38344">
        <ele>29</ele>
        <time>2022-04-21T08:47:46.000Z</time>
      </trkpt>
      <trkpt lat="47.37246" lon="-2.3834">
        <ele>29.799999237061</ele>
        <time>2022-04-21T08:47:47.000Z</time>
      </trkpt>
      <trkpt lat="47.37252" lon="-2.38337">
        <ele>30.200000762939</ele>
        <time>2022-04-21T08:47:48.000Z</time>
      </trkpt>
      <trkpt lat="47.37258" lon="-2.38333">
        <ele>30.799999237061</ele>
        <time>2022-04-21T08:47:49.000Z</time>
      </trkpt>
      <trkpt lat="47.37274" lon="-2.38323">
        <ele>30.799999237061</ele>
        <time>2022-04-21T08:47:52.000Z</time>
      </trkpt>
      <trkpt lat="47.37318" lon="-2.38299">
        <ele>30.799999237061</ele>
        <time>2022-04-21T08:48:00.000Z</time>
      </trkpt>
      <trkpt lat="47.37332" lon="-2.38291">
        <ele>30.799999237061</ele>
        <time>2022-04-21T08:48:03.000Z</time>
      </trkpt>
      <trkpt lat="47.37341" lon="-2.38285">
        <ele>30.799999237061</ele>
        <time>2022-04-21T08:48:05.000Z</time>
      </trkpt>
      <trkpt lat="47.37345" lon="-2.38283">
        <ele>30.799999237061</ele>
        <time>2022-04-21T08:48:06.000Z</time>
      </trkpt>
      <trkpt lat="47.37358" lon="-2.38273">
        <ele>30.799999237061</ele>
        <time>2022-04-21T08:48:09.000Z</time>
      </trkpt>
      <trkpt lat="47.37391" lon="-2.38254">
        <ele>30.799999237061</ele>
        <time>2022-04-21T08:48:15.000Z</time>
      </trkpt>
      <trkpt lat="47.37431" lon="-2.38231">
        <ele>30.799999237061</ele>
        <time>2022-04-21T08:48:21.000Z</time>
      </trkpt>
      <trkpt lat="47.37462" lon="-2.38211">
        <ele>30.799999237061</ele>
        <time>2022-04-21T08:48:26.000Z</time>
      </trkpt>
      <trkpt lat="47.37507" lon="-2.38185">
        <ele>30.799999237061</ele>
        <time>2022-04-21T08:48:33.000Z</time>
      </trkpt>
      <trkpt lat="47.37557" lon="-2.38155">
        <ele>30.799999237061</ele>
        <time>2022-04-21T08:48:41.000Z</time>
      </trkpt>
      <trkpt lat="47.37597" lon="-2.3813">
        <ele>30.799999237061</ele>
        <time>2022-04-21T08:48:47.000Z</time>
      </trkpt>
      <trkpt lat="47.37645" lon="-2.381">
        <ele>30.799999237061</ele>
        <time>2022-04-21T08:48:54.000Z</time>
      </trkpt>
      <trkpt lat="47.37681" lon="-2.3807">
        <ele>30.799999237061</ele>
        <time>2022-04-21T08:49:00.000Z</time>
      </trkpt>
      <trkpt lat="47.37702" lon="-2.38049">
        <ele>30.799999237061</ele>
        <time>2022-04-21T08:49:05.000Z</time>
      </trkpt>
      <trkpt lat="47.37718" lon="-2.38032">
        <ele>30.799999237061</ele>
        <time>2022-04-21T08:49:11.000Z</time>
      </trkpt>
      <trkpt lat="47.3773" lon="-2.3802">
        <ele>30.799999237061</ele>
        <time>2022-04-21T08:49:14.000Z</time>
      </trkpt>
      <trkpt lat="47.37738" lon="-2.38015">
        <ele>31.200000762939</ele>
        <time>2022-04-21T08:49:16.000Z</time>
      </trkpt>
      <trkpt lat="47.37743" lon="-2.38012">
        <ele>31.60000038147</ele>
        <time>2022-04-21T08:49:17.000Z</time>
      </trkpt>
      <trkpt lat="47.37748" lon="-2.3801">
        <ele>32.200000762939</ele>
        <time>2022-04-21T08:49:18.000Z</time>
      </trkpt>
      <trkpt lat="47.37753" lon="-2.38007">
        <ele>32.599998474121</ele>
        <time>2022-04-21T08:49:19.000Z</time>
      </trkpt>
      <trkpt lat="47.37758" lon="-2.38004">
        <ele>33</ele>
        <time>2022-04-21T08:49:20.000Z</time>
      </trkpt>
      <trkpt lat="47.37773" lon="-2.37994">
        <ele>33</ele>
        <time>2022-04-21T08:49:23.000Z</time>
      </trkpt>
      <trkpt lat="47.37817" lon="-2.37963">
        <ele>33</ele>
        <time>2022-04-21T08:49:31.000Z</time>
      </trkpt>
      <trkpt lat="47.37862" lon="-2.37932">
        <ele>33</ele>
        <time>2022-04-21T08:49:39.000Z</time>
      </trkpt>
      <trkpt lat="47.37867" lon="-2.37928">
        <ele>33.400001525879</ele>
        <time>2022-04-21T08:49:40.000Z</time>
      </trkpt>
      <trkpt lat="47.37873" lon="-2.37924">
        <ele>33.799999237061</ele>
        <time>2022-04-21T08:49:41.000Z</time>
      </trkpt>
      <trkpt lat="47.37879" lon="-2.37919">
        <ele>34.200000762939</ele>
        <time>2022-04-21T08:49:42.000Z</time>
      </trkpt>
      <trkpt lat="47.37885" lon="-2.37915">
        <ele>34.599998474121</ele>
        <time>2022-04-21T08:49:43.000Z</time>
      </trkpt>
      <trkpt lat="47.37891" lon="-2.3791">
        <ele>35</ele>
        <time>2022-04-21T08:49:44.000Z</time>
      </trkpt>
      <trkpt lat="47.37903" lon="-2.37901">
        <ele>35</ele>
        <time>2022-04-21T08:49:46.000Z</time>
      </trkpt>
      <trkpt lat="47.37947" lon="-2.37867">
        <ele>35</ele>
        <time>2022-04-21T08:49:54.000Z</time>
      </trkpt>
      <trkpt lat="47.37981" lon="-2.37841">
        <ele>35</ele>
        <time>2022-04-21T08:50:00.000Z</time>
      </trkpt>
      <trkpt lat="47.37992" lon="-2.37834">
        <ele>35</ele>
        <time>2022-04-21T08:50:02.000Z</time>
      </trkpt>
      <trkpt lat="47.3801" lon="-2.37821">
        <ele>35</ele>
        <time>2022-04-21T08:50:05.000Z</time>
      </trkpt>
      <trkpt lat="47.38057" lon="-2.37779">
        <ele>35</ele>
        <time>2022-04-21T08:50:13.000Z</time>
      </trkpt>
      <trkpt lat="47.3807" lon="-2.37768">
        <ele>34.599998474121</ele>
        <time>2022-04-21T08:50:15.000Z</time>
      </trkpt>
      <trkpt lat="47.38077" lon="-2.37763">
        <ele>34.200000762939</ele>
        <time>2022-04-21T08:50:16.000Z</time>
      </trkpt>
      <trkpt lat="47.38084" lon="-2.37757">
        <ele>33.799999237061</ele>
        <time>2022-04-21T08:50:17.000Z</time>
      </trkpt>
      <trkpt lat="47.38091" lon="-2.37752">
        <ele>33.400001525879</ele>
        <time>2022-04-21T08:50:18.000Z</time>
      </trkpt>
      <trkpt lat="47.38098" lon="-2.37746">
        <ele>33</ele>
        <time>2022-04-21T08:50:19.000Z</time>
      </trkpt>
      <trkpt lat="47.38105" lon="-2.3774">
        <ele>33</ele>
        <time>2022-04-21T08:50:20.000Z</time>
      </trkpt>
      <trkpt lat="47.38134" lon="-2.37718">
        <ele>32.400001525879</ele>
        <time>2022-04-21T08:50:24.000Z</time>
      </trkpt>
      <trkpt lat="47.38141" lon="-2.37712">
        <ele>32</ele>
        <time>2022-04-21T08:50:25.000Z</time>
      </trkpt>
      <trkpt lat="47.38148" lon="-2.37706">
        <ele>31.60000038147</ele>
        <time>2022-04-21T08:50:26.000Z</time>
      </trkpt>
      <trkpt lat="47.38155" lon="-2.37701">
        <ele>31.200000762939</ele>
        <time>2022-04-21T08:50:27.000Z</time>
      </trkpt>
      <trkpt lat="47.38161" lon="-2.37696">
        <ele>30.799999237061</ele>
        <time>2022-04-21T08:50:28.000Z</time>
      </trkpt>
      <trkpt lat="47.38185" lon="-2.37674">
        <ele>30.799999237061</ele>
        <time>2022-04-21T08:50:32.000Z</time>
      </trkpt>
      <trkpt lat="47.38209" lon="-2.37655">
        <ele>30.39999961853</ele>
        <time>2022-04-21T08:50:36.000Z</time>
      </trkpt>
      <trkpt lat="47.38214" lon="-2.37649">
        <ele>30</ele>
        <time>2022-04-21T08:50:37.000Z</time>
      </trkpt>
      <trkpt lat="47.38219" lon="-2.37644">
        <ele>29.39999961853</ele>
        <time>2022-04-21T08:50:38.000Z</time>
      </trkpt>
      <trkpt lat="47.38225" lon="-2.3764">
        <ele>29</ele>
        <time>2022-04-21T08:50:39.000Z</time>
      </trkpt>
      <trkpt lat="47.3823" lon="-2.37636">
        <ele>28.60000038147</ele>
        <time>2022-04-21T08:50:40.000Z</time>
      </trkpt>
      <trkpt lat="47.38245" lon="-2.37628">
        <ele>28.60000038147</ele>
        <time>2022-04-21T08:50:43.000Z</time>
      </trkpt>
      <trkpt lat="47.38249" lon="-2.37627">
        <ele>28.60000038147</ele>
        <time>2022-04-21T08:50:44.000Z</time>
      </trkpt>
      <trkpt lat="47.38257" lon="-2.37623">
        <ele>28.200000762939</ele>
        <time>2022-04-21T08:50:47.000Z</time>
      </trkpt>
      <trkpt lat="47.3826" lon="-2.37623">
        <ele>27.799999237061</ele>
        <time>2022-04-21T08:50:48.000Z</time>
      </trkpt>
      <trkpt lat="47.38263" lon="-2.37621">
        <ele>27.39999961853</ele>
        <time>2022-04-21T08:50:49.000Z</time>
      </trkpt>
      <trkpt lat="47.38266" lon="-2.37619">
        <ele>26.799999237061</ele>
        <time>2022-04-21T08:50:50.000Z</time>
      </trkpt>
      <trkpt lat="47.38268" lon="-2.37616">
        <ele>26.39999961853</ele>
        <time>2022-04-21T08:50:51.000Z</time>
      </trkpt>
      <trkpt lat="47.38273" lon="-2.37615">
        <ele>26.39999961853</ele>
        <time>2022-04-21T08:50:53.000Z</time>
      </trkpt>
      <trkpt lat="47.3829" lon="-2.37612">
        <ele>26.39999961853</ele>
        <time>2022-04-21T08:50:58.000Z</time>
      </trkpt>
      <trkpt lat="47.3832" lon="-2.376">
        <ele>26.39999961853</ele>
        <time>2022-04-21T08:51:04.000Z</time>
      </trkpt>
      <trkpt lat="47.38347" lon="-2.37586">
        <ele>26.39999961853</ele>
        <time>2022-04-21T08:51:10.000Z</time>
      </trkpt>
      <trkpt lat="47.38352" lon="-2.37585">
        <ele>26</ele>
        <time>2022-04-21T08:51:11.000Z</time>
      </trkpt>
      <trkpt lat="47.38356" lon="-2.37581">
        <ele>25.60000038147</ele>
        <time>2022-04-21T08:51:12.000Z</time>
      </trkpt>
      <trkpt lat="47.38358" lon="-2.37576">
        <ele>25.200000762939</ele>
        <time>2022-04-21T08:51:13.000Z</time>
      </trkpt>
      <trkpt lat="47.38359" lon="-2.3757">
        <ele>24.799999237061</ele>
        <time>2022-04-21T08:51:14.000Z</time>
      </trkpt>
      <trkpt lat="47.3836" lon="-2.37563">
        <ele>24.39999961853</ele>
        <time>2022-04-21T08:51:15.000Z</time>
      </trkpt>
      <trkpt lat="47.38361" lon="-2.37548">
        <ele>24.39999961853</ele>
        <time>2022-04-21T08:51:17.000Z</time>
      </trkpt>
      <trkpt lat="47.38361" lon="-2.3754">
        <ele>24.39999961853</ele>
        <time>2022-04-21T08:51:18.000Z</time>
      </trkpt>
      <trkpt lat="47.38363" lon="-2.3749">
        <ele>24.39999961853</ele>
        <time>2022-04-21T08:51:24.000Z</time>
      </trkpt>
      <trkpt lat="47.38362" lon="-2.37482">
        <ele>24.39999961853</ele>
        <time>2022-04-21T08:51:25.000Z</time>
      </trkpt>
      <trkpt lat="47.38359" lon="-2.37462">
        <ele>24.39999961853</ele>
        <time>2022-04-21T08:51:28.000Z</time>
      </trkpt>
      <trkpt lat="47.38356" lon="-2.3744">
        <ele>24</ele>
        <time>2022-04-21T08:51:32.000Z</time>
      </trkpt>
      <trkpt lat="47.38356" lon="-2.37436">
        <ele>23.60000038147</ele>
        <time>2022-04-21T08:51:33.000Z</time>
      </trkpt>
      <trkpt lat="47.38355" lon="-2.37432">
        <ele>23.200000762939</ele>
        <time>2022-04-21T08:51:34.000Z</time>
      </trkpt>
      <trkpt lat="47.38355" lon="-2.3743">
        <ele>22.799999237061</ele>
        <time>2022-04-21T08:51:35.000Z</time>
      </trkpt>
      <trkpt lat="47.38354" lon="-2.37427">
        <ele>22.39999961853</ele>
        <time>2022-04-21T08:51:36.000Z</time>
      </trkpt>
      <trkpt lat="47.38352" lon="-2.37422">
        <ele>22.39999961853</ele>
        <time>2022-04-21T08:51:38.000Z</time>
      </trkpt>
      <trkpt lat="47.38349" lon="-2.37411">
        <ele>22.39999961853</ele>
        <time>2022-04-21T08:51:43.000Z</time>
      </trkpt>
      <trkpt lat="47.38348" lon="-2.37409">
        <ele>22.39999961853</ele>
        <time>2022-04-21T08:51:44.000Z</time>
      </trkpt>
      <trkpt lat="47.38347" lon="-2.37401">
        <ele>22.39999961853</ele>
        <time>2022-04-21T08:51:50.000Z</time>
      </trkpt>
      <trkpt lat="47.38345" lon="-2.37389">
        <ele>22.39999961853</ele>
        <time>2022-04-21T08:51:56.000Z</time>
      </trkpt>
      <trkpt lat="47.3834" lon="-2.3738">
        <ele>22.39999961853</ele>
        <time>2022-04-21T08:52:03.000Z</time>
      </trkpt>
      <trkpt lat="47.38339" lon="-2.37379">
        <ele>22.39999961853</ele>
        <time>2022-04-21T08:52:05.000Z</time>
      </trkpt>
      <trkpt lat="47.38339" lon="-2.37355">
        <ele>22.39999961853</ele>
        <time>2022-04-21T08:52:47.000Z</time>
      </trkpt>
      <trkpt lat="47.38339" lon="-2.37353">
        <ele>22.39999961853</ele>
        <time>2022-04-21T08:52:48.000Z</time>
      </trkpt>
      <trkpt lat="47.38339" lon="-2.37345">
        <ele>22.39999961853</ele>
        <time>2022-04-21T08:52:53.000Z</time>
      </trkpt>
      <trkpt lat="47.38336" lon="-2.37331">
        <ele>22.39999961853</ele>
        <time>2022-04-21T08:52:58.000Z</time>
      </trkpt>
      <trkpt lat="47.38335" lon="-2.37327">
        <ele>22.39999961853</ele>
        <time>2022-04-21T08:53:01.000Z</time>
      </trkpt>
      <trkpt lat="47.38334" lon="-2.37311">
        <ele>22.39999961853</ele>
        <time>2022-04-21T08:53:07.000Z</time>
      </trkpt>
      <trkpt lat="47.38329" lon="-2.37297">
        <ele>22.39999961853</ele>
        <time>2022-04-21T08:53:12.000Z</time>
      </trkpt>
      <trkpt lat="47.38324" lon="-2.37278">
        <ele>22.39999961853</ele>
        <time>2022-04-21T08:53:17.000Z</time>
      </trkpt>
      <trkpt lat="47.38322" lon="-2.37275">
        <ele>22.39999961853</ele>
        <time>2022-04-21T08:53:18.000Z</time>
      </trkpt>
      <trkpt lat="47.38315" lon="-2.37262">
        <ele>22.39999961853</ele>
        <time>2022-04-21T08:53:22.000Z</time>
      </trkpt>
      <trkpt lat="47.38301" lon="-2.37251">
        <ele>22.39999961853</ele>
        <time>2022-04-21T08:53:27.000Z</time>
      </trkpt>
      <trkpt lat="47.38293" lon="-2.37246">
        <ele>22.39999961853</ele>
        <time>2022-04-21T08:53:31.000Z</time>
      </trkpt>
      <trkpt lat="47.38291" lon="-2.37244">
        <ele>22.39999961853</ele>
        <time>2022-04-21T08:53:32.000Z</time>
      </trkpt>
      <trkpt lat="47.38287" lon="-2.37241">
        <ele>22.39999961853</ele>
        <time>2022-04-21T08:53:35.000Z</time>
      </trkpt>
      <trkpt lat="47.38282" lon="-2.37241">
        <ele>22.39999961853</ele>
        <time>2022-04-21T08:53:38.000Z</time>
      </trkpt>
      <trkpt lat="47.38279" lon="-2.3724">
        <ele>22.39999961853</ele>
        <time>2022-04-21T08:53:39.000Z</time>
      </trkpt>
      <trkpt lat="47.38272" lon="-2.37237">
        <ele>22.39999961853</ele>
        <time>2022-04-21T08:53:43.000Z</time>
      </trkpt>
      <trkpt lat="47.38268" lon="-2.37229">
        <ele>22.39999961853</ele>
        <time>2022-04-21T08:53:48.000Z</time>
      </trkpt>
      <trkpt lat="47.38267" lon="-2.37227">
        <ele>22.39999961853</ele>
        <time>2022-04-21T08:53:49.000Z</time>
      </trkpt>
      <trkpt lat="47.38259" lon="-2.37208">
        <ele>22.39999961853</ele>
        <time>2022-04-21T08:53:56.000Z</time>
      </trkpt>
      <trkpt lat="47.38256" lon="-2.37204">
        <ele>22.39999961853</ele>
        <time>2022-04-21T08:53:58.000Z</time>
      </trkpt>
      <trkpt lat="47.3825" lon="-2.37202">
        <ele>22.39999961853</ele>
        <time>2022-04-21T08:54:18.000Z</time>
      </trkpt>
      <trkpt lat="47.38247" lon="-2.37196">
        <ele>22.39999961853</ele>
        <time>2022-04-21T08:54:20.000Z</time>
      </trkpt>
      <trkpt lat="47.38235" lon="-2.37174">
        <ele>22.39999961853</ele>
        <time>2022-04-21T08:54:26.000Z</time>
      </trkpt>
      <trkpt lat="47.38214" lon="-2.37142">
        <ele>22.39999961853</ele>
        <time>2022-04-21T08:54:34.000Z</time>
      </trkpt>
      <trkpt lat="47.38198" lon="-2.3712">
        <ele>22.39999961853</ele>
        <time>2022-04-21T08:54:41.000Z</time>
      </trkpt>
      <trkpt lat="47.38194" lon="-2.37112">
        <ele>22.799999237061</ele>
        <time>2022-04-21T08:54:43.000Z</time>
      </trkpt>
      <trkpt lat="47.38192" lon="-2.37106">
        <ele>23.200000762939</ele>
        <time>2022-04-21T08:54:44.000Z</time>
      </trkpt>
      <trkpt lat="47.3819" lon="-2.371">
        <ele>23.799999237061</ele>
        <time>2022-04-21T08:54:45.000Z</time>
      </trkpt>
      <trkpt lat="47.38186" lon="-2.37094">
        <ele>24.60000038147</ele>
        <time>2022-04-21T08:54:46.000Z</time>
      </trkpt>
      <trkpt lat="47.3817" lon="-2.37062">
        <ele>25</ele>
        <time>2022-04-21T08:54:52.000Z</time>
      </trkpt>
      <trkpt lat="47.38167" lon="-2.37055">
        <ele>25.39999961853</ele>
        <time>2022-04-21T08:54:53.000Z</time>
      </trkpt>
      <trkpt lat="47.38165" lon="-2.3705">
        <ele>25.799999237061</ele>
        <time>2022-04-21T08:54:54.000Z</time>
      </trkpt>
      <trkpt lat="47.38163" lon="-2.37045">
        <ele>26.200000762939</ele>
        <time>2022-04-21T08:54:55.000Z</time>
      </trkpt>
      <trkpt lat="47.3816" lon="-2.3704">
        <ele>26.60000038147</ele>
        <time>2022-04-21T08:54:56.000Z</time>
      </trkpt>
      <trkpt lat="47.38152" lon="-2.37019">
        <ele>26.60000038147</ele>
        <time>2022-04-21T08:54:59.000Z</time>
      </trkpt>
      <trkpt lat="47.38139" lon="-2.36984">
        <ele>26.60000038147</ele>
        <time>2022-04-21T08:55:05.000Z</time>
      </trkpt>
      <trkpt lat="47.38124" lon="-2.36945">
        <ele>26.60000038147</ele>
        <time>2022-04-21T08:55:12.000Z</time>
      </trkpt>
      <trkpt lat="47.38113" lon="-2.36916">
        <ele>26.60000038147</ele>
        <time>2022-04-21T08:55:17.000Z</time>
      </trkpt>
      <trkpt lat="47.38112" lon="-2.36911">
        <ele>26.60000038147</ele>
        <time>2022-04-21T08:55:18.000Z</time>
      </trkpt>
      <trkpt lat="47.38114" lon="-2.369">
        <ele>26.60000038147</ele>
        <time>2022-04-21T08:55:21.000Z</time>
      </trkpt>
      <trkpt lat="47.38118" lon="-2.36898">
        <ele>26.60000038147</ele>
        <time>2022-04-21T08:55:22.000Z</time>
      </trkpt>
      <trkpt lat="47.3813" lon="-2.36891">
        <ele>26.60000038147</ele>
        <time>2022-04-21T08:55:25.000Z</time>
      </trkpt>
      <trkpt lat="47.3814" lon="-2.36886">
        <ele>26.60000038147</ele>
        <time>2022-04-21T08:55:27.000Z</time>
      </trkpt>
      <trkpt lat="47.38159" lon="-2.36873">
        <ele>26.60000038147</ele>
        <time>2022-04-21T08:55:31.000Z</time>
      </trkpt>
      <trkpt lat="47.38172" lon="-2.36867">
        <ele>26.60000038147</ele>
        <time>2022-04-21T08:55:34.000Z</time>
      </trkpt>
      <trkpt lat="47.38178" lon="-2.36864">
        <ele>26.200000762939</ele>
        <time>2022-04-21T08:55:36.000Z</time>
      </trkpt>
      <trkpt lat="47.38181" lon="-2.36862">
        <ele>25.799999237061</ele>
        <time>2022-04-21T08:55:37.000Z</time>
      </trkpt>
      <trkpt lat="47.38183" lon="-2.36861">
        <ele>25.39999961853</ele>
        <time>2022-04-21T08:55:38.000Z</time>
      </trkpt>
      <trkpt lat="47.38185" lon="-2.3686">
        <ele>25</ele>
        <time>2022-04-21T08:55:39.000Z</time>
      </trkpt>
      <trkpt lat="47.38188" lon="-2.36858">
        <ele>24.39999961853</ele>
        <time>2022-04-21T08:55:40.000Z</time>
      </trkpt>
      <trkpt lat="47.38204" lon="-2.36845">
        <ele>24.39999961853</ele>
        <time>2022-04-21T08:55:45.000Z</time>
      </trkpt>
      <trkpt lat="47.38222" lon="-2.36833">
        <ele>24.39999961853</ele>
        <time>2022-04-21T08:55:50.000Z</time>
      </trkpt>
      <trkpt lat="47.38226" lon="-2.36831">
        <ele>24</ele>
        <time>2022-04-21T08:55:51.000Z</time>
      </trkpt>
      <trkpt lat="47.38229" lon="-2.36829">
        <ele>23.60000038147</ele>
        <time>2022-04-21T08:55:52.000Z</time>
      </trkpt>
      <trkpt lat="47.38233" lon="-2.36828">
        <ele>23.200000762939</ele>
        <time>2022-04-21T08:55:53.000Z</time>
      </trkpt>
      <trkpt lat="47.38237" lon="-2.36826">
        <ele>22.799999237061</ele>
        <time>2022-04-21T08:55:54.000Z</time>
      </trkpt>
      <trkpt lat="47.3824" lon="-2.36824">
        <ele>22.39999961853</ele>
        <time>2022-04-21T08:55:55.000Z</time>
      </trkpt>
      <trkpt lat="47.38264" lon="-2.36812">
        <ele>22.39999961853</ele>
        <time>2022-04-21T08:56:01.000Z</time>
      </trkpt>
      <trkpt lat="47.38293" lon="-2.36803">
        <ele>22.39999961853</ele>
        <time>2022-04-21T08:56:07.000Z</time>
      </trkpt>
      <trkpt lat="47.38314" lon="-2.36799">
        <ele>22.39999961853</ele>
        <time>2022-04-21T08:56:12.000Z</time>
      </trkpt>
      <trkpt lat="47.38338" lon="-2.36792">
        <ele>22.39999961853</ele>
        <time>2022-04-21T08:56:17.000Z</time>
      </trkpt>
      <trkpt lat="47.38343" lon="-2.3679">
        <ele>22.39999961853</ele>
        <time>2022-04-21T08:56:18.000Z</time>
      </trkpt>
      <trkpt lat="47.38355" lon="-2.36778">
        <ele>22.39999961853</ele>
        <time>2022-04-21T08:56:21.000Z</time>
      </trkpt>
      <trkpt lat="47.3836" lon="-2.36768">
        <ele>22.39999961853</ele>
        <time>2022-04-21T08:56:23.000Z</time>
      </trkpt>
      <trkpt lat="47.38362" lon="-2.36762">
        <ele>22.39999961853</ele>
        <time>2022-04-21T08:56:25.000Z</time>
      </trkpt>
      <trkpt lat="47.38366" lon="-2.36747">
        <ele>22.39999961853</ele>
        <time>2022-04-21T08:56:30.000Z</time>
      </trkpt>
      <trkpt lat="47.3837" lon="-2.36738">
        <ele>22.39999961853</ele>
        <time>2022-04-21T08:56:34.000Z</time>
      </trkpt>
      <trkpt lat="47.38371" lon="-2.36735">
        <ele>22.39999961853</ele>
        <time>2022-04-21T08:56:35.000Z</time>
      </trkpt>
      <trkpt lat="47.38376" lon="-2.36716">
        <ele>22.39999961853</ele>
        <time>2022-04-21T08:56:40.000Z</time>
      </trkpt>
      <trkpt lat="47.38384" lon="-2.36696">
        <ele>22.39999961853</ele>
        <time>2022-04-21T08:56:45.000Z</time>
      </trkpt>
      <trkpt lat="47.38388" lon="-2.3668">
        <ele>22.39999961853</ele>
        <time>2022-04-21T08:56:49.000Z</time>
      </trkpt>
      <trkpt lat="47.38388" lon="-2.36676">
        <ele>22.39999961853</ele>
        <time>2022-04-21T08:56:50.000Z</time>
      </trkpt>
      <trkpt lat="47.38395" lon="-2.36659">
        <ele>22.39999961853</ele>
        <time>2022-04-21T08:56:54.000Z</time>
      </trkpt>
      <trkpt lat="47.38402" lon="-2.36647">
        <ele>22.39999961853</ele>
        <time>2022-04-21T08:56:57.000Z</time>
      </trkpt>
      <trkpt lat="47.38404" lon="-2.36644">
        <ele>22.39999961853</ele>
        <time>2022-04-21T08:56:58.000Z</time>
      </trkpt>
      <trkpt lat="47.38414" lon="-2.36625">
        <ele>22.39999961853</ele>
        <time>2022-04-21T08:57:04.000Z</time>
      </trkpt>
      <trkpt lat="47.38424" lon="-2.36609">
        <ele>22.39999961853</ele>
        <time>2022-04-21T08:57:10.000Z</time>
      </trkpt>
      <trkpt lat="47.3844" lon="-2.36593">
        <ele>22.39999961853</ele>
        <time>2022-04-21T08:57:17.000Z</time>
      </trkpt>
      <trkpt lat="47.38465" lon="-2.3658">
        <ele>22.39999961853</ele>
        <time>2022-04-21T08:57:24.000Z</time>
      </trkpt>
      <trkpt lat="47.38493" lon="-2.36561">
        <ele>22.39999961853</ele>
        <time>2022-04-21T08:57:31.000Z</time>
      </trkpt>
      <trkpt lat="47.38522" lon="-2.3653">
        <ele>22.39999961853</ele>
        <time>2022-04-21T08:57:39.000Z</time>
      </trkpt>
      <trkpt lat="47.38542" lon="-2.36503">
        <ele>22.39999961853</ele>
        <time>2022-04-21T08:57:45.000Z</time>
      </trkpt>
      <trkpt lat="47.38557" lon="-2.36476">
        <ele>22.39999961853</ele>
        <time>2022-04-21T08:57:50.000Z</time>
      </trkpt>
      <trkpt lat="47.38566" lon="-2.36457">
        <ele>22.39999961853</ele>
        <time>2022-04-21T08:57:53.000Z</time>
      </trkpt>
      <trkpt lat="47.38572" lon="-2.36445">
        <ele>22.39999961853</ele>
        <time>2022-04-21T08:57:55.000Z</time>
      </trkpt>
      <trkpt lat="47.38591" lon="-2.36401">
        <ele>22.39999961853</ele>
        <time>2022-04-21T08:58:02.000Z</time>
      </trkpt>
      <trkpt lat="47.38603" lon="-2.36373">
        <ele>22.39999961853</ele>
        <time>2022-04-21T08:58:06.000Z</time>
      </trkpt>
      <trkpt lat="47.38608" lon="-2.36359">
        <ele>22.39999961853</ele>
        <time>2022-04-21T08:58:08.000Z</time>
      </trkpt>
      <trkpt lat="47.38612" lon="-2.36345">
        <ele>22.39999961853</ele>
        <time>2022-04-21T08:58:10.000Z</time>
      </trkpt>
      <trkpt lat="47.38618" lon="-2.36317">
        <ele>22.39999961853</ele>
        <time>2022-04-21T08:58:13.000Z</time>
      </trkpt>
      <trkpt lat="47.3862" lon="-2.36308">
        <ele>22.39999961853</ele>
        <time>2022-04-21T08:58:14.000Z</time>
      </trkpt>
      <trkpt lat="47.38621" lon="-2.36283">
        <ele>22.39999961853</ele>
        <time>2022-04-21T08:58:17.000Z</time>
      </trkpt>
      <trkpt lat="47.38609" lon="-2.36268">
        <ele>22.39999961853</ele>
        <time>2022-04-21T08:58:20.000Z</time>
      </trkpt>
      <trkpt lat="47.38578" lon="-2.36262">
        <ele>22.39999961853</ele>
        <time>2022-04-21T08:58:25.000Z</time>
      </trkpt>
      <trkpt lat="47.38571" lon="-2.36263">
        <ele>22.39999961853</ele>
        <time>2022-04-21T08:58:26.000Z</time>
      </trkpt>
      <trkpt lat="47.38548" lon="-2.3627">
        <ele>22.39999961853</ele>
        <time>2022-04-21T08:58:30.000Z</time>
      </trkpt>
      <trkpt lat="47.38532" lon="-2.36272">
        <ele>22.39999961853</ele>
        <time>2022-04-21T08:58:33.000Z</time>
      </trkpt>
      <trkpt lat="47.3852" lon="-2.36269">
        <ele>22.39999961853</ele>
        <time>2022-04-21T08:58:35.000Z</time>
      </trkpt>
      <trkpt lat="47.38491" lon="-2.36262">
        <ele>22.39999961853</ele>
        <time>2022-04-21T08:58:40.000Z</time>
      </trkpt>
      <trkpt lat="47.3848" lon="-2.36265">
        <ele>22.39999961853</ele>
        <time>2022-04-21T08:58:42.000Z</time>
      </trkpt>
      <trkpt lat="47.38468" lon="-2.36276">
        <ele>22.39999961853</ele>
        <time>2022-04-21T08:58:45.000Z</time>
      </trkpt>
      <trkpt lat="47.38455" lon="-2.36274">
        <ele>22.39999961853</ele>
        <time>2022-04-21T08:58:48.000Z</time>
      </trkpt>
      <trkpt lat="47.38441" lon="-2.36267">
        <ele>22.39999961853</ele>
        <time>2022-04-21T08:58:52.000Z</time>
      </trkpt>
      <trkpt lat="47.38439" lon="-2.36265">
        <ele>22.39999961853</ele>
        <time>2022-04-21T08:58:53.000Z</time>
      </trkpt>
      <trkpt lat="47.38432" lon="-2.36247">
        <ele>22.39999961853</ele>
        <time>2022-04-21T08:58:57.000Z</time>
      </trkpt>
      <trkpt lat="47.38428" lon="-2.36226">
        <ele>22.39999961853</ele>
        <time>2022-04-21T08:59:02.000Z</time>
      </trkpt>
      <trkpt lat="47.38418" lon="-2.36222">
        <ele>22.39999961853</ele>
        <time>2022-04-21T08:59:05.000Z</time>
      </trkpt>
      <trkpt lat="47.38411" lon="-2.36218">
        <ele>22.39999961853</ele>
        <time>2022-04-21T08:59:07.000Z</time>
      </trkpt>
      <trkpt lat="47.38398" lon="-2.36204">
        <ele>22.39999961853</ele>
        <time>2022-04-21T08:59:11.000Z</time>
      </trkpt>
      <trkpt lat="47.38391" lon="-2.36198">
        <ele>22.39999961853</ele>
        <time>2022-04-21T08:59:13.000Z</time>
      </trkpt>
      <trkpt lat="47.38377" lon="-2.36191">
        <ele>22.39999961853</ele>
        <time>2022-04-21T08:59:16.000Z</time>
      </trkpt>
      <trkpt lat="47.38373" lon="-2.36187">
        <ele>22.39999961853</ele>
        <time>2022-04-21T08:59:17.000Z</time>
      </trkpt>
      <trkpt lat="47.38366" lon="-2.36175">
        <ele>22.39999961853</ele>
        <time>2022-04-21T08:59:19.000Z</time>
      </trkpt>
      <trkpt lat="47.38362" lon="-2.36163">
        <ele>22.39999961853</ele>
        <time>2022-04-21T08:59:21.000Z</time>
      </trkpt>
      <trkpt lat="47.38361" lon="-2.36156">
        <ele>22.39999961853</ele>
        <time>2022-04-21T08:59:22.000Z</time>
      </trkpt>
      <trkpt lat="47.38357" lon="-2.36143">
        <ele>22.39999961853</ele>
        <time>2022-04-21T08:59:24.000Z</time>
      </trkpt>
      <trkpt lat="47.38353" lon="-2.36132">
        <ele>22.39999961853</ele>
        <time>2022-04-21T08:59:26.000Z</time>
      </trkpt>
      <trkpt lat="47.38345" lon="-2.36117">
        <ele>22.39999961853</ele>
        <time>2022-04-21T08:59:29.000Z</time>
      </trkpt>
      <trkpt lat="47.3834" lon="-2.36105">
        <ele>22.39999961853</ele>
        <time>2022-04-21T08:59:31.000Z</time>
      </trkpt>
      <trkpt lat="47.38331" lon="-2.36085">
        <ele>22.39999961853</ele>
        <time>2022-04-21T08:59:34.000Z</time>
      </trkpt>
      <trkpt lat="47.38318" lon="-2.36051">
        <ele>22.39999961853</ele>
        <time>2022-04-21T08:59:39.000Z</time>
      </trkpt>
      <trkpt lat="47.38316" lon="-2.36044">
        <ele>22.39999961853</ele>
        <time>2022-04-21T08:59:40.000Z</time>
      </trkpt>
      <trkpt lat="47.38312" lon="-2.36009">
        <ele>22.39999961853</ele>
        <time>2022-04-21T08:59:45.000Z</time>
      </trkpt>
      <trkpt lat="47.38309" lon="-2.35996">
        <ele>22.39999961853</ele>
        <time>2022-04-21T08:59:47.000Z</time>
      </trkpt>
      <trkpt lat="47.38304" lon="-2.35974">
        <ele>22.39999961853</ele>
        <time>2022-04-21T08:59:50.000Z</time>
      </trkpt>
      <trkpt lat="47.38295" lon="-2.35938">
        <ele>22.39999961853</ele>
        <time>2022-04-21T08:59:55.000Z</time>
      </trkpt>
      <trkpt lat="47.38292" lon="-2.35932">
        <ele>22.39999961853</ele>
        <time>2022-04-21T08:59:56.000Z</time>
      </trkpt>
      <trkpt lat="47.38281" lon="-2.35929">
        <ele>22.39999961853</ele>
        <time>2022-04-21T08:59:59.000Z</time>
      </trkpt>
      <trkpt lat="47.38265" lon="-2.35938">
        <ele>22.39999961853</ele>
        <time>2022-04-21T09:00:03.000Z</time>
      </trkpt>
      <trkpt lat="47.38257" lon="-2.35943">
        <ele>22.39999961853</ele>
        <time>2022-04-21T09:00:05.000Z</time>
      </trkpt>
      <trkpt lat="47.3824" lon="-2.35954">
        <ele>22.39999961853</ele>
        <time>2022-04-21T09:00:09.000Z</time>
      </trkpt>
      <trkpt lat="47.38228" lon="-2.35963">
        <ele>22.39999961853</ele>
        <time>2022-04-21T09:00:12.000Z</time>
      </trkpt>
      <trkpt lat="47.38198" lon="-2.35984">
        <ele>22.39999961853</ele>
        <time>2022-04-21T09:00:19.000Z</time>
      </trkpt>
      <trkpt lat="47.38193" lon="-2.35987">
        <ele>22.799999237061</ele>
        <time>2022-04-21T09:00:20.000Z</time>
      </trkpt>
      <trkpt lat="47.38189" lon="-2.3599">
        <ele>23.200000762939</ele>
        <time>2022-04-21T09:00:21.000Z</time>
      </trkpt>
      <trkpt lat="47.38184" lon="-2.35993">
        <ele>23.60000038147</ele>
        <time>2022-04-21T09:00:22.000Z</time>
      </trkpt>
      <trkpt lat="47.38179" lon="-2.35996">
        <ele>24</ele>
        <time>2022-04-21T09:00:23.000Z</time>
      </trkpt>
      <trkpt lat="47.38174" lon="-2.36">
        <ele>24.39999961853</ele>
        <time>2022-04-21T09:00:24.000Z</time>
      </trkpt>
      <trkpt lat="47.3816" lon="-2.36011">
        <ele>24.39999961853</ele>
        <time>2022-04-21T09:00:27.000Z</time>
      </trkpt>
      <trkpt lat="47.38129" lon="-2.36033">
        <ele>24.39999961853</ele>
        <time>2022-04-21T09:00:33.000Z</time>
      </trkpt>
      <trkpt lat="47.38108" lon="-2.36044">
        <ele>24.39999961853</ele>
        <time>2022-04-21T09:00:37.000Z</time>
      </trkpt>
      <trkpt lat="47.38097" lon="-2.36047">
        <ele>24.39999961853</ele>
        <time>2022-04-21T09:00:39.000Z</time>
      </trkpt>
      <trkpt lat="47.38053" lon="-2.3606">
        <ele>24.39999961853</ele>
        <time>2022-04-21T09:00:47.000Z</time>
      </trkpt>
      <trkpt lat="47.38003" lon="-2.36076">
        <ele>24.39999961853</ele>
        <time>2022-04-21T09:00:56.000Z</time>
      </trkpt>
      <trkpt lat="47.3796" lon="-2.36097">
        <ele>24.39999961853</ele>
        <time>2022-04-21T09:01:04.000Z</time>
      </trkpt>
      <trkpt lat="47.37935" lon="-2.3611">
        <ele>24.799999237061</ele>
        <time>2022-04-21T09:01:09.000Z</time>
      </trkpt>
      <trkpt lat="47.3793" lon="-2.36113">
        <ele>25.39999961853</ele>
        <time>2022-04-21T09:01:10.000Z</time>
      </trkpt>
      <trkpt lat="47.37924" lon="-2.36116">
        <ele>25.799999237061</ele>
        <time>2022-04-21T09:01:11.000Z</time>
      </trkpt>
      <trkpt lat="47.37919" lon="-2.36119">
        <ele>26.200000762939</ele>
        <time>2022-04-21T09:01:12.000Z</time>
      </trkpt>
      <trkpt lat="47.37914" lon="-2.36122">
        <ele>26.60000038147</ele>
        <time>2022-04-21T09:01:13.000Z</time>
      </trkpt>
      <trkpt lat="47.37898" lon="-2.36126">
        <ele>26.60000038147</ele>
        <time>2022-04-21T09:01:16.000Z</time>
      </trkpt>
      <trkpt lat="47.37893" lon="-2.36126">
        <ele>26.60000038147</ele>
        <time>2022-04-21T09:01:17.000Z</time>
      </trkpt>
      <trkpt lat="47.37876" lon="-2.36119">
        <ele>26.60000038147</ele>
        <time>2022-04-21T09:01:20.000Z</time>
      </trkpt>
      <trkpt lat="47.37865" lon="-2.36113">
        <ele>26.60000038147</ele>
        <time>2022-04-21T09:01:22.000Z</time>
      </trkpt>
      <trkpt lat="47.3785" lon="-2.36106">
        <ele>27</ele>
        <time>2022-04-21T09:01:25.000Z</time>
      </trkpt>
      <trkpt lat="47.37844" lon="-2.36103">
        <ele>27.39999961853</ele>
        <time>2022-04-21T09:01:26.000Z</time>
      </trkpt>
      <trkpt lat="47.37839" lon="-2.36101">
        <ele>27.799999237061</ele>
        <time>2022-04-21T09:01:27.000Z</time>
      </trkpt>
      <trkpt lat="47.37834" lon="-2.36098">
        <ele>28.200000762939</ele>
        <time>2022-04-21T09:01:28.000Z</time>
      </trkpt>
      <trkpt lat="47.37829" lon="-2.36096">
        <ele>28.60000038147</ele>
        <time>2022-04-21T09:01:29.000Z</time>
      </trkpt>
      <trkpt lat="47.37786" lon="-2.36075">
        <ele>28.60000038147</ele>
        <time>2022-04-21T09:01:37.000Z</time>
      </trkpt>
      <trkpt lat="47.37758" lon="-2.36058">
        <ele>28.60000038147</ele>
        <time>2022-04-21T09:01:42.000Z</time>
      </trkpt>
      <trkpt lat="47.37719" lon="-2.36033">
        <ele>28.60000038147</ele>
        <time>2022-04-21T09:01:49.000Z</time>
      </trkpt>
      <trkpt lat="47.37692" lon="-2.36018">
        <ele>28.60000038147</ele>
        <time>2022-04-21T09:01:54.000Z</time>
      </trkpt>
      <trkpt lat="47.37681" lon="-2.36015">
        <ele>28.60000038147</ele>
        <time>2022-04-21T09:01:56.000Z</time>
      </trkpt>
      <trkpt lat="47.3767" lon="-2.36012">
        <ele>28.200000762939</ele>
        <time>2022-04-21T09:01:58.000Z</time>
      </trkpt>
      <trkpt lat="47.37665" lon="-2.36011">
        <ele>27.799999237061</ele>
        <time>2022-04-21T09:01:59.000Z</time>
      </trkpt>
      <trkpt lat="47.3766" lon="-2.36009">
        <ele>27.39999961853</ele>
        <time>2022-04-21T09:02:00.000Z</time>
      </trkpt>
      <trkpt lat="47.37656" lon="-2.36008">
        <ele>27</ele>
        <time>2022-04-21T09:02:01.000Z</time>
      </trkpt>
      <trkpt lat="47.37652" lon="-2.36007">
        <ele>26.60000038147</ele>
        <time>2022-04-21T09:02:02.000Z</time>
      </trkpt>
      <trkpt lat="47.37644" lon="-2.36007">
        <ele>26.60000038147</ele>
        <time>2022-04-21T09:02:05.000Z</time>
      </trkpt>
      <trkpt lat="47.37642" lon="-2.36009">
        <ele>26.60000038147</ele>
        <time>2022-04-21T09:02:06.000Z</time>
      </trkpt>
      <trkpt lat="47.3764" lon="-2.3602">
        <ele>26.60000038147</ele>
        <time>2022-04-21T09:02:09.000Z</time>
      </trkpt>
      <trkpt lat="47.37639" lon="-2.36031">
        <ele>26.60000038147</ele>
        <time>2022-04-21T09:02:12.000Z</time>
      </trkpt>
      <trkpt lat="47.37637" lon="-2.36049">
        <ele>26.60000038147</ele>
        <time>2022-04-21T09:02:17.000Z</time>
      </trkpt>
      <trkpt lat="47.37636" lon="-2.3605">
        <ele>26.60000038147</ele>
        <time>2022-04-21T09:02:18.000Z</time>
      </trkpt>
      <trkpt lat="47.37635" lon="-2.36049">
        <ele>26.60000038147</ele>
        <time>2022-04-21T09:02:20.000Z</time>
      </trkpt>
      <trkpt lat="47.37634" lon="-2.36049">
        <ele>26.60000038147</ele>
        <time>2022-04-21T09:03:19.000Z</time>
      </trkpt>
      <trkpt lat="47.37632" lon="-2.36049">
        <ele>26.60000038147</ele>
        <time>2022-04-21T09:03:20.000Z</time>
      </trkpt>
      <trkpt lat="47.37619" lon="-2.36051">
        <ele>26.60000038147</ele>
        <time>2022-04-21T09:03:26.000Z</time>
      </trkpt>
      <trkpt lat="47.37602" lon="-2.36051">
        <ele>26.60000038147</ele>
        <time>2022-04-21T09:03:31.000Z</time>
      </trkpt>
      <trkpt lat="47.37589" lon="-2.36053">
        <ele>26.60000038147</ele>
        <time>2022-04-21T09:03:34.000Z</time>
      </trkpt>
      <trkpt lat="47.37579" lon="-2.36056">
        <ele>26.60000038147</ele>
        <time>2022-04-21T09:03:36.000Z</time>
      </trkpt>
      <trkpt lat="47.37546" lon="-2.36069">
        <ele>26.60000038147</ele>
        <time>2022-04-21T09:03:42.000Z</time>
      </trkpt>
      <trkpt lat="47.37508" lon="-2.36084">
        <ele>26.60000038147</ele>
        <time>2022-04-21T09:03:49.000Z</time>
      </trkpt>
      <trkpt lat="47.37463" lon="-2.3611">
        <ele>26.60000038147</ele>
        <time>2022-04-21T09:03:57.000Z</time>
      </trkpt>
      <trkpt lat="47.37443" lon="-2.36124">
        <ele>26.200000762939</ele>
        <time>2022-04-21T09:04:00.000Z</time>
      </trkpt>
      <trkpt lat="47.37436" lon="-2.36129">
        <ele>25.60000038147</ele>
        <time>2022-04-21T09:04:01.000Z</time>
      </trkpt>
      <trkpt lat="47.37429" lon="-2.36134">
        <ele>25.200000762939</ele>
        <time>2022-04-21T09:04:02.000Z</time>
      </trkpt>
      <trkpt lat="47.37423" lon="-2.36139">
        <ele>24.799999237061</ele>
        <time>2022-04-21T09:04:03.000Z</time>
      </trkpt>
      <trkpt lat="47.37418" lon="-2.36142">
        <ele>24.200000762939</ele>
        <time>2022-04-21T09:04:04.000Z</time>
      </trkpt>
      <trkpt lat="47.37413" lon="-2.36142">
        <ele>23.799999237061</ele>
        <time>2022-04-21T09:04:05.000Z</time>
      </trkpt>
      <trkpt lat="47.37409" lon="-2.36138">
        <ele>23.200000762939</ele>
        <time>2022-04-21T09:04:06.000Z</time>
      </trkpt>
      <trkpt lat="47.37406" lon="-2.36133">
        <ele>22.60000038147</ele>
        <time>2022-04-21T09:04:07.000Z</time>
      </trkpt>
      <trkpt lat="47.37402" lon="-2.36128">
        <ele>22.200000762939</ele>
        <time>2022-04-21T09:04:08.000Z</time>
      </trkpt>
      <trkpt lat="47.3739" lon="-2.36112">
        <ele>22.200000762939</ele>
        <time>2022-04-21T09:04:11.000Z</time>
      </trkpt>
      <trkpt lat="47.37385" lon="-2.36109">
        <ele>22.200000762939</ele>
        <time>2022-04-21T09:04:12.000Z</time>
      </trkpt>
      <trkpt lat="47.3738" lon="-2.36109">
        <ele>22.200000762939</ele>
        <time>2022-04-21T09:04:13.000Z</time>
      </trkpt>
      <trkpt lat="47.37356" lon="-2.36127">
        <ele>22.200000762939</ele>
        <time>2022-04-21T09:04:18.000Z</time>
      </trkpt>
      <trkpt lat="47.37349" lon="-2.3613">
        <ele>22.200000762939</ele>
        <time>2022-04-21T09:04:20.000Z</time>
      </trkpt>
      <trkpt lat="47.37345" lon="-2.36128">
        <ele>22.200000762939</ele>
        <time>2022-04-21T09:04:21.000Z</time>
      </trkpt>
      <trkpt lat="47.37322" lon="-2.36118">
        <ele>22.200000762939</ele>
        <time>2022-04-21T09:04:26.000Z</time>
      </trkpt>
      <trkpt lat="47.37313" lon="-2.3612">
        <ele>22.200000762939</ele>
        <time>2022-04-21T09:04:28.000Z</time>
      </trkpt>
      <trkpt lat="47.37303" lon="-2.36121">
        <ele>22.200000762939</ele>
        <time>2022-04-21T09:04:30.000Z</time>
      </trkpt>
      <trkpt lat="47.37299" lon="-2.36122">
        <ele>22.200000762939</ele>
        <time>2022-04-21T09:04:31.000Z</time>
      </trkpt>
      <trkpt lat="47.37291" lon="-2.3613">
        <ele>22.200000762939</ele>
        <time>2022-04-21T09:04:34.000Z</time>
      </trkpt>
      <trkpt lat="47.37289" lon="-2.36133">
        <ele>21.799999237061</ele>
        <time>2022-04-21T09:04:35.000Z</time>
      </trkpt>
      <trkpt lat="47.37287" lon="-2.36135">
        <ele>21.39999961853</ele>
        <time>2022-04-21T09:04:36.000Z</time>
      </trkpt>
      <trkpt lat="47.37285" lon="-2.36135">
        <ele>21</ele>
        <time>2022-04-21T09:04:37.000Z</time>
      </trkpt>
      <trkpt lat="47.37283" lon="-2.36135">
        <ele>20.60000038147</ele>
        <time>2022-04-21T09:04:38.000Z</time>
      </trkpt>
      <trkpt lat="47.37282" lon="-2.36134">
        <ele>20.200000762939</ele>
        <time>2022-04-21T09:04:39.000Z</time>
      </trkpt>
      <trkpt lat="47.37279" lon="-2.36131">
        <ele>20.200000762939</ele>
        <time>2022-04-21T09:04:42.000Z</time>
      </trkpt>
      <trkpt lat="47.37277" lon="-2.36129">
        <ele>20.200000762939</ele>
        <time>2022-04-21T09:04:45.000Z</time>
      </trkpt>
      <trkpt lat="47.37274" lon="-2.36126">
        <ele>20.200000762939</ele>
        <time>2022-04-21T09:04:48.000Z</time>
      </trkpt>
      <trkpt lat="47.37273" lon="-2.36126">
        <ele>20.200000762939</ele>
        <time>2022-04-21T09:04:50.000Z</time>
      </trkpt>
      <trkpt lat="47.37256" lon="-2.36112">
        <ele>20.200000762939</ele>
        <time>2022-04-21T09:05:55.000Z</time>
      </trkpt>
      <trkpt lat="47.37255" lon="-2.36111">
        <ele>20.200000762939</ele>
        <time>2022-04-21T09:05:56.000Z</time>
      </trkpt>
      <trkpt lat="47.37251" lon="-2.36108">
        <ele>20.200000762939</ele>
        <time>2022-04-21T09:06:00.000Z</time>
      </trkpt>
      <trkpt lat="47.37249" lon="-2.36108">
        <ele>20.200000762939</ele>
        <time>2022-04-21T09:06:02.000Z</time>
      </trkpt>
      <trkpt lat="47.37246" lon="-2.36104">
        <ele>20.200000762939</ele>
        <time>2022-04-21T09:06:06.000Z</time>
      </trkpt>
      <trkpt lat="47.37245" lon="-2.36104">
        <ele>20.200000762939</ele>
        <time>2022-04-21T09:06:07.000Z</time>
      </trkpt>
      <trkpt lat="47.37226" lon="-2.36093">
        <ele>20.200000762939</ele>
        <time>2022-04-21T09:08:10.000Z</time>
      </trkpt>
      <trkpt lat="47.37224" lon="-2.36094">
        <ele>20.200000762939</ele>
        <time>2022-04-21T09:08:12.000Z</time>
      </trkpt>
      <trkpt lat="47.37214" lon="-2.3609">
        <ele>22.200000762939</ele>
        <time>2022-04-21T09:23:42.000Z</time>
      </trkpt>
      <trkpt lat="47.37212" lon="-2.3609">
        <ele>22.200000762939</ele>
        <time>2022-04-21T09:23:43.000Z</time>
      </trkpt>
      <trkpt lat="47.37208" lon="-2.3609">
        <ele>22.200000762939</ele>
        <time>2022-04-21T09:23:46.000Z</time>
      </trkpt>
      <trkpt lat="47.37205" lon="-2.3609">
        <ele>22.200000762939</ele>
        <time>2022-04-21T09:23:48.000Z</time>
      </trkpt>
      <trkpt lat="47.37204" lon="-2.36091">
        <ele>22.200000762939</ele>
        <time>2022-04-21T09:23:49.000Z</time>
      </trkpt>
      <trkpt lat="47.37202" lon="-2.36098">
        <ele>22.200000762939</ele>
        <time>2022-04-21T09:23:52.000Z</time>
      </trkpt>
      <trkpt lat="47.37191" lon="-2.36119">
        <ele>22.200000762939</ele>
        <time>2022-04-21T09:23:59.000Z</time>
      </trkpt>
      <trkpt lat="47.37181" lon="-2.36141">
        <ele>22.200000762939</ele>
        <time>2022-04-21T09:24:05.000Z</time>
      </trkpt>
      <trkpt lat="47.37172" lon="-2.36163">
        <ele>22.200000762939</ele>
        <time>2022-04-21T09:24:10.000Z</time>
      </trkpt>
      <trkpt lat="47.37164" lon="-2.36179">
        <ele>22.60000038147</ele>
        <time>2022-04-21T09:24:14.000Z</time>
      </trkpt>
      <trkpt lat="47.37162" lon="-2.36182">
        <ele>23</ele>
        <time>2022-04-21T09:24:15.000Z</time>
      </trkpt>
      <trkpt lat="47.3716" lon="-2.36185">
        <ele>23.39999961853</ele>
        <time>2022-04-21T09:24:16.000Z</time>
      </trkpt>
      <trkpt lat="47.37159" lon="-2.36187">
        <ele>23.799999237061</ele>
        <time>2022-04-21T09:24:17.000Z</time>
      </trkpt>
      <trkpt lat="47.37157" lon="-2.3619">
        <ele>24.200000762939</ele>
        <time>2022-04-21T09:24:18.000Z</time>
      </trkpt>
      <trkpt lat="47.37153" lon="-2.36202">
        <ele>24.200000762939</ele>
        <time>2022-04-21T09:24:21.000Z</time>
      </trkpt>
      <trkpt lat="47.37141" lon="-2.3623">
        <ele>24.200000762939</ele>
        <time>2022-04-21T09:24:27.000Z</time>
      </trkpt>
      <trkpt lat="47.37123" lon="-2.36265">
        <ele>24.200000762939</ele>
        <time>2022-04-21T09:24:34.000Z</time>
      </trkpt>
      <trkpt lat="47.37112" lon="-2.36287">
        <ele>24.60000038147</ele>
        <time>2022-04-21T09:24:39.000Z</time>
      </trkpt>
      <trkpt lat="47.3711" lon="-2.36292">
        <ele>25</ele>
        <time>2022-04-21T09:24:40.000Z</time>
      </trkpt>
      <trkpt lat="47.37107" lon="-2.36297">
        <ele>25.39999961853</ele>
        <time>2022-04-21T09:24:41.000Z</time>
      </trkpt>
      <trkpt lat="47.37105" lon="-2.36301">
        <ele>25.799999237061</ele>
        <time>2022-04-21T09:24:42.000Z</time>
      </trkpt>
      <trkpt lat="47.37103" lon="-2.36306">
        <ele>26.200000762939</ele>
        <time>2022-04-21T09:24:43.000Z</time>
      </trkpt>
      <trkpt lat="47.37097" lon="-2.3632">
        <ele>26.200000762939</ele>
        <time>2022-04-21T09:24:46.000Z</time>
      </trkpt>
      <trkpt lat="47.37082" lon="-2.3635">
        <ele>26.200000762939</ele>
        <time>2022-04-21T09:24:53.000Z</time>
      </trkpt>
      <trkpt lat="47.37065" lon="-2.36367">
        <ele>26.200000762939</ele>
        <time>2022-04-21T09:24:59.000Z</time>
      </trkpt>
      <trkpt lat="47.37048" lon="-2.36369">
        <ele>26.200000762939</ele>
        <time>2022-04-21T09:25:03.000Z</time>
      </trkpt>
      <trkpt lat="47.37043" lon="-2.36369">
        <ele>26.200000762939</ele>
        <time>2022-04-21T09:25:04.000Z</time>
      </trkpt>
      <trkpt lat="47.37015" lon="-2.3637">
        <ele>26.200000762939</ele>
        <time>2022-04-21T09:25:11.000Z</time>
      </trkpt>
      <trkpt lat="47.36995" lon="-2.36368">
        <ele>26.200000762939</ele>
        <time>2022-04-21T09:25:16.000Z</time>
      </trkpt>
      <trkpt lat="47.36973" lon="-2.36371">
        <ele>26.200000762939</ele>
        <time>2022-04-21T09:25:21.000Z</time>
      </trkpt>
      <trkpt lat="47.3694" lon="-2.36372">
        <ele>26.200000762939</ele>
        <time>2022-04-21T09:25:28.000Z</time>
      </trkpt>
      <trkpt lat="47.36909" lon="-2.36372">
        <ele>26.200000762939</ele>
        <time>2022-04-21T09:25:35.000Z</time>
      </trkpt>
      <trkpt lat="47.36877" lon="-2.36374">
        <ele>26.200000762939</ele>
        <time>2022-04-21T09:25:42.000Z</time>
      </trkpt>
      <trkpt lat="47.36872" lon="-2.36374">
        <ele>26.200000762939</ele>
        <time>2022-04-21T09:25:43.000Z</time>
      </trkpt>
      <trkpt lat="47.36842" lon="-2.36375">
        <ele>26.200000762939</ele>
        <time>2022-04-21T09:25:49.000Z</time>
      </trkpt>
      <trkpt lat="47.36805" lon="-2.36374">
        <ele>26.200000762939</ele>
        <time>2022-04-21T09:25:57.000Z</time>
      </trkpt>
      <trkpt lat="47.36796" lon="-2.36374">
        <ele>26.200000762939</ele>
        <time>2022-04-21T09:25:59.000Z</time>
      </trkpt>
      <trkpt lat="47.36778" lon="-2.36373">
        <ele>26.200000762939</ele>
        <time>2022-04-21T09:26:03.000Z</time>
      </trkpt>
      <trkpt lat="47.36757" lon="-2.36376">
        <ele>26.200000762939</ele>
        <time>2022-04-21T09:26:08.000Z</time>
      </trkpt>
      <trkpt lat="47.36749" lon="-2.36381">
        <ele>26.200000762939</ele>
        <time>2022-04-21T09:26:10.000Z</time>
      </trkpt>
      <trkpt lat="47.36739" lon="-2.36391">
        <ele>26.200000762939</ele>
        <time>2022-04-21T09:26:13.000Z</time>
      </trkpt>
      <trkpt lat="47.36736" lon="-2.36396">
        <ele>26.60000038147</ele>
        <time>2022-04-21T09:26:14.000Z</time>
      </trkpt>
      <trkpt lat="47.36733" lon="-2.364">
        <ele>27</ele>
        <time>2022-04-21T09:26:15.000Z</time>
      </trkpt>
      <trkpt lat="47.3673" lon="-2.36404">
        <ele>27.39999961853</ele>
        <time>2022-04-21T09:26:16.000Z</time>
      </trkpt>
      <trkpt lat="47.36727" lon="-2.36409">
        <ele>27.799999237061</ele>
        <time>2022-04-21T09:26:17.000Z</time>
      </trkpt>
      <trkpt lat="47.36724" lon="-2.36413">
        <ele>28.39999961853</ele>
        <time>2022-04-21T09:26:18.000Z</time>
      </trkpt>
      <trkpt lat="47.36698" lon="-2.36444">
        <ele>28.39999961853</ele>
        <time>2022-04-21T09:26:26.000Z</time>
      </trkpt>
      <trkpt lat="47.36687" lon="-2.36453">
        <ele>28.39999961853</ele>
        <time>2022-04-21T09:26:29.000Z</time>
      </trkpt>
      <trkpt lat="47.36672" lon="-2.36464">
        <ele>28.39999961853</ele>
        <time>2022-04-21T09:26:33.000Z</time>
      </trkpt>
      <trkpt lat="47.36655" lon="-2.36476">
        <ele>28.799999237061</ele>
        <time>2022-04-21T09:26:38.000Z</time>
      </trkpt>
      <trkpt lat="47.36652" lon="-2.36479">
        <ele>29.200000762939</ele>
        <time>2022-04-21T09:26:39.000Z</time>
      </trkpt>
      <trkpt lat="47.36648" lon="-2.36481">
        <ele>29.60000038147</ele>
        <time>2022-04-21T09:26:40.000Z</time>
      </trkpt>
      <trkpt lat="47.36644" lon="-2.36483">
        <ele>30</ele>
        <time>2022-04-21T09:26:41.000Z</time>
      </trkpt>
      <trkpt lat="47.3664" lon="-2.36485">
        <ele>30.39999961853</ele>
        <time>2022-04-21T09:26:42.000Z</time>
      </trkpt>
      <trkpt lat="47.3662" lon="-2.36496">
        <ele>30.39999961853</ele>
        <time>2022-04-21T09:26:47.000Z</time>
      </trkpt>
      <trkpt lat="47.36595" lon="-2.36512">
        <ele>30.799999237061</ele>
        <time>2022-04-21T09:26:54.000Z</time>
      </trkpt>
      <trkpt lat="47.36591" lon="-2.36514">
        <ele>31.200000762939</ele>
        <time>2022-04-21T09:26:55.000Z</time>
      </trkpt>
      <trkpt lat="47.36587" lon="-2.36515">
        <ele>31.60000038147</ele>
        <time>2022-04-21T09:26:56.000Z</time>
      </trkpt>
      <trkpt lat="47.36584" lon="-2.36517">
        <ele>32</ele>
        <time>2022-04-21T09:26:57.000Z</time>
      </trkpt>
      <trkpt lat="47.3658" lon="-2.36518">
        <ele>32.400001525879</ele>
        <time>2022-04-21T09:26:58.000Z</time>
      </trkpt>
      <trkpt lat="47.3657" lon="-2.36513">
        <ele>32.400001525879</ele>
        <time>2022-04-21T09:27:01.000Z</time>
      </trkpt>
      <trkpt lat="47.36563" lon="-2.3649">
        <ele>32.400001525879</ele>
        <time>2022-04-21T09:27:05.000Z</time>
      </trkpt>
      <trkpt lat="47.36544" lon="-2.36443">
        <ele>32.400001525879</ele>
        <time>2022-04-21T09:27:13.000Z</time>
      </trkpt>
      <trkpt lat="47.36529" lon="-2.36399">
        <ele>32.400001525879</ele>
        <time>2022-04-21T09:27:19.000Z</time>
      </trkpt>
      <trkpt lat="47.36512" lon="-2.36345">
        <ele>32.400001525879</ele>
        <time>2022-04-21T09:27:26.000Z</time>
      </trkpt>
      <trkpt lat="47.36501" lon="-2.36308">
        <ele>32.400001525879</ele>
        <time>2022-04-21T09:27:31.000Z</time>
      </trkpt>
      <trkpt lat="47.36485" lon="-2.36258">
        <ele>32.400001525879</ele>
        <time>2022-04-21T09:27:38.000Z</time>
      </trkpt>
      <trkpt lat="47.36479" lon="-2.3624">
        <ele>33</ele>
        <time>2022-04-21T09:27:41.000Z</time>
      </trkpt>
      <trkpt lat="47.36477" lon="-2.36236">
        <ele>33.400001525879</ele>
        <time>2022-04-21T09:27:42.000Z</time>
      </trkpt>
      <trkpt lat="47.36476" lon="-2.36232">
        <ele>33.799999237061</ele>
        <time>2022-04-21T09:27:43.000Z</time>
      </trkpt>
      <trkpt lat="47.36474" lon="-2.3623">
        <ele>34.200000762939</ele>
        <time>2022-04-21T09:27:44.000Z</time>
      </trkpt>
      <trkpt lat="47.36473" lon="-2.36228">
        <ele>34.599998474121</ele>
        <time>2022-04-21T09:27:45.000Z</time>
      </trkpt>
      <trkpt lat="47.36472" lon="-2.36226">
        <ele>34.599998474121</ele>
        <time>2022-04-21T09:27:47.000Z</time>
      </trkpt>
      <trkpt lat="47.36472" lon="-2.36225">
        <ele>34.599998474121</ele>
        <time>2022-04-21T09:27:48.000Z</time>
      </trkpt>
      <trkpt lat="47.36471" lon="-2.36224">
        <ele>34.599998474121</ele>
        <time>2022-04-21T09:28:02.000Z</time>
      </trkpt>
      <trkpt lat="47.36469" lon="-2.36221">
        <ele>34.599998474121</ele>
        <time>2022-04-21T09:28:04.000Z</time>
      </trkpt>
      <trkpt lat="47.36466" lon="-2.36203">
        <ele>34.599998474121</ele>
        <time>2022-04-21T09:28:08.000Z</time>
      </trkpt>
      <trkpt lat="47.36457" lon="-2.36168">
        <ele>34.599998474121</ele>
        <time>2022-04-21T09:28:14.000Z</time>
      </trkpt>
      <trkpt lat="47.36444" lon="-2.36122">
        <ele>34.599998474121</ele>
        <time>2022-04-21T09:28:21.000Z</time>
      </trkpt>
      <trkpt lat="47.3644" lon="-2.36107">
        <ele>34.599998474121</ele>
        <time>2022-04-21T09:28:23.000Z</time>
      </trkpt>
      <trkpt lat="47.36441" lon="-2.36091">
        <ele>34.599998474121</ele>
        <time>2022-04-21T09:28:25.000Z</time>
      </trkpt>
      <trkpt lat="47.36449" lon="-2.36069">
        <ele>34.599998474121</ele>
        <time>2022-04-21T09:28:28.000Z</time>
      </trkpt>
      <trkpt lat="47.36471" lon="-2.36029">
        <ele>34.599998474121</ele>
        <time>2022-04-21T09:28:33.000Z</time>
      </trkpt>
      <trkpt lat="47.36476" lon="-2.36022">
        <ele>34.599998474121</ele>
        <time>2022-04-21T09:28:34.000Z</time>
      </trkpt>
      <trkpt lat="47.36494" lon="-2.36001">
        <ele>34.200000762939</ele>
        <time>2022-04-21T09:28:37.000Z</time>
      </trkpt>
      <trkpt lat="47.365" lon="-2.35995">
        <ele>33.799999237061</ele>
        <time>2022-04-21T09:28:38.000Z</time>
      </trkpt>
      <trkpt lat="47.36506" lon="-2.35988">
        <ele>33.400001525879</ele>
        <time>2022-04-21T09:28:39.000Z</time>
      </trkpt>
      <trkpt lat="47.36512" lon="-2.35981">
        <ele>33</ele>
        <time>2022-04-21T09:28:40.000Z</time>
      </trkpt>
      <trkpt lat="47.36518" lon="-2.35974">
        <ele>32.599998474121</ele>
        <time>2022-04-21T09:28:41.000Z</time>
      </trkpt>
      <trkpt lat="47.36535" lon="-2.35953">
        <ele>32.200000762939</ele>
        <time>2022-04-21T09:28:44.000Z</time>
      </trkpt>
      <trkpt lat="47.36541" lon="-2.35946">
        <ele>31.799999237061</ele>
        <time>2022-04-21T09:28:45.000Z</time>
      </trkpt>
      <trkpt lat="47.36546" lon="-2.3594">
        <ele>31.39999961853</ele>
        <time>2022-04-21T09:28:46.000Z</time>
      </trkpt>
      <trkpt lat="47.36551" lon="-2.35933">
        <ele>31</ele>
        <time>2022-04-21T09:28:47.000Z</time>
      </trkpt>
      <trkpt lat="47.36557" lon="-2.35926">
        <ele>30.60000038147</ele>
        <time>2022-04-21T09:28:48.000Z</time>
      </trkpt>
      <trkpt lat="47.36582" lon="-2.35891">
        <ele>30.60000038147</ele>
        <time>2022-04-21T09:28:53.000Z</time>
      </trkpt>
      <trkpt lat="47.36586" lon="-2.35884">
        <ele>30.60000038147</ele>
        <time>2022-04-21T09:28:54.000Z</time>
      </trkpt>
      <trkpt lat="47.36589" lon="-2.35868">
        <ele>30.60000038147</ele>
        <time>2022-04-21T09:28:56.000Z</time>
      </trkpt>
      <trkpt lat="47.36584" lon="-2.35844">
        <ele>30.60000038147</ele>
        <time>2022-04-21T09:28:59.000Z</time>
      </trkpt>
      <trkpt lat="47.36572" lon="-2.35792">
        <ele>30.200000762939</ele>
        <time>2022-04-21T09:29:05.000Z</time>
      </trkpt>
      <trkpt lat="47.3657" lon="-2.35784">
        <ele>29.799999237061</ele>
        <time>2022-04-21T09:29:06.000Z</time>
      </trkpt>
      <trkpt lat="47.36567" lon="-2.35775">
        <ele>29.39999961853</ele>
        <time>2022-04-21T09:29:07.000Z</time>
      </trkpt>
      <trkpt lat="47.36564" lon="-2.35766">
        <ele>29</ele>
        <time>2022-04-21T09:29:08.000Z</time>
      </trkpt>
      <trkpt lat="47.36561" lon="-2.35756">
        <ele>28.39999961853</ele>
        <time>2022-04-21T09:29:09.000Z</time>
      </trkpt>
      <trkpt lat="47.36558" lon="-2.35747">
        <ele>28.39999961853</ele>
        <time>2022-04-21T09:29:10.000Z</time>
      </trkpt>
      <trkpt lat="47.36535" lon="-2.35682">
        <ele>28.39999961853</ele>
        <time>2022-04-21T09:29:17.000Z</time>
      </trkpt>
      <trkpt lat="47.36511" lon="-2.3561">
        <ele>28.39999961853</ele>
        <time>2022-04-21T09:29:25.000Z</time>
      </trkpt>
      <trkpt lat="47.36508" lon="-2.35601">
        <ele>28.39999961853</ele>
        <time>2022-04-21T09:29:26.000Z</time>
      </trkpt>
      <trkpt lat="47.36486" lon="-2.35541">
        <ele>28.39999961853</ele>
        <time>2022-04-21T09:29:33.000Z</time>
      </trkpt>
      <trkpt lat="47.3648" lon="-2.35517">
        <ele>28.39999961853</ele>
        <time>2022-04-21T09:29:36.000Z</time>
      </trkpt>
      <trkpt lat="47.36481" lon="-2.35509">
        <ele>28.39999961853</ele>
        <time>2022-04-21T09:29:37.000Z</time>
      </trkpt>
      <trkpt lat="47.3649" lon="-2.35488">
        <ele>28.39999961853</ele>
        <time>2022-04-21T09:29:40.000Z</time>
      </trkpt>
      <trkpt lat="47.36495" lon="-2.35482">
        <ele>28.39999961853</ele>
        <time>2022-04-21T09:29:41.000Z</time>
      </trkpt>
      <trkpt lat="47.36517" lon="-2.35445">
        <ele>28.39999961853</ele>
        <time>2022-04-21T09:29:46.000Z</time>
      </trkpt>
      <trkpt lat="47.36543" lon="-2.35403">
        <ele>28.39999961853</ele>
        <time>2022-04-21T09:29:52.000Z</time>
      </trkpt>
      <trkpt lat="47.36574" lon="-2.35353">
        <ele>28.39999961853</ele>
        <time>2022-04-21T09:29:59.000Z</time>
      </trkpt>
      <trkpt lat="47.36609" lon="-2.35295">
        <ele>27.60000038147</ele>
        <time>2022-04-21T09:30:07.000Z</time>
      </trkpt>
      <trkpt lat="47.36613" lon="-2.35288">
        <ele>27.200000762939</ele>
        <time>2022-04-21T09:30:08.000Z</time>
      </trkpt>
      <trkpt lat="47.36617" lon="-2.35281">
        <ele>26.799999237061</ele>
        <time>2022-04-21T09:30:09.000Z</time>
      </trkpt>
      <trkpt lat="47.36621" lon="-2.35274">
        <ele>26.39999961853</ele>
        <time>2022-04-21T09:30:10.000Z</time>
      </trkpt>
      <trkpt lat="47.3664" lon="-2.35238">
        <ele>26.39999961853</ele>
        <time>2022-04-21T09:30:15.000Z</time>
      </trkpt>
      <trkpt lat="47.36639" lon="-2.35216">
        <ele>26.39999961853</ele>
        <time>2022-04-21T09:30:18.000Z</time>
      </trkpt>
      <trkpt lat="47.36625" lon="-2.35189">
        <ele>26.39999961853</ele>
        <time>2022-04-21T09:30:22.000Z</time>
      </trkpt>
      <trkpt lat="47.36611" lon="-2.3517">
        <ele>26.39999961853</ele>
        <time>2022-04-21T09:30:25.000Z</time>
      </trkpt>
      <trkpt lat="47.36603" lon="-2.35157">
        <ele>26.39999961853</ele>
        <time>2022-04-21T09:30:27.000Z</time>
      </trkpt>
      <trkpt lat="47.36599" lon="-2.3515">
        <ele>26.39999961853</ele>
        <time>2022-04-21T09:30:28.000Z</time>
      </trkpt>
      <trkpt lat="47.36574" lon="-2.35111">
        <ele>26.39999961853</ele>
        <time>2022-04-21T09:30:34.000Z</time>
      </trkpt>
      <trkpt lat="47.36551" lon="-2.35073">
        <ele>26.39999961853</ele>
        <time>2022-04-21T09:30:40.000Z</time>
      </trkpt>
      <trkpt lat="47.36526" lon="-2.35032">
        <ele>26.39999961853</ele>
        <time>2022-04-21T09:30:47.000Z</time>
      </trkpt>
      <trkpt lat="47.36504" lon="-2.34992">
        <ele>26.39999961853</ele>
        <time>2022-04-21T09:30:54.000Z</time>
      </trkpt>
      <trkpt lat="47.36498" lon="-2.34986">
        <ele>26.39999961853</ele>
        <time>2022-04-21T09:30:56.000Z</time>
      </trkpt>
      <trkpt lat="47.36495" lon="-2.3499">
        <ele>26.39999961853</ele>
        <time>2022-04-21T09:30:58.000Z</time>
      </trkpt>
      <trkpt lat="47.36502" lon="-2.35007">
        <ele>26.39999961853</ele>
        <time>2022-04-21T09:31:02.000Z</time>
      </trkpt>
      <trkpt lat="47.36511" lon="-2.35023">
        <ele>26.39999961853</ele>
        <time>2022-04-21T09:31:05.000Z</time>
      </trkpt>
      <trkpt lat="47.36518" lon="-2.35034">
        <ele>26.39999961853</ele>
        <time>2022-04-21T09:31:07.000Z</time>
      </trkpt>
      <trkpt lat="47.36529" lon="-2.35056">
        <ele>26.39999961853</ele>
        <time>2022-04-21T09:31:11.000Z</time>
      </trkpt>
      <trkpt lat="47.36542" lon="-2.35076">
        <ele>26.39999961853</ele>
        <time>2022-04-21T09:31:15.000Z</time>
      </trkpt>
      <trkpt lat="47.36549" lon="-2.35095">
        <ele>26.39999961853</ele>
        <time>2022-04-21T09:31:19.000Z</time>
      </trkpt>
      <trkpt lat="47.3654" lon="-2.35099">
        <ele>26.39999961853</ele>
        <time>2022-04-21T09:31:22.000Z</time>
      </trkpt>
      <trkpt lat="47.36536" lon="-2.35099">
        <ele>26.39999961853</ele>
        <time>2022-04-21T09:31:23.000Z</time>
      </trkpt>
      <trkpt lat="47.36516" lon="-2.35103">
        <ele>26.39999961853</ele>
        <time>2022-04-21T09:31:27.000Z</time>
      </trkpt>
      <trkpt lat="47.36497" lon="-2.35106">
        <ele>26.39999961853</ele>
        <time>2022-04-21T09:31:31.000Z</time>
      </trkpt>
      <trkpt lat="47.36488" lon="-2.35103">
        <ele>26.39999961853</ele>
        <time>2022-04-21T09:31:33.000Z</time>
      </trkpt>
      <trkpt lat="47.36462" lon="-2.35087">
        <ele>26.39999961853</ele>
        <time>2022-04-21T09:31:38.000Z</time>
      </trkpt>
      <trkpt lat="47.36456" lon="-2.35085">
        <ele>26.39999961853</ele>
        <time>2022-04-21T09:31:39.000Z</time>
      </trkpt>
      <trkpt lat="47.36432" lon="-2.35071">
        <ele>26.39999961853</ele>
        <time>2022-04-21T09:31:44.000Z</time>
      </trkpt>
      <trkpt lat="47.36428" lon="-2.35069">
        <ele>26.39999961853</ele>
        <time>2022-04-21T09:31:45.000Z</time>
      </trkpt>
      <trkpt lat="47.36424" lon="-2.35066">
        <ele>26.39999961853</ele>
        <time>2022-04-21T09:31:48.000Z</time>
      </trkpt>
      <trkpt lat="47.36424" lon="-2.35066">
        <ele>26.39999961853</ele>
        <time>2022-04-21T09:31:49.000Z</time>
      </trkpt>
      <trkpt lat="47.36412" lon="-2.35071">
        <ele>26.39999961853</ele>
        <time>2022-04-21T09:32:23.000Z</time>
      </trkpt>
      <trkpt lat="47.3641" lon="-2.35075">
        <ele>26.39999961853</ele>
        <time>2022-04-21T09:32:25.000Z</time>
      </trkpt>
      <trkpt lat="47.364" lon="-2.3508">
        <ele>26.39999961853</ele>
        <time>2022-04-21T09:32:30.000Z</time>
      </trkpt>
      <trkpt lat="47.36394" lon="-2.3507">
        <ele>26.39999961853</ele>
        <time>2022-04-21T09:32:33.000Z</time>
      </trkpt>
      <trkpt lat="47.36393" lon="-2.35066">
        <ele>26.39999961853</ele>
        <time>2022-04-21T09:32:34.000Z</time>
      </trkpt>
      <trkpt lat="47.36387" lon="-2.35045">
        <ele>26.39999961853</ele>
        <time>2022-04-21T09:32:39.000Z</time>
      </trkpt>
      <trkpt lat="47.36378" lon="-2.35019">
        <ele>26.39999961853</ele>
        <time>2022-04-21T09:32:45.000Z</time>
      </trkpt>
      <trkpt lat="47.36365" lon="-2.34998">
        <ele>26.39999961853</ele>
        <time>2022-04-21T09:32:51.000Z</time>
      </trkpt>
      <trkpt lat="47.36359" lon="-2.34991">
        <ele>26.39999961853</ele>
        <time>2022-04-21T09:32:53.000Z</time>
      </trkpt>
      <trkpt lat="47.36351" lon="-2.34991">
        <ele>26.39999961853</ele>
        <time>2022-04-21T09:32:55.000Z</time>
      </trkpt>
      <trkpt lat="47.36337" lon="-2.34996">
        <ele>26.39999961853</ele>
        <time>2022-04-21T09:32:58.000Z</time>
      </trkpt>
      <trkpt lat="47.3633" lon="-2.35003">
        <ele>26.39999961853</ele>
        <time>2022-04-21T09:33:00.000Z</time>
      </trkpt>
      <trkpt lat="47.36321" lon="-2.35011">
        <ele>26.39999961853</ele>
        <time>2022-04-21T09:33:02.000Z</time>
      </trkpt>
      <trkpt lat="47.36312" lon="-2.35014">
        <ele>26.39999961853</ele>
        <time>2022-04-21T09:33:04.000Z</time>
      </trkpt>
      <trkpt lat="47.36297" lon="-2.35005">
        <ele>26.39999961853</ele>
        <time>2022-04-21T09:33:08.000Z</time>
      </trkpt>
      <trkpt lat="47.3629" lon="-2.34982">
        <ele>26.39999961853</ele>
        <time>2022-04-21T09:33:12.000Z</time>
      </trkpt>
      <trkpt lat="47.36289" lon="-2.34976">
        <ele>26.39999961853</ele>
        <time>2022-04-21T09:33:13.000Z</time>
      </trkpt>
      <trkpt lat="47.36288" lon="-2.34962">
        <ele>26.799999237061</ele>
        <time>2022-04-21T09:33:15.000Z</time>
      </trkpt>
      <trkpt lat="47.36287" lon="-2.34956">
        <ele>27.200000762939</ele>
        <time>2022-04-21T09:33:16.000Z</time>
      </trkpt>
      <trkpt lat="47.36286" lon="-2.3495">
        <ele>27.60000038147</ele>
        <time>2022-04-21T09:33:17.000Z</time>
      </trkpt>
      <trkpt lat="47.36285" lon="-2.34943">
        <ele>28</ele>
        <time>2022-04-21T09:33:18.000Z</time>
      </trkpt>
      <trkpt lat="47.36283" lon="-2.34937">
        <ele>28.39999961853</ele>
        <time>2022-04-21T09:33:19.000Z</time>
      </trkpt>
      <trkpt lat="47.36273" lon="-2.34935">
        <ele>28.39999961853</ele>
        <time>2022-04-21T09:33:22.000Z</time>
      </trkpt>
      <trkpt lat="47.36264" lon="-2.34951">
        <ele>28.39999961853</ele>
        <time>2022-04-21T09:33:25.000Z</time>
      </trkpt>
      <trkpt lat="47.36261" lon="-2.34957">
        <ele>28.39999961853</ele>
        <time>2022-04-21T09:33:26.000Z</time>
      </trkpt>
      <trkpt lat="47.36243" lon="-2.34995">
        <ele>28.39999961853</ele>
        <time>2022-04-21T09:33:32.000Z</time>
      </trkpt>
      <trkpt lat="47.3622" lon="-2.35042">
        <ele>28.39999961853</ele>
        <time>2022-04-21T09:33:39.000Z</time>
      </trkpt>
      <trkpt lat="47.36194" lon="-2.35072">
        <ele>28.39999961853</ele>
        <time>2022-04-21T09:33:45.000Z</time>
      </trkpt>
      <trkpt lat="47.36167" lon="-2.35099">
        <ele>28.39999961853</ele>
        <time>2022-04-21T09:33:51.000Z</time>
      </trkpt>
      <trkpt lat="47.36149" lon="-2.35119">
        <ele>28.39999961853</ele>
        <time>2022-04-21T09:33:55.000Z</time>
      </trkpt>
      <trkpt lat="47.3614" lon="-2.3513">
        <ele>28.39999961853</ele>
        <time>2022-04-21T09:33:57.000Z</time>
      </trkpt>
      <trkpt lat="47.36113" lon="-2.35162">
        <ele>28.39999961853</ele>
        <time>2022-04-21T09:34:03.000Z</time>
      </trkpt>
      <trkpt lat="47.36103" lon="-2.35171">
        <ele>28.39999961853</ele>
        <time>2022-04-21T09:34:05.000Z</time>
      </trkpt>
      <trkpt lat="47.36095" lon="-2.35171">
        <ele>28.39999961853</ele>
        <time>2022-04-21T09:34:07.000Z</time>
      </trkpt>
      <trkpt lat="47.36092" lon="-2.3516">
        <ele>28.39999961853</ele>
        <time>2022-04-21T09:34:10.000Z</time>
      </trkpt>
      <trkpt lat="47.36091" lon="-2.3516">
        <ele>28.39999961853</ele>
        <time>2022-04-21T09:34:11.000Z</time>
      </trkpt>
      <trkpt lat="47.36092" lon="-2.35159">
        <ele>28.39999961853</ele>
        <time>2022-04-21T09:34:25.000Z</time>
      </trkpt>
      <trkpt lat="47.36092" lon="-2.35155">
        <ele>28.39999961853</ele>
        <time>2022-04-21T09:34:27.000Z</time>
      </trkpt>
      <trkpt lat="47.36094" lon="-2.35139">
        <ele>28.39999961853</ele>
        <time>2022-04-21T09:34:32.000Z</time>
      </trkpt>
      <trkpt lat="47.36094" lon="-2.35134">
        <ele>28.39999961853</ele>
        <time>2022-04-21T09:34:33.000Z</time>
      </trkpt>
      <trkpt lat="47.36094" lon="-2.35109">
        <ele>28.39999961853</ele>
        <time>2022-04-21T09:34:37.000Z</time>
      </trkpt>
      <trkpt lat="47.36095" lon="-2.35103">
        <ele>28.39999961853</ele>
        <time>2022-04-21T09:34:38.000Z</time>
      </trkpt>
      <trkpt lat="47.36098" lon="-2.35052">
        <ele>28.39999961853</ele>
        <time>2022-04-21T09:34:45.000Z</time>
      </trkpt>
      <trkpt lat="47.36098" lon="-2.35004">
        <ele>28.39999961853</ele>
        <time>2022-04-21T09:34:51.000Z</time>
      </trkpt>
      <trkpt lat="47.36097" lon="-2.34995">
        <ele>28.39999961853</ele>
        <time>2022-04-21T09:34:52.000Z</time>
      </trkpt>
      <trkpt lat="47.36088" lon="-2.3494">
        <ele>28.39999961853</ele>
        <time>2022-04-21T09:34:59.000Z</time>
      </trkpt>
      <trkpt lat="47.36084" lon="-2.34885">
        <ele>28.39999961853</ele>
        <time>2022-04-21T09:35:07.000Z</time>
      </trkpt>
      <trkpt lat="47.36082" lon="-2.3488">
        <ele>28.39999961853</ele>
        <time>2022-04-21T09:35:08.000Z</time>
      </trkpt>
      <trkpt lat="47.36068" lon="-2.34877">
        <ele>28.39999961853</ele>
        <time>2022-04-21T09:35:11.000Z</time>
      </trkpt>
      <trkpt lat="47.36057" lon="-2.34875">
        <ele>28.39999961853</ele>
        <time>2022-04-21T09:35:13.000Z</time>
      </trkpt>
      <trkpt lat="47.36052" lon="-2.34875">
        <ele>28.39999961853</ele>
        <time>2022-04-21T09:35:14.000Z</time>
      </trkpt>
      <trkpt lat="47.36041" lon="-2.34875">
        <ele>28.39999961853</ele>
        <time>2022-04-21T09:35:16.000Z</time>
      </trkpt>
      <trkpt lat="47.36035" lon="-2.34874">
        <ele>28.799999237061</ele>
        <time>2022-04-21T09:35:17.000Z</time>
      </trkpt>
      <trkpt lat="47.36029" lon="-2.34873">
        <ele>29.200000762939</ele>
        <time>2022-04-21T09:35:18.000Z</time>
      </trkpt>
      <trkpt lat="47.36024" lon="-2.34873">
        <ele>29.60000038147</ele>
        <time>2022-04-21T09:35:19.000Z</time>
      </trkpt>
      <trkpt lat="47.36019" lon="-2.34872">
        <ele>30</ele>
        <time>2022-04-21T09:35:20.000Z</time>
      </trkpt>
      <trkpt lat="47.36013" lon="-2.34872">
        <ele>30.60000038147</ele>
        <time>2022-04-21T09:35:21.000Z</time>
      </trkpt>
      <trkpt lat="47.36007" lon="-2.34871">
        <ele>30.60000038147</ele>
        <time>2022-04-21T09:35:22.000Z</time>
      </trkpt>
      <trkpt lat="47.35967" lon="-2.34867">
        <ele>30.60000038147</ele>
        <time>2022-04-21T09:35:29.000Z</time>
      </trkpt>
      <trkpt lat="47.35934" lon="-2.34864">
        <ele>30.60000038147</ele>
        <time>2022-04-21T09:35:35.000Z</time>
      </trkpt>
      <trkpt lat="47.35928" lon="-2.34862">
        <ele>30.60000038147</ele>
        <time>2022-04-21T09:35:36.000Z</time>
      </trkpt>
      <trkpt lat="47.35916" lon="-2.34848">
        <ele>30.60000038147</ele>
        <time>2022-04-21T09:35:39.000Z</time>
      </trkpt>
      <trkpt lat="47.35912" lon="-2.34841">
        <ele>30.60000038147</ele>
        <time>2022-04-21T09:35:40.000Z</time>
      </trkpt>
      <trkpt lat="47.35896" lon="-2.34801">
        <ele>30.60000038147</ele>
        <time>2022-04-21T09:35:46.000Z</time>
      </trkpt>
      <trkpt lat="47.3587" lon="-2.34739">
        <ele>30.60000038147</ele>
        <time>2022-04-21T09:35:55.000Z</time>
      </trkpt>
      <trkpt lat="47.35849" lon="-2.3469">
        <ele>30.60000038147</ele>
        <time>2022-04-21T09:36:02.000Z</time>
      </trkpt>
      <trkpt lat="47.35828" lon="-2.3464">
        <ele>30.60000038147</ele>
        <time>2022-04-21T09:36:09.000Z</time>
      </trkpt>
      <trkpt lat="47.35808" lon="-2.3459">
        <ele>30.60000038147</ele>
        <time>2022-04-21T09:36:16.000Z</time>
      </trkpt>
      <trkpt lat="47.35802" lon="-2.34575">
        <ele>30.60000038147</ele>
        <time>2022-04-21T09:36:18.000Z</time>
      </trkpt>
      <trkpt lat="47.35798" lon="-2.3455">
        <ele>30.60000038147</ele>
        <time>2022-04-21T09:36:21.000Z</time>
      </trkpt>
      <trkpt lat="47.35797" lon="-2.34542">
        <ele>30.60000038147</ele>
        <time>2022-04-21T09:36:22.000Z</time>
      </trkpt>
      <trkpt lat="47.35792" lon="-2.345">
        <ele>30.60000038147</ele>
        <time>2022-04-21T09:36:27.000Z</time>
      </trkpt>
      <trkpt lat="47.35785" lon="-2.34435">
        <ele>30.60000038147</ele>
        <time>2022-04-21T09:36:35.000Z</time>
      </trkpt>
      <trkpt lat="47.35779" lon="-2.34389">
        <ele>30.60000038147</ele>
        <time>2022-04-21T09:36:41.000Z</time>
      </trkpt>
      <trkpt lat="47.35772" lon="-2.34329">
        <ele>31</ele>
        <time>2022-04-21T09:36:49.000Z</time>
      </trkpt>
      <trkpt lat="47.35771" lon="-2.34322">
        <ele>31.39999961853</ele>
        <time>2022-04-21T09:36:50.000Z</time>
      </trkpt>
      <trkpt lat="47.35769" lon="-2.34314">
        <ele>31.799999237061</ele>
        <time>2022-04-21T09:36:51.000Z</time>
      </trkpt>
      <trkpt lat="47.35768" lon="-2.34306">
        <ele>32.200000762939</ele>
        <time>2022-04-21T09:36:52.000Z</time>
      </trkpt>
      <trkpt lat="47.35767" lon="-2.34299">
        <ele>32.599998474121</ele>
        <time>2022-04-21T09:36:53.000Z</time>
      </trkpt>
      <trkpt lat="47.35766" lon="-2.34275">
        <ele>32.599998474121</ele>
        <time>2022-04-21T09:36:56.000Z</time>
      </trkpt>
      <trkpt lat="47.35765" lon="-2.34246">
        <ele>33</ele>
        <time>2022-04-21T09:37:00.000Z</time>
      </trkpt>
      <trkpt lat="47.35766" lon="-2.34238">
        <ele>33.400001525879</ele>
        <time>2022-04-21T09:37:01.000Z</time>
      </trkpt>
      <trkpt lat="47.35766" lon="-2.34231">
        <ele>33.799999237061</ele>
        <time>2022-04-21T09:37:02.000Z</time>
      </trkpt>
      <trkpt lat="47.35767" lon="-2.34224">
        <ele>34.200000762939</ele>
        <time>2022-04-21T09:37:03.000Z</time>
      </trkpt>
      <trkpt lat="47.35767" lon="-2.34218">
        <ele>34.599998474121</ele>
        <time>2022-04-21T09:37:04.000Z</time>
      </trkpt>
      <trkpt lat="47.35766" lon="-2.34212">
        <ele>34.599998474121</ele>
        <time>2022-04-21T09:37:05.000Z</time>
      </trkpt>
      <trkpt lat="47.35761" lon="-2.34204">
        <ele>34.599998474121</ele>
        <time>2022-04-21T09:37:07.000Z</time>
      </trkpt>
      <trkpt lat="47.35748" lon="-2.34206">
        <ele>34.599998474121</ele>
        <time>2022-04-21T09:37:10.000Z</time>
      </trkpt>
      <trkpt lat="47.35738" lon="-2.3421">
        <ele>34.599998474121</ele>
        <time>2022-04-21T09:37:12.000Z</time>
      </trkpt>
      <trkpt lat="47.35725" lon="-2.34212">
        <ele>34.599998474121</ele>
        <time>2022-04-21T09:37:14.000Z</time>
      </trkpt>
      <trkpt lat="47.35713" lon="-2.34213">
        <ele>34.599998474121</ele>
        <time>2022-04-21T09:37:16.000Z</time>
      </trkpt>
      <trkpt lat="47.35693" lon="-2.34211">
        <ele>34.599998474121</ele>
        <time>2022-04-21T09:37:19.000Z</time>
      </trkpt>
      <trkpt lat="47.35672" lon="-2.34206">
        <ele>34.200000762939</ele>
        <time>2022-04-21T09:37:22.000Z</time>
      </trkpt>
      <trkpt lat="47.35665" lon="-2.34204">
        <ele>33.799999237061</ele>
        <time>2022-04-21T09:37:23.000Z</time>
      </trkpt>
      <trkpt lat="47.35658" lon="-2.34202">
        <ele>33.400001525879</ele>
        <time>2022-04-21T09:37:24.000Z</time>
      </trkpt>
      <trkpt lat="47.35651" lon="-2.34201">
        <ele>33</ele>
        <time>2022-04-21T09:37:25.000Z</time>
      </trkpt>
      <trkpt lat="47.35644" lon="-2.34198">
        <ele>32.599998474121</ele>
        <time>2022-04-21T09:37:26.000Z</time>
      </trkpt>
      <trkpt lat="47.35607" lon="-2.34189">
        <ele>32.599998474121</ele>
        <time>2022-04-21T09:37:31.000Z</time>
      </trkpt>
      <trkpt lat="47.35584" lon="-2.34185">
        <ele>32.200000762939</ele>
        <time>2022-04-21T09:37:34.000Z</time>
      </trkpt>
      <trkpt lat="47.35578" lon="-2.34185">
        <ele>31.799999237061</ele>
        <time>2022-04-21T09:37:35.000Z</time>
      </trkpt>
      <trkpt lat="47.35573" lon="-2.34189">
        <ele>31.200000762939</ele>
        <time>2022-04-21T09:37:36.000Z</time>
      </trkpt>
      <trkpt lat="47.35569" lon="-2.34194">
        <ele>30.799999237061</ele>
        <time>2022-04-21T09:37:37.000Z</time>
      </trkpt>
      <trkpt lat="47.35566" lon="-2.34201">
        <ele>30.39999961853</ele>
        <time>2022-04-21T09:37:38.000Z</time>
      </trkpt>
      <trkpt lat="47.35564" lon="-2.3421">
        <ele>30</ele>
        <time>2022-04-21T09:37:39.000Z</time>
      </trkpt>
      <trkpt lat="47.35564" lon="-2.34219">
        <ele>29.60000038147</ele>
        <time>2022-04-21T09:37:40.000Z</time>
      </trkpt>
      <trkpt lat="47.35564" lon="-2.34229">
        <ele>29.200000762939</ele>
        <time>2022-04-21T09:37:41.000Z</time>
      </trkpt>
      <trkpt lat="47.35564" lon="-2.3424">
        <ele>28.799999237061</ele>
        <time>2022-04-21T09:37:42.000Z</time>
      </trkpt>
      <trkpt lat="47.35564" lon="-2.3425">
        <ele>28.39999961853</ele>
        <time>2022-04-21T09:37:43.000Z</time>
      </trkpt>
      <trkpt lat="47.35558" lon="-2.34315">
        <ele>28.39999961853</ele>
        <time>2022-04-21T09:37:49.000Z</time>
      </trkpt>
      <trkpt lat="47.35546" lon="-2.34395">
        <ele>28.39999961853</ele>
        <time>2022-04-21T09:37:56.000Z</time>
      </trkpt>
      <trkpt lat="47.35543" lon="-2.34405">
        <ele>28.39999961853</ele>
        <time>2022-04-21T09:37:57.000Z</time>
      </trkpt>
      <trkpt lat="47.35531" lon="-2.34473">
        <ele>27.799999237061</ele>
        <time>2022-04-21T09:38:03.000Z</time>
      </trkpt>
      <trkpt lat="47.3553" lon="-2.34485">
        <ele>27.39999961853</ele>
        <time>2022-04-21T09:38:04.000Z</time>
      </trkpt>
      <trkpt lat="47.35528" lon="-2.34497">
        <ele>27</ele>
        <time>2022-04-21T09:38:05.000Z</time>
      </trkpt>
      <trkpt lat="47.35527" lon="-2.34509">
        <ele>26.60000038147</ele>
        <time>2022-04-21T09:38:06.000Z</time>
      </trkpt>
      <trkpt lat="47.35524" lon="-2.34521">
        <ele>26</ele>
        <time>2022-04-21T09:38:07.000Z</time>
      </trkpt>
      <trkpt lat="47.35519" lon="-2.34542">
        <ele>26</ele>
        <time>2022-04-21T09:38:09.000Z</time>
      </trkpt>
      <trkpt lat="47.35515" lon="-2.34553">
        <ele>25.60000038147</ele>
        <time>2022-04-21T09:38:10.000Z</time>
      </trkpt>
      <trkpt lat="47.35512" lon="-2.34563">
        <ele>25.200000762939</ele>
        <time>2022-04-21T09:38:11.000Z</time>
      </trkpt>
      <trkpt lat="47.35507" lon="-2.34572">
        <ele>24.799999237061</ele>
        <time>2022-04-21T09:38:12.000Z</time>
      </trkpt>
      <trkpt lat="47.35503" lon="-2.34581">
        <ele>24.39999961853</ele>
        <time>2022-04-21T09:38:13.000Z</time>
      </trkpt>
      <trkpt lat="47.35499" lon="-2.3459">
        <ele>24</ele>
        <time>2022-04-21T09:38:14.000Z</time>
      </trkpt>
      <trkpt lat="47.35478" lon="-2.34632">
        <ele>24</ele>
        <time>2022-04-21T09:38:19.000Z</time>
      </trkpt>
      <trkpt lat="47.35459" lon="-2.3468">
        <ele>24</ele>
        <time>2022-04-21T09:38:25.000Z</time>
      </trkpt>
      <trkpt lat="47.35453" lon="-2.34695">
        <ele>24.39999961853</ele>
        <time>2022-04-21T09:38:27.000Z</time>
      </trkpt>
      <trkpt lat="47.35449" lon="-2.34702">
        <ele>24.799999237061</ele>
        <time>2022-04-21T09:38:28.000Z</time>
      </trkpt>
      <trkpt lat="47.35444" lon="-2.34706">
        <ele>25.200000762939</ele>
        <time>2022-04-21T09:38:29.000Z</time>
      </trkpt>
      <trkpt lat="47.35439" lon="-2.34706">
        <ele>25.60000038147</ele>
        <time>2022-04-21T09:38:30.000Z</time>
      </trkpt>
      <trkpt lat="47.35435" lon="-2.34702">
        <ele>26.200000762939</ele>
        <time>2022-04-21T09:38:31.000Z</time>
      </trkpt>
      <trkpt lat="47.35425" lon="-2.34683">
        <ele>26.200000762939</ele>
        <time>2022-04-21T09:38:34.000Z</time>
      </trkpt>
      <trkpt lat="47.35422" lon="-2.34676">
        <ele>26.200000762939</ele>
        <time>2022-04-21T09:38:35.000Z</time>
      </trkpt>
      <trkpt lat="47.35411" lon="-2.34643">
        <ele>26.200000762939</ele>
        <time>2022-04-21T09:38:39.000Z</time>
      </trkpt>
      <trkpt lat="47.35391" lon="-2.34589">
        <ele>26.200000762939</ele>
        <time>2022-04-21T09:38:45.000Z</time>
      </trkpt>
      <trkpt lat="47.35364" lon="-2.34531">
        <ele>26.200000762939</ele>
        <time>2022-04-21T09:38:52.000Z</time>
      </trkpt>
      <trkpt lat="47.35338" lon="-2.34497">
        <ele>26.200000762939</ele>
        <time>2022-04-21T09:38:57.000Z</time>
      </trkpt>
      <trkpt lat="47.35308" lon="-2.34476">
        <ele>26.200000762939</ele>
        <time>2022-04-21T09:39:02.000Z</time>
      </trkpt>
      <trkpt lat="47.35294" lon="-2.34472">
        <ele>26.200000762939</ele>
        <time>2022-04-21T09:39:04.000Z</time>
      </trkpt>
      <trkpt lat="47.35281" lon="-2.34472">
        <ele>26.200000762939</ele>
        <time>2022-04-21T09:39:06.000Z</time>
      </trkpt>
      <trkpt lat="47.35252" lon="-2.34484">
        <ele>26.200000762939</ele>
        <time>2022-04-21T09:39:10.000Z</time>
      </trkpt>
      <trkpt lat="47.35213" lon="-2.345">
        <ele>26.200000762939</ele>
        <time>2022-04-21T09:39:16.000Z</time>
      </trkpt>
      <trkpt lat="47.35175" lon="-2.34516">
        <ele>26.200000762939</ele>
        <time>2022-04-21T09:39:22.000Z</time>
      </trkpt>
      <trkpt lat="47.35169" lon="-2.34519">
        <ele>26.200000762939</ele>
        <time>2022-04-21T09:39:23.000Z</time>
      </trkpt>
      <trkpt lat="47.35132" lon="-2.34533">
        <ele>26.200000762939</ele>
        <time>2022-04-21T09:39:30.000Z</time>
      </trkpt>
      <trkpt lat="47.35104" lon="-2.34544">
        <ele>26.200000762939</ele>
        <time>2022-04-21T09:39:36.000Z</time>
      </trkpt>
      <trkpt lat="47.35096" lon="-2.34546">
        <ele>26.200000762939</ele>
        <time>2022-04-21T09:39:38.000Z</time>
      </trkpt>
      <trkpt lat="47.35086" lon="-2.34544">
        <ele>26.200000762939</ele>
        <time>2022-04-21T09:39:41.000Z</time>
      </trkpt>
      <trkpt lat="47.3508" lon="-2.34536">
        <ele>26.200000762939</ele>
        <time>2022-04-21T09:39:45.000Z</time>
      </trkpt>
      <trkpt lat="47.3508" lon="-2.34534">
        <ele>26.200000762939</ele>
        <time>2022-04-21T09:39:46.000Z</time>
      </trkpt>
      <trkpt lat="47.35074" lon="-2.34516">
        <ele>26.200000762939</ele>
        <time>2022-04-21T09:39:51.000Z</time>
      </trkpt>
      <trkpt lat="47.35069" lon="-2.34504">
        <ele>25.60000038147</ele>
        <time>2022-04-21T09:39:55.000Z</time>
      </trkpt>
      <trkpt lat="47.35068" lon="-2.34503">
        <ele>25.200000762939</ele>
        <time>2022-04-21T09:39:56.000Z</time>
      </trkpt>
      <trkpt lat="47.35067" lon="-2.34502">
        <ele>24.799999237061</ele>
        <time>2022-04-21T09:39:57.000Z</time>
      </trkpt>
      <trkpt lat="47.35066" lon="-2.34501">
        <ele>24.39999961853</ele>
        <time>2022-04-21T09:39:58.000Z</time>
      </trkpt>
      <trkpt lat="47.35065" lon="-2.34499">
        <ele>24</ele>
        <time>2022-04-21T09:39:59.000Z</time>
      </trkpt>
      <trkpt lat="47.35065" lon="-2.34498">
        <ele>24</ele>
        <time>2022-04-21T09:40:01.000Z</time>
      </trkpt>
      <trkpt lat="47.35049" lon="-2.34495">
        <ele>22</ele>
        <time>2022-04-21T09:41:28.000Z</time>
      </trkpt>
      <trkpt lat="47.35043" lon="-2.34484">
        <ele>22</ele>
        <time>2022-04-21T09:41:33.000Z</time>
      </trkpt>
      <trkpt lat="47.35038" lon="-2.34478">
        <ele>22</ele>
        <time>2022-04-21T09:41:35.000Z</time>
      </trkpt>
      <trkpt lat="47.35033" lon="-2.34475">
        <ele>22</ele>
        <time>2022-04-21T09:41:37.000Z</time>
      </trkpt>
      <trkpt lat="47.35023" lon="-2.3447">
        <ele>22</ele>
        <time>2022-04-21T09:41:42.000Z</time>
      </trkpt>
      <trkpt lat="47.3502" lon="-2.34468">
        <ele>22.39999961853</ele>
        <time>2022-04-21T09:41:44.000Z</time>
      </trkpt>
      <trkpt lat="47.35017" lon="-2.34466">
        <ele>22.799999237061</ele>
        <time>2022-04-21T09:41:45.000Z</time>
      </trkpt>
      <trkpt lat="47.35015" lon="-2.34464">
        <ele>23.39999961853</ele>
        <time>2022-04-21T09:41:46.000Z</time>
      </trkpt>
      <trkpt lat="47.35013" lon="-2.34462">
        <ele>23.799999237061</ele>
        <time>2022-04-21T09:41:47.000Z</time>
      </trkpt>
      <trkpt lat="47.35012" lon="-2.34459">
        <ele>24.200000762939</ele>
        <time>2022-04-21T09:41:48.000Z</time>
      </trkpt>
      <trkpt lat="47.35007" lon="-2.34445">
        <ele>24.200000762939</ele>
        <time>2022-04-21T09:41:53.000Z</time>
      </trkpt>
      <trkpt lat="47.35006" lon="-2.34442">
        <ele>24.60000038147</ele>
        <time>2022-04-21T09:41:54.000Z</time>
      </trkpt>
      <trkpt lat="47.35006" lon="-2.34438">
        <ele>25</ele>
        <time>2022-04-21T09:41:55.000Z</time>
      </trkpt>
      <trkpt lat="47.35005" lon="-2.34435">
        <ele>25.39999961853</ele>
        <time>2022-04-21T09:41:56.000Z</time>
      </trkpt>
      <trkpt lat="47.35004" lon="-2.34432">
        <ele>26</ele>
        <time>2022-04-21T09:41:57.000Z</time>
      </trkpt>
      <trkpt lat="47.35003" lon="-2.34428">
        <ele>26.39999961853</ele>
        <time>2022-04-21T09:41:58.000Z</time>
      </trkpt>
      <trkpt lat="47.35001" lon="-2.34421">
        <ele>26.39999961853</ele>
        <time>2022-04-21T09:42:00.000Z</time>
      </trkpt>
      <trkpt lat="47.34996" lon="-2.34398">
        <ele>26.799999237061</ele>
        <time>2022-04-21T09:42:07.000Z</time>
      </trkpt>
      <trkpt lat="47.34995" lon="-2.34394">
        <ele>27.200000762939</ele>
        <time>2022-04-21T09:42:08.000Z</time>
      </trkpt>
      <trkpt lat="47.34993" lon="-2.34391">
        <ele>27.60000038147</ele>
        <time>2022-04-21T09:42:09.000Z</time>
      </trkpt>
      <trkpt lat="47.34992" lon="-2.34387">
        <ele>28</ele>
        <time>2022-04-21T09:42:10.000Z</time>
      </trkpt>
      <trkpt lat="47.3499" lon="-2.34383">
        <ele>28.39999961853</ele>
        <time>2022-04-21T09:42:11.000Z</time>
      </trkpt>
      <trkpt lat="47.34988" lon="-2.34378">
        <ele>28.39999961853</ele>
        <time>2022-04-21T09:42:12.000Z</time>
      </trkpt>
      <trkpt lat="47.34977" lon="-2.34362">
        <ele>28.39999961853</ele>
        <time>2022-04-21T09:42:17.000Z</time>
      </trkpt>
      <trkpt lat="47.34968" lon="-2.34345">
        <ele>28.799999237061</ele>
        <time>2022-04-21T09:42:22.000Z</time>
      </trkpt>
      <trkpt lat="47.34966" lon="-2.34342">
        <ele>29.200000762939</ele>
        <time>2022-04-21T09:42:23.000Z</time>
      </trkpt>
      <trkpt lat="47.34965" lon="-2.34338">
        <ele>29.60000038147</ele>
        <time>2022-04-21T09:42:24.000Z</time>
      </trkpt>
      <trkpt lat="47.34963" lon="-2.34335">
        <ele>30</ele>
        <time>2022-04-21T09:42:25.000Z</time>
      </trkpt>
      <trkpt lat="47.34962" lon="-2.34332">
        <ele>30.39999961853</ele>
        <time>2022-04-21T09:42:26.000Z</time>
      </trkpt>
      <trkpt lat="47.34955" lon="-2.34316">
        <ele>31</ele>
        <time>2022-04-21T09:42:31.000Z</time>
      </trkpt>
      <trkpt lat="47.34954" lon="-2.34314">
        <ele>31.39999961853</ele>
        <time>2022-04-21T09:42:32.000Z</time>
      </trkpt>
      <trkpt lat="47.34953" lon="-2.3431">
        <ele>31.799999237061</ele>
        <time>2022-04-21T09:42:33.000Z</time>
      </trkpt>
      <trkpt lat="47.34951" lon="-2.34307">
        <ele>32.200000762939</ele>
        <time>2022-04-21T09:42:34.000Z</time>
      </trkpt>
      <trkpt lat="47.3495" lon="-2.34303">
        <ele>32.599998474121</ele>
        <time>2022-04-21T09:42:35.000Z</time>
      </trkpt>
      <trkpt lat="47.34944" lon="-2.34281">
        <ele>33</ele>
        <time>2022-04-21T09:42:41.000Z</time>
      </trkpt>
      <trkpt lat="47.34943" lon="-2.34277">
        <ele>33.599998474121</ele>
        <time>2022-04-21T09:42:42.000Z</time>
      </trkpt>
      <trkpt lat="47.34941" lon="-2.34274">
        <ele>34</ele>
        <time>2022-04-21T09:42:43.000Z</time>
      </trkpt>
      <trkpt lat="47.34941" lon="-2.34272">
        <ele>34.400001525879</ele>
        <time>2022-04-21T09:42:44.000Z</time>
      </trkpt>
      <trkpt lat="47.34939" lon="-2.34269">
        <ele>34.799999237061</ele>
        <time>2022-04-21T09:42:45.000Z</time>
      </trkpt>
      <trkpt lat="47.34935" lon="-2.34256">
        <ele>34.799999237061</ele>
        <time>2022-04-21T09:42:49.000Z</time>
      </trkpt>
      <trkpt lat="47.3493" lon="-2.34247">
        <ele>35.200000762939</ele>
        <time>2022-04-21T09:42:52.000Z</time>
      </trkpt>
      <trkpt lat="47.34929" lon="-2.34244">
        <ele>36</ele>
        <time>2022-04-21T09:42:53.000Z</time>
      </trkpt>
      <trkpt lat="47.34927" lon="-2.34241">
        <ele>36.400001525879</ele>
        <time>2022-04-21T09:42:54.000Z</time>
      </trkpt>
      <trkpt lat="47.34926" lon="-2.3424">
        <ele>36.799999237061</ele>
        <time>2022-04-21T09:42:55.000Z</time>
      </trkpt>
      <trkpt lat="47.34921" lon="-2.34231">
        <ele>36.799999237061</ele>
        <time>2022-04-21T09:43:00.000Z</time>
      </trkpt>
      <trkpt lat="47.34919" lon="-2.34225">
        <ele>36.799999237061</ele>
        <time>2022-04-21T09:43:03.000Z</time>
      </trkpt>
      <trkpt lat="47.34918" lon="-2.34223">
        <ele>37.200000762939</ele>
        <time>2022-04-21T09:43:04.000Z</time>
      </trkpt>
      <trkpt lat="47.34917" lon="-2.34221">
        <ele>37.799999237061</ele>
        <time>2022-04-21T09:43:05.000Z</time>
      </trkpt>
      <trkpt lat="47.34915" lon="-2.34219">
        <ele>38.200000762939</ele>
        <time>2022-04-21T09:43:06.000Z</time>
      </trkpt>
      <trkpt lat="47.34914" lon="-2.34216">
        <ele>38.599998474121</ele>
        <time>2022-04-21T09:43:07.000Z</time>
      </trkpt>
      <trkpt lat="47.34913" lon="-2.34214">
        <ele>39</ele>
        <time>2022-04-21T09:43:08.000Z</time>
      </trkpt>
      <trkpt lat="47.34906" lon="-2.34209">
        <ele>39</ele>
        <time>2022-04-21T09:43:12.000Z</time>
      </trkpt>
      <trkpt lat="47.34896" lon="-2.34207">
        <ele>39.400001525879</ele>
        <time>2022-04-21T09:43:18.000Z</time>
      </trkpt>
      <trkpt lat="47.34894" lon="-2.34206">
        <ele>39.799999237061</ele>
        <time>2022-04-21T09:43:19.000Z</time>
      </trkpt>
      <trkpt lat="47.34892" lon="-2.34207">
        <ele>40.200000762939</ele>
        <time>2022-04-21T09:43:20.000Z</time>
      </trkpt>
      <trkpt lat="47.3489" lon="-2.34206">
        <ele>40.599998474121</ele>
        <time>2022-04-21T09:43:21.000Z</time>
      </trkpt>
      <trkpt lat="47.34889" lon="-2.34205">
        <ele>41</ele>
        <time>2022-04-21T09:43:22.000Z</time>
      </trkpt>
      <trkpt lat="47.34886" lon="-2.342">
        <ele>41</ele>
        <time>2022-04-21T09:43:25.000Z</time>
      </trkpt>
      <trkpt lat="47.34881" lon="-2.34196">
        <ele>41</ele>
        <time>2022-04-21T09:43:29.000Z</time>
      </trkpt>
      <trkpt lat="47.34878" lon="-2.34199">
        <ele>41</ele>
        <time>2022-04-21T09:43:31.000Z</time>
      </trkpt>
      <trkpt lat="47.34877" lon="-2.34209">
        <ele>41</ele>
        <time>2022-04-21T09:43:35.000Z</time>
      </trkpt>
      <trkpt lat="47.34876" lon="-2.34217">
        <ele>41</ele>
        <time>2022-04-21T09:43:37.000Z</time>
      </trkpt>
      <trkpt lat="47.34874" lon="-2.34224">
        <ele>41</ele>
        <time>2022-04-21T09:43:39.000Z</time>
      </trkpt>
      <trkpt lat="47.3487" lon="-2.3423">
        <ele>40.599998474121</ele>
        <time>2022-04-21T09:43:43.000Z</time>
      </trkpt>
      <trkpt lat="47.34869" lon="-2.34231">
        <ele>40.200000762939</ele>
        <time>2022-04-21T09:43:44.000Z</time>
      </trkpt>
      <trkpt lat="47.34868" lon="-2.34233">
        <ele>39.599998474121</ele>
        <time>2022-04-21T09:43:45.000Z</time>
      </trkpt>
      <trkpt lat="47.34867" lon="-2.34234">
        <ele>39.200000762939</ele>
        <time>2022-04-21T09:43:46.000Z</time>
      </trkpt>
      <trkpt lat="47.34865" lon="-2.34236">
        <ele>38.799999237061</ele>
        <time>2022-04-21T09:43:47.000Z</time>
      </trkpt>
      <trkpt lat="47.34862" lon="-2.34242">
        <ele>38.799999237061</ele>
        <time>2022-04-21T09:43:50.000Z</time>
      </trkpt>
      <trkpt lat="47.34861" lon="-2.34246">
        <ele>38.799999237061</ele>
        <time>2022-04-21T09:43:52.000Z</time>
      </trkpt>
      <trkpt lat="47.3486" lon="-2.34253">
        <ele>38.400001525879</ele>
        <time>2022-04-21T09:43:54.000Z</time>
      </trkpt>
      <trkpt lat="47.34858" lon="-2.34257">
        <ele>38</ele>
        <time>2022-04-21T09:43:55.000Z</time>
      </trkpt>
      <trkpt lat="47.34856" lon="-2.34261">
        <ele>37.400001525879</ele>
        <time>2022-04-21T09:43:56.000Z</time>
      </trkpt>
      <trkpt lat="47.34854" lon="-2.34266">
        <ele>37</ele>
        <time>2022-04-21T09:43:57.000Z</time>
      </trkpt>
      <trkpt lat="47.34854" lon="-2.34272">
        <ele>36.599998474121</ele>
        <time>2022-04-21T09:43:58.000Z</time>
      </trkpt>
      <trkpt lat="47.34854" lon="-2.34282">
        <ele>36.599998474121</ele>
        <time>2022-04-21T09:44:00.000Z</time>
      </trkpt>
      <trkpt lat="47.34855" lon="-2.34303">
        <ele>36.200000762939</ele>
        <time>2022-04-21T09:44:04.000Z</time>
      </trkpt>
      <trkpt lat="47.34854" lon="-2.3431">
        <ele>35.799999237061</ele>
        <time>2022-04-21T09:44:05.000Z</time>
      </trkpt>
      <trkpt lat="47.34854" lon="-2.34314">
        <ele>35.400001525879</ele>
        <time>2022-04-21T09:44:06.000Z</time>
      </trkpt>
      <trkpt lat="47.34854" lon="-2.3432">
        <ele>34.599998474121</ele>
        <time>2022-04-21T09:44:07.000Z</time>
      </trkpt>
      <trkpt lat="47.34856" lon="-2.34347">
        <ele>34.599998474121</ele>
        <time>2022-04-21T09:44:12.000Z</time>
      </trkpt>
      <trkpt lat="47.34857" lon="-2.34364">
        <ele>34.599998474121</ele>
        <time>2022-04-21T09:44:16.000Z</time>
      </trkpt>
      <trkpt lat="47.34854" lon="-2.34366">
        <ele>34.599998474121</ele>
        <time>2022-04-21T09:44:17.000Z</time>
      </trkpt>
      <trkpt lat="47.34843" lon="-2.3437">
        <ele>34.599998474121</ele>
        <time>2022-04-21T09:44:20.000Z</time>
      </trkpt>
      <trkpt lat="47.3484" lon="-2.34371">
        <ele>34.599998474121</ele>
        <time>2022-04-21T09:44:21.000Z</time>
      </trkpt>
      <trkpt lat="47.34822" lon="-2.34378">
        <ele>34.599998474121</ele>
        <time>2022-04-21T09:44:26.000Z</time>
      </trkpt>
      <trkpt lat="47.34794" lon="-2.34383">
        <ele>34.200000762939</ele>
        <time>2022-04-21T09:44:33.000Z</time>
      </trkpt>
      <trkpt lat="47.3479" lon="-2.34385">
        <ele>33.799999237061</ele>
        <time>2022-04-21T09:44:34.000Z</time>
      </trkpt>
      <trkpt lat="47.34786" lon="-2.34386">
        <ele>33.400001525879</ele>
        <time>2022-04-21T09:44:35.000Z</time>
      </trkpt>
      <trkpt lat="47.34783" lon="-2.34388">
        <ele>33</ele>
        <time>2022-04-21T09:44:36.000Z</time>
      </trkpt>
      <trkpt lat="47.34781" lon="-2.34393">
        <ele>32.599998474121</ele>
        <time>2022-04-21T09:44:37.000Z</time>
      </trkpt>
      <trkpt lat="47.3478" lon="-2.34397">
        <ele>32.599998474121</ele>
        <time>2022-04-21T09:44:38.000Z</time>
      </trkpt>
      <trkpt lat="47.34767" lon="-2.34421">
        <ele>32.599998474121</ele>
        <time>2022-04-21T09:44:44.000Z</time>
      </trkpt>
      <trkpt lat="47.34756" lon="-2.34444">
        <ele>32.200000762939</ele>
        <time>2022-04-21T09:44:49.000Z</time>
      </trkpt>
      <trkpt lat="47.34754" lon="-2.34449">
        <ele>31.799999237061</ele>
        <time>2022-04-21T09:44:50.000Z</time>
      </trkpt>
      <trkpt lat="47.34752" lon="-2.34455">
        <ele>31.39999961853</ele>
        <time>2022-04-21T09:44:51.000Z</time>
      </trkpt>
      <trkpt lat="47.3475" lon="-2.3446">
        <ele>31</ele>
        <time>2022-04-21T09:44:52.000Z</time>
      </trkpt>
      <trkpt lat="47.34749" lon="-2.34465">
        <ele>30.39999961853</ele>
        <time>2022-04-21T09:44:53.000Z</time>
      </trkpt>
      <trkpt lat="47.34742" lon="-2.34478">
        <ele>30.39999961853</ele>
        <time>2022-04-21T09:44:56.000Z</time>
      </trkpt>
      <trkpt lat="47.34727" lon="-2.34487">
        <ele>30.39999961853</ele>
        <time>2022-04-21T09:45:00.000Z</time>
      </trkpt>
      <trkpt lat="47.34707" lon="-2.34497">
        <ele>30.39999961853</ele>
        <time>2022-04-21T09:45:06.000Z</time>
      </trkpt>
      <trkpt lat="47.3469" lon="-2.34505">
        <ele>30.39999961853</ele>
        <time>2022-04-21T09:45:11.000Z</time>
      </trkpt>
      <trkpt lat="47.34669" lon="-2.34513">
        <ele>30.39999961853</ele>
        <time>2022-04-21T09:45:17.000Z</time>
      </trkpt>
      <trkpt lat="47.34649" lon="-2.34519">
        <ele>30.39999961853</ele>
        <time>2022-04-21T09:45:23.000Z</time>
      </trkpt>
      <trkpt lat="47.34639" lon="-2.34523">
        <ele>31</ele>
        <time>2022-04-21T09:45:26.000Z</time>
      </trkpt>
      <trkpt lat="47.34636" lon="-2.34525">
        <ele>31.39999961853</ele>
        <time>2022-04-21T09:45:27.000Z</time>
      </trkpt>
      <trkpt lat="47.34632" lon="-2.34527">
        <ele>31.799999237061</ele>
        <time>2022-04-21T09:45:28.000Z</time>
      </trkpt>
      <trkpt lat="47.34629" lon="-2.34528">
        <ele>32.200000762939</ele>
        <time>2022-04-21T09:45:29.000Z</time>
      </trkpt>
      <trkpt lat="47.34626" lon="-2.34528">
        <ele>32.599998474121</ele>
        <time>2022-04-21T09:45:30.000Z</time>
      </trkpt>
      <trkpt lat="47.34622" lon="-2.34528">
        <ele>32.599998474121</ele>
        <time>2022-04-21T09:45:31.000Z</time>
      </trkpt>
      <trkpt lat="47.3461" lon="-2.34538">
        <ele>32.599998474121</ele>
        <time>2022-04-21T09:45:36.000Z</time>
      </trkpt>
      <trkpt lat="47.34612" lon="-2.34553">
        <ele>32.599998474121</ele>
        <time>2022-04-21T09:45:39.000Z</time>
      </trkpt>
      <trkpt lat="47.34614" lon="-2.34566">
        <ele>32.599998474121</ele>
        <time>2022-04-21T09:45:41.000Z</time>
      </trkpt>
      <trkpt lat="47.34619" lon="-2.3459">
        <ele>32.599998474121</ele>
        <time>2022-04-21T09:45:44.000Z</time>
      </trkpt>
      <trkpt lat="47.34628" lon="-2.34645">
        <ele>32.599998474121</ele>
        <time>2022-04-21T09:45:50.000Z</time>
      </trkpt>
      <trkpt lat="47.34631" lon="-2.34655">
        <ele>32</ele>
        <time>2022-04-21T09:45:51.000Z</time>
      </trkpt>
      <trkpt lat="47.34633" lon="-2.34667">
        <ele>31.60000038147</ele>
        <time>2022-04-21T09:45:52.000Z</time>
      </trkpt>
      <trkpt lat="47.34635" lon="-2.34678">
        <ele>31.200000762939</ele>
        <time>2022-04-21T09:45:53.000Z</time>
      </trkpt>
      <trkpt lat="47.34637" lon="-2.34689">
        <ele>30.60000038147</ele>
        <time>2022-04-21T09:45:54.000Z</time>
      </trkpt>
      <trkpt lat="47.34639" lon="-2.34701">
        <ele>30.200000762939</ele>
        <time>2022-04-21T09:45:55.000Z</time>
      </trkpt>
      <trkpt lat="47.3464" lon="-2.34712">
        <ele>30.200000762939</ele>
        <time>2022-04-21T09:45:56.000Z</time>
      </trkpt>
      <trkpt lat="47.3464" lon="-2.34733">
        <ele>30.200000762939</ele>
        <time>2022-04-21T09:45:58.000Z</time>
      </trkpt>
      <trkpt lat="47.34637" lon="-2.34754">
        <ele>30.200000762939</ele>
        <time>2022-04-21T09:46:00.000Z</time>
      </trkpt>
      <trkpt lat="47.34633" lon="-2.34774">
        <ele>30.200000762939</ele>
        <time>2022-04-21T09:46:02.000Z</time>
      </trkpt>
      <trkpt lat="47.34623" lon="-2.348">
        <ele>30.200000762939</ele>
        <time>2022-04-21T09:46:05.000Z</time>
      </trkpt>
      <trkpt lat="47.34619" lon="-2.34809">
        <ele>30.200000762939</ele>
        <time>2022-04-21T09:46:06.000Z</time>
      </trkpt>
      <trkpt lat="47.34594" lon="-2.34864">
        <ele>30.200000762939</ele>
        <time>2022-04-21T09:46:13.000Z</time>
      </trkpt>
      <trkpt lat="47.34579" lon="-2.34893">
        <ele>29.799999237061</ele>
        <time>2022-04-21T09:46:18.000Z</time>
      </trkpt>
      <trkpt lat="47.34578" lon="-2.34897">
        <ele>29.39999961853</ele>
        <time>2022-04-21T09:46:19.000Z</time>
      </trkpt>
      <trkpt lat="47.34576" lon="-2.349">
        <ele>29</ele>
        <time>2022-04-21T09:46:20.000Z</time>
      </trkpt>
      <trkpt lat="47.34575" lon="-2.34903">
        <ele>28.60000038147</ele>
        <time>2022-04-21T09:46:21.000Z</time>
      </trkpt>
      <trkpt lat="47.34575" lon="-2.34904">
        <ele>28.200000762939</ele>
        <time>2022-04-21T09:46:22.000Z</time>
      </trkpt>
      <trkpt lat="47.34575" lon="-2.34904">
        <ele>28.200000762939</ele>
        <time>2022-04-21T09:46:23.000Z</time>
      </trkpt>
      <trkpt lat="47.34577" lon="-2.34907">
        <ele>28.200000762939</ele>
        <time>2022-04-21T09:46:45.000Z</time>
      </trkpt>
      <trkpt lat="47.3458" lon="-2.34911">
        <ele>28.200000762939</ele>
        <time>2022-04-21T09:46:47.000Z</time>
      </trkpt>
      <trkpt lat="47.34584" lon="-2.34919">
        <ele>28.200000762939</ele>
        <time>2022-04-21T09:46:50.000Z</time>
      </trkpt>
      <trkpt lat="47.34587" lon="-2.34927">
        <ele>28.200000762939</ele>
        <time>2022-04-21T09:46:52.000Z</time>
      </trkpt>
      <trkpt lat="47.34592" lon="-2.34941">
        <ele>28.200000762939</ele>
        <time>2022-04-21T09:46:55.000Z</time>
      </trkpt>
      <trkpt lat="47.34595" lon="-2.34945">
        <ele>28.200000762939</ele>
        <time>2022-04-21T09:46:56.000Z</time>
      </trkpt>
      <trkpt lat="47.34607" lon="-2.34966">
        <ele>28.200000762939</ele>
        <time>2022-04-21T09:47:00.000Z</time>
      </trkpt>
      <trkpt lat="47.34614" lon="-2.34976">
        <ele>28.200000762939</ele>
        <time>2022-04-21T09:47:02.000Z</time>
      </trkpt>
      <trkpt lat="47.34633" lon="-2.35012">
        <ele>28.200000762939</ele>
        <time>2022-04-21T09:47:08.000Z</time>
      </trkpt>
      <trkpt lat="47.34654" lon="-2.35029">
        <ele>28.200000762939</ele>
        <time>2022-04-21T09:47:13.000Z</time>
      </trkpt>
      <trkpt lat="47.34657" lon="-2.3503">
        <ele>28.200000762939</ele>
        <time>2022-04-21T09:47:14.000Z</time>
      </trkpt>
      <trkpt lat="47.34669" lon="-2.35031">
        <ele>28.200000762939</ele>
        <time>2022-04-21T09:47:18.000Z</time>
      </trkpt>
      <trkpt lat="47.34676" lon="-2.35037">
        <ele>28.200000762939</ele>
        <time>2022-04-21T09:47:20.000Z</time>
      </trkpt>
      <trkpt lat="47.34682" lon="-2.35043">
        <ele>28.200000762939</ele>
        <time>2022-04-21T09:47:22.000Z</time>
      </trkpt>
      <trkpt lat="47.34708" lon="-2.3507">
        <ele>28.200000762939</ele>
        <time>2022-04-21T09:47:29.000Z</time>
      </trkpt>
      <trkpt lat="47.3472" lon="-2.35084">
        <ele>28.200000762939</ele>
        <time>2022-04-21T09:47:32.000Z</time>
      </trkpt>
      <trkpt lat="47.34725" lon="-2.35098">
        <ele>28.200000762939</ele>
        <time>2022-04-21T09:47:34.000Z</time>
      </trkpt>
      <trkpt lat="47.34739" lon="-2.35124">
        <ele>28.200000762939</ele>
        <time>2022-04-21T09:47:39.000Z</time>
      </trkpt>
      <trkpt lat="47.34749" lon="-2.35146">
        <ele>28.200000762939</ele>
        <time>2022-04-21T09:47:43.000Z</time>
      </trkpt>
      <trkpt lat="47.34754" lon="-2.35164">
        <ele>28.200000762939</ele>
        <time>2022-04-21T09:47:45.000Z</time>
      </trkpt>
      <trkpt lat="47.34755" lon="-2.35178">
        <ele>28.200000762939</ele>
        <time>2022-04-21T09:47:47.000Z</time>
      </trkpt>
      <trkpt lat="47.34756" lon="-2.35212">
        <ele>28.200000762939</ele>
        <time>2022-04-21T09:47:53.000Z</time>
      </trkpt>
      <trkpt lat="47.34752" lon="-2.35241">
        <ele>28.200000762939</ele>
        <time>2022-04-21T09:47:58.000Z</time>
      </trkpt>
      <trkpt lat="47.34748" lon="-2.35276">
        <ele>28.200000762939</ele>
        <time>2022-04-21T09:48:04.000Z</time>
      </trkpt>
      <trkpt lat="47.34741" lon="-2.35291">
        <ele>28.200000762939</ele>
        <time>2022-04-21T09:48:08.000Z</time>
      </trkpt>
      <trkpt lat="47.34733" lon="-2.35306">
        <ele>28.200000762939</ele>
        <time>2022-04-21T09:48:13.000Z</time>
      </trkpt>
      <trkpt lat="47.34728" lon="-2.35325">
        <ele>28.200000762939</ele>
        <time>2022-04-21T09:48:18.000Z</time>
      </trkpt>
      <trkpt lat="47.34728" lon="-2.35342">
        <ele>28.200000762939</ele>
        <time>2022-04-21T09:48:22.000Z</time>
      </trkpt>
      <trkpt lat="47.34727" lon="-2.35345">
        <ele>28.200000762939</ele>
        <time>2022-04-21T09:48:23.000Z</time>
      </trkpt>
      <trkpt lat="47.34722" lon="-2.35354">
        <ele>28.200000762939</ele>
        <time>2022-04-21T09:48:26.000Z</time>
      </trkpt>
      <trkpt lat="47.34708" lon="-2.35376">
        <ele>28.200000762939</ele>
        <time>2022-04-21T09:48:32.000Z</time>
      </trkpt>
      <trkpt lat="47.34695" lon="-2.35391">
        <ele>28.200000762939</ele>
        <time>2022-04-21T09:48:36.000Z</time>
      </trkpt>
      <trkpt lat="47.3468" lon="-2.35395">
        <ele>28.200000762939</ele>
        <time>2022-04-21T09:48:40.000Z</time>
      </trkpt>
      <trkpt lat="47.34669" lon="-2.35401">
        <ele>28.200000762939</ele>
        <time>2022-04-21T09:48:43.000Z</time>
      </trkpt>
      <trkpt lat="47.34666" lon="-2.35402">
        <ele>28.200000762939</ele>
        <time>2022-04-21T09:48:44.000Z</time>
      </trkpt>
      <trkpt lat="47.34658" lon="-2.35404">
        <ele>28.200000762939</ele>
        <time>2022-04-21T09:48:47.000Z</time>
      </trkpt>
      <trkpt lat="47.34655" lon="-2.35405">
        <ele>28.200000762939</ele>
        <time>2022-04-21T09:48:48.000Z</time>
      </trkpt>
      <trkpt lat="47.34641" lon="-2.35399">
        <ele>28.200000762939</ele>
        <time>2022-04-21T09:48:53.000Z</time>
      </trkpt>
      <trkpt lat="47.34626" lon="-2.35387">
        <ele>28.200000762939</ele>
        <time>2022-04-21T09:48:59.000Z</time>
      </trkpt>
      <trkpt lat="47.34624" lon="-2.35389">
        <ele>28.200000762939</ele>
        <time>2022-04-21T09:49:00.000Z</time>
      </trkpt>
      <trkpt lat="47.34624" lon="-2.35389">
        <ele>28.200000762939</ele>
        <time>2022-04-21T09:49:02.000Z</time>
      </trkpt>
      <trkpt lat="47.34618" lon="-2.35391">
        <ele>28.200000762939</ele>
        <time>2022-04-21T09:52:29.000Z</time>
      </trkpt>
      <trkpt lat="47.34612" lon="-2.35389">
        <ele>28.200000762939</ele>
        <time>2022-04-21T09:52:32.000Z</time>
      </trkpt>
      <trkpt lat="47.34599" lon="-2.35386">
        <ele>28.200000762939</ele>
        <time>2022-04-21T09:52:38.000Z</time>
      </trkpt>
      <trkpt lat="47.34583" lon="-2.35378">
        <ele>28.60000038147</ele>
        <time>2022-04-21T09:52:43.000Z</time>
      </trkpt>
      <trkpt lat="47.3458" lon="-2.35376">
        <ele>29</ele>
        <time>2022-04-21T09:52:44.000Z</time>
      </trkpt>
      <trkpt lat="47.34577" lon="-2.35374">
        <ele>29.39999961853</ele>
        <time>2022-04-21T09:52:45.000Z</time>
      </trkpt>
      <trkpt lat="47.34573" lon="-2.35372">
        <ele>30.39999961853</ele>
        <time>2022-04-21T09:52:46.000Z</time>
      </trkpt>
      <trkpt lat="47.34562" lon="-2.3537">
        <ele>30.39999961853</ele>
        <time>2022-04-21T09:52:49.000Z</time>
      </trkpt>
      <trkpt lat="47.34544" lon="-2.35377">
        <ele>30.39999961853</ele>
        <time>2022-04-21T09:52:53.000Z</time>
      </trkpt>
      <trkpt lat="47.34534" lon="-2.35379">
        <ele>30.39999961853</ele>
        <time>2022-04-21T09:52:55.000Z</time>
      </trkpt>
      <trkpt lat="47.3452" lon="-2.35385">
        <ele>30.39999961853</ele>
        <time>2022-04-21T09:52:58.000Z</time>
      </trkpt>
      <trkpt lat="47.34507" lon="-2.35388">
        <ele>30.39999961853</ele>
        <time>2022-04-21T09:53:01.000Z</time>
      </trkpt>
      <trkpt lat="47.34502" lon="-2.35388">
        <ele>30.39999961853</ele>
        <time>2022-04-21T09:53:02.000Z</time>
      </trkpt>
      <trkpt lat="47.34486" lon="-2.35396">
        <ele>30.39999961853</ele>
        <time>2022-04-21T09:53:06.000Z</time>
      </trkpt>
      <trkpt lat="47.34482" lon="-2.35399">
        <ele>30.39999961853</ele>
        <time>2022-04-21T09:53:07.000Z</time>
      </trkpt>
      <trkpt lat="47.3447" lon="-2.35407">
        <ele>30.39999961853</ele>
        <time>2022-04-21T09:53:10.000Z</time>
      </trkpt>
      <trkpt lat="47.34467" lon="-2.35406">
        <ele>30</ele>
        <time>2022-04-21T09:53:11.000Z</time>
      </trkpt>
      <trkpt lat="47.34463" lon="-2.35404">
        <ele>29.60000038147</ele>
        <time>2022-04-21T09:53:12.000Z</time>
      </trkpt>
      <trkpt lat="47.34459" lon="-2.35403">
        <ele>29.200000762939</ele>
        <time>2022-04-21T09:53:13.000Z</time>
      </trkpt>
      <trkpt lat="47.34455" lon="-2.35403">
        <ele>28.799999237061</ele>
        <time>2022-04-21T09:53:14.000Z</time>
      </trkpt>
      <trkpt lat="47.34451" lon="-2.35402">
        <ele>28.39999961853</ele>
        <time>2022-04-21T09:53:15.000Z</time>
      </trkpt>
      <trkpt lat="47.34447" lon="-2.35401">
        <ele>28.39999961853</ele>
        <time>2022-04-21T09:53:16.000Z</time>
      </trkpt>
      <trkpt lat="47.34436" lon="-2.35397">
        <ele>28.39999961853</ele>
        <time>2022-04-21T09:53:19.000Z</time>
      </trkpt>
      <trkpt lat="47.34425" lon="-2.35405">
        <ele>28.39999961853</ele>
        <time>2022-04-21T09:53:23.000Z</time>
      </trkpt>
      <trkpt lat="47.34423" lon="-2.35408">
        <ele>28.39999961853</ele>
        <time>2022-04-21T09:53:24.000Z</time>
      </trkpt>
      <trkpt lat="47.34416" lon="-2.35426">
        <ele>28.39999961853</ele>
        <time>2022-04-21T09:53:27.000Z</time>
      </trkpt>
      <trkpt lat="47.34415" lon="-2.35435">
        <ele>28.39999961853</ele>
        <time>2022-04-21T09:53:28.000Z</time>
      </trkpt>
      <trkpt lat="47.34409" lon="-2.35458">
        <ele>28.39999961853</ele>
        <time>2022-04-21T09:53:31.000Z</time>
      </trkpt>
      <trkpt lat="47.34399" lon="-2.35476">
        <ele>28.39999961853</ele>
        <time>2022-04-21T09:53:34.000Z</time>
      </trkpt>
      <trkpt lat="47.34388" lon="-2.35495">
        <ele>28.39999961853</ele>
        <time>2022-04-21T09:53:37.000Z</time>
      </trkpt>
      <trkpt lat="47.34375" lon="-2.35514">
        <ele>28.39999961853</ele>
        <time>2022-04-21T09:53:40.000Z</time>
      </trkpt>
      <trkpt lat="47.34354" lon="-2.35545">
        <ele>28.39999961853</ele>
        <time>2022-04-21T09:53:45.000Z</time>
      </trkpt>
      <trkpt lat="47.34317" lon="-2.35596">
        <ele>28.39999961853</ele>
        <time>2022-04-21T09:53:53.000Z</time>
      </trkpt>
      <trkpt lat="47.3429" lon="-2.35633">
        <ele>28.39999961853</ele>
        <time>2022-04-21T09:53:59.000Z</time>
      </trkpt>
      <trkpt lat="47.34257" lon="-2.35681">
        <ele>28.39999961853</ele>
        <time>2022-04-21T09:54:07.000Z</time>
      </trkpt>
      <trkpt lat="47.34236" lon="-2.35713">
        <ele>28.39999961853</ele>
        <time>2022-04-21T09:54:13.000Z</time>
      </trkpt>
      <trkpt lat="47.3423" lon="-2.35722">
        <ele>28.39999961853</ele>
        <time>2022-04-21T09:54:15.000Z</time>
      </trkpt>
      <trkpt lat="47.34221" lon="-2.35734">
        <ele>28.39999961853</ele>
        <time>2022-04-21T09:54:18.000Z</time>
      </trkpt>
      <trkpt lat="47.34219" lon="-2.35734">
        <ele>28.39999961853</ele>
        <time>2022-04-21T09:54:19.000Z</time>
      </trkpt>
      <trkpt lat="47.34215" lon="-2.35731">
        <ele>28.39999961853</ele>
        <time>2022-04-21T09:54:21.000Z</time>
      </trkpt>
      <trkpt lat="47.34209" lon="-2.3572">
        <ele>28.39999961853</ele>
        <time>2022-04-21T09:54:24.000Z</time>
      </trkpt>
      <trkpt lat="47.34208" lon="-2.35717">
        <ele>29.200000762939</ele>
        <time>2022-04-21T09:54:25.000Z</time>
      </trkpt>
      <trkpt lat="47.34207" lon="-2.35713">
        <ele>29.799999237061</ele>
        <time>2022-04-21T09:54:26.000Z</time>
      </trkpt>
      <trkpt lat="47.34207" lon="-2.3571">
        <ele>30.200000762939</ele>
        <time>2022-04-21T09:54:27.000Z</time>
      </trkpt>
      <trkpt lat="47.34206" lon="-2.35706">
        <ele>30.799999237061</ele>
        <time>2022-04-21T09:54:28.000Z</time>
      </trkpt>
      <trkpt lat="47.34204" lon="-2.35703">
        <ele>31.39999961853</ele>
        <time>2022-04-21T09:54:29.000Z</time>
      </trkpt>
      <trkpt lat="47.34201" lon="-2.35701">
        <ele>31.799999237061</ele>
        <time>2022-04-21T09:54:30.000Z</time>
      </trkpt>
      <trkpt lat="47.34199" lon="-2.35699">
        <ele>32.400001525879</ele>
        <time>2022-04-21T09:54:31.000Z</time>
      </trkpt>
      <trkpt lat="47.34196" lon="-2.35697">
        <ele>33</ele>
        <time>2022-04-21T09:54:32.000Z</time>
      </trkpt>
      <trkpt lat="47.34192" lon="-2.35692">
        <ele>33</ele>
        <time>2022-04-21T09:54:34.000Z</time>
      </trkpt>
      <trkpt lat="47.34187" lon="-2.35684">
        <ele>33.400001525879</ele>
        <time>2022-04-21T09:54:36.000Z</time>
      </trkpt>
      <trkpt lat="47.34185" lon="-2.3568">
        <ele>33.799999237061</ele>
        <time>2022-04-21T09:54:37.000Z</time>
      </trkpt>
      <trkpt lat="47.34183" lon="-2.35677">
        <ele>34.200000762939</ele>
        <time>2022-04-21T09:54:38.000Z</time>
      </trkpt>
      <trkpt lat="47.34181" lon="-2.35673">
        <ele>34.599998474121</ele>
        <time>2022-04-21T09:54:39.000Z</time>
      </trkpt>
      <trkpt lat="47.34179" lon="-2.3567">
        <ele>35</ele>
        <time>2022-04-21T09:54:40.000Z</time>
      </trkpt>
      <trkpt lat="47.34169" lon="-2.35654">
        <ele>35.400001525879</ele>
        <time>2022-04-21T09:54:44.000Z</time>
      </trkpt>
      <trkpt lat="47.34167" lon="-2.3565">
        <ele>35.799999237061</ele>
        <time>2022-04-21T09:54:45.000Z</time>
      </trkpt>
      <trkpt lat="47.34164" lon="-2.35646">
        <ele>36.200000762939</ele>
        <time>2022-04-21T09:54:46.000Z</time>
      </trkpt>
      <trkpt lat="47.34162" lon="-2.35641">
        <ele>36.799999237061</ele>
        <time>2022-04-21T09:54:47.000Z</time>
      </trkpt>
      <trkpt lat="47.3416" lon="-2.35637">
        <ele>37.200000762939</ele>
        <time>2022-04-21T09:54:48.000Z</time>
      </trkpt>
      <trkpt lat="47.34146" lon="-2.35614">
        <ele>37.200000762939</ele>
        <time>2022-04-21T09:54:54.000Z</time>
      </trkpt>
      <trkpt lat="47.34135" lon="-2.35587">
        <ele>37.200000762939</ele>
        <time>2022-04-21T09:55:01.000Z</time>
      </trkpt>
      <trkpt lat="47.34126" lon="-2.35555">
        <ele>37.200000762939</ele>
        <time>2022-04-21T09:55:08.000Z</time>
      </trkpt>
      <trkpt lat="47.34112" lon="-2.35512">
        <ele>37.200000762939</ele>
        <time>2022-04-21T09:55:15.000Z</time>
      </trkpt>
      <trkpt lat="47.34094" lon="-2.35464">
        <ele>37.200000762939</ele>
        <time>2022-04-21T09:55:22.000Z</time>
      </trkpt>
      <trkpt lat="47.34075" lon="-2.35417">
        <ele>37.200000762939</ele>
        <time>2022-04-21T09:55:29.000Z</time>
      </trkpt>
      <trkpt lat="47.34073" lon="-2.3541">
        <ele>37.200000762939</ele>
        <time>2022-04-21T09:55:30.000Z</time>
      </trkpt>
      <trkpt lat="47.34068" lon="-2.35398">
        <ele>37.200000762939</ele>
        <time>2022-04-21T09:55:32.000Z</time>
      </trkpt>
      <trkpt lat="47.34063" lon="-2.35386">
        <ele>37.200000762939</ele>
        <time>2022-04-21T09:55:34.000Z</time>
      </trkpt>
      <trkpt lat="47.34043" lon="-2.35353">
        <ele>37.200000762939</ele>
        <time>2022-04-21T09:55:40.000Z</time>
      </trkpt>
      <trkpt lat="47.34016" lon="-2.35326">
        <ele>37.200000762939</ele>
        <time>2022-04-21T09:55:46.000Z</time>
      </trkpt>
      <trkpt lat="47.34001" lon="-2.35312">
        <ele>37.599998474121</ele>
        <time>2022-04-21T09:55:49.000Z</time>
      </trkpt>
      <trkpt lat="47.33997" lon="-2.35307">
        <ele>38</ele>
        <time>2022-04-21T09:55:50.000Z</time>
      </trkpt>
      <trkpt lat="47.33992" lon="-2.35302">
        <ele>38.400001525879</ele>
        <time>2022-04-21T09:55:51.000Z</time>
      </trkpt>
      <trkpt lat="47.33987" lon="-2.35297">
        <ele>38.799999237061</ele>
        <time>2022-04-21T09:55:52.000Z</time>
      </trkpt>
      <trkpt lat="47.33983" lon="-2.35292">
        <ele>39.200000762939</ele>
        <time>2022-04-21T09:55:53.000Z</time>
      </trkpt>
      <trkpt lat="47.33979" lon="-2.35287">
        <ele>39.200000762939</ele>
        <time>2022-04-21T09:55:54.000Z</time>
      </trkpt>
      <trkpt lat="47.33958" lon="-2.35263">
        <ele>39.200000762939</ele>
        <time>2022-04-21T09:55:59.000Z</time>
      </trkpt>
      <trkpt lat="47.33955" lon="-2.35258">
        <ele>39.799999237061</ele>
        <time>2022-04-21T09:56:00.000Z</time>
      </trkpt>
      <trkpt lat="47.33952" lon="-2.35252">
        <ele>40.200000762939</ele>
        <time>2022-04-21T09:56:01.000Z</time>
      </trkpt>
      <trkpt lat="47.3395" lon="-2.35246">
        <ele>40.599998474121</ele>
        <time>2022-04-21T09:56:02.000Z</time>
      </trkpt>
      <trkpt lat="47.33948" lon="-2.3524">
        <ele>41.599998474121</ele>
        <time>2022-04-21T09:56:03.000Z</time>
      </trkpt>
      <trkpt lat="47.33946" lon="-2.35234">
        <ele>41.599998474121</ele>
        <time>2022-04-21T09:56:04.000Z</time>
      </trkpt>
      <trkpt lat="47.33942" lon="-2.35222">
        <ele>41.599998474121</ele>
        <time>2022-04-21T09:56:06.000Z</time>
      </trkpt>
      <trkpt lat="47.33933" lon="-2.35205">
        <ele>41.599998474121</ele>
        <time>2022-04-21T09:56:09.000Z</time>
      </trkpt>
      <trkpt lat="47.33911" lon="-2.35178">
        <ele>41.599998474121</ele>
        <time>2022-04-21T09:56:15.000Z</time>
      </trkpt>
      <trkpt lat="47.33883" lon="-2.35152">
        <ele>42</ele>
        <time>2022-04-21T09:56:21.000Z</time>
      </trkpt>
      <trkpt lat="47.33877" lon="-2.35148">
        <ele>42.400001525879</ele>
        <time>2022-04-21T09:56:22.000Z</time>
      </trkpt>
      <trkpt lat="47.33872" lon="-2.35144">
        <ele>42.799999237061</ele>
        <time>2022-04-21T09:56:23.000Z</time>
      </trkpt>
      <trkpt lat="47.33867" lon="-2.35141">
        <ele>43.200000762939</ele>
        <time>2022-04-21T09:56:24.000Z</time>
      </trkpt>
      <trkpt lat="47.33861" lon="-2.35136">
        <ele>43.599998474121</ele>
        <time>2022-04-21T09:56:25.000Z</time>
      </trkpt>
      <trkpt lat="47.33839" lon="-2.3512">
        <ele>43.599998474121</ele>
        <time>2022-04-21T09:56:29.000Z</time>
      </trkpt>
      <trkpt lat="47.33797" lon="-2.35096">
        <ele>43.599998474121</ele>
        <time>2022-04-21T09:56:36.000Z</time>
      </trkpt>
      <trkpt lat="47.33785" lon="-2.35088">
        <ele>43.200000762939</ele>
        <time>2022-04-21T09:56:38.000Z</time>
      </trkpt>
      <trkpt lat="47.3378" lon="-2.35085">
        <ele>42.799999237061</ele>
        <time>2022-04-21T09:56:39.000Z</time>
      </trkpt>
      <trkpt lat="47.33774" lon="-2.35082">
        <ele>42.200000762939</ele>
        <time>2022-04-21T09:56:40.000Z</time>
      </trkpt>
      <trkpt lat="47.33768" lon="-2.35078">
        <ele>41.799999237061</ele>
        <time>2022-04-21T09:56:41.000Z</time>
      </trkpt>
      <trkpt lat="47.33762" lon="-2.35074">
        <ele>41.400001525879</ele>
        <time>2022-04-21T09:56:42.000Z</time>
      </trkpt>
      <trkpt lat="47.33746" lon="-2.35061">
        <ele>41.400001525879</ele>
        <time>2022-04-21T09:56:45.000Z</time>
      </trkpt>
      <trkpt lat="47.33741" lon="-2.35056">
        <ele>41.400001525879</ele>
        <time>2022-04-21T09:56:46.000Z</time>
      </trkpt>
      <trkpt lat="47.33713" lon="-2.35017">
        <ele>41.400001525879</ele>
        <time>2022-04-21T09:56:52.000Z</time>
      </trkpt>
      <trkpt lat="47.33677" lon="-2.3496">
        <ele>41.400001525879</ele>
        <time>2022-04-21T09:57:00.000Z</time>
      </trkpt>
      <trkpt lat="47.33651" lon="-2.34921">
        <ele>41.400001525879</ele>
        <time>2022-04-21T09:57:06.000Z</time>
      </trkpt>
      <trkpt lat="47.33608" lon="-2.34866">
        <ele>41.400001525879</ele>
        <time>2022-04-21T09:57:16.000Z</time>
      </trkpt>
      <trkpt lat="47.33572" lon="-2.34823">
        <ele>41.799999237061</ele>
        <time>2022-04-21T09:57:24.000Z</time>
      </trkpt>
      <trkpt lat="47.33567" lon="-2.34818">
        <ele>42.200000762939</ele>
        <time>2022-04-21T09:57:25.000Z</time>
      </trkpt>
      <trkpt lat="47.33563" lon="-2.34813">
        <ele>42.599998474121</ele>
        <time>2022-04-21T09:57:26.000Z</time>
      </trkpt>
      <trkpt lat="47.33558" lon="-2.34808">
        <ele>43</ele>
        <time>2022-04-21T09:57:27.000Z</time>
      </trkpt>
      <trkpt lat="47.33554" lon="-2.34803">
        <ele>43.400001525879</ele>
        <time>2022-04-21T09:57:28.000Z</time>
      </trkpt>
      <trkpt lat="47.33541" lon="-2.34786">
        <ele>43.400001525879</ele>
        <time>2022-04-21T09:57:31.000Z</time>
      </trkpt>
      <trkpt lat="47.33508" lon="-2.3474">
        <ele>43.400001525879</ele>
        <time>2022-04-21T09:57:38.000Z</time>
      </trkpt>
      <trkpt lat="47.33464" lon="-2.34677">
        <ele>43.400001525879</ele>
        <time>2022-04-21T09:57:46.000Z</time>
      </trkpt>
      <trkpt lat="47.33439" lon="-2.34633">
        <ele>43</ele>
        <time>2022-04-21T09:57:51.000Z</time>
      </trkpt>
      <trkpt lat="47.33435" lon="-2.34625">
        <ele>42.599998474121</ele>
        <time>2022-04-21T09:57:52.000Z</time>
      </trkpt>
      <trkpt lat="47.3343" lon="-2.34616">
        <ele>42.200000762939</ele>
        <time>2022-04-21T09:57:53.000Z</time>
      </trkpt>
      <trkpt lat="47.33426" lon="-2.34609">
        <ele>41.799999237061</ele>
        <time>2022-04-21T09:57:54.000Z</time>
      </trkpt>
      <trkpt lat="47.33422" lon="-2.34601">
        <ele>41.400001525879</ele>
        <time>2022-04-21T09:57:55.000Z</time>
      </trkpt>
      <trkpt lat="47.33417" lon="-2.34592">
        <ele>41.400001525879</ele>
        <time>2022-04-21T09:57:56.000Z</time>
      </trkpt>
      <trkpt lat="47.33402" lon="-2.34566">
        <ele>41</ele>
        <time>2022-04-21T09:57:59.000Z</time>
      </trkpt>
      <trkpt lat="47.33398" lon="-2.34557">
        <ele>40.599998474121</ele>
        <time>2022-04-21T09:58:00.000Z</time>
      </trkpt>
      <trkpt lat="47.33394" lon="-2.34549">
        <ele>40.200000762939</ele>
        <time>2022-04-21T09:58:01.000Z</time>
      </trkpt>
      <trkpt lat="47.33389" lon="-2.3454">
        <ele>39.799999237061</ele>
        <time>2022-04-21T09:58:02.000Z</time>
      </trkpt>
      <trkpt lat="47.33384" lon="-2.34531">
        <ele>39.400001525879</ele>
        <time>2022-04-21T09:58:03.000Z</time>
      </trkpt>
      <trkpt lat="47.33367" lon="-2.34497">
        <ele>39.400001525879</ele>
        <time>2022-04-21T09:58:07.000Z</time>
      </trkpt>
      <trkpt lat="47.33362" lon="-2.34491">
        <ele>39.400001525879</ele>
        <time>2022-04-21T09:58:08.000Z</time>
      </trkpt>
      <trkpt lat="47.33358" lon="-2.34489">
        <ele>39</ele>
        <time>2022-04-21T09:58:09.000Z</time>
      </trkpt>
      <trkpt lat="47.33355" lon="-2.3449">
        <ele>38.599998474121</ele>
        <time>2022-04-21T09:58:10.000Z</time>
      </trkpt>
      <trkpt lat="47.33351" lon="-2.34493">
        <ele>38.200000762939</ele>
        <time>2022-04-21T09:58:11.000Z</time>
      </trkpt>
      <trkpt lat="47.33348" lon="-2.34497">
        <ele>37.799999237061</ele>
        <time>2022-04-21T09:58:12.000Z</time>
      </trkpt>
      <trkpt lat="47.33346" lon="-2.34503">
        <ele>37.400001525879</ele>
        <time>2022-04-21T09:58:13.000Z</time>
      </trkpt>
      <trkpt lat="47.33341" lon="-2.34515">
        <ele>37.400001525879</ele>
        <time>2022-04-21T09:58:15.000Z</time>
      </trkpt>
      <trkpt lat="47.33336" lon="-2.3453">
        <ele>37.400001525879</ele>
        <time>2022-04-21T09:58:17.000Z</time>
      </trkpt>
      <trkpt lat="47.33332" lon="-2.34547">
        <ele>37.400001525879</ele>
        <time>2022-04-21T09:58:20.000Z</time>
      </trkpt>
      <trkpt lat="47.33331" lon="-2.3455">
        <ele>37</ele>
        <time>2022-04-21T09:58:21.000Z</time>
      </trkpt>
      <trkpt lat="47.3333" lon="-2.34552">
        <ele>36.599998474121</ele>
        <time>2022-04-21T09:58:22.000Z</time>
      </trkpt>
      <trkpt lat="47.33329" lon="-2.34553">
        <ele>36</ele>
        <time>2022-04-21T09:58:23.000Z</time>
      </trkpt>
      <trkpt lat="47.33328" lon="-2.34554">
        <ele>35.599998474121</ele>
        <time>2022-04-21T09:58:24.000Z</time>
      </trkpt>
      <trkpt lat="47.33328" lon="-2.34556">
        <ele>35.200000762939</ele>
        <time>2022-04-21T09:58:25.000Z</time>
      </trkpt>
      <trkpt lat="47.33326" lon="-2.34564">
        <ele>35.200000762939</ele>
        <time>2022-04-21T09:58:29.000Z</time>
      </trkpt>
      <trkpt lat="47.3332" lon="-2.34585">
        <ele>35.200000762939</ele>
        <time>2022-04-21T09:58:35.000Z</time>
      </trkpt>
      <trkpt lat="47.33312" lon="-2.34609">
        <ele>35.200000762939</ele>
        <time>2022-04-21T09:58:40.000Z</time>
      </trkpt>
      <trkpt lat="47.3331" lon="-2.34615">
        <ele>35.200000762939</ele>
        <time>2022-04-21T09:58:41.000Z</time>
      </trkpt>
      <trkpt lat="47.333" lon="-2.34635">
        <ele>35.200000762939</ele>
        <time>2022-04-21T09:58:45.000Z</time>
      </trkpt>
      <trkpt lat="47.33294" lon="-2.34647">
        <ele>35.200000762939</ele>
        <time>2022-04-21T09:58:49.000Z</time>
      </trkpt>
      <trkpt lat="47.33286" lon="-2.34666">
        <ele>35.200000762939</ele>
        <time>2022-04-21T09:58:54.000Z</time>
      </trkpt>
      <trkpt lat="47.33272" lon="-2.34694">
        <ele>35.200000762939</ele>
        <time>2022-04-21T09:59:00.000Z</time>
      </trkpt>
      <trkpt lat="47.33265" lon="-2.34721">
        <ele>35.200000762939</ele>
        <time>2022-04-21T09:59:04.000Z</time>
      </trkpt>
      <trkpt lat="47.33254" lon="-2.34753">
        <ele>35.200000762939</ele>
        <time>2022-04-21T09:59:09.000Z</time>
      </trkpt>
      <trkpt lat="47.33252" lon="-2.34759">
        <ele>35.200000762939</ele>
        <time>2022-04-21T09:59:10.000Z</time>
      </trkpt>
      <trkpt lat="47.33247" lon="-2.34773">
        <ele>35.200000762939</ele>
        <time>2022-04-21T09:59:12.000Z</time>
      </trkpt>
      <trkpt lat="47.33242" lon="-2.34785">
        <ele>35.200000762939</ele>
        <time>2022-04-21T09:59:14.000Z</time>
      </trkpt>
      <trkpt lat="47.33235" lon="-2.34803">
        <ele>35.200000762939</ele>
        <time>2022-04-21T09:59:17.000Z</time>
      </trkpt>
      <trkpt lat="47.33228" lon="-2.34823">
        <ele>35.200000762939</ele>
        <time>2022-04-21T09:59:20.000Z</time>
      </trkpt>
      <trkpt lat="47.33216" lon="-2.34856">
        <ele>35.599998474121</ele>
        <time>2022-04-21T09:59:25.000Z</time>
      </trkpt>
      <trkpt lat="47.33214" lon="-2.34862">
        <ele>36</ele>
        <time>2022-04-21T09:59:26.000Z</time>
      </trkpt>
      <trkpt lat="47.33212" lon="-2.34868">
        <ele>36.599998474121</ele>
        <time>2022-04-21T09:59:27.000Z</time>
      </trkpt>
      <trkpt lat="47.3321" lon="-2.34873">
        <ele>37</ele>
        <time>2022-04-21T09:59:28.000Z</time>
      </trkpt>
      <trkpt lat="47.33207" lon="-2.34879">
        <ele>37.400001525879</ele>
        <time>2022-04-21T09:59:29.000Z</time>
      </trkpt>
      <trkpt lat="47.33193" lon="-2.34915">
        <ele>37.400001525879</ele>
        <time>2022-04-21T09:59:35.000Z</time>
      </trkpt>
      <trkpt lat="47.33174" lon="-2.34952">
        <ele>37.400001525879</ele>
        <time>2022-04-21T09:59:42.000Z</time>
      </trkpt>
      <trkpt lat="47.33164" lon="-2.34975">
        <ele>37.400001525879</ele>
        <time>2022-04-21T09:59:46.000Z</time>
      </trkpt>
      <trkpt lat="47.33161" lon="-2.3498">
        <ele>37.400001525879</ele>
        <time>2022-04-21T09:59:47.000Z</time>
      </trkpt>
      <trkpt lat="47.33158" lon="-2.34985">
        <ele>37.400001525879</ele>
        <time>2022-04-21T09:59:48.000Z</time>
      </trkpt>
      <trkpt lat="47.33156" lon="-2.3499">
        <ele>37.799999237061</ele>
        <time>2022-04-21T09:59:49.000Z</time>
      </trkpt>
      <trkpt lat="47.33154" lon="-2.34995">
        <ele>38.200000762939</ele>
        <time>2022-04-21T09:59:50.000Z</time>
      </trkpt>
      <trkpt lat="47.33152" lon="-2.35">
        <ele>38.599998474121</ele>
        <time>2022-04-21T09:59:51.000Z</time>
      </trkpt>
      <trkpt lat="47.3315" lon="-2.35006">
        <ele>39</ele>
        <time>2022-04-21T09:59:52.000Z</time>
      </trkpt>
      <trkpt lat="47.33147" lon="-2.35011">
        <ele>39.400001525879</ele>
        <time>2022-04-21T09:59:53.000Z</time>
      </trkpt>
      <trkpt lat="47.33135" lon="-2.35034">
        <ele>39.400001525879</ele>
        <time>2022-04-21T09:59:58.000Z</time>
      </trkpt>
      <trkpt lat="47.33119" lon="-2.35058">
        <ele>39.400001525879</ele>
        <time>2022-04-21T10:00:03.000Z</time>
      </trkpt>
      <trkpt lat="47.33106" lon="-2.35076">
        <ele>39.400001525879</ele>
        <time>2022-04-21T10:00:08.000Z</time>
      </trkpt>
      <trkpt lat="47.33087" lon="-2.35101">
        <ele>39.400001525879</ele>
        <time>2022-04-21T10:00:14.000Z</time>
      </trkpt>
      <trkpt lat="47.33071" lon="-2.35122">
        <ele>39.799999237061</ele>
        <time>2022-04-21T10:00:19.000Z</time>
      </trkpt>
      <trkpt lat="47.33067" lon="-2.35127">
        <ele>40.200000762939</ele>
        <time>2022-04-21T10:00:20.000Z</time>
      </trkpt>
      <trkpt lat="47.33064" lon="-2.35131">
        <ele>40.599998474121</ele>
        <time>2022-04-21T10:00:21.000Z</time>
      </trkpt>
      <trkpt lat="47.3306" lon="-2.35136">
        <ele>41</ele>
        <time>2022-04-21T10:00:22.000Z</time>
      </trkpt>
      <trkpt lat="47.33058" lon="-2.35141">
        <ele>41.400001525879</ele>
        <time>2022-04-21T10:00:23.000Z</time>
      </trkpt>
      <trkpt lat="47.33053" lon="-2.35153">
        <ele>41.400001525879</ele>
        <time>2022-04-21T10:00:25.000Z</time>
      </trkpt>
      <trkpt lat="47.33051" lon="-2.35159">
        <ele>41.400001525879</ele>
        <time>2022-04-21T10:00:26.000Z</time>
      </trkpt>
      <trkpt lat="47.33041" lon="-2.35181">
        <ele>41.400001525879</ele>
        <time>2022-04-21T10:00:30.000Z</time>
      </trkpt>
      <trkpt lat="47.33038" lon="-2.35183">
        <ele>41.400001525879</ele>
        <time>2022-04-21T10:00:31.000Z</time>
      </trkpt>
      <trkpt lat="47.33032" lon="-2.3518">
        <ele>41.400001525879</ele>
        <time>2022-04-21T10:00:33.000Z</time>
      </trkpt>
      <trkpt lat="47.33023" lon="-2.35163">
        <ele>41.400001525879</ele>
        <time>2022-04-21T10:00:37.000Z</time>
      </trkpt>
      <trkpt lat="47.33018" lon="-2.35138">
        <ele>41.400001525879</ele>
        <time>2022-04-21T10:00:41.000Z</time>
      </trkpt>
      <trkpt lat="47.33017" lon="-2.35123">
        <ele>41.400001525879</ele>
        <time>2022-04-21T10:00:43.000Z</time>
      </trkpt>
      <trkpt lat="47.33015" lon="-2.35092">
        <ele>41.400001525879</ele>
        <time>2022-04-21T10:00:47.000Z</time>
      </trkpt>
      <trkpt lat="47.33011" lon="-2.35078">
        <ele>41.400001525879</ele>
        <time>2022-04-21T10:00:49.000Z</time>
      </trkpt>
      <trkpt lat="47.33006" lon="-2.35057">
        <ele>41.400001525879</ele>
        <time>2022-04-21T10:00:52.000Z</time>
      </trkpt>
      <trkpt lat="47.33005" lon="-2.35049">
        <ele>41.400001525879</ele>
        <time>2022-04-21T10:00:53.000Z</time>
      </trkpt>
      <trkpt lat="47.33002" lon="-2.35035">
        <ele>41.400001525879</ele>
        <time>2022-04-21T10:00:55.000Z</time>
      </trkpt>
      <trkpt lat="47.32997" lon="-2.35023">
        <ele>41.400001525879</ele>
        <time>2022-04-21T10:00:57.000Z</time>
      </trkpt>
      <trkpt lat="47.32994" lon="-2.3501">
        <ele>41.400001525879</ele>
        <time>2022-04-21T10:00:59.000Z</time>
      </trkpt>
      <trkpt lat="47.32989" lon="-2.34996">
        <ele>41.400001525879</ele>
        <time>2022-04-21T10:01:01.000Z</time>
      </trkpt>
      <trkpt lat="47.32986" lon="-2.3499">
        <ele>41</ele>
        <time>2022-04-21T10:01:02.000Z</time>
      </trkpt>
      <trkpt lat="47.32985" lon="-2.34984">
        <ele>40.599998474121</ele>
        <time>2022-04-21T10:01:03.000Z</time>
      </trkpt>
      <trkpt lat="47.32983" lon="-2.34978">
        <ele>40.200000762939</ele>
        <time>2022-04-21T10:01:04.000Z</time>
      </trkpt>
      <trkpt lat="47.3298" lon="-2.34972">
        <ele>39.799999237061</ele>
        <time>2022-04-21T10:01:05.000Z</time>
      </trkpt>
      <trkpt lat="47.32979" lon="-2.34966">
        <ele>39.400001525879</ele>
        <time>2022-04-21T10:01:06.000Z</time>
      </trkpt>
      <trkpt lat="47.32977" lon="-2.34959">
        <ele>39.400001525879</ele>
        <time>2022-04-21T10:01:07.000Z</time>
      </trkpt>
      <trkpt lat="47.32971" lon="-2.34939">
        <ele>39.400001525879</ele>
        <time>2022-04-21T10:01:10.000Z</time>
      </trkpt>
      <trkpt lat="47.32966" lon="-2.34925">
        <ele>39.400001525879</ele>
        <time>2022-04-21T10:01:12.000Z</time>
      </trkpt>
      <trkpt lat="47.32961" lon="-2.34912">
        <ele>39.400001525879</ele>
        <time>2022-04-21T10:01:14.000Z</time>
      </trkpt>
      <trkpt lat="47.32955" lon="-2.34891">
        <ele>39.400001525879</ele>
        <time>2022-04-21T10:01:17.000Z</time>
      </trkpt>
      <trkpt lat="47.32953" lon="-2.34884">
        <ele>39.400001525879</ele>
        <time>2022-04-21T10:01:18.000Z</time>
      </trkpt>
      <trkpt lat="47.32944" lon="-2.34864">
        <ele>39.400001525879</ele>
        <time>2022-04-21T10:01:21.000Z</time>
      </trkpt>
      <trkpt lat="47.32942" lon="-2.34857">
        <ele>39.400001525879</ele>
        <time>2022-04-21T10:01:22.000Z</time>
      </trkpt>
      <trkpt lat="47.32928" lon="-2.34817">
        <ele>39.400001525879</ele>
        <time>2022-04-21T10:01:27.000Z</time>
      </trkpt>
      <trkpt lat="47.32914" lon="-2.34792">
        <ele>39.400001525879</ele>
        <time>2022-04-21T10:01:31.000Z</time>
      </trkpt>
      <trkpt lat="47.32909" lon="-2.3479">
        <ele>39.400001525879</ele>
        <time>2022-04-21T10:01:32.000Z</time>
      </trkpt>
      <trkpt lat="47.32904" lon="-2.3479">
        <ele>39</ele>
        <time>2022-04-21T10:01:33.000Z</time>
      </trkpt>
      <trkpt lat="47.32899" lon="-2.34792">
        <ele>38.599998474121</ele>
        <time>2022-04-21T10:01:34.000Z</time>
      </trkpt>
      <trkpt lat="47.32894" lon="-2.34795">
        <ele>38.200000762939</ele>
        <time>2022-04-21T10:01:35.000Z</time>
      </trkpt>
      <trkpt lat="47.32889" lon="-2.34798">
        <ele>37.799999237061</ele>
        <time>2022-04-21T10:01:36.000Z</time>
      </trkpt>
      <trkpt lat="47.32884" lon="-2.34802">
        <ele>37.400001525879</ele>
        <time>2022-04-21T10:01:37.000Z</time>
      </trkpt>
      <trkpt lat="47.32859" lon="-2.34815">
        <ele>37.400001525879</ele>
        <time>2022-04-21T10:01:42.000Z</time>
      </trkpt>
      <trkpt lat="47.32818" lon="-2.34842">
        <ele>37.400001525879</ele>
        <time>2022-04-21T10:01:50.000Z</time>
      </trkpt>
      <trkpt lat="47.32788" lon="-2.34864">
        <ele>37.799999237061</ele>
        <time>2022-04-21T10:01:56.000Z</time>
      </trkpt>
      <trkpt lat="47.32783" lon="-2.34868">
        <ele>38.200000762939</ele>
        <time>2022-04-21T10:01:57.000Z</time>
      </trkpt>
      <trkpt lat="47.32779" lon="-2.34871">
        <ele>38.599998474121</ele>
        <time>2022-04-21T10:01:58.000Z</time>
      </trkpt>
      <trkpt lat="47.32774" lon="-2.34875">
        <ele>39.200000762939</ele>
        <time>2022-04-21T10:01:59.000Z</time>
      </trkpt>
      <trkpt lat="47.32769" lon="-2.34879">
        <ele>39.599998474121</ele>
        <time>2022-04-21T10:02:00.000Z</time>
      </trkpt>
      <trkpt lat="47.3274" lon="-2.34899">
        <ele>39.599998474121</ele>
        <time>2022-04-21T10:02:06.000Z</time>
      </trkpt>
      <trkpt lat="47.32735" lon="-2.34903">
        <ele>39.599998474121</ele>
        <time>2022-04-21T10:02:07.000Z</time>
      </trkpt>
      <trkpt lat="47.3271" lon="-2.34921">
        <ele>39.599998474121</ele>
        <time>2022-04-21T10:02:12.000Z</time>
      </trkpt>
      <trkpt lat="47.32689" lon="-2.34939">
        <ele>39.599998474121</ele>
        <time>2022-04-21T10:02:17.000Z</time>
      </trkpt>
      <trkpt lat="47.32673" lon="-2.34951">
        <ele>39.599998474121</ele>
        <time>2022-04-21T10:02:21.000Z</time>
      </trkpt>
      <trkpt lat="47.32663" lon="-2.34957">
        <ele>39.599998474121</ele>
        <time>2022-04-21T10:02:24.000Z</time>
      </trkpt>
      <trkpt lat="47.32647" lon="-2.34967">
        <ele>39.599998474121</ele>
        <time>2022-04-21T10:02:28.000Z</time>
      </trkpt>
      <trkpt lat="47.32643" lon="-2.3497">
        <ele>39.599998474121</ele>
        <time>2022-04-21T10:02:29.000Z</time>
      </trkpt>
      <trkpt lat="47.32629" lon="-2.34976">
        <ele>40</ele>
        <time>2022-04-21T10:02:32.000Z</time>
      </trkpt>
      <trkpt lat="47.32624" lon="-2.34978">
        <ele>40.400001525879</ele>
        <time>2022-04-21T10:02:33.000Z</time>
      </trkpt>
      <trkpt lat="47.32619" lon="-2.3498">
        <ele>40.799999237061</ele>
        <time>2022-04-21T10:02:34.000Z</time>
      </trkpt>
      <trkpt lat="47.32615" lon="-2.34983">
        <ele>41.200000762939</ele>
        <time>2022-04-21T10:02:35.000Z</time>
      </trkpt>
      <trkpt lat="47.32611" lon="-2.34986">
        <ele>41.599998474121</ele>
        <time>2022-04-21T10:02:36.000Z</time>
      </trkpt>
      <trkpt lat="47.32603" lon="-2.34991">
        <ele>41.599998474121</ele>
        <time>2022-04-21T10:02:38.000Z</time>
      </trkpt>
      <trkpt lat="47.32578" lon="-2.35004">
        <ele>41.599998474121</ele>
        <time>2022-04-21T10:02:43.000Z</time>
      </trkpt>
      <trkpt lat="47.32549" lon="-2.35016">
        <ele>41.599998474121</ele>
        <time>2022-04-21T10:02:49.000Z</time>
      </trkpt>
      <trkpt lat="47.32539" lon="-2.35019">
        <ele>42</ele>
        <time>2022-04-21T10:02:51.000Z</time>
      </trkpt>
      <trkpt lat="47.32534" lon="-2.3502">
        <ele>42.400001525879</ele>
        <time>2022-04-21T10:02:52.000Z</time>
      </trkpt>
      <trkpt lat="47.32529" lon="-2.35022">
        <ele>42.799999237061</ele>
        <time>2022-04-21T10:02:53.000Z</time>
      </trkpt>
      <trkpt lat="47.32524" lon="-2.35023">
        <ele>43.200000762939</ele>
        <time>2022-04-21T10:02:54.000Z</time>
      </trkpt>
      <trkpt lat="47.32519" lon="-2.35024">
        <ele>43.599998474121</ele>
        <time>2022-04-21T10:02:55.000Z</time>
      </trkpt>
      <trkpt lat="47.3251" lon="-2.35026">
        <ele>43.599998474121</ele>
        <time>2022-04-21T10:02:57.000Z</time>
      </trkpt>
      <trkpt lat="47.32485" lon="-2.35031">
        <ele>43.599998474121</ele>
        <time>2022-04-21T10:03:02.000Z</time>
      </trkpt>
      <trkpt lat="47.3248" lon="-2.35032">
        <ele>43.599998474121</ele>
        <time>2022-04-21T10:03:03.000Z</time>
      </trkpt>
      <trkpt lat="47.32455" lon="-2.35038">
        <ele>43.599998474121</ele>
        <time>2022-04-21T10:03:08.000Z</time>
      </trkpt>
      <trkpt lat="47.3245" lon="-2.35039">
        <ele>43.599998474121</ele>
        <time>2022-04-21T10:03:09.000Z</time>
      </trkpt>
      <trkpt lat="47.32435" lon="-2.35042">
        <ele>43.599998474121</ele>
        <time>2022-04-21T10:03:12.000Z</time>
      </trkpt>
      <trkpt lat="47.32426" lon="-2.35044">
        <ele>43.599998474121</ele>
        <time>2022-04-21T10:03:14.000Z</time>
      </trkpt>
      <trkpt lat="47.32394" lon="-2.35048">
        <ele>43.599998474121</ele>
        <time>2022-04-21T10:03:20.000Z</time>
      </trkpt>
      <trkpt lat="47.32361" lon="-2.35051">
        <ele>43.599998474121</ele>
        <time>2022-04-21T10:03:26.000Z</time>
      </trkpt>
      <trkpt lat="47.32336" lon="-2.35052">
        <ele>43.599998474121</ele>
        <time>2022-04-21T10:03:30.000Z</time>
      </trkpt>
      <trkpt lat="47.32295" lon="-2.3505">
        <ele>43.599998474121</ele>
        <time>2022-04-21T10:03:36.000Z</time>
      </trkpt>
      <trkpt lat="47.32252" lon="-2.35051">
        <ele>43.599998474121</ele>
        <time>2022-04-21T10:03:42.000Z</time>
      </trkpt>
      <trkpt lat="47.32218" lon="-2.35055">
        <ele>43.599998474121</ele>
        <time>2022-04-21T10:03:47.000Z</time>
      </trkpt>
      <trkpt lat="47.32197" lon="-2.35058">
        <ele>43.200000762939</ele>
        <time>2022-04-21T10:03:50.000Z</time>
      </trkpt>
      <trkpt lat="47.32191" lon="-2.35059">
        <ele>42.799999237061</ele>
        <time>2022-04-21T10:03:51.000Z</time>
      </trkpt>
      <trkpt lat="47.32184" lon="-2.35059">
        <ele>42.400001525879</ele>
        <time>2022-04-21T10:03:52.000Z</time>
      </trkpt>
      <trkpt lat="47.32177" lon="-2.35059">
        <ele>41.599998474121</ele>
        <time>2022-04-21T10:03:53.000Z</time>
      </trkpt>
      <trkpt lat="47.32139" lon="-2.35061">
        <ele>41.599998474121</ele>
        <time>2022-04-21T10:03:59.000Z</time>
      </trkpt>
      <trkpt lat="47.32094" lon="-2.35061">
        <ele>41.599998474121</ele>
        <time>2022-04-21T10:04:06.000Z</time>
      </trkpt>
      <trkpt lat="47.3206" lon="-2.3506">
        <ele>41.599998474121</ele>
        <time>2022-04-21T10:04:12.000Z</time>
      </trkpt>
      <trkpt lat="47.32041" lon="-2.35059">
        <ele>41.599998474121</ele>
        <time>2022-04-21T10:04:16.000Z</time>
      </trkpt>
      <trkpt lat="47.32034" lon="-2.35064">
        <ele>41.599998474121</ele>
        <time>2022-04-21T10:04:18.000Z</time>
      </trkpt>
      <trkpt lat="47.32037" lon="-2.35077">
        <ele>41.599998474121</ele>
        <time>2022-04-21T10:04:21.000Z</time>
      </trkpt>
      <trkpt lat="47.32043" lon="-2.35095">
        <ele>41.599998474121</ele>
        <time>2022-04-21T10:04:24.000Z</time>
      </trkpt>
      <trkpt lat="47.32042" lon="-2.35107">
        <ele>41.599998474121</ele>
        <time>2022-04-21T10:04:26.000Z</time>
      </trkpt>
      <trkpt lat="47.32033" lon="-2.35124">
        <ele>41.599998474121</ele>
        <time>2022-04-21T10:04:29.000Z</time>
      </trkpt>
      <trkpt lat="47.32024" lon="-2.35133">
        <ele>41.599998474121</ele>
        <time>2022-04-21T10:04:31.000Z</time>
      </trkpt>
      <trkpt lat="47.32009" lon="-2.35148">
        <ele>41.599998474121</ele>
        <time>2022-04-21T10:04:34.000Z</time>
      </trkpt>
      <trkpt lat="47.32004" lon="-2.35152">
        <ele>41.599998474121</ele>
        <time>2022-04-21T10:04:35.000Z</time>
      </trkpt>
      <trkpt lat="47.31984" lon="-2.3517">
        <ele>41.599998474121</ele>
        <time>2022-04-21T10:04:39.000Z</time>
      </trkpt>
      <trkpt lat="47.31963" lon="-2.35192">
        <ele>41.599998474121</ele>
        <time>2022-04-21T10:04:44.000Z</time>
      </trkpt>
      <trkpt lat="47.31958" lon="-2.35196">
        <ele>41.599998474121</ele>
        <time>2022-04-21T10:04:45.000Z</time>
      </trkpt>
      <trkpt lat="47.31931" lon="-2.35221">
        <ele>41.599998474121</ele>
        <time>2022-04-21T10:04:51.000Z</time>
      </trkpt>
      <trkpt lat="47.31927" lon="-2.35225">
        <ele>41.599998474121</ele>
        <time>2022-04-21T10:04:52.000Z</time>
      </trkpt>
      <trkpt lat="47.31899" lon="-2.35249">
        <ele>41.599998474121</ele>
        <time>2022-04-21T10:04:58.000Z</time>
      </trkpt>
      <trkpt lat="47.31875" lon="-2.35268">
        <ele>41.599998474121</ele>
        <time>2022-04-21T10:05:03.000Z</time>
      </trkpt>
      <trkpt lat="47.31856" lon="-2.35283">
        <ele>41.599998474121</ele>
        <time>2022-04-21T10:05:07.000Z</time>
      </trkpt>
      <trkpt lat="47.31844" lon="-2.35295">
        <ele>41.599998474121</ele>
        <time>2022-04-21T10:05:10.000Z</time>
      </trkpt>
      <trkpt lat="47.31839" lon="-2.35298">
        <ele>41.599998474121</ele>
        <time>2022-04-21T10:05:11.000Z</time>
      </trkpt>
      <trkpt lat="47.31829" lon="-2.35304">
        <ele>42</ele>
        <time>2022-04-21T10:05:13.000Z</time>
      </trkpt>
      <trkpt lat="47.31825" lon="-2.35306">
        <ele>42.400001525879</ele>
        <time>2022-04-21T10:05:14.000Z</time>
      </trkpt>
      <trkpt lat="47.31821" lon="-2.35309">
        <ele>42.799999237061</ele>
        <time>2022-04-21T10:05:15.000Z</time>
      </trkpt>
      <trkpt lat="47.31817" lon="-2.35312">
        <ele>43.200000762939</ele>
        <time>2022-04-21T10:05:16.000Z</time>
      </trkpt>
      <trkpt lat="47.31812" lon="-2.35315">
        <ele>43.799999237061</ele>
        <time>2022-04-21T10:05:17.000Z</time>
      </trkpt>
      <trkpt lat="47.31796" lon="-2.35325">
        <ele>43.799999237061</ele>
        <time>2022-04-21T10:05:21.000Z</time>
      </trkpt>
      <trkpt lat="47.31779" lon="-2.35334">
        <ele>44.200000762939</ele>
        <time>2022-04-21T10:05:25.000Z</time>
      </trkpt>
      <trkpt lat="47.31775" lon="-2.35337">
        <ele>44.599998474121</ele>
        <time>2022-04-21T10:05:26.000Z</time>
      </trkpt>
      <trkpt lat="47.31771" lon="-2.35339">
        <ele>45</ele>
        <time>2022-04-21T10:05:27.000Z</time>
      </trkpt>
      <trkpt lat="47.31767" lon="-2.35342">
        <ele>45.400001525879</ele>
        <time>2022-04-21T10:05:28.000Z</time>
      </trkpt>
      <trkpt lat="47.31763" lon="-2.35345">
        <ele>45.799999237061</ele>
        <time>2022-04-21T10:05:29.000Z</time>
      </trkpt>
      <trkpt lat="47.31742" lon="-2.35361">
        <ele>45.799999237061</ele>
        <time>2022-04-21T10:05:34.000Z</time>
      </trkpt>
      <trkpt lat="47.31738" lon="-2.35363">
        <ele>45.799999237061</ele>
        <time>2022-04-21T10:05:35.000Z</time>
      </trkpt>
      <trkpt lat="47.31725" lon="-2.35367">
        <ele>46.200000762939</ele>
        <time>2022-04-21T10:05:38.000Z</time>
      </trkpt>
      <trkpt lat="47.31721" lon="-2.35368">
        <ele>46.599998474121</ele>
        <time>2022-04-21T10:05:39.000Z</time>
      </trkpt>
      <trkpt lat="47.31716" lon="-2.35369">
        <ele>47</ele>
        <time>2022-04-21T10:05:40.000Z</time>
      </trkpt>
      <trkpt lat="47.31712" lon="-2.35371">
        <ele>47.400001525879</ele>
        <time>2022-04-21T10:05:41.000Z</time>
      </trkpt>
      <trkpt lat="47.31707" lon="-2.35371">
        <ele>47.799999237061</ele>
        <time>2022-04-21T10:05:42.000Z</time>
      </trkpt>
      <trkpt lat="47.31682" lon="-2.35375">
        <ele>47.799999237061</ele>
        <time>2022-04-21T10:05:47.000Z</time>
      </trkpt>
      <trkpt lat="47.31655" lon="-2.35373">
        <ele>47.799999237061</ele>
        <time>2022-04-21T10:05:52.000Z</time>
      </trkpt>
      <trkpt lat="47.3165" lon="-2.35371">
        <ele>47.799999237061</ele>
        <time>2022-04-21T10:05:53.000Z</time>
      </trkpt>
      <trkpt lat="47.31622" lon="-2.35362">
        <ele>47.799999237061</ele>
        <time>2022-04-21T10:05:58.000Z</time>
      </trkpt>
      <trkpt lat="47.31617" lon="-2.35362">
        <ele>47.799999237061</ele>
        <time>2022-04-21T10:05:59.000Z</time>
      </trkpt>
      <trkpt lat="47.31605" lon="-2.35364">
        <ele>47.799999237061</ele>
        <time>2022-04-21T10:06:01.000Z</time>
      </trkpt>
      <trkpt lat="47.316" lon="-2.35366">
        <ele>47.799999237061</ele>
        <time>2022-04-21T10:06:02.000Z</time>
      </trkpt>
      <trkpt lat="47.31565" lon="-2.35386">
        <ele>47.799999237061</ele>
        <time>2022-04-21T10:06:09.000Z</time>
      </trkpt>
      <trkpt lat="47.31528" lon="-2.35408">
        <ele>47.799999237061</ele>
        <time>2022-04-21T10:06:16.000Z</time>
      </trkpt>
      <trkpt lat="47.31509" lon="-2.35422">
        <ele>48.200000762939</ele>
        <time>2022-04-21T10:06:20.000Z</time>
      </trkpt>
      <trkpt lat="47.31505" lon="-2.35427">
        <ele>48.599998474121</ele>
        <time>2022-04-21T10:06:21.000Z</time>
      </trkpt>
      <trkpt lat="47.31502" lon="-2.35431">
        <ele>49</ele>
        <time>2022-04-21T10:06:22.000Z</time>
      </trkpt>
      <trkpt lat="47.31499" lon="-2.35437">
        <ele>49.400001525879</ele>
        <time>2022-04-21T10:06:23.000Z</time>
      </trkpt>
      <trkpt lat="47.31496" lon="-2.35443">
        <ele>49.799999237061</ele>
        <time>2022-04-21T10:06:24.000Z</time>
      </trkpt>
      <trkpt lat="47.31494" lon="-2.3545">
        <ele>49.799999237061</ele>
        <time>2022-04-21T10:06:25.000Z</time>
      </trkpt>
      <trkpt lat="47.31489" lon="-2.3547">
        <ele>49.799999237061</ele>
        <time>2022-04-21T10:06:28.000Z</time>
      </trkpt>
      <trkpt lat="47.31487" lon="-2.35486">
        <ele>49.799999237061</ele>
        <time>2022-04-21T10:06:30.000Z</time>
      </trkpt>
      <trkpt lat="47.31485" lon="-2.35493">
        <ele>49.799999237061</ele>
        <time>2022-04-21T10:06:31.000Z</time>
      </trkpt>
      <trkpt lat="47.31477" lon="-2.35514">
        <ele>49.799999237061</ele>
        <time>2022-04-21T10:06:34.000Z</time>
      </trkpt>
      <trkpt lat="47.31473" lon="-2.35519">
        <ele>49.799999237061</ele>
        <time>2022-04-21T10:06:35.000Z</time>
      </trkpt>
      <trkpt lat="47.31458" lon="-2.35523">
        <ele>49.799999237061</ele>
        <time>2022-04-21T10:06:38.000Z</time>
      </trkpt>
      <trkpt lat="47.31442" lon="-2.35524">
        <ele>49.799999237061</ele>
        <time>2022-04-21T10:06:41.000Z</time>
      </trkpt>
      <trkpt lat="47.31427" lon="-2.35525">
        <ele>49.799999237061</ele>
        <time>2022-04-21T10:06:44.000Z</time>
      </trkpt>
      <trkpt lat="47.31416" lon="-2.35525">
        <ele>50.200000762939</ele>
        <time>2022-04-21T10:06:46.000Z</time>
      </trkpt>
      <trkpt lat="47.31411" lon="-2.35525">
        <ele>50.599998474121</ele>
        <time>2022-04-21T10:06:47.000Z</time>
      </trkpt>
      <trkpt lat="47.31406" lon="-2.35525">
        <ele>51</ele>
        <time>2022-04-21T10:06:48.000Z</time>
      </trkpt>
      <trkpt lat="47.31401" lon="-2.35525">
        <ele>51.400001525879</ele>
        <time>2022-04-21T10:06:49.000Z</time>
      </trkpt>
      <trkpt lat="47.31397" lon="-2.35525">
        <ele>51.799999237061</ele>
        <time>2022-04-21T10:06:50.000Z</time>
      </trkpt>
      <trkpt lat="47.31392" lon="-2.35526">
        <ele>51.799999237061</ele>
        <time>2022-04-21T10:06:51.000Z</time>
      </trkpt>
      <trkpt lat="47.31368" lon="-2.35533">
        <ele>51.799999237061</ele>
        <time>2022-04-21T10:06:57.000Z</time>
      </trkpt>
      <trkpt lat="47.31349" lon="-2.35546">
        <ele>51.799999237061</ele>
        <time>2022-04-21T10:07:03.000Z</time>
      </trkpt>
      <trkpt lat="47.31338" lon="-2.35544">
        <ele>51.799999237061</ele>
        <time>2022-04-21T10:07:07.000Z</time>
      </trkpt>
      <trkpt lat="47.31334" lon="-2.35532">
        <ele>51.799999237061</ele>
        <time>2022-04-21T10:07:11.000Z</time>
      </trkpt>
      <trkpt lat="47.31335" lon="-2.35523">
        <ele>51.799999237061</ele>
        <time>2022-04-21T10:07:13.000Z</time>
      </trkpt>
      <trkpt lat="47.31335" lon="-2.35498">
        <ele>51.799999237061</ele>
        <time>2022-04-21T10:07:18.000Z</time>
      </trkpt>
      <trkpt lat="47.31336" lon="-2.35468">
        <ele>51.799999237061</ele>
        <time>2022-04-21T10:07:24.000Z</time>
      </trkpt>
      <trkpt lat="47.31336" lon="-2.35435">
        <ele>51.799999237061</ele>
        <time>2022-04-21T10:07:31.000Z</time>
      </trkpt>
      <trkpt lat="47.31335" lon="-2.35407">
        <ele>51.799999237061</ele>
        <time>2022-04-21T10:07:35.000Z</time>
      </trkpt>
      <trkpt lat="47.31336" lon="-2.35392">
        <ele>51.799999237061</ele>
        <time>2022-04-21T10:07:37.000Z</time>
      </trkpt>
      <trkpt lat="47.31338" lon="-2.35336">
        <ele>51.799999237061</ele>
        <time>2022-04-21T10:07:44.000Z</time>
      </trkpt>
      <trkpt lat="47.31338" lon="-2.35282">
        <ele>51.799999237061</ele>
        <time>2022-04-21T10:07:50.000Z</time>
      </trkpt>
      <trkpt lat="47.31339" lon="-2.35215">
        <ele>51.799999237061</ele>
        <time>2022-04-21T10:07:58.000Z</time>
      </trkpt>
      <trkpt lat="47.3134" lon="-2.35198">
        <ele>51.799999237061</ele>
        <time>2022-04-21T10:08:00.000Z</time>
      </trkpt>
      <trkpt lat="47.31342" lon="-2.35166">
        <ele>51.799999237061</ele>
        <time>2022-04-21T10:08:04.000Z</time>
      </trkpt>
      <trkpt lat="47.31344" lon="-2.35134">
        <ele>51.799999237061</ele>
        <time>2022-04-21T10:08:08.000Z</time>
      </trkpt>
      <trkpt lat="47.31343" lon="-2.35119">
        <ele>51.799999237061</ele>
        <time>2022-04-21T10:08:10.000Z</time>
      </trkpt>
      <trkpt lat="47.31346" lon="-2.35058">
        <ele>51.799999237061</ele>
        <time>2022-04-21T10:08:18.000Z</time>
      </trkpt>
      <trkpt lat="47.31344" lon="-2.35008">
        <ele>51.799999237061</ele>
        <time>2022-04-21T10:08:26.000Z</time>
      </trkpt>
      <trkpt lat="47.31337" lon="-2.34965">
        <ele>51.799999237061</ele>
        <time>2022-04-21T10:08:32.000Z</time>
      </trkpt>
      <trkpt lat="47.31331" lon="-2.34945">
        <ele>51.799999237061</ele>
        <time>2022-04-21T10:08:35.000Z</time>
      </trkpt>
      <trkpt lat="47.31326" lon="-2.34932">
        <ele>51.799999237061</ele>
        <time>2022-04-21T10:08:37.000Z</time>
      </trkpt>
      <trkpt lat="47.31312" lon="-2.3489">
        <ele>51.799999237061</ele>
        <time>2022-04-21T10:08:44.000Z</time>
      </trkpt>
      <trkpt lat="47.31299" lon="-2.34846">
        <ele>51.799999237061</ele>
        <time>2022-04-21T10:08:51.000Z</time>
      </trkpt>
      <trkpt lat="47.3129" lon="-2.34801">
        <ele>51.799999237061</ele>
        <time>2022-04-21T10:08:58.000Z</time>
      </trkpt>
      <trkpt lat="47.31281" lon="-2.34745">
        <ele>51.799999237061</ele>
        <time>2022-04-21T10:09:07.000Z</time>
      </trkpt>
      <trkpt lat="47.31275" lon="-2.34715">
        <ele>51.799999237061</ele>
        <time>2022-04-21T10:09:13.000Z</time>
      </trkpt>
      <trkpt lat="47.31274" lon="-2.34695">
        <ele>51.799999237061</ele>
        <time>2022-04-21T10:09:18.000Z</time>
      </trkpt>
      <trkpt lat="47.31277" lon="-2.34679">
        <ele>51.799999237061</ele>
        <time>2022-04-21T10:09:21.000Z</time>
      </trkpt>
      <trkpt lat="47.31279" lon="-2.34673">
        <ele>51.799999237061</ele>
        <time>2022-04-21T10:09:22.000Z</time>
      </trkpt>
      <trkpt lat="47.31285" lon="-2.34644">
        <ele>51.799999237061</ele>
        <time>2022-04-21T10:09:26.000Z</time>
      </trkpt>
      <trkpt lat="47.31286" lon="-2.34605">
        <ele>51.400001525879</ele>
        <time>2022-04-21T10:09:30.000Z</time>
      </trkpt>
      <trkpt lat="47.31285" lon="-2.34595">
        <ele>51</ele>
        <time>2022-04-21T10:09:31.000Z</time>
      </trkpt>
      <trkpt lat="47.31284" lon="-2.34584">
        <ele>50.599998474121</ele>
        <time>2022-04-21T10:09:32.000Z</time>
      </trkpt>
      <trkpt lat="47.31283" lon="-2.34573">
        <ele>50.200000762939</ele>
        <time>2022-04-21T10:09:33.000Z</time>
      </trkpt>
      <trkpt lat="47.31282" lon="-2.34563">
        <ele>49.799999237061</ele>
        <time>2022-04-21T10:09:34.000Z</time>
      </trkpt>
      <trkpt lat="47.31281" lon="-2.34553">
        <ele>49.400001525879</ele>
        <time>2022-04-21T10:09:35.000Z</time>
      </trkpt>
      <trkpt lat="47.3128" lon="-2.34543">
        <ele>49</ele>
        <time>2022-04-21T10:09:36.000Z</time>
      </trkpt>
      <trkpt lat="47.31279" lon="-2.34532">
        <ele>48.599998474121</ele>
        <time>2022-04-21T10:09:37.000Z</time>
      </trkpt>
      <trkpt lat="47.31278" lon="-2.34522">
        <ele>47.799999237061</ele>
        <time>2022-04-21T10:09:38.000Z</time>
      </trkpt>
      <trkpt lat="47.31269" lon="-2.34446">
        <ele>47.200000762939</ele>
        <time>2022-04-21T10:09:45.000Z</time>
      </trkpt>
      <trkpt lat="47.31268" lon="-2.34434">
        <ele>46.799999237061</ele>
        <time>2022-04-21T10:09:46.000Z</time>
      </trkpt>
      <trkpt lat="47.31266" lon="-2.34424">
        <ele>46.400001525879</ele>
        <time>2022-04-21T10:09:47.000Z</time>
      </trkpt>
      <trkpt lat="47.31265" lon="-2.34413">
        <ele>46</ele>
        <time>2022-04-21T10:09:48.000Z</time>
      </trkpt>
      <trkpt lat="47.31264" lon="-2.34402">
        <ele>45.400001525879</ele>
        <time>2022-04-21T10:09:49.000Z</time>
      </trkpt>
      <trkpt lat="47.31257" lon="-2.34369">
        <ele>45</ele>
        <time>2022-04-21T10:09:52.000Z</time>
      </trkpt>
      <trkpt lat="47.31253" lon="-2.3436">
        <ele>44.599998474121</ele>
        <time>2022-04-21T10:09:53.000Z</time>
      </trkpt>
      <trkpt lat="47.31248" lon="-2.34352">
        <ele>44</ele>
        <time>2022-04-21T10:09:54.000Z</time>
      </trkpt>
      <trkpt lat="47.31242" lon="-2.34346">
        <ele>43.599998474121</ele>
        <time>2022-04-21T10:09:55.000Z</time>
      </trkpt>
      <trkpt lat="47.31235" lon="-2.34342">
        <ele>43.200000762939</ele>
        <time>2022-04-21T10:09:56.000Z</time>
      </trkpt>
      <trkpt lat="47.31228" lon="-2.34338">
        <ele>43.200000762939</ele>
        <time>2022-04-21T10:09:57.000Z</time>
      </trkpt>
      <trkpt lat="47.3122" lon="-2.34335">
        <ele>43.200000762939</ele>
        <time>2022-04-21T10:09:58.000Z</time>
      </trkpt>
      <trkpt lat="47.31199" lon="-2.34318">
        <ele>43.200000762939</ele>
        <time>2022-04-21T10:10:01.000Z</time>
      </trkpt>
      <trkpt lat="47.31193" lon="-2.3431">
        <ele>43.200000762939</ele>
        <time>2022-04-21T10:10:02.000Z</time>
      </trkpt>
      <trkpt lat="47.31182" lon="-2.34293">
        <ele>42.799999237061</ele>
        <time>2022-04-21T10:10:04.000Z</time>
      </trkpt>
      <trkpt lat="47.31178" lon="-2.34283">
        <ele>42.400001525879</ele>
        <time>2022-04-21T10:10:05.000Z</time>
      </trkpt>
      <trkpt lat="47.31174" lon="-2.34274">
        <ele>42</ele>
        <time>2022-04-21T10:10:06.000Z</time>
      </trkpt>
      <trkpt lat="47.3117" lon="-2.34265">
        <ele>41.599998474121</ele>
        <time>2022-04-21T10:10:07.000Z</time>
      </trkpt>
      <trkpt lat="47.31165" lon="-2.34256">
        <ele>41.200000762939</ele>
        <time>2022-04-21T10:10:08.000Z</time>
      </trkpt>
      <trkpt lat="47.31143" lon="-2.34214">
        <ele>41.200000762939</ele>
        <time>2022-04-21T10:10:13.000Z</time>
      </trkpt>
      <trkpt lat="47.31125" lon="-2.34184">
        <ele>41.599998474121</ele>
        <time>2022-04-21T10:10:17.000Z</time>
      </trkpt>
      <trkpt lat="47.31121" lon="-2.34177">
        <ele>42</ele>
        <time>2022-04-21T10:10:18.000Z</time>
      </trkpt>
      <trkpt lat="47.31117" lon="-2.3417">
        <ele>42.400001525879</ele>
        <time>2022-04-21T10:10:19.000Z</time>
      </trkpt>
      <trkpt lat="47.31113" lon="-2.34163">
        <ele>42.799999237061</ele>
        <time>2022-04-21T10:10:20.000Z</time>
      </trkpt>
      <trkpt lat="47.31109" lon="-2.34155">
        <ele>43.200000762939</ele>
        <time>2022-04-21T10:10:21.000Z</time>
      </trkpt>
      <trkpt lat="47.31102" lon="-2.34142">
        <ele>43.599998474121</ele>
        <time>2022-04-21T10:10:23.000Z</time>
      </trkpt>
      <trkpt lat="47.31099" lon="-2.34135">
        <ele>44</ele>
        <time>2022-04-21T10:10:24.000Z</time>
      </trkpt>
      <trkpt lat="47.31096" lon="-2.34128">
        <ele>44.599998474121</ele>
        <time>2022-04-21T10:10:25.000Z</time>
      </trkpt>
      <trkpt lat="47.31092" lon="-2.34121">
        <ele>45</ele>
        <time>2022-04-21T10:10:26.000Z</time>
      </trkpt>
      <trkpt lat="47.31088" lon="-2.34115">
        <ele>45.400001525879</ele>
        <time>2022-04-21T10:10:27.000Z</time>
      </trkpt>
      <trkpt lat="47.31084" lon="-2.34108">
        <ele>45.799999237061</ele>
        <time>2022-04-21T10:10:28.000Z</time>
      </trkpt>
      <trkpt lat="47.31081" lon="-2.34101">
        <ele>46.200000762939</ele>
        <time>2022-04-21T10:10:29.000Z</time>
      </trkpt>
      <trkpt lat="47.31078" lon="-2.34093">
        <ele>46.599998474121</ele>
        <time>2022-04-21T10:10:30.000Z</time>
      </trkpt>
      <trkpt lat="47.31075" lon="-2.34086">
        <ele>47.200000762939</ele>
        <time>2022-04-21T10:10:31.000Z</time>
      </trkpt>
      <trkpt lat="47.31073" lon="-2.34079">
        <ele>47.599998474121</ele>
        <time>2022-04-21T10:10:32.000Z</time>
      </trkpt>
      <trkpt lat="47.31068" lon="-2.34064">
        <ele>47.599998474121</ele>
        <time>2022-04-21T10:10:34.000Z</time>
      </trkpt>
      <trkpt lat="47.31066" lon="-2.34057">
        <ele>47.599998474121</ele>
        <time>2022-04-21T10:10:35.000Z</time>
      </trkpt>
      <trkpt lat="47.31062" lon="-2.34033">
        <ele>48</ele>
        <time>2022-04-21T10:10:38.000Z</time>
      </trkpt>
      <trkpt lat="47.31061" lon="-2.34024">
        <ele>48.400001525879</ele>
        <time>2022-04-21T10:10:39.000Z</time>
      </trkpt>
      <trkpt lat="47.3106" lon="-2.34016">
        <ele>48.799999237061</ele>
        <time>2022-04-21T10:10:40.000Z</time>
      </trkpt>
      <trkpt lat="47.3106" lon="-2.34007">
        <ele>49.400001525879</ele>
        <time>2022-04-21T10:10:41.000Z</time>
      </trkpt>
      <trkpt lat="47.3106" lon="-2.33999">
        <ele>49.799999237061</ele>
        <time>2022-04-21T10:10:42.000Z</time>
      </trkpt>
      <trkpt lat="47.31059" lon="-2.33956">
        <ele>49.799999237061</ele>
        <time>2022-04-21T10:10:47.000Z</time>
      </trkpt>
      <trkpt lat="47.31046" lon="-2.33944">
        <ele>49.799999237061</ele>
        <time>2022-04-21T10:10:50.000Z</time>
      </trkpt>
      <trkpt lat="47.31029" lon="-2.33947">
        <ele>49.799999237061</ele>
        <time>2022-04-21T10:10:53.000Z</time>
      </trkpt>
      <trkpt lat="47.31008" lon="-2.33952">
        <ele>49.799999237061</ele>
        <time>2022-04-21T10:10:57.000Z</time>
      </trkpt>
      <trkpt lat="47.31003" lon="-2.33953">
        <ele>50.200000762939</ele>
        <time>2022-04-21T10:10:58.000Z</time>
      </trkpt>
      <trkpt lat="47.30998" lon="-2.33954">
        <ele>50.599998474121</ele>
        <time>2022-04-21T10:10:59.000Z</time>
      </trkpt>
      <trkpt lat="47.30993" lon="-2.33955">
        <ele>51</ele>
        <time>2022-04-21T10:11:00.000Z</time>
      </trkpt>
      <trkpt lat="47.30989" lon="-2.33956">
        <ele>51.400001525879</ele>
        <time>2022-04-21T10:11:01.000Z</time>
      </trkpt>
      <trkpt lat="47.30984" lon="-2.33956">
        <ele>51.799999237061</ele>
        <time>2022-04-21T10:11:02.000Z</time>
      </trkpt>
      <trkpt lat="47.30968" lon="-2.33956">
        <ele>51.799999237061</ele>
        <time>2022-04-21T10:11:05.000Z</time>
      </trkpt>
      <trkpt lat="47.30931" lon="-2.3395">
        <ele>51.799999237061</ele>
        <time>2022-04-21T10:11:12.000Z</time>
      </trkpt>
      <trkpt lat="47.30891" lon="-2.33948">
        <ele>51.799999237061</ele>
        <time>2022-04-21T10:11:19.000Z</time>
      </trkpt>
      <trkpt lat="47.3086" lon="-2.33953">
        <ele>51.799999237061</ele>
        <time>2022-04-21T10:11:25.000Z</time>
      </trkpt>
      <trkpt lat="47.30818" lon="-2.33962">
        <ele>51.799999237061</ele>
        <time>2022-04-21T10:11:33.000Z</time>
      </trkpt>
      <trkpt lat="47.30798" lon="-2.33967">
        <ele>51.799999237061</ele>
        <time>2022-04-21T10:11:37.000Z</time>
      </trkpt>
      <trkpt lat="47.30783" lon="-2.33974">
        <ele>51.799999237061</ele>
        <time>2022-04-21T10:11:40.000Z</time>
      </trkpt>
      <trkpt lat="47.30778" lon="-2.33992">
        <ele>51.799999237061</ele>
        <time>2022-04-21T10:11:43.000Z</time>
      </trkpt>
      <trkpt lat="47.30778" lon="-2.33998">
        <ele>51.799999237061</ele>
        <time>2022-04-21T10:11:44.000Z</time>
      </trkpt>
      <trkpt lat="47.30777" lon="-2.34029">
        <ele>51.799999237061</ele>
        <time>2022-04-21T10:11:48.000Z</time>
      </trkpt>
      <trkpt lat="47.30777" lon="-2.34045">
        <ele>51.799999237061</ele>
        <time>2022-04-21T10:11:50.000Z</time>
      </trkpt>
      <trkpt lat="47.30778" lon="-2.34066">
        <ele>51.799999237061</ele>
        <time>2022-04-21T10:11:53.000Z</time>
      </trkpt>
      <trkpt lat="47.30778" lon="-2.34083">
        <ele>51.799999237061</ele>
        <time>2022-04-21T10:11:55.000Z</time>
      </trkpt>
      <trkpt lat="47.30776" lon="-2.34106">
        <ele>51.799999237061</ele>
        <time>2022-04-21T10:11:58.000Z</time>
      </trkpt>
      <trkpt lat="47.30775" lon="-2.34131">
        <ele>52.200000762939</ele>
        <time>2022-04-21T10:12:01.000Z</time>
      </trkpt>
      <trkpt lat="47.30774" lon="-2.34139">
        <ele>52.599998474121</ele>
        <time>2022-04-21T10:12:02.000Z</time>
      </trkpt>
      <trkpt lat="47.30773" lon="-2.34146">
        <ele>53</ele>
        <time>2022-04-21T10:12:03.000Z</time>
      </trkpt>
      <trkpt lat="47.30772" lon="-2.34153">
        <ele>53.400001525879</ele>
        <time>2022-04-21T10:12:04.000Z</time>
      </trkpt>
      <trkpt lat="47.30771" lon="-2.3416">
        <ele>53.799999237061</ele>
        <time>2022-04-21T10:12:05.000Z</time>
      </trkpt>
      <trkpt lat="47.30769" lon="-2.34196">
        <ele>53.799999237061</ele>
        <time>2022-04-21T10:12:10.000Z</time>
      </trkpt>
      <trkpt lat="47.30767" lon="-2.34204">
        <ele>53.799999237061</ele>
        <time>2022-04-21T10:12:11.000Z</time>
      </trkpt>
      <trkpt lat="47.30754" lon="-2.34214">
        <ele>53.799999237061</ele>
        <time>2022-04-21T10:12:14.000Z</time>
      </trkpt>
      <trkpt lat="47.30749" lon="-2.34215">
        <ele>53.799999237061</ele>
        <time>2022-04-21T10:12:15.000Z</time>
      </trkpt>
      <trkpt lat="47.30731" lon="-2.34225">
        <ele>53.799999237061</ele>
        <time>2022-04-21T10:12:19.000Z</time>
      </trkpt>
      <trkpt lat="47.3073" lon="-2.3423">
        <ele>53.799999237061</ele>
        <time>2022-04-21T10:12:20.000Z</time>
      </trkpt>
      <trkpt lat="47.30728" lon="-2.3425">
        <ele>53.799999237061</ele>
        <time>2022-04-21T10:12:23.000Z</time>
      </trkpt>
      <trkpt lat="47.30727" lon="-2.34257">
        <ele>53.799999237061</ele>
        <time>2022-04-21T10:12:24.000Z</time>
      </trkpt>
      <trkpt lat="47.30726" lon="-2.34265">
        <ele>53.799999237061</ele>
        <time>2022-04-21T10:12:25.000Z</time>
      </trkpt>
      <trkpt lat="47.30718" lon="-2.34285">
        <ele>53.799999237061</ele>
        <time>2022-04-21T10:12:28.000Z</time>
      </trkpt>
      <trkpt lat="47.30715" lon="-2.34291">
        <ele>53.799999237061</ele>
        <time>2022-04-21T10:12:29.000Z</time>
      </trkpt>
      <trkpt lat="47.30697" lon="-2.34324">
        <ele>53.799999237061</ele>
        <time>2022-04-21T10:12:34.000Z</time>
      </trkpt>
      <trkpt lat="47.30685" lon="-2.34342">
        <ele>53.799999237061</ele>
        <time>2022-04-21T10:12:37.000Z</time>
      </trkpt>
      <trkpt lat="47.30675" lon="-2.34364">
        <ele>53.799999237061</ele>
        <time>2022-04-21T10:12:40.000Z</time>
      </trkpt>
      <trkpt lat="47.30655" lon="-2.34396">
        <ele>53.799999237061</ele>
        <time>2022-04-21T10:12:46.000Z</time>
      </trkpt>
      <trkpt lat="47.30651" lon="-2.34402">
        <ele>53.799999237061</ele>
        <time>2022-04-21T10:12:47.000Z</time>
      </trkpt>
      <trkpt lat="47.30631" lon="-2.34427">
        <ele>53.799999237061</ele>
        <time>2022-04-21T10:12:52.000Z</time>
      </trkpt>
      <trkpt lat="47.30627" lon="-2.34433">
        <ele>54.200000762939</ele>
        <time>2022-04-21T10:12:53.000Z</time>
      </trkpt>
      <trkpt lat="47.30623" lon="-2.34439">
        <ele>54.599998474121</ele>
        <time>2022-04-21T10:12:54.000Z</time>
      </trkpt>
      <trkpt lat="47.30618" lon="-2.34447">
        <ele>55</ele>
        <time>2022-04-21T10:12:55.000Z</time>
      </trkpt>
      <trkpt lat="47.30614" lon="-2.34454">
        <ele>55.799999237061</ele>
        <time>2022-04-21T10:12:56.000Z</time>
      </trkpt>
      <trkpt lat="47.30609" lon="-2.34463">
        <ele>55.799999237061</ele>
        <time>2022-04-21T10:12:57.000Z</time>
      </trkpt>
      <trkpt lat="47.3058" lon="-2.34518">
        <ele>55.799999237061</ele>
        <time>2022-04-21T10:13:04.000Z</time>
      </trkpt>
      <trkpt lat="47.30553" lon="-2.34561">
        <ele>55.799999237061</ele>
        <time>2022-04-21T10:13:10.000Z</time>
      </trkpt>
      <trkpt lat="47.30519" lon="-2.34608">
        <ele>55.799999237061</ele>
        <time>2022-04-21T10:13:17.000Z</time>
      </trkpt>
      <trkpt lat="47.30515" lon="-2.34615">
        <ele>55.400001525879</ele>
        <time>2022-04-21T10:13:18.000Z</time>
      </trkpt>
      <trkpt lat="47.30512" lon="-2.34623">
        <ele>55</ele>
        <time>2022-04-21T10:13:19.000Z</time>
      </trkpt>
      <trkpt lat="47.30509" lon="-2.3463">
        <ele>54.200000762939</ele>
        <time>2022-04-21T10:13:20.000Z</time>
      </trkpt>
      <trkpt lat="47.30506" lon="-2.34636">
        <ele>53.799999237061</ele>
        <time>2022-04-21T10:13:21.000Z</time>
      </trkpt>
      <trkpt lat="47.30495" lon="-2.34656">
        <ele>53.799999237061</ele>
        <time>2022-04-21T10:13:24.000Z</time>
      </trkpt>
      <trkpt lat="47.30486" lon="-2.34666">
        <ele>53.799999237061</ele>
        <time>2022-04-21T10:13:26.000Z</time>
      </trkpt>
      <trkpt lat="47.30457" lon="-2.34698">
        <ele>53.799999237061</ele>
        <time>2022-04-21T10:13:32.000Z</time>
      </trkpt>
      <trkpt lat="47.30425" lon="-2.34727">
        <ele>53.799999237061</ele>
        <time>2022-04-21T10:13:38.000Z</time>
      </trkpt>
      <trkpt lat="47.30392" lon="-2.34749">
        <ele>53.799999237061</ele>
        <time>2022-04-21T10:13:44.000Z</time>
      </trkpt>
      <trkpt lat="47.30364" lon="-2.34769">
        <ele>53.799999237061</ele>
        <time>2022-04-21T10:13:49.000Z</time>
      </trkpt>
      <trkpt lat="47.30348" lon="-2.34783">
        <ele>53.799999237061</ele>
        <time>2022-04-21T10:13:52.000Z</time>
      </trkpt>
      <trkpt lat="47.30337" lon="-2.34798">
        <ele>53.799999237061</ele>
        <time>2022-04-21T10:13:54.000Z</time>
      </trkpt>
      <trkpt lat="47.30328" lon="-2.34812">
        <ele>53.799999237061</ele>
        <time>2022-04-21T10:13:56.000Z</time>
      </trkpt>
      <trkpt lat="47.30313" lon="-2.34832">
        <ele>53.799999237061</ele>
        <time>2022-04-21T10:13:59.000Z</time>
      </trkpt>
      <trkpt lat="47.30296" lon="-2.3485">
        <ele>53.799999237061</ele>
        <time>2022-04-21T10:14:02.000Z</time>
      </trkpt>
      <trkpt lat="47.30286" lon="-2.34856">
        <ele>53.799999237061</ele>
        <time>2022-04-21T10:14:04.000Z</time>
      </trkpt>
      <trkpt lat="47.30245" lon="-2.3488">
        <ele>53.799999237061</ele>
        <time>2022-04-21T10:14:11.000Z</time>
      </trkpt>
      <trkpt lat="47.30234" lon="-2.3489">
        <ele>53.799999237061</ele>
        <time>2022-04-21T10:14:13.000Z</time>
      </trkpt>
      <trkpt lat="47.30217" lon="-2.34905">
        <ele>53.799999237061</ele>
        <time>2022-04-21T10:14:16.000Z</time>
      </trkpt>
      <trkpt lat="47.30213" lon="-2.34913">
        <ele>53.799999237061</ele>
        <time>2022-04-21T10:14:17.000Z</time>
      </trkpt>
      <trkpt lat="47.30209" lon="-2.34931">
        <ele>53.799999237061</ele>
        <time>2022-04-21T10:14:19.000Z</time>
      </trkpt>
      <trkpt lat="47.30208" lon="-2.3497">
        <ele>53.799999237061</ele>
        <time>2022-04-21T10:14:23.000Z</time>
      </trkpt>
      <trkpt lat="47.30207" lon="-2.3498">
        <ele>53.799999237061</ele>
        <time>2022-04-21T10:14:24.000Z</time>
      </trkpt>
      <trkpt lat="47.30207" lon="-2.35012">
        <ele>53.799999237061</ele>
        <time>2022-04-21T10:14:27.000Z</time>
      </trkpt>
      <trkpt lat="47.30208" lon="-2.35035">
        <ele>53.799999237061</ele>
        <time>2022-04-21T10:14:29.000Z</time>
      </trkpt>
      <trkpt lat="47.30209" lon="-2.35057">
        <ele>53.400001525879</ele>
        <time>2022-04-21T10:14:31.000Z</time>
      </trkpt>
      <trkpt lat="47.30209" lon="-2.35068">
        <ele>53</ele>
        <time>2022-04-21T10:14:32.000Z</time>
      </trkpt>
      <trkpt lat="47.30208" lon="-2.35078">
        <ele>52.599998474121</ele>
        <time>2022-04-21T10:14:33.000Z</time>
      </trkpt>
      <trkpt lat="47.30209" lon="-2.35088">
        <ele>52.200000762939</ele>
        <time>2022-04-21T10:14:34.000Z</time>
      </trkpt>
      <trkpt lat="47.30208" lon="-2.35098">
        <ele>51.799999237061</ele>
        <time>2022-04-21T10:14:35.000Z</time>
      </trkpt>
      <trkpt lat="47.30207" lon="-2.35117">
        <ele>51.799999237061</ele>
        <time>2022-04-21T10:14:37.000Z</time>
      </trkpt>
      <trkpt lat="47.30207" lon="-2.35137">
        <ele>51.799999237061</ele>
        <time>2022-04-21T10:14:39.000Z</time>
      </trkpt>
      <trkpt lat="47.30207" lon="-2.35156">
        <ele>51.400001525879</ele>
        <time>2022-04-21T10:14:41.000Z</time>
      </trkpt>
      <trkpt lat="47.30205" lon="-2.35163">
        <ele>50.799999237061</ele>
        <time>2022-04-21T10:14:42.000Z</time>
      </trkpt>
      <trkpt lat="47.30202" lon="-2.35168">
        <ele>50.400001525879</ele>
        <time>2022-04-21T10:14:43.000Z</time>
      </trkpt>
      <trkpt lat="47.30198" lon="-2.3517">
        <ele>50</ele>
        <time>2022-04-21T10:14:44.000Z</time>
      </trkpt>
      <trkpt lat="47.30194" lon="-2.3517">
        <ele>49.599998474121</ele>
        <time>2022-04-21T10:14:45.000Z</time>
      </trkpt>
      <trkpt lat="47.30191" lon="-2.35172">
        <ele>49.599998474121</ele>
        <time>2022-04-21T10:14:46.000Z</time>
      </trkpt>
      <trkpt lat="47.30173" lon="-2.35178">
        <ele>49.599998474121</ele>
        <time>2022-04-21T10:14:51.000Z</time>
      </trkpt>
      <trkpt lat="47.30165" lon="-2.35183">
        <ele>49.599998474121</ele>
        <time>2022-04-21T10:14:56.000Z</time>
      </trkpt>
      <trkpt lat="47.30161" lon="-2.35187">
        <ele>49.200000762939</ele>
        <time>2022-04-21T10:15:00.000Z</time>
      </trkpt>
      <trkpt lat="47.3016" lon="-2.35187">
        <ele>48.799999237061</ele>
        <time>2022-04-21T10:15:01.000Z</time>
      </trkpt>
      <trkpt lat="47.3016" lon="-2.35188">
        <ele>48.400001525879</ele>
        <time>2022-04-21T10:15:02.000Z</time>
      </trkpt>
      <trkpt lat="47.30159" lon="-2.35189">
        <ele>48</ele>
        <time>2022-04-21T10:15:03.000Z</time>
      </trkpt>
      <trkpt lat="47.30149" lon="-2.35195">
        <ele>47.599998474121</ele>
        <time>2022-04-21T10:15:19.000Z</time>
      </trkpt>
      <trkpt lat="47.30147" lon="-2.35195">
        <ele>47.599998474121</ele>
        <time>2022-04-21T10:15:21.000Z</time>
      </trkpt>
      <trkpt lat="47.30144" lon="-2.35195">
        <ele>47.599998474121</ele>
        <time>2022-04-21T10:15:23.000Z</time>
      </trkpt>
      <trkpt lat="47.30136" lon="-2.35195">
        <ele>47.599998474121</ele>
        <time>2022-04-21T10:15:27.000Z</time>
      </trkpt>
      <trkpt lat="47.30133" lon="-2.35196">
        <ele>47.599998474121</ele>
        <time>2022-04-21T10:15:28.000Z</time>
      </trkpt>
      <trkpt lat="47.30114" lon="-2.35206">
        <ele>47.599998474121</ele>
        <time>2022-04-21T10:15:33.000Z</time>
      </trkpt>
      <trkpt lat="47.3011" lon="-2.35208">
        <ele>47.599998474121</ele>
        <time>2022-04-21T10:15:34.000Z</time>
      </trkpt>
      <trkpt lat="47.30097" lon="-2.35213">
        <ele>47.599998474121</ele>
        <time>2022-04-21T10:15:37.000Z</time>
      </trkpt>
      <trkpt lat="47.30073" lon="-2.35224">
        <ele>47.599998474121</ele>
        <time>2022-04-21T10:15:43.000Z</time>
      </trkpt>
      <trkpt lat="47.3006" lon="-2.3523">
        <ele>47.599998474121</ele>
        <time>2022-04-21T10:15:46.000Z</time>
      </trkpt>
      <trkpt lat="47.30046" lon="-2.35236">
        <ele>47.599998474121</ele>
        <time>2022-04-21T10:15:49.000Z</time>
      </trkpt>
      <trkpt lat="47.3003" lon="-2.35246">
        <ele>47.599998474121</ele>
        <time>2022-04-21T10:15:54.000Z</time>
      </trkpt>
      <trkpt lat="47.30019" lon="-2.3525">
        <ele>47.599998474121</ele>
        <time>2022-04-21T10:15:58.000Z</time>
      </trkpt>
      <trkpt lat="47.30013" lon="-2.35254">
        <ele>47.599998474121</ele>
        <time>2022-04-21T10:16:00.000Z</time>
      </trkpt>
      <trkpt lat="47.30005" lon="-2.35258">
        <ele>47.599998474121</ele>
        <time>2022-04-21T10:16:04.000Z</time>
      </trkpt>
      <trkpt lat="47.29997" lon="-2.3526">
        <ele>47.599998474121</ele>
        <time>2022-04-21T10:16:10.000Z</time>
      </trkpt>
      <trkpt lat="47.29992" lon="-2.35265">
        <ele>47.599998474121</ele>
        <time>2022-04-21T10:18:51.000Z</time>
      </trkpt>
      <trkpt lat="47.29988" lon="-2.35271">
        <ele>47.599998474121</ele>
        <time>2022-04-21T10:18:54.000Z</time>
      </trkpt>
      <trkpt lat="47.29975" lon="-2.35286">
        <ele>47.599998474121</ele>
        <time>2022-04-21T10:18:59.000Z</time>
      </trkpt>
      <trkpt lat="47.29953" lon="-2.35314">
        <ele>47.599998474121</ele>
        <time>2022-04-21T10:19:06.000Z</time>
      </trkpt>
      <trkpt lat="47.29925" lon="-2.3535">
        <ele>47.599998474121</ele>
        <time>2022-04-21T10:19:14.000Z</time>
      </trkpt>
      <trkpt lat="47.29901" lon="-2.35379">
        <ele>47.599998474121</ele>
        <time>2022-04-21T10:19:21.000Z</time>
      </trkpt>
      <trkpt lat="47.29871" lon="-2.3541">
        <ele>47.599998474121</ele>
        <time>2022-04-21T10:19:29.000Z</time>
      </trkpt>
      <trkpt lat="47.29867" lon="-2.35415">
        <ele>47.599998474121</ele>
        <time>2022-04-21T10:19:30.000Z</time>
      </trkpt>
      <trkpt lat="47.29856" lon="-2.35426">
        <ele>48</ele>
        <time>2022-04-21T10:19:33.000Z</time>
      </trkpt>
      <trkpt lat="47.29853" lon="-2.35431">
        <ele>48.400001525879</ele>
        <time>2022-04-21T10:19:34.000Z</time>
      </trkpt>
      <trkpt lat="47.2985" lon="-2.35435">
        <ele>48.799999237061</ele>
        <time>2022-04-21T10:19:35.000Z</time>
      </trkpt>
      <trkpt lat="47.29846" lon="-2.3544">
        <ele>49.200000762939</ele>
        <time>2022-04-21T10:19:36.000Z</time>
      </trkpt>
      <trkpt lat="47.29842" lon="-2.35444">
        <ele>49.599998474121</ele>
        <time>2022-04-21T10:19:37.000Z</time>
      </trkpt>
      <trkpt lat="47.29832" lon="-2.35459">
        <ele>49.599998474121</ele>
        <time>2022-04-21T10:19:40.000Z</time>
      </trkpt>
      <trkpt lat="47.29829" lon="-2.35465">
        <ele>49.599998474121</ele>
        <time>2022-04-21T10:19:41.000Z</time>
      </trkpt>
      <trkpt lat="47.29828" lon="-2.35472">
        <ele>49.599998474121</ele>
        <time>2022-04-21T10:19:42.000Z</time>
      </trkpt>
      <trkpt lat="47.2983" lon="-2.35484">
        <ele>49.599998474121</ele>
        <time>2022-04-21T10:19:44.000Z</time>
      </trkpt>
      <trkpt lat="47.29837" lon="-2.35502">
        <ele>49.599998474121</ele>
        <time>2022-04-21T10:19:47.000Z</time>
      </trkpt>
      <trkpt lat="47.2984" lon="-2.35508">
        <ele>49.599998474121</ele>
        <time>2022-04-21T10:19:48.000Z</time>
      </trkpt>
      <trkpt lat="47.29851" lon="-2.35548">
        <ele>49.599998474121</ele>
        <time>2022-04-21T10:19:54.000Z</time>
      </trkpt>
      <trkpt lat="47.29852" lon="-2.35555">
        <ele>50</ele>
        <time>2022-04-21T10:19:55.000Z</time>
      </trkpt>
      <trkpt lat="47.29855" lon="-2.35561">
        <ele>50.400001525879</ele>
        <time>2022-04-21T10:19:56.000Z</time>
      </trkpt>
      <trkpt lat="47.29856" lon="-2.35568">
        <ele>50.799999237061</ele>
        <time>2022-04-21T10:19:57.000Z</time>
      </trkpt>
      <trkpt lat="47.29858" lon="-2.35576">
        <ele>51.200000762939</ele>
        <time>2022-04-21T10:19:58.000Z</time>
      </trkpt>
      <trkpt lat="47.2986" lon="-2.35582">
        <ele>51.599998474121</ele>
        <time>2022-04-21T10:19:59.000Z</time>
      </trkpt>
      <trkpt lat="47.29862" lon="-2.35589">
        <ele>51.599998474121</ele>
        <time>2022-04-21T10:20:00.000Z</time>
      </trkpt>
      <trkpt lat="47.29874" lon="-2.35639">
        <ele>51.599998474121</ele>
        <time>2022-04-21T10:20:07.000Z</time>
      </trkpt>
      <trkpt lat="47.29883" lon="-2.35693">
        <ele>51.599998474121</ele>
        <time>2022-04-21T10:20:15.000Z</time>
      </trkpt>
      <trkpt lat="47.29884" lon="-2.35699">
        <ele>52</ele>
        <time>2022-04-21T10:20:16.000Z</time>
      </trkpt>
      <trkpt lat="47.29886" lon="-2.35705">
        <ele>52.400001525879</ele>
        <time>2022-04-21T10:20:17.000Z</time>
      </trkpt>
      <trkpt lat="47.29887" lon="-2.35712">
        <ele>52.799999237061</ele>
        <time>2022-04-21T10:20:18.000Z</time>
      </trkpt>
      <trkpt lat="47.29888" lon="-2.35718">
        <ele>53.599998474121</ele>
        <time>2022-04-21T10:20:19.000Z</time>
      </trkpt>
      <trkpt lat="47.29892" lon="-2.3573">
        <ele>53.599998474121</ele>
        <time>2022-04-21T10:20:21.000Z</time>
      </trkpt>
      <trkpt lat="47.29895" lon="-2.35749">
        <ele>53.599998474121</ele>
        <time>2022-04-21T10:20:24.000Z</time>
      </trkpt>
      <trkpt lat="47.29891" lon="-2.35755">
        <ele>53.599998474121</ele>
        <time>2022-04-21T10:20:26.000Z</time>
      </trkpt>
      <trkpt lat="47.29884" lon="-2.35758">
        <ele>53.599998474121</ele>
        <time>2022-04-21T10:20:28.000Z</time>
      </trkpt>
      <trkpt lat="47.29876" lon="-2.35761">
        <ele>53.599998474121</ele>
        <time>2022-04-21T10:20:30.000Z</time>
      </trkpt>
      <trkpt lat="47.29846" lon="-2.35774">
        <ele>53.599998474121</ele>
        <time>2022-04-21T10:20:37.000Z</time>
      </trkpt>
      <trkpt lat="47.29833" lon="-2.35787">
        <ele>53.599998474121</ele>
        <time>2022-04-21T10:20:40.000Z</time>
      </trkpt>
      <trkpt lat="47.29829" lon="-2.35789">
        <ele>53.599998474121</ele>
        <time>2022-04-21T10:20:41.000Z</time>
      </trkpt>
      <trkpt lat="47.29808" lon="-2.35795">
        <ele>54</ele>
        <time>2022-04-21T10:20:45.000Z</time>
      </trkpt>
      <trkpt lat="47.29803" lon="-2.35797">
        <ele>54.400001525879</ele>
        <time>2022-04-21T10:20:46.000Z</time>
      </trkpt>
      <trkpt lat="47.29798" lon="-2.35798">
        <ele>54.799999237061</ele>
        <time>2022-04-21T10:20:47.000Z</time>
      </trkpt>
      <trkpt lat="47.29793" lon="-2.358">
        <ele>55.200000762939</ele>
        <time>2022-04-21T10:20:48.000Z</time>
      </trkpt>
      <trkpt lat="47.29788" lon="-2.35801">
        <ele>55.599998474121</ele>
        <time>2022-04-21T10:20:49.000Z</time>
      </trkpt>
      <trkpt lat="47.29764" lon="-2.35809">
        <ele>55.599998474121</ele>
        <time>2022-04-21T10:20:54.000Z</time>
      </trkpt>
      <trkpt lat="47.29724" lon="-2.35828">
        <ele>55.599998474121</ele>
        <time>2022-04-21T10:21:01.000Z</time>
      </trkpt>
      <trkpt lat="47.2971" lon="-2.35835">
        <ele>55.200000762939</ele>
        <time>2022-04-21T10:21:03.000Z</time>
      </trkpt>
      <trkpt lat="47.29703" lon="-2.35839">
        <ele>54.799999237061</ele>
        <time>2022-04-21T10:21:04.000Z</time>
      </trkpt>
      <trkpt lat="47.29697" lon="-2.35843">
        <ele>54.400001525879</ele>
        <time>2022-04-21T10:21:05.000Z</time>
      </trkpt>
      <trkpt lat="47.2969" lon="-2.35845">
        <ele>54</ele>
        <time>2022-04-21T10:21:06.000Z</time>
      </trkpt>
      <trkpt lat="47.29683" lon="-2.35846">
        <ele>53.599998474121</ele>
        <time>2022-04-21T10:21:07.000Z</time>
      </trkpt>
      <trkpt lat="47.2967" lon="-2.35851">
        <ele>53.599998474121</ele>
        <time>2022-04-21T10:21:09.000Z</time>
      </trkpt>
      <trkpt lat="47.29659" lon="-2.35861">
        <ele>53.599998474121</ele>
        <time>2022-04-21T10:21:11.000Z</time>
      </trkpt>
      <trkpt lat="47.29654" lon="-2.35865">
        <ele>53.599998474121</ele>
        <time>2022-04-21T10:21:12.000Z</time>
      </trkpt>
      <trkpt lat="47.29632" lon="-2.35878">
        <ele>53.599998474121</ele>
        <time>2022-04-21T10:21:16.000Z</time>
      </trkpt>
      <trkpt lat="47.29597" lon="-2.35896">
        <ele>53.599998474121</ele>
        <time>2022-04-21T10:21:22.000Z</time>
      </trkpt>
      <trkpt lat="47.29569" lon="-2.35914">
        <ele>53.599998474121</ele>
        <time>2022-04-21T10:21:27.000Z</time>
      </trkpt>
      <trkpt lat="47.2952" lon="-2.35942">
        <ele>53.599998474121</ele>
        <time>2022-04-21T10:21:36.000Z</time>
      </trkpt>
      <trkpt lat="47.29515" lon="-2.35941">
        <ele>53.599998474121</ele>
        <time>2022-04-21T10:21:37.000Z</time>
      </trkpt>
      <trkpt lat="47.29507" lon="-2.35937">
        <ele>53.599998474121</ele>
        <time>2022-04-21T10:21:39.000Z</time>
      </trkpt>
      <trkpt lat="47.295" lon="-2.35918">
        <ele>53.200000762939</ele>
        <time>2022-04-21T10:21:42.000Z</time>
      </trkpt>
      <trkpt lat="47.29499" lon="-2.35912">
        <ele>52.799999237061</ele>
        <time>2022-04-21T10:21:43.000Z</time>
      </trkpt>
      <trkpt lat="47.29497" lon="-2.35907">
        <ele>52.400001525879</ele>
        <time>2022-04-21T10:21:44.000Z</time>
      </trkpt>
      <trkpt lat="47.29495" lon="-2.35901">
        <ele>52</ele>
        <time>2022-04-21T10:21:45.000Z</time>
      </trkpt>
      <trkpt lat="47.29491" lon="-2.35898">
        <ele>51.599998474121</ele>
        <time>2022-04-21T10:21:46.000Z</time>
      </trkpt>
      <trkpt lat="47.29477" lon="-2.35898">
        <ele>51.599998474121</ele>
        <time>2022-04-21T10:21:49.000Z</time>
      </trkpt>
      <trkpt lat="47.29468" lon="-2.359">
        <ele>51.599998474121</ele>
        <time>2022-04-21T10:21:51.000Z</time>
      </trkpt>
      <trkpt lat="47.29457" lon="-2.35902">
        <ele>51.599998474121</ele>
        <time>2022-04-21T10:21:54.000Z</time>
      </trkpt>
      <trkpt lat="47.29448" lon="-2.35909">
        <ele>51.599998474121</ele>
        <time>2022-04-21T10:21:58.000Z</time>
      </trkpt>
      <trkpt lat="47.29438" lon="-2.35915">
        <ele>51.599998474121</ele>
        <time>2022-04-21T10:22:01.000Z</time>
      </trkpt>
      <trkpt lat="47.29434" lon="-2.35911">
        <ele>51.599998474121</ele>
        <time>2022-04-21T10:22:02.000Z</time>
      </trkpt>
      <trkpt lat="47.29426" lon="-2.35894">
        <ele>51.599998474121</ele>
        <time>2022-04-21T10:22:05.000Z</time>
      </trkpt>
      <trkpt lat="47.29415" lon="-2.3588">
        <ele>51.599998474121</ele>
        <time>2022-04-21T10:22:08.000Z</time>
      </trkpt>
      <trkpt lat="47.29409" lon="-2.3587">
        <ele>51.599998474121</ele>
        <time>2022-04-21T10:22:10.000Z</time>
      </trkpt>
      <trkpt lat="47.29405" lon="-2.35866">
        <ele>51.599998474121</ele>
        <time>2022-04-21T10:22:11.000Z</time>
      </trkpt>
      <trkpt lat="47.29389" lon="-2.35848">
        <ele>51.599998474121</ele>
        <time>2022-04-21T10:22:15.000Z</time>
      </trkpt>
      <trkpt lat="47.29371" lon="-2.3583">
        <ele>51.599998474121</ele>
        <time>2022-04-21T10:22:19.000Z</time>
      </trkpt>
      <trkpt lat="47.2936" lon="-2.35821">
        <ele>51.599998474121</ele>
        <time>2022-04-21T10:22:21.000Z</time>
      </trkpt>
      <trkpt lat="47.29323" lon="-2.35789">
        <ele>51.599998474121</ele>
        <time>2022-04-21T10:22:28.000Z</time>
      </trkpt>
      <trkpt lat="47.29289" lon="-2.3576">
        <ele>51.599998474121</ele>
        <time>2022-04-21T10:22:35.000Z</time>
      </trkpt>
      <trkpt lat="47.29262" lon="-2.35733">
        <ele>51.599998474121</ele>
        <time>2022-04-21T10:22:41.000Z</time>
      </trkpt>
      <trkpt lat="47.29251" lon="-2.35731">
        <ele>51.599998474121</ele>
        <time>2022-04-21T10:22:43.000Z</time>
      </trkpt>
      <trkpt lat="47.29242" lon="-2.35745">
        <ele>51.599998474121</ele>
        <time>2022-04-21T10:22:45.000Z</time>
      </trkpt>
      <trkpt lat="47.29239" lon="-2.35753">
        <ele>51.599998474121</ele>
        <time>2022-04-21T10:22:46.000Z</time>
      </trkpt>
      <trkpt lat="47.29225" lon="-2.35773">
        <ele>51.599998474121</ele>
        <time>2022-04-21T10:22:50.000Z</time>
      </trkpt>
      <trkpt lat="47.29223" lon="-2.35777">
        <ele>51.599998474121</ele>
        <time>2022-04-21T10:22:53.000Z</time>
      </trkpt>
      <trkpt lat="47.29211" lon="-2.3579">
        <ele>51.599998474121</ele>
        <time>2022-04-21T10:22:57.000Z</time>
      </trkpt>
      <trkpt lat="47.29188" lon="-2.3581">
        <ele>51.599998474121</ele>
        <time>2022-04-21T10:23:02.000Z</time>
      </trkpt>
      <trkpt lat="47.2915" lon="-2.35835">
        <ele>51.599998474121</ele>
        <time>2022-04-21T10:23:09.000Z</time>
      </trkpt>
      <trkpt lat="47.29146" lon="-2.35841">
        <ele>51.599998474121</ele>
        <time>2022-04-21T10:23:10.000Z</time>
      </trkpt>
      <trkpt lat="47.29109" lon="-2.35882">
        <ele>51.599998474121</ele>
        <time>2022-04-21T10:23:17.000Z</time>
      </trkpt>
      <trkpt lat="47.29072" lon="-2.35925">
        <ele>51.599998474121</ele>
        <time>2022-04-21T10:23:24.000Z</time>
      </trkpt>
      <trkpt lat="47.29041" lon="-2.3596">
        <ele>51.599998474121</ele>
        <time>2022-04-21T10:23:30.000Z</time>
      </trkpt>
      <trkpt lat="47.28999" lon="-2.36004">
        <ele>51.599998474121</ele>
        <time>2022-04-21T10:23:38.000Z</time>
      </trkpt>
      <trkpt lat="47.28955" lon="-2.36045">
        <ele>51.599998474121</ele>
        <time>2022-04-21T10:23:46.000Z</time>
      </trkpt>
      <trkpt lat="47.28922" lon="-2.36066">
        <ele>51.599998474121</ele>
        <time>2022-04-21T10:23:52.000Z</time>
      </trkpt>
      <trkpt lat="47.28885" lon="-2.36099">
        <ele>51.599998474121</ele>
        <time>2022-04-21T10:23:59.000Z</time>
      </trkpt>
      <trkpt lat="47.28881" lon="-2.36104">
        <ele>51.599998474121</ele>
        <time>2022-04-21T10:24:00.000Z</time>
      </trkpt>
      <trkpt lat="47.28856" lon="-2.36129">
        <ele>51.599998474121</ele>
        <time>2022-04-21T10:24:05.000Z</time>
      </trkpt>
      <trkpt lat="47.28834" lon="-2.36157">
        <ele>51.599998474121</ele>
        <time>2022-04-21T10:24:10.000Z</time>
      </trkpt>
      <trkpt lat="47.28827" lon="-2.36169">
        <ele>51.599998474121</ele>
        <time>2022-04-21T10:24:12.000Z</time>
      </trkpt>
      <trkpt lat="47.28818" lon="-2.36179">
        <ele>51.599998474121</ele>
        <time>2022-04-21T10:24:14.000Z</time>
      </trkpt>
      <trkpt lat="47.28804" lon="-2.36189">
        <ele>51.599998474121</ele>
        <time>2022-04-21T10:24:17.000Z</time>
      </trkpt>
      <trkpt lat="47.28774" lon="-2.36209">
        <ele>51.599998474121</ele>
        <time>2022-04-21T10:24:25.000Z</time>
      </trkpt>
      <trkpt lat="47.28758" lon="-2.3622">
        <ele>51.599998474121</ele>
        <time>2022-04-21T10:24:31.000Z</time>
      </trkpt>
      <trkpt lat="47.28744" lon="-2.36228">
        <ele>51.599998474121</ele>
        <time>2022-04-21T10:24:37.000Z</time>
      </trkpt>
      <trkpt lat="47.28729" lon="-2.36242">
        <ele>51.599998474121</ele>
        <time>2022-04-21T10:24:44.000Z</time>
      </trkpt>
      <trkpt lat="47.28724" lon="-2.36253">
        <ele>51.599998474121</ele>
        <time>2022-04-21T10:24:48.000Z</time>
      </trkpt>
      <trkpt lat="47.2872" lon="-2.36259">
        <ele>51.599998474121</ele>
        <time>2022-04-21T10:24:50.000Z</time>
      </trkpt>
      <trkpt lat="47.28717" lon="-2.36263">
        <ele>52.400001525879</ele>
        <time>2022-04-21T10:24:51.000Z</time>
      </trkpt>
      <trkpt lat="47.28714" lon="-2.36266">
        <ele>52.799999237061</ele>
        <time>2022-04-21T10:24:52.000Z</time>
      </trkpt>
      <trkpt lat="47.28712" lon="-2.36269">
        <ele>53.200000762939</ele>
        <time>2022-04-21T10:24:53.000Z</time>
      </trkpt>
      <trkpt lat="47.28709" lon="-2.36271">
        <ele>53.799999237061</ele>
        <time>2022-04-21T10:24:54.000Z</time>
      </trkpt>
      <trkpt lat="47.28706" lon="-2.36273">
        <ele>53.799999237061</ele>
        <time>2022-04-21T10:24:55.000Z</time>
      </trkpt>
      <trkpt lat="47.28697" lon="-2.36274">
        <ele>54.200000762939</ele>
        <time>2022-04-21T10:24:58.000Z</time>
      </trkpt>
      <trkpt lat="47.28692" lon="-2.36275">
        <ele>54.599998474121</ele>
        <time>2022-04-21T10:24:59.000Z</time>
      </trkpt>
      <trkpt lat="47.28688" lon="-2.36275">
        <ele>55</ele>
        <time>2022-04-21T10:25:00.000Z</time>
      </trkpt>
      <trkpt lat="47.28685" lon="-2.36275">
        <ele>55.400001525879</ele>
        <time>2022-04-21T10:25:01.000Z</time>
      </trkpt>
      <trkpt lat="47.28681" lon="-2.36274">
        <ele>55.799999237061</ele>
        <time>2022-04-21T10:25:02.000Z</time>
      </trkpt>
      <trkpt lat="47.28676" lon="-2.36268">
        <ele>55.799999237061</ele>
        <time>2022-04-21T10:25:04.000Z</time>
      </trkpt>
      <trkpt lat="47.28673" lon="-2.36248">
        <ele>55.799999237061</ele>
        <time>2022-04-21T10:25:08.000Z</time>
      </trkpt>
      <trkpt lat="47.28673" lon="-2.36242">
        <ele>55.799999237061</ele>
        <time>2022-04-21T10:25:09.000Z</time>
      </trkpt>
      <trkpt lat="47.28674" lon="-2.36232">
        <ele>56.200000762939</ele>
        <time>2022-04-21T10:25:11.000Z</time>
      </trkpt>
      <trkpt lat="47.28674" lon="-2.36226">
        <ele>56.599998474121</ele>
        <time>2022-04-21T10:25:12.000Z</time>
      </trkpt>
      <trkpt lat="47.28674" lon="-2.36221">
        <ele>57</ele>
        <time>2022-04-21T10:25:13.000Z</time>
      </trkpt>
      <trkpt lat="47.28674" lon="-2.36216">
        <ele>57.400001525879</ele>
        <time>2022-04-21T10:25:14.000Z</time>
      </trkpt>
      <trkpt lat="47.28674" lon="-2.36212">
        <ele>57.799999237061</ele>
        <time>2022-04-21T10:25:15.000Z</time>
      </trkpt>
      <trkpt lat="47.28664" lon="-2.36185">
        <ele>57.799999237061</ele>
        <time>2022-04-21T10:25:20.000Z</time>
      </trkpt>
      <trkpt lat="47.2866" lon="-2.36181">
        <ele>58.200000762939</ele>
        <time>2022-04-21T10:25:21.000Z</time>
      </trkpt>
      <trkpt lat="47.28657" lon="-2.36177">
        <ele>58.599998474121</ele>
        <time>2022-04-21T10:25:22.000Z</time>
      </trkpt>
      <trkpt lat="47.28654" lon="-2.36175">
        <ele>59</ele>
        <time>2022-04-21T10:25:23.000Z</time>
      </trkpt>
      <trkpt lat="47.28652" lon="-2.36171">
        <ele>59.400001525879</ele>
        <time>2022-04-21T10:25:24.000Z</time>
      </trkpt>
      <trkpt lat="47.28651" lon="-2.36169">
        <ele>59.799999237061</ele>
        <time>2022-04-21T10:25:25.000Z</time>
      </trkpt>
      <trkpt lat="47.28647" lon="-2.36161">
        <ele>59.799999237061</ele>
        <time>2022-04-21T10:25:26.000Z</time>
      </trkpt>
      <trkpt lat="47.28638" lon="-2.36147">
        <ele>59.799999237061</ele>
        <time>2022-04-21T10:25:28.000Z</time>
      </trkpt>
      <trkpt lat="47.28634" lon="-2.36145">
        <ele>60.200000762939</ele>
        <time>2022-04-21T10:25:29.000Z</time>
      </trkpt>
      <trkpt lat="47.2863" lon="-2.36144">
        <ele>60.799999237061</ele>
        <time>2022-04-21T10:25:30.000Z</time>
      </trkpt>
      <trkpt lat="47.28627" lon="-2.36145">
        <ele>61.200000762939</ele>
        <time>2022-04-21T10:25:31.000Z</time>
      </trkpt>
      <trkpt lat="47.28625" lon="-2.36146">
        <ele>61.599998474121</ele>
        <time>2022-04-21T10:25:32.000Z</time>
      </trkpt>
      <trkpt lat="47.28622" lon="-2.36148">
        <ele>62</ele>
        <time>2022-04-21T10:25:33.000Z</time>
      </trkpt>
      <trkpt lat="47.2862" lon="-2.3615">
        <ele>62</ele>
        <time>2022-04-21T10:25:34.000Z</time>
      </trkpt>
      <trkpt lat="47.28618" lon="-2.36152">
        <ele>62</ele>
        <time>2022-04-21T10:25:35.000Z</time>
      </trkpt>
      <trkpt lat="47.28612" lon="-2.36156">
        <ele>62</ele>
        <time>2022-04-21T10:25:37.000Z</time>
      </trkpt>
      <trkpt lat="47.28606" lon="-2.36157">
        <ele>62</ele>
        <time>2022-04-21T10:25:39.000Z</time>
      </trkpt>
      <trkpt lat="47.28585" lon="-2.36151">
        <ele>62</ele>
        <time>2022-04-21T10:25:45.000Z</time>
      </trkpt>
      <trkpt lat="47.28576" lon="-2.36151">
        <ele>62</ele>
        <time>2022-04-21T10:25:47.000Z</time>
      </trkpt>
      <trkpt lat="47.28571" lon="-2.36153">
        <ele>62</ele>
        <time>2022-04-21T10:25:48.000Z</time>
      </trkpt>
      <trkpt lat="47.28562" lon="-2.36158">
        <ele>62</ele>
        <time>2022-04-21T10:25:50.000Z</time>
      </trkpt>
      <trkpt lat="47.28557" lon="-2.36158">
        <ele>61.400001525879</ele>
        <time>2022-04-21T10:25:51.000Z</time>
      </trkpt>
      <trkpt lat="47.28552" lon="-2.36155">
        <ele>60.799999237061</ele>
        <time>2022-04-21T10:25:52.000Z</time>
      </trkpt>
      <trkpt lat="47.28548" lon="-2.36149">
        <ele>60.200000762939</ele>
        <time>2022-04-21T10:25:53.000Z</time>
      </trkpt>
      <trkpt lat="47.28545" lon="-2.36141">
        <ele>59.599998474121</ele>
        <time>2022-04-21T10:25:54.000Z</time>
      </trkpt>
      <trkpt lat="47.28542" lon="-2.36134">
        <ele>59</ele>
        <time>2022-04-21T10:25:55.000Z</time>
      </trkpt>
      <trkpt lat="47.2854" lon="-2.36127">
        <ele>59</ele>
        <time>2022-04-21T10:25:56.000Z</time>
      </trkpt>
      <trkpt lat="47.28533" lon="-2.36093">
        <ele>59</ele>
        <time>2022-04-21T10:26:01.000Z</time>
      </trkpt>
      <trkpt lat="47.28525" lon="-2.36074">
        <ele>59</ele>
        <time>2022-04-21T10:26:06.000Z</time>
      </trkpt>
      <trkpt lat="47.28513" lon="-2.36056">
        <ele>59</ele>
        <time>2022-04-21T10:26:12.000Z</time>
      </trkpt>
      <trkpt lat="47.2851" lon="-2.36054">
        <ele>59</ele>
        <time>2022-04-21T10:26:13.000Z</time>
      </trkpt>
      <trkpt lat="47.28497" lon="-2.36049">
        <ele>59</ele>
        <time>2022-04-21T10:26:16.000Z</time>
      </trkpt>
      <trkpt lat="47.28491" lon="-2.36046">
        <ele>59</ele>
        <time>2022-04-21T10:26:17.000Z</time>
      </trkpt>
      <trkpt lat="47.2848" lon="-2.36033">
        <ele>59</ele>
        <time>2022-04-21T10:26:20.000Z</time>
      </trkpt>
      <trkpt lat="47.28467" lon="-2.36007">
        <ele>59</ele>
        <time>2022-04-21T10:26:24.000Z</time>
      </trkpt>
      <trkpt lat="47.28451" lon="-2.36004">
        <ele>59</ele>
        <time>2022-04-21T10:26:27.000Z</time>
      </trkpt>
      <trkpt lat="47.28433" lon="-2.36015">
        <ele>59</ele>
        <time>2022-04-21T10:26:31.000Z</time>
      </trkpt>
      <trkpt lat="47.28413" lon="-2.3603">
        <ele>59</ele>
        <time>2022-04-21T10:26:36.000Z</time>
      </trkpt>
      <trkpt lat="47.28404" lon="-2.36032">
        <ele>58.599998474121</ele>
        <time>2022-04-21T10:26:38.000Z</time>
      </trkpt>
      <trkpt lat="47.28399" lon="-2.36033">
        <ele>58.200000762939</ele>
        <time>2022-04-21T10:26:39.000Z</time>
      </trkpt>
      <trkpt lat="47.28393" lon="-2.36035">
        <ele>57.799999237061</ele>
        <time>2022-04-21T10:26:40.000Z</time>
      </trkpt>
      <trkpt lat="47.28387" lon="-2.36037">
        <ele>57.400001525879</ele>
        <time>2022-04-21T10:26:41.000Z</time>
      </trkpt>
      <trkpt lat="47.28381" lon="-2.36039">
        <ele>56.599998474121</ele>
        <time>2022-04-21T10:26:42.000Z</time>
      </trkpt>
      <trkpt lat="47.28375" lon="-2.36042">
        <ele>56</ele>
        <time>2022-04-21T10:26:43.000Z</time>
      </trkpt>
      <trkpt lat="47.28368" lon="-2.36044">
        <ele>55.400001525879</ele>
        <time>2022-04-21T10:26:44.000Z</time>
      </trkpt>
      <trkpt lat="47.28361" lon="-2.36047">
        <ele>54.799999237061</ele>
        <time>2022-04-21T10:26:45.000Z</time>
      </trkpt>
      <trkpt lat="47.28354" lon="-2.36051">
        <ele>54</ele>
        <time>2022-04-21T10:26:46.000Z</time>
      </trkpt>
      <trkpt lat="47.28345" lon="-2.36053">
        <ele>53.200000762939</ele>
        <time>2022-04-21T10:26:47.000Z</time>
      </trkpt>
      <trkpt lat="47.28337" lon="-2.36056">
        <ele>52.599998474121</ele>
        <time>2022-04-21T10:26:48.000Z</time>
      </trkpt>
      <trkpt lat="47.28331" lon="-2.36058">
        <ele>51.799999237061</ele>
        <time>2022-04-21T10:26:49.000Z</time>
      </trkpt>
      <trkpt lat="47.28322" lon="-2.36057">
        <ele>51.799999237061</ele>
        <time>2022-04-21T10:26:51.000Z</time>
      </trkpt>
      <trkpt lat="47.28317" lon="-2.36056">
        <ele>51.799999237061</ele>
        <time>2022-04-21T10:26:52.000Z</time>
      </trkpt>
      <trkpt lat="47.28312" lon="-2.36055">
        <ele>51.400001525879</ele>
        <time>2022-04-21T10:26:53.000Z</time>
      </trkpt>
      <trkpt lat="47.28308" lon="-2.36054">
        <ele>50.599998474121</ele>
        <time>2022-04-21T10:26:54.000Z</time>
      </trkpt>
      <trkpt lat="47.28303" lon="-2.36052">
        <ele>50.200000762939</ele>
        <time>2022-04-21T10:26:55.000Z</time>
      </trkpt>
      <trkpt lat="47.28299" lon="-2.36047">
        <ele>49.599998474121</ele>
        <time>2022-04-21T10:26:56.000Z</time>
      </trkpt>
      <trkpt lat="47.28295" lon="-2.36041">
        <ele>49</ele>
        <time>2022-04-21T10:26:57.000Z</time>
      </trkpt>
      <trkpt lat="47.28292" lon="-2.36035">
        <ele>48.599998474121</ele>
        <time>2022-04-21T10:26:58.000Z</time>
      </trkpt>
      <trkpt lat="47.2829" lon="-2.36028">
        <ele>47.799999237061</ele>
        <time>2022-04-21T10:26:59.000Z</time>
      </trkpt>
      <trkpt lat="47.28288" lon="-2.3602">
        <ele>47</ele>
        <time>2022-04-21T10:27:00.000Z</time>
      </trkpt>
      <trkpt lat="47.28287" lon="-2.36012">
        <ele>46</ele>
        <time>2022-04-21T10:27:01.000Z</time>
      </trkpt>
      <trkpt lat="47.28286" lon="-2.36003">
        <ele>45</ele>
        <time>2022-04-21T10:27:02.000Z</time>
      </trkpt>
      <trkpt lat="47.28285" lon="-2.35995">
        <ele>44.200000762939</ele>
        <time>2022-04-21T10:27:03.000Z</time>
      </trkpt>
      <trkpt lat="47.28285" lon="-2.35988">
        <ele>43.200000762939</ele>
        <time>2022-04-21T10:27:04.000Z</time>
      </trkpt>
      <trkpt lat="47.28284" lon="-2.35981">
        <ele>42.200000762939</ele>
        <time>2022-04-21T10:27:05.000Z</time>
      </trkpt>
      <trkpt lat="47.28283" lon="-2.35976">
        <ele>42.200000762939</ele>
        <time>2022-04-21T10:27:06.000Z</time>
      </trkpt>
      <trkpt lat="47.28273" lon="-2.35951">
        <ele>42.200000762939</ele>
        <time>2022-04-21T10:27:11.000Z</time>
      </trkpt>
      <trkpt lat="47.28265" lon="-2.3593">
        <ele>42.200000762939</ele>
        <time>2022-04-21T10:27:16.000Z</time>
      </trkpt>
      <trkpt lat="47.28261" lon="-2.35918">
        <ele>42.200000762939</ele>
        <time>2022-04-21T10:27:19.000Z</time>
      </trkpt>
      <trkpt lat="47.28259" lon="-2.35916">
        <ele>42.200000762939</ele>
        <time>2022-04-21T10:27:20.000Z</time>
      </trkpt>
      <trkpt lat="47.28246" lon="-2.35914">
        <ele>42.200000762939</ele>
        <time>2022-04-21T10:27:23.000Z</time>
      </trkpt>
      <trkpt lat="47.28241" lon="-2.35914">
        <ele>42.200000762939</ele>
        <time>2022-04-21T10:27:24.000Z</time>
      </trkpt>
      <trkpt lat="47.28222" lon="-2.3591">
        <ele>42.200000762939</ele>
        <time>2022-04-21T10:27:28.000Z</time>
      </trkpt>
      <trkpt lat="47.28198" lon="-2.35905">
        <ele>42.200000762939</ele>
        <time>2022-04-21T10:27:34.000Z</time>
      </trkpt>
      <trkpt lat="47.28192" lon="-2.35897">
        <ele>42.200000762939</ele>
        <time>2022-04-21T10:27:37.000Z</time>
      </trkpt>
      <trkpt lat="47.28191" lon="-2.35891">
        <ele>42.200000762939</ele>
        <time>2022-04-21T10:27:38.000Z</time>
      </trkpt>
      <trkpt lat="47.2819" lon="-2.35875">
        <ele>42.200000762939</ele>
        <time>2022-04-21T10:27:41.000Z</time>
      </trkpt>
      <trkpt lat="47.28188" lon="-2.35861">
        <ele>42.200000762939</ele>
        <time>2022-04-21T10:27:44.000Z</time>
      </trkpt>
      <trkpt lat="47.28186" lon="-2.35856">
        <ele>42.200000762939</ele>
        <time>2022-04-21T10:27:45.000Z</time>
      </trkpt>
      <trkpt lat="47.28177" lon="-2.35848">
        <ele>42.200000762939</ele>
        <time>2022-04-21T10:27:47.000Z</time>
      </trkpt>
      <trkpt lat="47.28159" lon="-2.35829">
        <ele>42.200000762939</ele>
        <time>2022-04-21T10:27:52.000Z</time>
      </trkpt>
      <trkpt lat="47.28151" lon="-2.35798">
        <ele>42.200000762939</ele>
        <time>2022-04-21T10:27:57.000Z</time>
      </trkpt>
      <trkpt lat="47.28145" lon="-2.35769">
        <ele>42.200000762939</ele>
        <time>2022-04-21T10:28:02.000Z</time>
      </trkpt>
      <trkpt lat="47.28127" lon="-2.35766">
        <ele>42.200000762939</ele>
        <time>2022-04-21T10:28:06.000Z</time>
      </trkpt>
      <trkpt lat="47.28116" lon="-2.35768">
        <ele>42.200000762939</ele>
        <time>2022-04-21T10:28:08.000Z</time>
      </trkpt>
      <trkpt lat="47.28111" lon="-2.3577">
        <ele>42.200000762939</ele>
        <time>2022-04-21T10:28:09.000Z</time>
      </trkpt>
      <trkpt lat="47.28107" lon="-2.35774">
        <ele>41.799999237061</ele>
        <time>2022-04-21T10:28:10.000Z</time>
      </trkpt>
      <trkpt lat="47.28105" lon="-2.35778">
        <ele>41.400001525879</ele>
        <time>2022-04-21T10:28:11.000Z</time>
      </trkpt>
      <trkpt lat="47.28102" lon="-2.35782">
        <ele>41</ele>
        <time>2022-04-21T10:28:12.000Z</time>
      </trkpt>
      <trkpt lat="47.281" lon="-2.35788">
        <ele>40.599998474121</ele>
        <time>2022-04-21T10:28:13.000Z</time>
      </trkpt>
      <trkpt lat="47.28097" lon="-2.35792">
        <ele>40.200000762939</ele>
        <time>2022-04-21T10:28:14.000Z</time>
      </trkpt>
      <trkpt lat="47.28091" lon="-2.358">
        <ele>40.200000762939</ele>
        <time>2022-04-21T10:28:16.000Z</time>
      </trkpt>
      <trkpt lat="47.28083" lon="-2.35806">
        <ele>40.200000762939</ele>
        <time>2022-04-21T10:28:20.000Z</time>
      </trkpt>
      <trkpt lat="47.28081" lon="-2.35792">
        <ele>40.200000762939</ele>
        <time>2022-04-21T10:28:24.000Z</time>
      </trkpt>
      <trkpt lat="47.28081" lon="-2.35787">
        <ele>40.599998474121</ele>
        <time>2022-04-21T10:28:25.000Z</time>
      </trkpt>
      <trkpt lat="47.28081" lon="-2.35782">
        <ele>41</ele>
        <time>2022-04-21T10:28:26.000Z</time>
      </trkpt>
      <trkpt lat="47.28082" lon="-2.35777">
        <ele>41.599998474121</ele>
        <time>2022-04-21T10:28:27.000Z</time>
      </trkpt>
      <trkpt lat="47.28083" lon="-2.35772">
        <ele>42</ele>
        <time>2022-04-21T10:28:28.000Z</time>
      </trkpt>
      <trkpt lat="47.28084" lon="-2.35767">
        <ele>42.400001525879</ele>
        <time>2022-04-21T10:28:29.000Z</time>
      </trkpt>
      <trkpt lat="47.28086" lon="-2.35756">
        <ele>42.400001525879</ele>
        <time>2022-04-21T10:28:31.000Z</time>
      </trkpt>
      <trkpt lat="47.28089" lon="-2.3574">
        <ele>42.799999237061</ele>
        <time>2022-04-21T10:28:34.000Z</time>
      </trkpt>
      <trkpt lat="47.2809" lon="-2.35736">
        <ele>43.200000762939</ele>
        <time>2022-04-21T10:28:35.000Z</time>
      </trkpt>
      <trkpt lat="47.28091" lon="-2.35732">
        <ele>43.599998474121</ele>
        <time>2022-04-21T10:28:36.000Z</time>
      </trkpt>
      <trkpt lat="47.28092" lon="-2.35728">
        <ele>44.200000762939</ele>
        <time>2022-04-21T10:28:37.000Z</time>
      </trkpt>
      <trkpt lat="47.28093" lon="-2.35724">
        <ele>44.599998474121</ele>
        <time>2022-04-21T10:28:38.000Z</time>
      </trkpt>
      <trkpt lat="47.28098" lon="-2.35692">
        <ele>44.599998474121</ele>
        <time>2022-04-21T10:28:45.000Z</time>
      </trkpt>
      <trkpt lat="47.28098" lon="-2.35672">
        <ele>44.599998474121</ele>
        <time>2022-04-21T10:28:48.000Z</time>
      </trkpt>
      <trkpt lat="47.28095" lon="-2.35657">
        <ele>44.599998474121</ele>
        <time>2022-04-21T10:28:50.000Z</time>
      </trkpt>
      <trkpt lat="47.28088" lon="-2.35637">
        <ele>44</ele>
        <time>2022-04-21T10:28:52.000Z</time>
      </trkpt>
      <trkpt lat="47.28087" lon="-2.35629">
        <ele>43.400001525879</ele>
        <time>2022-04-21T10:28:53.000Z</time>
      </trkpt>
      <trkpt lat="47.28086" lon="-2.35621">
        <ele>43</ele>
        <time>2022-04-21T10:28:54.000Z</time>
      </trkpt>
      <trkpt lat="47.28084" lon="-2.35613">
        <ele>42.400001525879</ele>
        <time>2022-04-21T10:28:55.000Z</time>
      </trkpt>
      <trkpt lat="47.28082" lon="-2.35605">
        <ele>42</ele>
        <time>2022-04-21T10:28:56.000Z</time>
      </trkpt>
      <trkpt lat="47.28072" lon="-2.3559">
        <ele>42</ele>
        <time>2022-04-21T10:28:59.000Z</time>
      </trkpt>
      <trkpt lat="47.28068" lon="-2.35588">
        <ele>41.400001525879</ele>
        <time>2022-04-21T10:29:00.000Z</time>
      </trkpt>
      <trkpt lat="47.28066" lon="-2.35586">
        <ele>41</ele>
        <time>2022-04-21T10:29:01.000Z</time>
      </trkpt>
      <trkpt lat="47.28064" lon="-2.35584">
        <ele>40.599998474121</ele>
        <time>2022-04-21T10:29:02.000Z</time>
      </trkpt>
      <trkpt lat="47.28063" lon="-2.35583">
        <ele>40.200000762939</ele>
        <time>2022-04-21T10:29:03.000Z</time>
      </trkpt>
      <trkpt lat="47.28062" lon="-2.35582">
        <ele>39.799999237061</ele>
        <time>2022-04-21T10:29:04.000Z</time>
      </trkpt>
      <trkpt lat="47.28054" lon="-2.35579">
        <ele>39.799999237061</ele>
        <time>2022-04-21T10:34:29.000Z</time>
      </trkpt>
      <trkpt lat="47.2805" lon="-2.35579">
        <ele>39.799999237061</ele>
        <time>2022-04-21T10:34:31.000Z</time>
      </trkpt>
      <trkpt lat="47.28035" lon="-2.35573">
        <ele>39.799999237061</ele>
        <time>2022-04-21T10:34:36.000Z</time>
      </trkpt>
      <trkpt lat="47.28027" lon="-2.35567">
        <ele>39.799999237061</ele>
        <time>2022-04-21T10:34:38.000Z</time>
      </trkpt>
      <trkpt lat="47.28019" lon="-2.35565">
        <ele>39.799999237061</ele>
        <time>2022-04-21T10:34:40.000Z</time>
      </trkpt>
      <trkpt lat="47.28011" lon="-2.35565">
        <ele>39.799999237061</ele>
        <time>2022-04-21T10:34:42.000Z</time>
      </trkpt>
      <trkpt lat="47.28003" lon="-2.35569">
        <ele>39.799999237061</ele>
        <time>2022-04-21T10:34:44.000Z</time>
      </trkpt>
      <trkpt lat="47.27995" lon="-2.35571">
        <ele>39.799999237061</ele>
        <time>2022-04-21T10:34:46.000Z</time>
      </trkpt>
      <trkpt lat="47.27976" lon="-2.35577">
        <ele>39.799999237061</ele>
        <time>2022-04-21T10:34:51.000Z</time>
      </trkpt>
      <trkpt lat="47.27954" lon="-2.3558">
        <ele>39.799999237061</ele>
        <time>2022-04-21T10:34:56.000Z</time>
      </trkpt>
      <trkpt lat="47.27925" lon="-2.35587">
        <ele>39.799999237061</ele>
        <time>2022-04-21T10:35:02.000Z</time>
      </trkpt>
      <trkpt lat="47.27894" lon="-2.35593">
        <ele>38.799999237061</ele>
        <time>2022-04-21T10:35:08.000Z</time>
      </trkpt>
      <trkpt lat="47.27888" lon="-2.35594">
        <ele>38.400001525879</ele>
        <time>2022-04-21T10:35:09.000Z</time>
      </trkpt>
      <trkpt lat="47.27883" lon="-2.35595">
        <ele>38</ele>
        <time>2022-04-21T10:35:10.000Z</time>
      </trkpt>
      <trkpt lat="47.27877" lon="-2.35597">
        <ele>37.400001525879</ele>
        <time>2022-04-21T10:35:11.000Z</time>
      </trkpt>
      <trkpt lat="47.27848" lon="-2.35606">
        <ele>37.400001525879</ele>
        <time>2022-04-21T10:35:16.000Z</time>
      </trkpt>
      <trkpt lat="47.27821" lon="-2.35615">
        <ele>37</ele>
        <time>2022-04-21T10:35:21.000Z</time>
      </trkpt>
      <trkpt lat="47.27815" lon="-2.35617">
        <ele>36.599998474121</ele>
        <time>2022-04-21T10:35:22.000Z</time>
      </trkpt>
      <trkpt lat="47.27808" lon="-2.35619">
        <ele>36.200000762939</ele>
        <time>2022-04-21T10:35:23.000Z</time>
      </trkpt>
      <trkpt lat="47.27802" lon="-2.35622">
        <ele>35.799999237061</ele>
        <time>2022-04-21T10:35:24.000Z</time>
      </trkpt>
      <trkpt lat="47.27795" lon="-2.35625">
        <ele>35.400001525879</ele>
        <time>2022-04-21T10:35:25.000Z</time>
      </trkpt>
      <trkpt lat="47.27784" lon="-2.35633">
        <ele>35.400001525879</ele>
        <time>2022-04-21T10:35:27.000Z</time>
      </trkpt>
      <trkpt lat="47.27752" lon="-2.35667">
        <ele>34.599998474121</ele>
        <time>2022-04-21T10:35:33.000Z</time>
      </trkpt>
      <trkpt lat="47.27747" lon="-2.35674">
        <ele>34.200000762939</ele>
        <time>2022-04-21T10:35:34.000Z</time>
      </trkpt>
      <trkpt lat="47.27743" lon="-2.3568">
        <ele>33.799999237061</ele>
        <time>2022-04-21T10:35:35.000Z</time>
      </trkpt>
      <trkpt lat="47.27739" lon="-2.35687">
        <ele>33.400001525879</ele>
        <time>2022-04-21T10:35:36.000Z</time>
      </trkpt>
      <trkpt lat="47.27731" lon="-2.357">
        <ele>33.400001525879</ele>
        <time>2022-04-21T10:35:38.000Z</time>
      </trkpt>
      <trkpt lat="47.27702" lon="-2.3573">
        <ele>33</ele>
        <time>2022-04-21T10:35:44.000Z</time>
      </trkpt>
      <trkpt lat="47.27696" lon="-2.35734">
        <ele>32.599998474121</ele>
        <time>2022-04-21T10:35:45.000Z</time>
      </trkpt>
      <trkpt lat="47.27691" lon="-2.35738">
        <ele>32.200000762939</ele>
        <time>2022-04-21T10:35:46.000Z</time>
      </trkpt>
      <trkpt lat="47.27687" lon="-2.35743">
        <ele>31.60000038147</ele>
        <time>2022-04-21T10:35:47.000Z</time>
      </trkpt>
      <trkpt lat="47.27682" lon="-2.35746">
        <ele>31.200000762939</ele>
        <time>2022-04-21T10:35:48.000Z</time>
      </trkpt>
      <trkpt lat="47.27677" lon="-2.35746">
        <ele>31.200000762939</ele>
        <time>2022-04-21T10:35:49.000Z</time>
      </trkpt>
      <trkpt lat="47.27664" lon="-2.35731">
        <ele>31.200000762939</ele>
        <time>2022-04-21T10:35:52.000Z</time>
      </trkpt>
      <trkpt lat="47.27646" lon="-2.35721">
        <ele>30.799999237061</ele>
        <time>2022-04-21T10:35:55.000Z</time>
      </trkpt>
      <trkpt lat="47.2764" lon="-2.35719">
        <ele>30.39999961853</ele>
        <time>2022-04-21T10:35:56.000Z</time>
      </trkpt>
      <trkpt lat="47.27633" lon="-2.35717">
        <ele>29.60000038147</ele>
        <time>2022-04-21T10:35:57.000Z</time>
      </trkpt>
      <trkpt lat="47.27626" lon="-2.35715">
        <ele>29.200000762939</ele>
        <time>2022-04-21T10:35:58.000Z</time>
      </trkpt>
      <trkpt lat="47.27588" lon="-2.35706">
        <ele>29.200000762939</ele>
        <time>2022-04-21T10:36:04.000Z</time>
      </trkpt>
      <trkpt lat="47.27549" lon="-2.35696">
        <ele>29.200000762939</ele>
        <time>2022-04-21T10:36:10.000Z</time>
      </trkpt>
      <trkpt lat="47.2753" lon="-2.3569">
        <ele>28.799999237061</ele>
        <time>2022-04-21T10:36:13.000Z</time>
      </trkpt>
      <trkpt lat="47.27523" lon="-2.35688">
        <ele>28.39999961853</ele>
        <time>2022-04-21T10:36:14.000Z</time>
      </trkpt>
      <trkpt lat="47.27516" lon="-2.35686">
        <ele>28</ele>
        <time>2022-04-21T10:36:15.000Z</time>
      </trkpt>
      <trkpt lat="47.27509" lon="-2.35685">
        <ele>27.60000038147</ele>
        <time>2022-04-21T10:36:16.000Z</time>
      </trkpt>
      <trkpt lat="47.27502" lon="-2.35683">
        <ele>27.200000762939</ele>
        <time>2022-04-21T10:36:17.000Z</time>
      </trkpt>
      <trkpt lat="47.27457" lon="-2.35671">
        <ele>27.200000762939</ele>
        <time>2022-04-21T10:36:23.000Z</time>
      </trkpt>
      <trkpt lat="47.27444" lon="-2.35668">
        <ele>26.60000038147</ele>
        <time>2022-04-21T10:36:25.000Z</time>
      </trkpt>
      <trkpt lat="47.27437" lon="-2.35667">
        <ele>26.200000762939</ele>
        <time>2022-04-21T10:36:26.000Z</time>
      </trkpt>
      <trkpt lat="47.27431" lon="-2.35666">
        <ele>25.799999237061</ele>
        <time>2022-04-21T10:36:27.000Z</time>
      </trkpt>
      <trkpt lat="47.27425" lon="-2.35665">
        <ele>25.39999961853</ele>
        <time>2022-04-21T10:36:28.000Z</time>
      </trkpt>
      <trkpt lat="47.27418" lon="-2.35665">
        <ele>25</ele>
        <time>2022-04-21T10:36:29.000Z</time>
      </trkpt>
      <trkpt lat="47.27398" lon="-2.35669">
        <ele>25</ele>
        <time>2022-04-21T10:36:32.000Z</time>
      </trkpt>
      <trkpt lat="47.27393" lon="-2.35673">
        <ele>25</ele>
        <time>2022-04-21T10:36:33.000Z</time>
      </trkpt>
      <trkpt lat="47.27361" lon="-2.35698">
        <ele>25</ele>
        <time>2022-04-21T10:36:39.000Z</time>
      </trkpt>
      <trkpt lat="47.27332" lon="-2.35719">
        <ele>25</ele>
        <time>2022-04-21T10:36:45.000Z</time>
      </trkpt>
      <trkpt lat="47.27326" lon="-2.35728">
        <ele>25</ele>
        <time>2022-04-21T10:36:47.000Z</time>
      </trkpt>
      <trkpt lat="47.27318" lon="-2.35741">
        <ele>25</ele>
        <time>2022-04-21T10:36:50.000Z</time>
      </trkpt>
      <trkpt lat="47.27311" lon="-2.35742">
        <ele>25</ele>
        <time>2022-04-21T10:36:52.000Z</time>
      </trkpt>
      <trkpt lat="47.27308" lon="-2.3574">
        <ele>25</ele>
        <time>2022-04-21T10:36:53.000Z</time>
      </trkpt>
      <trkpt lat="47.27304" lon="-2.35728">
        <ele>25</ele>
        <time>2022-04-21T10:36:56.000Z</time>
      </trkpt>
      <trkpt lat="47.27309" lon="-2.35722">
        <ele>25</ele>
        <time>2022-04-21T10:36:59.000Z</time>
      </trkpt>
      <trkpt lat="47.27311" lon="-2.35721">
        <ele>25</ele>
        <time>2022-04-21T10:37:00.000Z</time>
      </trkpt>
      <trkpt lat="47.27323" lon="-2.35718">
        <ele>25</ele>
        <time>2022-04-21T10:37:04.000Z</time>
      </trkpt>
      <trkpt lat="47.27327" lon="-2.35716">
        <ele>25</ele>
        <time>2022-04-21T10:37:05.000Z</time>
      </trkpt>
      <trkpt lat="47.27339" lon="-2.35707">
        <ele>24.60000038147</ele>
        <time>2022-04-21T10:37:08.000Z</time>
      </trkpt>
      <trkpt lat="47.27342" lon="-2.35704">
        <ele>24.200000762939</ele>
        <time>2022-04-21T10:37:09.000Z</time>
      </trkpt>
      <trkpt lat="47.27344" lon="-2.35701">
        <ele>23.60000038147</ele>
        <time>2022-04-21T10:37:10.000Z</time>
      </trkpt>
      <trkpt lat="47.27344" lon="-2.35697">
        <ele>23.200000762939</ele>
        <time>2022-04-21T10:37:11.000Z</time>
      </trkpt>
      <trkpt lat="47.27344" lon="-2.35693">
        <ele>22.799999237061</ele>
        <time>2022-04-21T10:37:12.000Z</time>
      </trkpt>
      <trkpt lat="47.27341" lon="-2.35681">
        <ele>22.799999237061</ele>
        <time>2022-04-21T10:37:15.000Z</time>
      </trkpt>
      <trkpt lat="47.27338" lon="-2.35674">
        <ele>22.799999237061</ele>
        <time>2022-04-21T10:37:16.000Z</time>
      </trkpt>
      <trkpt lat="47.27326" lon="-2.35641">
        <ele>22.799999237061</ele>
        <time>2022-04-21T10:37:21.000Z</time>
      </trkpt>
      <trkpt lat="47.27325" lon="-2.35634">
        <ele>22.799999237061</ele>
        <time>2022-04-21T10:37:22.000Z</time>
      </trkpt>
      <trkpt lat="47.27322" lon="-2.35619">
        <ele>23.200000762939</ele>
        <time>2022-04-21T10:37:24.000Z</time>
      </trkpt>
      <trkpt lat="47.27321" lon="-2.35612">
        <ele>23.799999237061</ele>
        <time>2022-04-21T10:37:25.000Z</time>
      </trkpt>
      <trkpt lat="47.27319" lon="-2.35604">
        <ele>24.200000762939</ele>
        <time>2022-04-21T10:37:26.000Z</time>
      </trkpt>
      <trkpt lat="47.27317" lon="-2.35596">
        <ele>24.60000038147</ele>
        <time>2022-04-21T10:37:27.000Z</time>
      </trkpt>
      <trkpt lat="47.27316" lon="-2.35588">
        <ele>25</ele>
        <time>2022-04-21T10:37:28.000Z</time>
      </trkpt>
      <trkpt lat="47.27312" lon="-2.35572">
        <ele>25</ele>
        <time>2022-04-21T10:37:30.000Z</time>
      </trkpt>
      <trkpt lat="47.27299" lon="-2.35514">
        <ele>25</ele>
        <time>2022-04-21T10:37:37.000Z</time>
      </trkpt>
      <trkpt lat="47.27284" lon="-2.35451">
        <ele>25</ele>
        <time>2022-04-21T10:37:45.000Z</time>
      </trkpt>
      <trkpt lat="47.27272" lon="-2.35403">
        <ele>25</ele>
        <time>2022-04-21T10:37:51.000Z</time>
      </trkpt>
      <trkpt lat="47.27269" lon="-2.35387">
        <ele>25</ele>
        <time>2022-04-21T10:37:53.000Z</time>
      </trkpt>
      <trkpt lat="47.27265" lon="-2.35372">
        <ele>25.39999961853</ele>
        <time>2022-04-21T10:37:55.000Z</time>
      </trkpt>
      <trkpt lat="47.27264" lon="-2.35365">
        <ele>25.799999237061</ele>
        <time>2022-04-21T10:37:56.000Z</time>
      </trkpt>
      <trkpt lat="47.27262" lon="-2.35357">
        <ele>26.200000762939</ele>
        <time>2022-04-21T10:37:57.000Z</time>
      </trkpt>
      <trkpt lat="47.2726" lon="-2.3535">
        <ele>26.60000038147</ele>
        <time>2022-04-21T10:37:58.000Z</time>
      </trkpt>
      <trkpt lat="47.27257" lon="-2.35343">
        <ele>27</ele>
        <time>2022-04-21T10:37:59.000Z</time>
      </trkpt>
      <trkpt lat="47.27245" lon="-2.35302">
        <ele>27</ele>
        <time>2022-04-21T10:38:05.000Z</time>
      </trkpt>
      <trkpt lat="47.27242" lon="-2.35298">
        <ele>27</ele>
        <time>2022-04-21T10:38:06.000Z</time>
      </trkpt>
      <trkpt lat="47.2723" lon="-2.35303">
        <ele>27</ele>
        <time>2022-04-21T10:38:09.000Z</time>
      </trkpt>
      <trkpt lat="47.27226" lon="-2.35308">
        <ele>27.60000038147</ele>
        <time>2022-04-21T10:38:10.000Z</time>
      </trkpt>
      <trkpt lat="47.27222" lon="-2.35313">
        <ele>28</ele>
        <time>2022-04-21T10:38:11.000Z</time>
      </trkpt>
      <trkpt lat="47.27218" lon="-2.35315">
        <ele>28.39999961853</ele>
        <time>2022-04-21T10:38:12.000Z</time>
      </trkpt>
      <trkpt lat="47.27214" lon="-2.35315">
        <ele>28.799999237061</ele>
        <time>2022-04-21T10:38:13.000Z</time>
      </trkpt>
      <trkpt lat="47.27211" lon="-2.35313">
        <ele>29.200000762939</ele>
        <time>2022-04-21T10:38:14.000Z</time>
      </trkpt>
      <trkpt lat="47.27207" lon="-2.35302">
        <ele>29.200000762939</ele>
        <time>2022-04-21T10:38:16.000Z</time>
      </trkpt>
      <trkpt lat="47.27202" lon="-2.35292">
        <ele>29.200000762939</ele>
        <time>2022-04-21T10:38:18.000Z</time>
      </trkpt>
      <trkpt lat="47.27187" lon="-2.35268">
        <ele>29.200000762939</ele>
        <time>2022-04-21T10:38:22.000Z</time>
      </trkpt>
      <trkpt lat="47.27163" lon="-2.35235">
        <ele>29.200000762939</ele>
        <time>2022-04-21T10:38:27.000Z</time>
      </trkpt>
      <trkpt lat="47.27129" lon="-2.35187">
        <ele>29.200000762939</ele>
        <time>2022-04-21T10:38:34.000Z</time>
      </trkpt>
      <trkpt lat="47.27113" lon="-2.35162">
        <ele>28.799999237061</ele>
        <time>2022-04-21T10:38:37.000Z</time>
      </trkpt>
      <trkpt lat="47.27108" lon="-2.35154">
        <ele>28.39999961853</ele>
        <time>2022-04-21T10:38:38.000Z</time>
      </trkpt>
      <trkpt lat="47.27103" lon="-2.35147">
        <ele>27.799999237061</ele>
        <time>2022-04-21T10:38:39.000Z</time>
      </trkpt>
      <trkpt lat="47.27098" lon="-2.3514">
        <ele>27.39999961853</ele>
        <time>2022-04-21T10:38:40.000Z</time>
      </trkpt>
      <trkpt lat="47.27093" lon="-2.35133">
        <ele>27</ele>
        <time>2022-04-21T10:38:41.000Z</time>
      </trkpt>
      <trkpt lat="47.27067" lon="-2.35094">
        <ele>27</ele>
        <time>2022-04-21T10:38:46.000Z</time>
      </trkpt>
      <trkpt lat="47.27046" lon="-2.35062">
        <ele>26.60000038147</ele>
        <time>2022-04-21T10:38:50.000Z</time>
      </trkpt>
      <trkpt lat="47.27041" lon="-2.35054">
        <ele>26.200000762939</ele>
        <time>2022-04-21T10:38:51.000Z</time>
      </trkpt>
      <trkpt lat="47.27036" lon="-2.35047">
        <ele>25.799999237061</ele>
        <time>2022-04-21T10:38:52.000Z</time>
      </trkpt>
      <trkpt lat="47.27031" lon="-2.3504">
        <ele>25.39999961853</ele>
        <time>2022-04-21T10:38:53.000Z</time>
      </trkpt>
      <trkpt lat="47.27026" lon="-2.35032">
        <ele>25</ele>
        <time>2022-04-21T10:38:54.000Z</time>
      </trkpt>
      <trkpt lat="47.27002" lon="-2.34997">
        <ele>25</ele>
        <time>2022-04-21T10:38:59.000Z</time>
      </trkpt>
      <trkpt lat="47.26972" lon="-2.34949">
        <ele>25</ele>
        <time>2022-04-21T10:39:06.000Z</time>
      </trkpt>
      <trkpt lat="47.26941" lon="-2.34902">
        <ele>25</ele>
        <time>2022-04-21T10:39:13.000Z</time>
      </trkpt>
      <trkpt lat="47.26904" lon="-2.3485">
        <ele>25</ele>
        <time>2022-04-21T10:39:21.000Z</time>
      </trkpt>
      <trkpt lat="47.26869" lon="-2.34803">
        <ele>25</ele>
        <time>2022-04-21T10:39:28.000Z</time>
      </trkpt>
      <trkpt lat="47.26843" lon="-2.34764">
        <ele>25</ele>
        <time>2022-04-21T10:39:34.000Z</time>
      </trkpt>
      <trkpt lat="47.26821" lon="-2.34736">
        <ele>25</ele>
        <time>2022-04-21T10:39:39.000Z</time>
      </trkpt>
      <trkpt lat="47.26816" lon="-2.34734">
        <ele>25</ele>
        <time>2022-04-21T10:39:40.000Z</time>
      </trkpt>
      <trkpt lat="47.26803" lon="-2.34744">
        <ele>25</ele>
        <time>2022-04-21T10:39:43.000Z</time>
      </trkpt>
      <trkpt lat="47.268" lon="-2.34749">
        <ele>25</ele>
        <time>2022-04-21T10:39:44.000Z</time>
      </trkpt>
      <trkpt lat="47.2679" lon="-2.34764">
        <ele>25</ele>
        <time>2022-04-21T10:39:47.000Z</time>
      </trkpt>
      <trkpt lat="47.26781" lon="-2.34778">
        <ele>25</ele>
        <time>2022-04-21T10:39:50.000Z</time>
      </trkpt>
      <trkpt lat="47.26771" lon="-2.34791">
        <ele>25</ele>
        <time>2022-04-21T10:39:54.000Z</time>
      </trkpt>
      <trkpt lat="47.26771" lon="-2.34797">
        <ele>25</ele>
        <time>2022-04-21T10:39:55.000Z</time>
      </trkpt>
      <trkpt lat="47.2677" lon="-2.34807">
        <ele>25</ele>
        <time>2022-04-21T10:39:57.000Z</time>
      </trkpt>
      <trkpt lat="47.26762" lon="-2.34804">
        <ele>25</ele>
        <time>2022-04-21T10:40:00.000Z</time>
      </trkpt>
      <trkpt lat="47.26752" lon="-2.3479">
        <ele>25</ele>
        <time>2022-04-21T10:40:03.000Z</time>
      </trkpt>
      <trkpt lat="47.26744" lon="-2.3478">
        <ele>25</ele>
        <time>2022-04-21T10:40:05.000Z</time>
      </trkpt>
      <trkpt lat="47.26709" lon="-2.34739">
        <ele>25</ele>
        <time>2022-04-21T10:40:14.000Z</time>
      </trkpt>
      <trkpt lat="47.26673" lon="-2.34693">
        <ele>25</ele>
        <time>2022-04-21T10:40:22.000Z</time>
      </trkpt>
      <trkpt lat="47.26647" lon="-2.34662">
        <ele>25</ele>
        <time>2022-04-21T10:40:28.000Z</time>
      </trkpt>
      <trkpt lat="47.26643" lon="-2.34657">
        <ele>25</ele>
        <time>2022-04-21T10:40:29.000Z</time>
      </trkpt>
      <trkpt lat="47.2662" lon="-2.34626">
        <ele>25</ele>
        <time>2022-04-21T10:40:35.000Z</time>
      </trkpt>
      <trkpt lat="47.26613" lon="-2.34617">
        <ele>25</ele>
        <time>2022-04-21T10:40:37.000Z</time>
      </trkpt>
      <trkpt lat="47.26597" lon="-2.34597">
        <ele>25</ele>
        <time>2022-04-21T10:40:41.000Z</time>
      </trkpt>
      <trkpt lat="47.26555" lon="-2.34552">
        <ele>25</ele>
        <time>2022-04-21T10:40:50.000Z</time>
      </trkpt>
      <trkpt lat="47.26513" lon="-2.34514">
        <ele>25</ele>
        <time>2022-04-21T10:40:58.000Z</time>
      </trkpt>
      <trkpt lat="47.26472" lon="-2.34486">
        <ele>25</ele>
        <time>2022-04-21T10:41:05.000Z</time>
      </trkpt>
      <trkpt lat="47.26436" lon="-2.3446">
        <ele>25</ele>
        <time>2022-04-21T10:41:12.000Z</time>
      </trkpt>
      <trkpt lat="47.26393" lon="-2.34428">
        <ele>25</ele>
        <time>2022-04-21T10:41:20.000Z</time>
      </trkpt>
      <trkpt lat="47.2636" lon="-2.34397">
        <ele>25</ele>
        <time>2022-04-21T10:41:27.000Z</time>
      </trkpt>
      <trkpt lat="47.2634" lon="-2.3438">
        <ele>25</ele>
        <time>2022-04-21T10:41:31.000Z</time>
      </trkpt>
      <trkpt lat="47.26328" lon="-2.34377">
        <ele>25</ele>
        <time>2022-04-21T10:41:33.000Z</time>
      </trkpt>
      <trkpt lat="47.26323" lon="-2.34373">
        <ele>25</ele>
        <time>2022-04-21T10:41:34.000Z</time>
      </trkpt>
      <trkpt lat="47.26314" lon="-2.34362">
        <ele>25</ele>
        <time>2022-04-21T10:41:36.000Z</time>
      </trkpt>
      <trkpt lat="47.26298" lon="-2.34341">
        <ele>25</ele>
        <time>2022-04-21T10:41:40.000Z</time>
      </trkpt>
      <trkpt lat="47.26294" lon="-2.34336">
        <ele>25</ele>
        <time>2022-04-21T10:41:41.000Z</time>
      </trkpt>
      <trkpt lat="47.26268" lon="-2.34308">
        <ele>25</ele>
        <time>2022-04-21T10:41:47.000Z</time>
      </trkpt>
      <trkpt lat="47.2623" lon="-2.34269">
        <ele>25</ele>
        <time>2022-04-21T10:41:55.000Z</time>
      </trkpt>
      <trkpt lat="47.26197" lon="-2.34235">
        <ele>25</ele>
        <time>2022-04-21T10:42:02.000Z</time>
      </trkpt>
      <trkpt lat="47.26161" lon="-2.34199">
        <ele>25</ele>
        <time>2022-04-21T10:42:10.000Z</time>
      </trkpt>
      <trkpt lat="47.26146" lon="-2.34186">
        <ele>25</ele>
        <time>2022-04-21T10:42:14.000Z</time>
      </trkpt>
      <trkpt lat="47.26141" lon="-2.34185">
        <ele>25</ele>
        <time>2022-04-21T10:42:15.000Z</time>
      </trkpt>
      <trkpt lat="47.26125" lon="-2.34171">
        <ele>25</ele>
        <time>2022-04-21T10:42:19.000Z</time>
      </trkpt>
      <trkpt lat="47.26121" lon="-2.34166">
        <ele>25</ele>
        <time>2022-04-21T10:42:20.000Z</time>
      </trkpt>
      <trkpt lat="47.26106" lon="-2.34156">
        <ele>25</ele>
        <time>2022-04-21T10:42:23.000Z</time>
      </trkpt>
      <trkpt lat="47.261" lon="-2.34153">
        <ele>25</ele>
        <time>2022-04-21T10:42:24.000Z</time>
      </trkpt>
      <trkpt lat="47.26072" lon="-2.34138">
        <ele>25</ele>
        <time>2022-04-21T10:42:29.000Z</time>
      </trkpt>
      <trkpt lat="47.26023" lon="-2.34114">
        <ele>25</ele>
        <time>2022-04-21T10:42:37.000Z</time>
      </trkpt>
      <trkpt lat="47.25971" lon="-2.3409">
        <ele>25</ele>
        <time>2022-04-21T10:42:46.000Z</time>
      </trkpt>
      <trkpt lat="47.25931" lon="-2.34072">
        <ele>25</ele>
        <time>2022-04-21T10:42:53.000Z</time>
      </trkpt>
      <trkpt lat="47.25924" lon="-2.34071">
        <ele>25</ele>
        <time>2022-04-21T10:42:54.000Z</time>
      </trkpt>
      <trkpt lat="47.25906" lon="-2.34067">
        <ele>25</ele>
        <time>2022-04-21T10:42:57.000Z</time>
      </trkpt>
      <trkpt lat="47.25896" lon="-2.34045">
        <ele>25</ele>
        <time>2022-04-21T10:43:00.000Z</time>
      </trkpt>
      <trkpt lat="47.25897" lon="-2.34017">
        <ele>25</ele>
        <time>2022-04-21T10:43:03.000Z</time>
      </trkpt>
      <trkpt lat="47.25909" lon="-2.33993">
        <ele>25</ele>
        <time>2022-04-21T10:43:06.000Z</time>
      </trkpt>
      <trkpt lat="47.25911" lon="-2.33984">
        <ele>25</ele>
        <time>2022-04-21T10:43:07.000Z</time>
      </trkpt>
      <trkpt lat="47.2592" lon="-2.3396">
        <ele>24.60000038147</ele>
        <time>2022-04-21T10:43:10.000Z</time>
      </trkpt>
      <trkpt lat="47.25923" lon="-2.33953">
        <ele>24.200000762939</ele>
        <time>2022-04-21T10:43:11.000Z</time>
      </trkpt>
      <trkpt lat="47.25926" lon="-2.33946">
        <ele>23.799999237061</ele>
        <time>2022-04-21T10:43:12.000Z</time>
      </trkpt>
      <trkpt lat="47.2593" lon="-2.33939">
        <ele>23.39999961853</ele>
        <time>2022-04-21T10:43:13.000Z</time>
      </trkpt>
      <trkpt lat="47.25934" lon="-2.33933">
        <ele>23</ele>
        <time>2022-04-21T10:43:14.000Z</time>
      </trkpt>
      <trkpt lat="47.25945" lon="-2.33916">
        <ele>23</ele>
        <time>2022-04-21T10:43:17.000Z</time>
      </trkpt>
      <trkpt lat="47.2595" lon="-2.33902">
        <ele>23</ele>
        <time>2022-04-21T10:43:19.000Z</time>
      </trkpt>
      <trkpt lat="47.25965" lon="-2.33858">
        <ele>23</ele>
        <time>2022-04-21T10:43:25.000Z</time>
      </trkpt>
      <trkpt lat="47.25984" lon="-2.33804">
        <ele>23</ele>
        <time>2022-04-21T10:43:32.000Z</time>
      </trkpt>
      <trkpt lat="47.25989" lon="-2.33786">
        <ele>23</ele>
        <time>2022-04-21T10:43:34.000Z</time>
      </trkpt>
      <trkpt lat="47.25998" lon="-2.3376">
        <ele>23</ele>
        <time>2022-04-21T10:43:37.000Z</time>
      </trkpt>
      <trkpt lat="47.2602" lon="-2.33689">
        <ele>23</ele>
        <time>2022-04-21T10:43:45.000Z</time>
      </trkpt>
      <trkpt lat="47.26028" lon="-2.33669">
        <ele>23</ele>
        <time>2022-04-21T10:43:48.000Z</time>
      </trkpt>
      <trkpt lat="47.26032" lon="-2.33667">
        <ele>23</ele>
        <time>2022-04-21T10:43:49.000Z</time>
      </trkpt>
      <trkpt lat="47.26046" lon="-2.33667">
        <ele>23</ele>
        <time>2022-04-21T10:43:53.000Z</time>
      </trkpt>
      <trkpt lat="47.26053" lon="-2.33668">
        <ele>23</ele>
        <time>2022-04-21T10:43:56.000Z</time>
      </trkpt>
      <trkpt lat="47.26056" lon="-2.33666">
        <ele>23</ele>
        <time>2022-04-21T10:43:57.000Z</time>
      </trkpt>
      <trkpt lat="47.26061" lon="-2.33649">
        <ele>23</ele>
        <time>2022-04-21T10:44:00.000Z</time>
      </trkpt>
      <trkpt lat="47.26062" lon="-2.33643">
        <ele>23</ele>
        <time>2022-04-21T10:44:01.000Z</time>
      </trkpt>
      <trkpt lat="47.26064" lon="-2.33639">
        <ele>23</ele>
        <time>2022-04-21T10:44:02.000Z</time>
      </trkpt>
      <trkpt lat="47.26071" lon="-2.33639">
        <ele>23</ele>
        <time>2022-04-21T10:44:04.000Z</time>
      </trkpt>
      <trkpt lat="47.2608" lon="-2.33632">
        <ele>23</ele>
        <time>2022-04-21T10:44:07.000Z</time>
      </trkpt>
      <trkpt lat="47.26083" lon="-2.33621">
        <ele>23</ele>
        <time>2022-04-21T10:44:09.000Z</time>
      </trkpt>
      <trkpt lat="47.26091" lon="-2.33598">
        <ele>23</ele>
        <time>2022-04-21T10:44:13.000Z</time>
      </trkpt>
      <trkpt lat="47.26108" lon="-2.33563">
        <ele>23</ele>
        <time>2022-04-21T10:44:19.000Z</time>
      </trkpt>
      <trkpt lat="47.26132" lon="-2.33518">
        <ele>23</ele>
        <time>2022-04-21T10:44:26.000Z</time>
      </trkpt>
      <trkpt lat="47.26138" lon="-2.33506">
        <ele>23</ele>
        <time>2022-04-21T10:44:28.000Z</time>
      </trkpt>
      <trkpt lat="47.26143" lon="-2.33484">
        <ele>23</ele>
        <time>2022-04-21T10:44:31.000Z</time>
      </trkpt>
      <trkpt lat="47.26144" lon="-2.33477">
        <ele>23</ele>
        <time>2022-04-21T10:44:32.000Z</time>
      </trkpt>
      <trkpt lat="47.26145" lon="-2.33471">
        <ele>23</ele>
        <time>2022-04-21T10:44:33.000Z</time>
      </trkpt>
      <trkpt lat="47.26145" lon="-2.33462">
        <ele>23</ele>
        <time>2022-04-21T10:44:35.000Z</time>
      </trkpt>
      <trkpt lat="47.26144" lon="-2.33456">
        <ele>23</ele>
        <time>2022-04-21T10:44:38.000Z</time>
      </trkpt>
      <trkpt lat="47.26142" lon="-2.33452">
        <ele>23</ele>
        <time>2022-04-21T10:44:40.000Z</time>
      </trkpt>
      <trkpt lat="47.26136" lon="-2.33445">
        <ele>23</ele>
        <time>2022-04-21T10:44:43.000Z</time>
      </trkpt>
      <trkpt lat="47.26135" lon="-2.3344">
        <ele>23</ele>
        <time>2022-04-21T10:44:44.000Z</time>
      </trkpt>
      <trkpt lat="47.26128" lon="-2.33418">
        <ele>23</ele>
        <time>2022-04-21T10:44:49.000Z</time>
      </trkpt>
      <trkpt lat="47.26114" lon="-2.33398">
        <ele>23</ele>
        <time>2022-04-21T10:44:54.000Z</time>
      </trkpt>
      <trkpt lat="47.26111" lon="-2.33394">
        <ele>23</ele>
        <time>2022-04-21T10:44:55.000Z</time>
      </trkpt>
      <trkpt lat="47.26099" lon="-2.33383">
        <ele>23</ele>
        <time>2022-04-21T10:44:58.000Z</time>
      </trkpt>
      <trkpt lat="47.26096" lon="-2.33378">
        <ele>23</ele>
        <time>2022-04-21T10:44:59.000Z</time>
      </trkpt>
      <trkpt lat="47.26072" lon="-2.3334">
        <ele>23</ele>
        <time>2022-04-21T10:45:06.000Z</time>
      </trkpt>
      <trkpt lat="47.2605" lon="-2.33281">
        <ele>23</ele>
        <time>2022-04-21T10:45:14.000Z</time>
      </trkpt>
      <trkpt lat="47.2603" lon="-2.33215">
        <ele>23</ele>
        <time>2022-04-21T10:45:22.000Z</time>
      </trkpt>
      <trkpt lat="47.26005" lon="-2.33141">
        <ele>23</ele>
        <time>2022-04-21T10:45:31.000Z</time>
      </trkpt>
      <trkpt lat="47.26002" lon="-2.33133">
        <ele>23</ele>
        <time>2022-04-21T10:45:32.000Z</time>
      </trkpt>
      <trkpt lat="47.25994" lon="-2.33108">
        <ele>23</ele>
        <time>2022-04-21T10:45:35.000Z</time>
      </trkpt>
      <trkpt lat="47.25987" lon="-2.3308">
        <ele>23</ele>
        <time>2022-04-21T10:45:38.000Z</time>
      </trkpt>
      <trkpt lat="47.25971" lon="-2.33041">
        <ele>23</ele>
        <time>2022-04-21T10:45:43.000Z</time>
      </trkpt>
      <trkpt lat="47.25958" lon="-2.32997">
        <ele>23</ele>
        <time>2022-04-21T10:45:48.000Z</time>
      </trkpt>
      <trkpt lat="47.25938" lon="-2.32938">
        <ele>23</ele>
        <time>2022-04-21T10:45:55.000Z</time>
      </trkpt>
      <trkpt lat="47.25918" lon="-2.32889">
        <ele>23</ele>
        <time>2022-04-21T10:46:01.000Z</time>
      </trkpt>
      <trkpt lat="47.25898" lon="-2.32831">
        <ele>23</ele>
        <time>2022-04-21T10:46:08.000Z</time>
      </trkpt>
      <trkpt lat="47.25878" lon="-2.32774">
        <ele>23</ele>
        <time>2022-04-21T10:46:15.000Z</time>
      </trkpt>
      <trkpt lat="47.25875" lon="-2.32766">
        <ele>23</ele>
        <time>2022-04-21T10:46:16.000Z</time>
      </trkpt>
      <trkpt lat="47.25864" lon="-2.32722">
        <ele>23</ele>
        <time>2022-04-21T10:46:22.000Z</time>
      </trkpt>
      <trkpt lat="47.25857" lon="-2.327">
        <ele>23</ele>
        <time>2022-04-21T10:46:26.000Z</time>
      </trkpt>
      <trkpt lat="47.2585" lon="-2.32679">
        <ele>23</ele>
        <time>2022-04-21T10:46:29.000Z</time>
      </trkpt>
      <trkpt lat="47.25848" lon="-2.32671">
        <ele>23</ele>
        <time>2022-04-21T10:46:30.000Z</time>
      </trkpt>
      <trkpt lat="47.25835" lon="-2.32619">
        <ele>23</ele>
        <time>2022-04-21T10:46:36.000Z</time>
      </trkpt>
      <trkpt lat="47.25815" lon="-2.32539">
        <ele>23</ele>
        <time>2022-04-21T10:46:45.000Z</time>
      </trkpt>
      <trkpt lat="47.25813" lon="-2.32531">
        <ele>23</ele>
        <time>2022-04-21T10:46:46.000Z</time>
      </trkpt>
      <trkpt lat="47.258" lon="-2.32479">
        <ele>23</ele>
        <time>2022-04-21T10:46:53.000Z</time>
      </trkpt>
      <trkpt lat="47.25806" lon="-2.32463">
        <ele>23</ele>
        <time>2022-04-21T10:46:56.000Z</time>
      </trkpt>
      <trkpt lat="47.25809" lon="-2.32459">
        <ele>23</ele>
        <time>2022-04-21T10:46:57.000Z</time>
      </trkpt>
      <trkpt lat="47.25816" lon="-2.32455">
        <ele>23</ele>
        <time>2022-04-21T10:46:59.000Z</time>
      </trkpt>
      <trkpt lat="47.2582" lon="-2.32458">
        <ele>23</ele>
        <time>2022-04-21T10:47:00.000Z</time>
      </trkpt>
      <trkpt lat="47.25839" lon="-2.3247">
        <ele>23</ele>
        <time>2022-04-21T10:47:04.000Z</time>
      </trkpt>
      <trkpt lat="47.2586" lon="-2.32474">
        <ele>23</ele>
        <time>2022-04-21T10:47:08.000Z</time>
      </trkpt>
      <trkpt lat="47.25866" lon="-2.32474">
        <ele>23</ele>
        <time>2022-04-21T10:47:09.000Z</time>
      </trkpt>
      <trkpt lat="47.25887" lon="-2.32469">
        <ele>23</ele>
        <time>2022-04-21T10:47:13.000Z</time>
      </trkpt>
      <trkpt lat="47.25897" lon="-2.32458">
        <ele>23</ele>
        <time>2022-04-21T10:47:15.000Z</time>
      </trkpt>
      <trkpt lat="47.25908" lon="-2.32449">
        <ele>23</ele>
        <time>2022-04-21T10:47:17.000Z</time>
      </trkpt>
      <trkpt lat="47.25918" lon="-2.32438">
        <ele>23</ele>
        <time>2022-04-21T10:47:19.000Z</time>
      </trkpt>
      <trkpt lat="47.25922" lon="-2.32431">
        <ele>23</ele>
        <time>2022-04-21T10:47:20.000Z</time>
      </trkpt>
      <trkpt lat="47.25951" lon="-2.32395">
        <ele>23</ele>
        <time>2022-04-21T10:47:26.000Z</time>
      </trkpt>
      <trkpt lat="47.25988" lon="-2.32346">
        <ele>23</ele>
        <time>2022-04-21T10:47:34.000Z</time>
      </trkpt>
      <trkpt lat="47.2603" lon="-2.32294">
        <ele>23</ele>
        <time>2022-04-21T10:47:43.000Z</time>
      </trkpt>
      <trkpt lat="47.26069" lon="-2.32249">
        <ele>23</ele>
        <time>2022-04-21T10:47:51.000Z</time>
      </trkpt>
      <trkpt lat="47.261" lon="-2.32207">
        <ele>23</ele>
        <time>2022-04-21T10:47:58.000Z</time>
      </trkpt>
      <trkpt lat="47.26103" lon="-2.32199">
        <ele>23</ele>
        <time>2022-04-21T10:47:59.000Z</time>
      </trkpt>
      <trkpt lat="47.26114" lon="-2.32179">
        <ele>23</ele>
        <time>2022-04-21T10:48:02.000Z</time>
      </trkpt>
      <trkpt lat="47.2612" lon="-2.32163">
        <ele>23</ele>
        <time>2022-04-21T10:48:04.000Z</time>
      </trkpt>
      <trkpt lat="47.26133" lon="-2.32122">
        <ele>23</ele>
        <time>2022-04-21T10:48:09.000Z</time>
      </trkpt>
      <trkpt lat="47.26135" lon="-2.32114">
        <ele>23</ele>
        <time>2022-04-21T10:48:10.000Z</time>
      </trkpt>
      <trkpt lat="47.26152" lon="-2.32052">
        <ele>23</ele>
        <time>2022-04-21T10:48:18.000Z</time>
      </trkpt>
      <trkpt lat="47.2616" lon="-2.32031">
        <ele>23</ele>
        <time>2022-04-21T10:48:21.000Z</time>
      </trkpt>
      <trkpt lat="47.26169" lon="-2.32022">
        <ele>23</ele>
        <time>2022-04-21T10:48:23.000Z</time>
      </trkpt>
      <trkpt lat="47.26182" lon="-2.32022">
        <ele>23</ele>
        <time>2022-04-21T10:48:26.000Z</time>
      </trkpt>
      <trkpt lat="47.26188" lon="-2.32024">
        <ele>23</ele>
        <time>2022-04-21T10:48:28.000Z</time>
      </trkpt>
      <trkpt lat="47.26192" lon="-2.32025">
        <ele>23</ele>
        <time>2022-04-21T10:48:30.000Z</time>
      </trkpt>
      <trkpt lat="47.26196" lon="-2.32026">
        <ele>23</ele>
        <time>2022-04-21T10:48:32.000Z</time>
      </trkpt>
      <trkpt lat="47.26198" lon="-2.32022">
        <ele>23</ele>
        <time>2022-04-21T10:48:34.000Z</time>
      </trkpt>
      <trkpt lat="47.262" lon="-2.32015">
        <ele>23</ele>
        <time>2022-04-21T10:48:36.000Z</time>
      </trkpt>
      <trkpt lat="47.26206" lon="-2.32006">
        <ele>23</ele>
        <time>2022-04-21T10:48:39.000Z</time>
      </trkpt>
      <trkpt lat="47.2622" lon="-2.31985">
        <ele>23</ele>
        <time>2022-04-21T10:48:44.000Z</time>
      </trkpt>
      <trkpt lat="47.26234" lon="-2.31977">
        <ele>23</ele>
        <time>2022-04-21T10:48:48.000Z</time>
      </trkpt>
      <trkpt lat="47.26239" lon="-2.31969">
        <ele>23</ele>
        <time>2022-04-21T10:48:50.000Z</time>
      </trkpt>
      <trkpt lat="47.26242" lon="-2.31958">
        <ele>23</ele>
        <time>2022-04-21T10:48:52.000Z</time>
      </trkpt>
      <trkpt lat="47.26252" lon="-2.31937">
        <ele>23</ele>
        <time>2022-04-21T10:48:57.000Z</time>
      </trkpt>
      <trkpt lat="47.26261" lon="-2.3192">
        <ele>23</ele>
        <time>2022-04-21T10:49:01.000Z</time>
      </trkpt>
      <trkpt lat="47.26276" lon="-2.31901">
        <ele>23</ele>
        <time>2022-04-21T10:49:06.000Z</time>
      </trkpt>
      <trkpt lat="47.26282" lon="-2.31891">
        <ele>23</ele>
        <time>2022-04-21T10:49:08.000Z</time>
      </trkpt>
      <trkpt lat="47.26285" lon="-2.31879">
        <ele>23</ele>
        <time>2022-04-21T10:49:10.000Z</time>
      </trkpt>
      <trkpt lat="47.26289" lon="-2.31866">
        <ele>23</ele>
        <time>2022-04-21T10:49:12.000Z</time>
      </trkpt>
      <trkpt lat="47.26295" lon="-2.31842">
        <ele>23</ele>
        <time>2022-04-21T10:49:16.000Z</time>
      </trkpt>
      <trkpt lat="47.263" lon="-2.31809">
        <ele>23</ele>
        <time>2022-04-21T10:49:22.000Z</time>
      </trkpt>
      <trkpt lat="47.26304" lon="-2.31778">
        <ele>23</ele>
        <time>2022-04-21T10:49:27.000Z</time>
      </trkpt>
      <trkpt lat="47.26302" lon="-2.31738">
        <ele>23</ele>
        <time>2022-04-21T10:49:33.000Z</time>
      </trkpt>
      <trkpt lat="47.263" lon="-2.31728">
        <ele>23</ele>
        <time>2022-04-21T10:49:37.000Z</time>
      </trkpt>
      <trkpt lat="47.26299" lon="-2.31725">
        <ele>23</ele>
        <time>2022-04-21T10:49:40.000Z</time>
      </trkpt>
      <trkpt lat="47.26304" lon="-2.31717">
        <ele>23</ele>
        <time>2022-04-21T10:49:47.000Z</time>
      </trkpt>
      <trkpt lat="47.26308" lon="-2.31716">
        <ele>23</ele>
        <time>2022-04-21T10:49:49.000Z</time>
      </trkpt>
      <trkpt lat="47.26317" lon="-2.31712">
        <ele>23</ele>
        <time>2022-04-21T10:49:56.000Z</time>
      </trkpt>
      <trkpt lat="47.26319" lon="-2.31709">
        <ele>23</ele>
        <time>2022-04-21T10:49:59.000Z</time>
      </trkpt>
      <trkpt lat="47.26325" lon="-2.31706">
        <ele>23</ele>
        <time>2022-04-21T10:50:57.000Z</time>
      </trkpt>
      <trkpt lat="47.26327" lon="-2.31704">
        <ele>23</ele>
        <time>2022-04-21T10:50:58.000Z</time>
      </trkpt>
      <trkpt lat="47.26331" lon="-2.31694">
        <ele>23</ele>
        <time>2022-04-21T10:51:01.000Z</time>
      </trkpt>
      <trkpt lat="47.26334" lon="-2.3169">
        <ele>23</ele>
        <time>2022-04-21T10:51:02.000Z</time>
      </trkpt>
      <trkpt lat="47.26337" lon="-2.31688">
        <ele>23</ele>
        <time>2022-04-21T10:51:03.000Z</time>
      </trkpt>
      <trkpt lat="47.26339" lon="-2.31687">
        <ele>23.39999961853</ele>
        <time>2022-04-21T10:51:04.000Z</time>
      </trkpt>
      <trkpt lat="47.26342" lon="-2.31686">
        <ele>23.799999237061</ele>
        <time>2022-04-21T10:51:05.000Z</time>
      </trkpt>
      <trkpt lat="47.26345" lon="-2.31685">
        <ele>24.200000762939</ele>
        <time>2022-04-21T10:51:06.000Z</time>
      </trkpt>
      <trkpt lat="47.26348" lon="-2.31683">
        <ele>24.60000038147</ele>
        <time>2022-04-21T10:51:07.000Z</time>
      </trkpt>
      <trkpt lat="47.2635" lon="-2.31682">
        <ele>25</ele>
        <time>2022-04-21T10:51:08.000Z</time>
      </trkpt>
      <trkpt lat="47.26364" lon="-2.31675">
        <ele>25</ele>
        <time>2022-04-21T10:51:13.000Z</time>
      </trkpt>
      <trkpt lat="47.26382" lon="-2.31667">
        <ele>25.39999961853</ele>
        <time>2022-04-21T10:51:19.000Z</time>
      </trkpt>
      <trkpt lat="47.26385" lon="-2.31665">
        <ele>25.799999237061</ele>
        <time>2022-04-21T10:51:20.000Z</time>
      </trkpt>
      <trkpt lat="47.26388" lon="-2.31663">
        <ele>26.200000762939</ele>
        <time>2022-04-21T10:51:21.000Z</time>
      </trkpt>
      <trkpt lat="47.26391" lon="-2.31662">
        <ele>26.60000038147</ele>
        <time>2022-04-21T10:51:22.000Z</time>
      </trkpt>
      <trkpt lat="47.26395" lon="-2.3166">
        <ele>27</ele>
        <time>2022-04-21T10:51:23.000Z</time>
      </trkpt>
      <trkpt lat="47.26406" lon="-2.31654">
        <ele>27</ele>
        <time>2022-04-21T10:51:27.000Z</time>
      </trkpt>
      <trkpt lat="47.26408" lon="-2.3165">
        <ele>27</ele>
        <time>2022-04-21T10:51:28.000Z</time>
      </trkpt>
      <trkpt lat="47.26411" lon="-2.3164">
        <ele>27</ele>
        <time>2022-04-21T10:51:30.000Z</time>
      </trkpt>
      <trkpt lat="47.26413" lon="-2.31622">
        <ele>27</ele>
        <time>2022-04-21T10:51:34.000Z</time>
      </trkpt>
      <trkpt lat="47.26412" lon="-2.31585">
        <ele>27</ele>
        <time>2022-04-21T10:51:41.000Z</time>
      </trkpt>
      <trkpt lat="47.26414" lon="-2.31554">
        <ele>27</ele>
        <time>2022-04-21T10:51:48.000Z</time>
      </trkpt>
      <trkpt lat="47.26419" lon="-2.31552">
        <ele>27.39999961853</ele>
        <time>2022-04-21T10:51:51.000Z</time>
      </trkpt>
      <trkpt lat="47.2642" lon="-2.31553">
        <ele>27.799999237061</ele>
        <time>2022-04-21T10:51:52.000Z</time>
      </trkpt>
      <trkpt lat="47.26421" lon="-2.31554">
        <ele>28.200000762939</ele>
        <time>2022-04-21T10:51:53.000Z</time>
      </trkpt>
      <trkpt lat="47.26421" lon="-2.31554">
        <ele>28.60000038147</ele>
        <time>2022-04-21T10:51:54.000Z</time>
      </trkpt>
    </trkseg>
  </trk>
</gpx>